# Wetter Temperatur Luftdruck Luftfeuchtigkeit Sichtweite Windgeschwindigkeit Windrichtung Zeit
1 Rain 18 1025 77 9656 1.5 70 19:57 17.10.2019
2 Rain 18 1025 77 9656 1.5 70 19:38 17.10.2019
3 Rain 18 1026 87 6437 3.6 40 19:19 17.10.2019
4 Rain 17 1026 87 4828 3.1 30 18:43 17.10.2019
5 Rain 16 1026 82 3219 2.6 70 18:21 17.10.2019
6 Mist 16 1026 87 8047 3.1 20 17:58 17.10.2019
7 Clouds 16 1026 87 8047 3.1 20 17:40 17.10.2019
8 Clouds 16 1026 87 8047 3.1 20 17:22 17.10.2019
9 Rain 15 1025 93 4828 3.6 20 16:56 17.10.2019
10 Rain 15 1025 93 4828 3.6 20 16:37 17.10.2019
11 Rain 15 1025 93 4828 3.6 20 16:18 17.10.2019
12 Rain 15 1025 87 4828 3.1 360 15:55 17.10.2019
13 Rain 15 1025 87 4828 3.1 360 15:37 17.10.2019
14 Rain 15 1025 87 4828 3.1 360 15:18 17.10.2019
15 Rain 15 1024 87 6437 2.6 340 14:42 17.10.2019
16 Rain 15 1024 87 6437 2.6 340 14:23 17.10.2019
17 Rain 13 1024 87 4828 2.1 20 13:54 17.10.2019
18 Rain 13 1024 87 4828 2.1 20 13:36 17.10.2019
19 Rain 14 1024 87 8047 2.1 320 13:18 17.10.2019
20 Clouds 13 1024 93 6437 2.1 310 12:41 17.10.2019
21 Clouds 13 1024 93 6437 2.1 310 12:20 17.10.2019
22 Rain 14 1024 93 6437 2.1 340 11:58 17.10.2019
23 Rain 14 1024 93 6437 2.1 340 11:40 17.10.2019
24 Rain 14 1024 93 6437 2.1 340 11:19 17.10.2019
25 Rain 14 1025 93 4828 4.1 20 10:54 17.10.2019
26 Rain 14 1025 93 4828 4.1 20 10:54 17.10.2019
27 Rain 14 1025 93 4828 4.1 20 10:54 17.10.2019
28 Rain 14 1025 93 4828 4.1 20 10:36 17.10.2019
29 Rain 14 1025 93 4828 4.1 20 10:18 17.10.2019
30 Rain 14 1025 93 4828 4.1 20 10:18 17.10.2019
31 Rain 14 1025 93 4828 2.6 10 09:41 17.10.2019
32 Rain 14 1025 87 9656 4.1 340 09:21 17.10.2019
33 Rain 14 1025 82 12874 5.1 360 08:58 17.10.2019
34 Rain 14 1025 82 12874 5.1 360 08:39 17.10.2019
35 Clouds 15 1025 72 16093 4.6 20 08:20 17.10.2019
36 Clouds 15 1025 72 16093 5.1 360 07:54 17.10.2019
37 Clouds 15 1025 72 16093 5.1 360 07:54 17.10.2019
38 Clouds 15 1025 72 16093 5.1 360 07:36 17.10.2019
39 Clouds 15 1025 72 16093 5.1 360 07:18 17.10.2019
40 Rain 15 1027 82 9656 4.1 40 06:39 17.10.2019
41 Clouds 15 1025 72 16093 3.6 340 06:20 17.10.2019
42 Rain 16 1023 67 16093 5.7 340 05:49 17.10.2019
43 Rain 16 1023 67 16093 5.7 340 05:30 17.10.2019
44 Rain 16 1024 67 16093 4.1 340 04:51 17.10.2019
45 Clouds 17 1023 59 14484 7.2 40 03:54 17.10.2019
46 Clouds 19 1022 59 11265 8.2 30 02:36 17.10.2019
47 Rain 20 1022 63 8047 4.6 30 00:56 17.10.2019
48 Rain 20 1022 63 8047 4.6 30 00:38 17.10.2019
49 Rain 20 1022 63 8047 4.6 30 00:18 17.10.2019
50 Clouds 19 1022 56 11265 6.7 360 23:42 16.10.2019
51 Clouds 21 1022 56 11265 6.7 360 23:20 16.10.2019
52 Clouds 22 1022 52 11265 6.2 10 22:55 16.10.2019
53 Clouds 22 1022 52 11265 6.2 10 22:36 16.10.2019
54 Clouds 22 1022 52 11265 6.2 10 22:18 16.10.2019
55 Clouds 22 1023 52 12874 4.6 340 21:56 16.10.2019
56 Clouds 22 1023 52 12874 4.6 340 21:37 16.10.2019
57 Clouds 22 1023 52 12874 4.6 340 21:18 16.10.2019
58 Clouds 22 1024 49 12874 4.6 330 20:56 16.10.2019
59 Clouds 22 1024 49 12874 4.6 330 20:38 16.10.2019
60 Clouds 22 1024 49 12874 4.6 330 20:20 16.10.2019
61 Clouds 22 1025 56 12874 1 320 19:56 16.10.2019
62 Clouds 21 1025 56 12874 1 320 19:38 16.10.2019
63 Clouds 21 1025 56 12874 1 320 19:19 16.10.2019
64 Clouds 20 1025 56 12874 2.6 30 18:39 16.10.2019
65 Clouds 19 1026 63 12874 1.5 300 18:19 16.10.2019
66 Clouds 18 1025 63 11265 1.5 50 17:56 16.10.2019
67 Clouds 18 1025 63 11265 1.5 50 17:38 16.10.2019
68 Clouds 18 1025 63 11265 1.5 50 17:19 16.10.2019
69 Clouds 17 1025 67 9656 2.6 10 16:58 16.10.2019
70 Clouds 17 1025 67 9656 2.6 10 16:39 16.10.2019
71 Clouds 17 1025 67 9656 2.6 10 16:20 16.10.2019
72 Clouds 15 1024 67 9656 2.1 280 15:55 16.10.2019
73 Clouds 16 1024 67 9656 2.1 280 15:36 16.10.2019
74 Clouds 16 1024 72 9656 4.1 280 15:18 16.10.2019
75 Clouds 16 1024 72 9656 4.1 280 15:18 16.10.2019
76 Clouds 15 1024 72 9656 4.1 280 14:55 16.10.2019
77 Clouds 15 1024 72 9656 4.1 280 14:36 16.10.2019
78 Clouds 14 1024 72 9656 4.1 280 14:18 16.10.2019
79 Clouds 14 1024 72 9656 3.1 280 13:42 16.10.2019
80 Clouds 14 1024 72 9656 3.1 280 13:23 16.10.2019
81 Clouds 15 1024 67 9656 3.1 20 12:57 16.10.2019
82 Clouds 14 1024 67 9656 3.1 20 12:39 16.10.2019
83 Clouds 15 1024 67 9656 3.1 20 12:18 16.10.2019
84 Clouds 14 1024 67 9656 4.1 20 11:42 16.10.2019
85 Clouds 14 1024 67 9656 4.1 20 11:42 16.10.2019
86 Rain 14 1024 72 9656 4.1 30 11:18 16.10.2019
87 Rain 14 1024 72 9656 4.1 30 11:18 16.10.2019
88 Clouds 15 1024 63 11265 5.1 310 10:38 16.10.2019
89 Clouds 15 1024 63 11265 5.1 310 10:20 16.10.2019
90 Clouds 15 1025 63 12874 4.6 290 09:55 16.10.2019
91 Clouds 15 1025 63 12874 4.6 290 09:37 16.10.2019
92 Clouds 15 1025 63 12874 4.6 290 09:19 16.10.2019
93 Clouds 16 1025 52 12874 4.6 300 08:42 16.10.2019
94 Clouds 16 1025 52 12874 4.6 300 08:24 16.10.2019
95 Clouds 17 1025 45 12874 5.1 300 07:45 16.10.2019
96 Clouds 17 1025 45 12874 5.1 300 07:45 16.10.2019
97 Clouds 17 1025 45 12874 5.1 300 07:25 16.10.2019
98 Clouds 17 1025 45 12874 5.1 300 07:24 16.10.2019
99 Clouds 17 1025 48 14484 5.1 340 06:56 16.10.2019
100 Clouds 17 1025 48 14484 5.1 340 06:35 16.10.2019
101 Clouds 18 1024 42 16093 5.1 10 05:39 16.10.2019
102 Clouds 23 1021 31 12874 5.1 350 02:57 16.10.2019
103 Clouds 23 1021 31 12874 5.1 350 02:37 16.10.2019
104 Clouds 25 1021 26 12874 4.1 300 01:18 16.10.2019
105 Clouds 26 1021 24 11265 3.6 240 00:46 16.10.2019
106 Clouds 26 1021 24 11265 3.6 240 00:25 16.10.2019
107 Clouds 26 1022 26 9656 4.6 360 23:39 15.10.2019
108 Clouds 26 1022 26 9656 4.6 360 23:21 15.10.2019
109 Clouds 26 1022 29 9656 2.6 70 22:55 15.10.2019
110 Clouds 25 1022 29 9656 2.6 70 22:37 15.10.2019
111 Clouds 25 1023 33 9656 2.6 340 22:19 15.10.2019
112 Clouds 25 1023 31 9656 2.437 329 21:55 15.10.2019
113 Clouds 25 1023 31 9656 2.437 329 21:55 15.10.2019
114 Clouds 24 1023 31 9656 2.234 332 21:37 15.10.2019
115 Clouds 24 1024 40 8047 4.1 350 21:19 15.10.2019
116 Clouds 23 1025 43 8047 2.1 10 20:57 15.10.2019
117 Clouds 23 1025 43 8047 2.1 10 20:38 15.10.2019
118 Clouds 23 1025 43 8047 2.1 10 20:19 15.10.2019
119 Clouds 22 1026 43 8047 2.412 337 19:56 15.10.2019
120 Clouds 22 1026 43 8047 2.412 337 19:56 15.10.2019
121 Clouds 22 1026 43 8047 2.412 337 19:37 15.10.2019
122 Clouds 22 1026 43 8047 2.412 337 19:37 15.10.2019
123 Clouds 21 1027 56 8047 1.5 270 19:19 15.10.2019
124 Clouds 19 1027 59 9656 2.1 110 18:44 15.10.2019
125 Clouds 19 1027 59 9656 2.1 110 18:26 15.10.2019
126 Clouds 16 1027 59 9656 2.092 359 17:56 15.10.2019
127 Clouds 16 1027 59 9656 2.092 359 17:38 15.10.2019
128 Clouds 16 1027 63 9656 2.1 90 17:19 15.10.2019
129 Clouds 15 1027 77 9656 3.1 80 16:45 15.10.2019
130 Clouds 15 1027 77 9656 3.1 80 16:45 15.10.2019
131 Clouds 15 1027 82 9656 3.1 80 16:22 15.10.2019
132 Clouds 13 1027 81 9656 2.6 70 15:58 15.10.2019
133 Clouds 13 1027 81 9656 2.6 70 15:40 15.10.2019
134 Clouds 13 1027 81 9656 2.6 70 15:40 15.10.2019
135 Clouds 12 1027 81 9656 2.6 70 15:20 15.10.2019
136 Fog 13 1028 93 805 1.92 10 14:56 15.10.2019
137 Clouds 11 1026 81 12874 3.1 90 14:37 15.10.2019
138 Clouds 11 1026 81 12874 3.1 90 14:19 15.10.2019
139 Fog 12 1028 93 805 2.1 320 13:43 15.10.2019
140 Clouds 12 1026 76 11265 2.6 60 13:21 15.10.2019
141 Clouds 12 1026 71 11265 2.6 60 12:59 15.10.2019
142 Clouds 12 1026 71 11265 2.6 60 12:59 15.10.2019
143 Clouds 13 1026 71 11265 2.6 60 12:38 15.10.2019
144 Clouds 13 1026 71 11265 2.6 60 12:20 15.10.2019
145 Clouds 13 1028 87 11265 2.64 19 11:44 15.10.2019
146 Clouds 13 1028 87 11265 2.64 19 11:20 15.10.2019
147 Clouds 14 1027 67 14484 3.1 60 10:57 15.10.2019
148 Clouds 14 1027 67 14484 3.1 60 10:39 15.10.2019
149 Clouds 14 1027 67 14484 3.1 60 10:19 15.10.2019
150 Clouds 14 1027 63 16093 4.1 330 09:56 15.10.2019
151 Clouds 14 1027 63 16093 4.1 330 09:37 15.10.2019
152 Clouds 14 1027 63 16093 4.1 330 09:19 15.10.2019
153 Clouds 15 1027 59 17702 3.1 300 08:41 15.10.2019
154 Clouds 15 1027 59 17702 3.1 300 08:21 15.10.2019
155 Clouds 16 1027 59 17702 3.1 290 07:55 15.10.2019
156 Clouds 16 1027 59 17702 3.1 290 07:36 15.10.2019
157 Clouds 16 1027 59 17702 3.1 290 07:18 15.10.2019
158 Clouds 16 1027 55 17702 4.1 300 06:43 15.10.2019
159 Clouds 16 1027 55 17702 4.1 300 06:20 15.10.2019
160 Clouds 17 1026 55 17702 4.1 340 05:37 15.10.2019
161 Clouds 18 1025 49 16093 5.1 360 04:54 15.10.2019
162 Clouds 18 1025 49 16093 5.1 360 04:20 15.10.2019
163 Clouds 19 1025 49 16093 4.6 360 03:35 15.10.2019
164 Clouds 19 1025 49 16093 4.6 360 03:35 15.10.2019
165 Clouds 22 1023 46 12874 5.1 110 02:19 15.10.2019
166 Clouds 25 1022 29 12874 4.6 340 01:41 15.10.2019
167 Clouds 25 1022 29 12874 4.6 340 01:18 15.10.2019
168 Clouds 25 1022 22 14484 3.1 330 00:26 15.10.2019
169 Clouds 26 1022 21 12874 2.6 60 23:59 14.10.2019
170 Clouds 26 1022 21 12874 2.6 60 23:38 14.10.2019
171 Clouds 26 1022 21 12874 2.6 60 23:19 14.10.2019
172 Clouds 26 1024 26 12874 2.6 130 22:40 14.10.2019
173 Clouds 26 1024 26 12874 2.6 130 22:21 14.10.2019
174 Clouds 25 1025 33 11265 5.7 330 21:59 14.10.2019
175 Clouds 25 1025 33 11265 5.7 330 21:40 14.10.2019
176 Clouds 25 1025 33 11265 5.7 330 21:40 14.10.2019
177 Clouds 25 1025 33 11265 5.7 330 21:21 14.10.2019
178 Clouds 24 1025 36 11265 2.6 280 20:58 14.10.2019
179 Clouds 23 1026 43 11265 2.35 70.856 20:38 14.10.2019
180 Clouds 23 1026 43 11265 2.35 70.856 20:19 14.10.2019
181 Clouds 22 1027 49 8047 2.1 60 19:56 14.10.2019
182 Clouds 22 1027 49 8047 2.1 60 19:37 14.10.2019
183 Clouds 22 1027 49 8047 2.1 60 19:19 14.10.2019
184 Clouds 20 1027 52 8047 3.1 350 18:57 14.10.2019
185 Clouds 20 1027 63 9656 1.5 270 18:37 14.10.2019
186 Clouds 19 1027 63 9656 1.5 270 18:18 14.10.2019
187 Clouds 18 1028 68 9656 1.5 60 17:41 14.10.2019
188 Clouds 18 1028 77 9656 1.5 120 17:23 14.10.2019
189 Ash 15 1027 82 9656 2.6 80 16:54 14.10.2019
190 Ash 15 1027 82 9656 2.6 80 16:36 14.10.2019
191 Ash 15 1027 82 9656 2.6 80 16:18 14.10.2019
192 Ash 14 1027 82 9656 2.6 90 15:40 14.10.2019
193 Ash 14 1027 82 9656 2.6 90 15:21 14.10.2019
194 Ash 13 1026 82 9656 2.6 100 14:44 14.10.2019
195 Clouds 12 1026 82 9656 2.6 100 14:25 14.10.2019
196 Clear 12 1026 77 9656 1.5 70 13:58 14.10.2019
197 Clear 13 1026 77 9656 1.5 70 13:40 14.10.2019
198 Clear 13 1026 77 9656 1.5 70 13:20 14.10.2019
199 Clear 14 1026 82 11265 2.1 300 12:41 14.10.2019
200 Clear 14 1026 82 11265 2.1 300 12:21 14.10.2019
201 Clear 14 1026 72 12874 3.1 310 11:55 14.10.2019
202 Clear 14 1026 72 12874 3.1 310 11:54 14.10.2019
203 Clear 14 1026 72 12874 3.1 310 11:36 14.10.2019
204 Clear 14 1026 72 12874 3.1 310 11:18 14.10.2019
205 Clouds 15 1027 59 14484 3.1 280 10:43 14.10.2019
206 Clouds 15 1027 59 14484 3.1 280 10:21 14.10.2019
207 Clouds 15 1027 59 14484 3.1 280 10:21 14.10.2019
208 Clouds 16 1027 55 14484 3.6 300 09:57 14.10.2019
209 Clouds 16 1027 55 14484 3.6 300 09:38 14.10.2019
210 Clouds 16 1027 55 14484 3.6 300 09:19 14.10.2019
211 Clouds 16 1027 55 12874 3.6 320 08:46 14.10.2019
212 Clouds 17 1027 55 12874 3.6 320 08:23 14.10.2019
213 Clouds 17 1027 63 12874 0.65 1.776 07:44 14.10.2019
214 Clouds 17 1027 63 12874 0.65 1.776 07:21 14.10.2019
215 Clouds 17 1026 63 12874 2.1 10 06:54 14.10.2019
216 Clouds 17 1026 63 12874 2.1 10 06:27 14.10.2019
217 Clouds 18 1026 59 11265 2.6 110 05:51 14.10.2019
218 Clouds 18 1025 59 12874 2.6 80 04:50 14.10.2019
219 Thunderstorm 18 1025 63 11265 4.6 30 03:48 14.10.2019
220 -273 0 0 0 0 0 03:21 14.10.2019
221 Clouds 24 1022 46 11265 6.2 120 01:36 14.10.2019
222 Clouds 25 1022 31 11265 3.1 100 01:18 14.10.2019
223 Clouds 25 1022 31 11265 3.1 100 00:23 14.10.2019
224 Clouds 24 1023 33 9656 2.6 310 23:46 13.10.2019
225 Ash 25 1023 33 9656 2.6 310 23:21 13.10.2019
226 Ash 25 1024 38 9656 3.6 90 23:00 13.10.2019
227 Ash 25 1024 38 9656 3.6 90 22:41 13.10.2019
228 Ash 25 1024 38 9656 3.6 90 22:22 13.10.2019
229 Ash 25 1024 38 9656 3.6 90 22:22 13.10.2019
230 Ash 24 1024 38 9656 4.6 80 21:58 13.10.2019
231 Ash 24 1024 38 9656 4.6 80 21:38 13.10.2019
232 Ash 23 1025 40 9656 2.08 75.076 21:19 13.10.2019
233 Ash 22 1026 46 9656 3.6 90 20:58 13.10.2019
234 Ash 22 1026 46 9656 3.6 90 20:40 13.10.2019
235 Ash 22 1026 46 9656 3.6 90 20:21 13.10.2019
236 Clear 21 1027 52 8047 1.5 310 20:00 13.10.2019
237 Clear 21 1027 52 8047 1.5 310 19:39 13.10.2019
238 Clear 21 1027 52 8047 1.5 310 19:39 13.10.2019
239 Clear 21 1027 52 8047 1.5 310 19:39 13.10.2019
240 Clear 21 1027 52 8047 1.5 310 19:21 13.10.2019
241 Haze 20 1027 52 8047 2.1 210 18:59 13.10.2019
242 Haze 20 1027 52 8047 2.1 210 18:59 13.10.2019
243 Haze 20 1027 52 8047 2.1 210 18:58 13.10.2019
244 -273 0 0 0 0 0 18:58 13.10.2019
245 Haze 20 1027 52 8047 2.1 210 18:38 13.10.2019
246 Haze 20 1027 52 8047 2.1 210 18:38 13.10.2019
247 Haze 19 1027 59 6437 1.19 59.89 18:19 13.10.2019
248 Mist 18 1027 72 8047 2.1 110 17:58 13.10.2019
249 Mist 18 1027 72 8047 2.1 110 17:39 13.10.2019
250 Mist 18 1027 72 8047 2.1 110 17:21 13.10.2019
251 Mist 16 1027 72 8047 1.5 110 16:43 13.10.2019
252 Mist 15 1027 82 8047 1.19 59.89 16:19 13.10.2019
253 Mist 14 1027 93 8047 3.6 80 15:57 13.10.2019
254 Mist 14 1027 93 8047 3.6 80 15:57 13.10.2019
255 Mist 14 1027 93 8047 3.6 80 15:57 13.10.2019
256 Mist 13 1027 93 8047 3.6 80 15:38 13.10.2019
257 Mist 13 1027 93 8047 3.6 80 15:19 13.10.2019
258 Clouds 13 1026 87 8047 3.6 90 14:57 13.10.2019
259 Clouds 13 1026 87 8047 3.6 90 14:38 13.10.2019
260 Clouds 13 1026 87 8047 3.6 90 14:19 13.10.2019
261 Clouds 12 1026 82 11265 2.1 90 13:42 13.10.2019
262 Clouds 12 1026 82 11265 2.1 90 13:23 13.10.2019
263 Clouds 12 1026 82 11265 2.1 90 13:23 13.10.2019
264 Clouds 12 1026 87 12874 2.1 50 12:59 13.10.2019
265 Clouds 12 1026 87 12874 2.1 50 12:39 13.10.2019
266 Clouds 12 1026 87 12874 2.1 50 12:21 13.10.2019
267 Clouds 12 1026 82 16093 2.6 100 11:59 13.10.2019
268 Clouds 13 1026 82 16093 2.6 100 11:39 13.10.2019
269 Clouds 13 1026 82 16093 2.6 100 11:20 13.10.2019
270 Clear 13 1026 72 16093 2.6 90 10:57 13.10.2019
271 Clear 13 1026 72 16093 2.6 90 10:38 13.10.2019
272 Clear 13 1026 72 16093 2.6 90 10:20 13.10.2019
273 Clear 12 1026 76 16093 2.1 80 09:39 13.10.2019
274 Clear 14 1027 67 16093 2.6 310 09:21 13.10.2019
275 Clouds 14 1027 67 19312 3.6 310 08:44 13.10.2019
276 Clouds 14 1027 67 19312 3.6 310 08:25 13.10.2019
277 Clouds 14 1027 67 19312 3.1 290 07:52 13.10.2019
278 Clouds 14 1027 67 19312 3.1 290 07:33 13.10.2019
279 Clouds 15 1026 59 19312 3.1 340 06:53 13.10.2019
280 Clouds 16 1026 59 19312 3.1 340 06:24 13.10.2019
281 Clouds 18 1025 68 19312 4.1 70 05:19 13.10.2019
282 Clouds 18 1025 56 16093 3.1 120 04:34 13.10.2019
283 Clouds 18 1025 56 16093 3.1 120 04:34 13.10.2019
284 Clouds 22 1024 35 16093 4.1 40 02:53 13.10.2019
285 Clouds 22 1024 35 16093 4.1 40 02:30 13.10.2019
286 Clouds 23 1024 38 12874 5.7 50 01:36 13.10.2019
287 Clouds 23 1024 38 12874 5.7 50 01:36 13.10.2019
288 Clouds 24 1024 38 12874 5.1 70 00:55 13.10.2019
289 Clouds 24 1024 38 12874 5.1 70 00:37 13.10.2019
290 Clouds 24 1024 38 12874 5.1 70 00:37 13.10.2019
291 Clouds 24 1024 38 12874 5.1 70 00:18 13.10.2019
292 Clouds 25 1024 38 12874 3.6 68.364 23:41 12.10.2019
293 Clouds 25 1024 38 12874 3.6 68.364 23:22 12.10.2019
294 Clouds 24 1025 38 12874 3.1 150 22:58 12.10.2019
295 Clouds 24 1025 38 12874 3.1 150 22:58 12.10.2019
296 Clouds 24 1025 38 12874 3.1 150 22:40 12.10.2019
297 Clouds 24 1025 38 12874 3.1 150 22:40 12.10.2019
298 Clouds 24 1025 38 12874 3.1 150 22:22 12.10.2019
299 Clouds 23 1026 40 12874 2.1 260 21:57 12.10.2019
300 Clouds 23 1026 40 12874 2.1 260 21:39 12.10.2019
301 Clouds 23 1026 40 12874 2.1 260 21:20 12.10.2019
302 Clouds 22 1026 43 12874 3.1 220 20:46 12.10.2019
303 Clouds 22 1027 49 12874 2.6 340 20:28 12.10.2019
304 Clouds 22 1028 49 12874 1.5 240 19:57 12.10.2019
305 Clouds 21 1028 49 12874 1.5 240 19:36 12.10.2019
306 Clouds 21 1028 49 12874 1.5 240 19:18 12.10.2019
307 Clouds 19 1028 55 16093 1.5 240 18:41 12.10.2019
308 Mist 20 1028 55 16093 1.5 240 18:23 12.10.2019
309 Mist 18 1027 59 16093 2.6 40 17:45 12.10.2019
310 Mist 18 1027 59 16093 2.6 40 17:21 12.10.2019
311 Mist 16 1027 67 16093 2.6 360 16:58 12.10.2019
312 Mist 16 1027 67 16093 2.6 360 16:58 12.10.2019
313 Mist 16 1027 67 16093 2.6 360 16:40 12.10.2019
314 Mist 16 1027 67 16093 2.6 360 16:19 12.10.2019
315 Mist 15 1026 72 12874 3.1 350 15:45 12.10.2019
316 Fog 16 1026 72 12874 3.1 350 15:26 12.10.2019
317 Fog 16 1026 72 14484 3.1 20 14:59 12.10.2019
318 Fog 16 1026 72 14484 3.1 20 14:38 12.10.2019
319 Fog 16 1026 72 14484 3.1 20 14:20 12.10.2019
320 Clouds 15 1026 72 14484 2.6 320 13:49 12.10.2019
321 Clouds 15 1026 72 14484 2.6 320 13:31 12.10.2019
322 Clouds 15 1025 72 14484 4.1 20 12:55 12.10.2019
323 Clouds 15 1025 72 14484 4.1 20 12:37 12.10.2019
324 Clouds 15 1025 72 14484 4.1 20 12:18 12.10.2019
325 Clouds 15 1025 63 12874 2.6 10 11:40 12.10.2019
326 Clouds 16 1025 63 12874 2.6 10 11:22 12.10.2019
327 Clouds 15 1026 63 11265 3.6 20 10:57 12.10.2019
328 Clouds 15 1026 63 11265 3.6 20 10:37 12.10.2019
329 Clouds 16 1026 63 11265 3.6 20 10:19 12.10.2019
330 -273 0 0 0 0 0 09:56 12.10.2019
331 Clouds 15 1026 63 11265 3.1 360 09:56 12.10.2019
332 Clouds 15 1026 63 11265 3.1 360 09:37 12.10.2019
333 Clouds 16 1026 63 11265 3.1 360 09:19 12.10.2019
334 Clouds 15 1027 67 11265 5.1 360 08:42 12.10.2019
335 Clouds 16 1027 67 11265 5.1 360 08:22 12.10.2019
336 Clouds 16 1027 68 11265 5.1 350 07:40 12.10.2019
337 Clouds 16 1027 68 11265 5.1 350 07:22 12.10.2019
338 Rain 16 1026 63 12874 7.2 20 05:54 12.10.2019
339 Rain 17 1026 63 12874 7.2 20 05:25 12.10.2019
340 Thunderstorm 18 1025 59 11265 5.1 20 04:29 12.10.2019
341 Clouds 19 1024 60 8047 7.2 30 03:46 12.10.2019
342 Thunderstorm 20 1024 72 4828 8.7 90 02:37 12.10.2019
343 Rain 22 1022 63 8047 10.3 60 01:31 12.10.2019
344 Clouds 25 1022 28 11265 6.7 30 00:44 12.10.2019
345 Clouds 26 1022 28 11265 6.7 30 00:24 12.10.2019
346 Clouds 25 1022 29 9656 3.6 310 23:41 11.10.2019
347 Clouds 25 1022 29 9656 3.6 310 23:21 11.10.2019
348 Clouds 25 1023 33 9656 2.1 320 22:59 11.10.2019
349 Clouds 25 1023 33 9656 2.1 320 22:37 11.10.2019
350 Clouds 25 1023 33 9656 2.1 320 22:37 11.10.2019
351 Clouds 25 1023 33 9656 2.1 320 22:18 11.10.2019
352 Clouds 26 1024 33 9656 6.2 340 21:40 11.10.2019
353 Clouds 24 1024 33 9656 6.2 340 21:21 11.10.2019
354 Clouds 23 1025 44 9656 3.1 290 20:54 11.10.2019
355 Clouds 23 1025 44 9656 3.1 290 20:54 11.10.2019
356 Clouds 23 1025 44 9656 3.1 290 20:36 11.10.2019
357 Clouds 23 1025 44 9656 3.1 290 20:18 11.10.2019
358 Clouds 22 1026 49 9656 3.1 310 19:54 11.10.2019
359 Clouds 22 1026 49 9656 3.1 310 19:54 11.10.2019
360 Clouds 22 1026 49 9656 3.1 310 19:36 11.10.2019
361 Clouds 22 1026 49 9656 3.1 310 19:18 11.10.2019
362 Clouds 22 1026 49 9656 3.1 310 19:18 11.10.2019
363 Clouds 20 1027 56 9656 1.5 30 18:39 11.10.2019
364 Clouds 20 1027 56 9656 1.5 30 18:19 11.10.2019
365 Drizzle 19 1027 63 9656 0.84 35.411 17:59 11.10.2019
366 Drizzle 18 1027 63 9656 0.84 35.411 17:38 11.10.2019
367 Drizzle 18 1027 63 9656 0.84 35.411 17:19 11.10.2019
368 Rain 17 1027 63 9656 0.84 35.411 16:59 11.10.2019
369 Rain 17 1027 63 9656 0.84 35.411 16:39 11.10.2019
370 Rain 17 1027 63 9656 0.84 35.411 16:39 11.10.2019
371 Rain 17 1027 63 9656 0.84 35.411 16:39 11.10.2019
372 Rain 17 1027 72 9656 2.1 70 16:19 11.10.2019
373 Fog 15 1026 77 9656 3.1 60 15:55 11.10.2019
374 Fog 15 1026 77 9656 3.1 60 15:36 11.10.2019
375 Fog 15 1026 77 9656 3.1 60 15:18 11.10.2019
376 Fog 15 1026 77 9656 3.1 60 15:18 11.10.2019
377 Thunderstorm 15 1025 77 11265 2.1 80 14:42 11.10.2019
378 Thunderstorm 15 1025 77 11265 2.1 80 14:23 11.10.2019
379 Clouds 14 1025 77 11265 1.5 60 13:47 11.10.2019
380 Clouds 14 1025 77 11265 1.5 60 13:26 11.10.2019
381 Clouds 14 1025 82 12874 2.1 60 12:58 11.10.2019
382 Clouds 14 1025 82 12874 2.1 60 12:40 11.10.2019
383 Clouds 14 1025 82 12874 2.1 60 12:21 11.10.2019
384 Clouds 14 1025 77 12874 1 30 11:59 11.10.2019
385 Clouds 14 1025 77 12874 1 30 11:39 11.10.2019
386 Clouds 14 1025 77 12874 1 30 11:21 11.10.2019
387 Clouds 15 1025 72 14484 3.1 40 10:56 11.10.2019
388 Clouds 15 1025 72 14484 3.1 40 10:37 11.10.2019
389 Clouds 16 1025 72 14484 3.1 40 10:18 11.10.2019
390 Rain 16 1025 63 16093 1.38 293.962 09:42 11.10.2019
391 Rain 16 1025 63 16093 0.65 212.857 09:21 11.10.2019
392 Clouds 16 1025 72 17702 2.1 350 08:59 11.10.2019
393 Clouds 16 1025 72 17702 2.1 350 08:39 11.10.2019
394 Clouds 17 1025 72 17702 2.1 350 08:20 11.10.2019
395 Clouds 17 1028 87 8047 3.1 300 07:54 11.10.2019
396 Rain 17 1025 68 17702 3.1 280 07:34 11.10.2019
397 Clouds 17 1026 68 16093 2.6 30 06:50 11.10.2019
398 Clouds 17 1026 68 16093 2.6 30 06:25 11.10.2019
399 Clouds 18 1025 56 16093 4.1 60 05:48 11.10.2019
400 Clouds 18 1025 56 16093 4.1 60 05:30 11.10.2019
401 Clouds 19 1024 49 14484 4.6 110 04:58 11.10.2019
402 Clouds 18 1023 49 14484 2.1 330 03:40 11.10.2019
403 Clouds 23 1021 38 11265 5.7 120 01:26 11.10.2019
404 Thunderstorm 24 1021 36 11265 6.2 130 00:41 11.10.2019
405 Thunderstorm 23 1021 49 9656 3.1 50 00:20 11.10.2019
406 Rain 23 1022 60 8047 5.7 50 23:41 10.10.2019
407 Rain 23 1022 60 8047 5.7 50 23:20 10.10.2019
408 Rain 24 1022 38 9656 4.1 110 22:56 10.10.2019
409 Clouds 24 1023 36 9656 3.6 90 22:36 10.10.2019
410 Clouds 25 1023 36 9656 3.6 90 22:18 10.10.2019
411 Clouds 25 1023 34 9656 1.5 230 21:42 10.10.2019
412 Clouds 25 1023 34 9656 1.5 230 21:42 10.10.2019
413 Clouds 24 1024 38 9656 4.1 110 21:22 10.10.2019
414 Clouds 24 1024 38 8047 2.6 170 20:59 10.10.2019
415 Clouds 23 1024 38 8047 2.6 170 20:40 10.10.2019
416 Clouds 23 1025 46 6437 1.5 40 20:20 10.10.2019
417 Clouds 22 1026 49 8047 2.1 30 19:57 10.10.2019
418 Clouds 22 1026 49 8047 2.1 30 19:39 10.10.2019
419 Clouds 21 1027 60 8047 2.1 130 19:19 10.10.2019
420 Clouds 19 1027 63 8047 2.1 30 18:42 10.10.2019
421 Clouds 19 1027 63 8047 2.1 30 18:21 10.10.2019
422 Haze 18 1027 63 8047 1 160 17:59 10.10.2019
423 Haze 18 1027 63 8047 1 160 17:40 10.10.2019
424 Haze 18 1027 72 8047 3.1 80 17:19 10.10.2019
425 Haze 17 1029 77 4828 2.1 90 16:57 10.10.2019
426 Haze 16 1027 72 9656 2.6 90 16:38 10.10.2019
427 Haze 16 1027 72 9656 2.6 90 16:20 10.10.2019
428 Haze 14 1026 82 9656 2.6 60 15:42 10.10.2019
429 Haze 14 1026 82 9656 2.6 60 15:23 10.10.2019
430 Rain 15 1026 82 8047 2.1 80 14:59 10.10.2019
431 Rain 15 1026 82 8047 2.1 80 14:37 10.10.2019
432 Rain 15 1026 82 8047 2.1 80 14:19 10.10.2019
433 Clouds 14 1025 82 8047 3.1 90 13:58 10.10.2019
434 Clouds 14 1025 82 8047 3.1 90 13:39 10.10.2019
435 Clouds 14 1025 82 8047 3.1 90 13:18 10.10.2019
436 Rain 14 1025 82 8047 3.1 90 12:42 10.10.2019
437 Clouds 14 1025 77 8047 1.5 260 12:21 10.10.2019
438 Clouds 14 1025 72 9656 0.93 44.344 11:58 10.10.2019
439 Clouds 14 1025 72 9656 0.93 44.344 11:40 10.10.2019
440 Clouds 14 1025 72 9656 0.93 44.344 11:19 10.10.2019
441 Clouds 14 1025 72 9656 1.5 80 10:47 10.10.2019
442 Clouds 14 1025 72 9656 1.5 80 10:47 10.10.2019
443 Clouds 14 1025 72 9656 1.5 80 10:28 10.10.2019
444 Clouds 14 1025 72 9656 1.5 80 10:28 10.10.2019
445 Clouds 15 1025 67 11265 2.1 310 09:59 10.10.2019
446 Clouds 15 1025 67 11265 2.1 310 09:41 10.10.2019
447 Clouds 15 1025 67 11265 2.1 310 09:23 10.10.2019
448 Clouds 15 1026 67 11265 2.6 280 08:59 10.10.2019
449 Clouds 15 1026 67 11265 2.6 280 08:40 10.10.2019
450 Clouds 16 1026 67 11265 2.6 280 08:20 10.10.2019
451 Clouds 16 1026 63 12874 2.6 20 07:47 10.10.2019
452 Clouds 16 1026 63 12874 2.6 20 07:26 10.10.2019
453 Clouds 16 1025 63 12874 3.6 20 06:55 10.10.2019
454 Clouds 17 1025 63 12874 3.6 20 06:36 10.10.2019
455 Clouds 17 1025 59 12874 4.1 360 05:39 10.10.2019
456 Clouds 17 1025 59 12874 4.1 360 05:18 10.10.2019
457 Rain 18 1023 60 16093 5.1 20 04:34 10.10.2019
458 Thunderstorm 20 1022 63 9656 5.1 300 02:29 10.10.2019
459 Rain 22 1022 46 12874 4.1 310 01:37 10.10.2019
460 Ash 22 1022 49 12874 3.6 300 01:18 10.10.2019
461 Rain 23 1022 35 11265 4.6 360 00:29 10.10.2019
462 Ash 25 1022 33 14484 2.6 110 23:42 09.10.2019
463 Ash 25 1022 33 14484 2.6 110 23:24 09.10.2019
464 Clouds 24 1024 36 14484 4.1 60 22:59 09.10.2019
465 Clouds 24 1024 36 14484 4.1 60 22:41 09.10.2019
466 Clouds 24 1024 36 14484 4.1 60 22:22 09.10.2019
467 Clouds 23 1025 38 16093 1.5 210 21:56 09.10.2019
468 Clouds 23 1025 38 16093 1.5 210 21:56 09.10.2019
469 Clouds 23 1025 38 16093 1.5 210 21:38 09.10.2019
470 Clouds 23 1025 38 16093 1.5 210 21:38 09.10.2019
471 Clouds 23 1025 38 16093 1.5 210 21:18 09.10.2019
472 Clouds 22 1027 43 16093 3.1 90 20:54 09.10.2019
473 Clouds 22 1027 43 16093 3.1 90 20:36 09.10.2019
474 Clouds 22 1027 43 16093 3.1 90 20:18 09.10.2019
475 Clouds 22 1027 43 16093 3.1 90 20:18 09.10.2019
476 Clouds 22 1027 43 16093 3.1 90 20:18 09.10.2019
477 Clouds 21 1027 45 16093 1.5 140 19:43 09.10.2019
478 Clouds 21 1027 45 16093 1.5 140 19:22 09.10.2019
479 Clouds 19 1028 48 16093 1.5 50 18:39 09.10.2019
480 Clouds 19 1028 48 16093 1.5 50 18:21 09.10.2019
481 Haze 18 1028 52 16093 3.1 20 17:58 09.10.2019
482 Haze 18 1028 52 16093 3.1 20 17:40 09.10.2019
483 Haze 18 1028 52 16093 3.1 20 17:22 09.10.2019
484 Haze 15 1028 63 16093 3.6 20 16:57 09.10.2019
485 Haze 15 1028 63 16093 3.6 20 16:39 09.10.2019
486 Haze 15 1028 63 16093 3.6 20 16:20 09.10.2019
487 Haze 15 1028 63 16093 3.6 20 16:20 09.10.2019
488 Haze 14 1027 67 16093 3.6 360 15:56 09.10.2019
489 Haze 14 1027 67 16093 3.6 360 15:37 09.10.2019
490 Haze 14 1027 67 16093 3.6 360 15:37 09.10.2019
491 Haze 14 1027 67 16093 3.6 360 15:18 09.10.2019
492 Clouds 13 1027 67 19312 4.1 10 14:45 09.10.2019
493 Clouds 12 1027 67 19312 4.1 10 14:19 09.10.2019
494 Clouds 12 1026 67 19312 4.1 350 13:59 09.10.2019
495 Clouds 13 1026 67 19312 4.1 350 13:38 09.10.2019
496 Clouds 13 1026 67 19312 4.1 350 13:18 09.10.2019
497 Clouds 12 1026 72 19312 3.6 350 12:44 09.10.2019
498 Clouds 12 1026 72 19312 3.6 350 12:44 09.10.2019
499 Clouds 13 1026 72 19312 3.6 350 12:23 09.10.2019
500 Clouds 12 1026 67 19312 3.1 340 11:58 09.10.2019
501 Clouds 12 1026 67 19312 3.1 340 11:40 09.10.2019
502 Clouds 13 1026 67 19312 3.1 340 11:20 09.10.2019
503 Clouds 13 1027 72 16093 2.1 300 10:58 09.10.2019
504 Clouds 13 1027 72 16093 2.1 300 10:40 09.10.2019
505 Clouds 13 1027 72 16093 2.1 300 10:18 09.10.2019
506 Clouds 13 1027 77 16093 3.6 300 09:43 09.10.2019
507 Clouds 13 1027 77 16093 3.6 300 09:20 09.10.2019
508 Clouds 13 1027 77 16093 4.1 300 08:57 09.10.2019
509 Clouds 14 1027 77 16093 4.1 300 08:37 09.10.2019
510 Clouds 14 1027 77 16093 4.1 300 08:18 09.10.2019
511 Clouds 14 1028 77 16093 4.1 300 07:46 09.10.2019
512 Clouds 14 1028 77 16093 4.1 300 07:24 09.10.2019
513 Clouds 14 1028 77 16093 4.1 300 07:24 09.10.2019
514 Clouds 15 1028 67 16093 3.1 360 06:54 09.10.2019
515 Clouds 15 1028 67 16093 3.1 360 06:20 09.10.2019
516 Clouds 16 1027 63 16093 3.1 10 05:46 09.10.2019
517 Clouds 16 1027 67 16093 4.1 340 04:41 09.10.2019
518 Clouds 17 1026 63 16093 2.1 340 03:24 09.10.2019
519 Clouds 20 1025 59 16093 3.6 320 01:48 09.10.2019
520 Clouds 20 1025 59 16093 3.6 320 01:22 09.10.2019
521 Clouds 20 1025 63 16093 4.1 300 00:58 09.10.2019
522 Clouds 20 1025 63 16093 4.1 300 00:40 09.10.2019
523 Clouds 20 1025 63 16093 4.1 300 00:21 09.10.2019
524 Clouds 17 1025 67 16093 4.6 310 23:57 08.10.2019
525 Clouds 17 1025 67 16093 4.6 310 23:36 08.10.2019
526 Clouds 20 1025 67 16093 4.6 310 23:18 08.10.2019
527 Clouds 20 1026 63 12874 3.6 330 22:39 08.10.2019
528 Clouds 20 1026 63 12874 3.6 330 22:20 08.10.2019
529 Clouds 20 1026 63 12874 3.6 330 22:20 08.10.2019
530 Clouds 20 1026 63 12874 3.6 330 22:20 08.10.2019
531 Clouds 20 1027 59 11265 4.1 340 21:57 08.10.2019
532 Clouds 20 1027 59 11265 4.1 340 21:39 08.10.2019
533 Clouds 20 1027 59 11265 4.1 340 21:19 08.10.2019
534 Clouds 19 1028 63 11265 4.6 40 20:57 08.10.2019
535 Clouds 19 1028 63 11265 4.6 40 20:39 08.10.2019
536 Clouds 19 1028 63 11265 4.6 40 20:21 08.10.2019
537 Clouds 17 1028 59 12874 2.1 360 19:58 08.10.2019
538 Clouds 17 1028 59 12874 2.1 360 19:58 08.10.2019
539 Clouds 17 1028 59 12874 2.1 360 19:58 08.10.2019
540 Clouds 17 1028 59 12874 2.1 360 19:40 08.10.2019
541 Clouds 19 1028 59 12874 2.1 360 19:21 08.10.2019
542 Clouds 19 1028 59 12874 2.1 360 19:21 08.10.2019
543 Clouds 18 1029 63 12874 4.1 20 18:55 08.10.2019
544 Clouds 18 1029 63 12874 4.1 20 18:36 08.10.2019
545 Clouds 17 1029 63 12874 4.1 20 18:18 08.10.2019
546 Clouds 18 1029 63 8047 3.6 280 17:40 08.10.2019
547 Clouds 17 1028 62 14484 4.1 20 17:21 08.10.2019
548 Clouds 13 1028 62 16093 4.1 360 16:59 08.10.2019
549 Clouds 13 1028 62 16093 4.1 360 16:40 08.10.2019
550 Clouds 13 1028 62 16093 4.1 360 16:21 08.10.2019
551 Clouds 14 1027 62 16093 3.6 10 15:41 08.10.2019
552 Clouds 14 1027 62 16093 3.6 10 15:22 08.10.2019
553 Clouds 14 1027 62 16093 3.6 10 15:22 08.10.2019
554 Clouds 15 1027 67 16093 4.1 40 14:58 08.10.2019
555 Clouds 14 1027 67 16093 4.1 40 14:39 08.10.2019
556 Clouds 14 1027 67 16093 4.1 40 14:21 08.10.2019
557 Clouds 14 1027 67 16093 4.1 350 13:57 08.10.2019
558 Clouds 14 1027 67 16093 4.1 350 13:38 08.10.2019
559 Clouds 14 1027 67 16093 4.1 350 13:19 08.10.2019
560 Clouds 14 1027 67 16093 6.2 20 12:58 08.10.2019
561 Clouds 14 1027 67 16093 6.2 20 12:37 08.10.2019
562 Clouds 14 1027 67 16093 6.2 20 12:18 08.10.2019
563 Clouds 14 1027 72 16093 2.1 20 11:42 08.10.2019
564 Clouds 14 1027 72 16093 2.1 20 11:24 08.10.2019
565 Clouds 14 1027 72 12874 5.1 40 10:56 08.10.2019
566 Clouds 14 1027 72 12874 5.1 40 10:37 08.10.2019
567 Clouds 14 1027 72 12874 5.1 40 10:19 08.10.2019
568 Haze 14 1027 72 8047 2.6 350 09:55 08.10.2019
569 Haze 14 1027 72 8047 2.6 350 09:37 08.10.2019
570 Haze 14 1027 72 8047 2.6 350 09:19 08.10.2019
571 Clouds 15 1028 63 16093 3.6 10 08:42 08.10.2019
572 Clouds 15 1028 63 16093 3.6 10 08:23 08.10.2019
573 Clouds 17 1028 63 16093 3.1 360 07:44 08.10.2019
574 Clouds 17 1028 63 16093 3.1 360 07:21 08.10.2019
575 Clouds 17 1028 63 16093 3.1 360 07:21 08.10.2019
576 Clouds 16 1028 63 14484 5.1 10 06:49 08.10.2019
577 Clouds 17 1028 63 14484 5.1 10 06:28 08.10.2019
578 Clouds 16 1028 63 12874 6.2 10 05:45 08.10.2019
579 Rain 17 1028 59 12874 5.1 10 05:25 08.10.2019
580 Clouds 18 1026 55 16093 9.3 20 03:33 08.10.2019
581 Clouds 20 1025 48 16093 8.2 10 02:48 08.10.2019
582 Clouds 21 1025 40 16093 8.2 10 02:29 08.10.2019
583 Clouds 23 1024 33 16093 6.7 10 01:43 08.10.2019
584 Clouds 22 1024 33 16093 6.7 10 01:25 08.10.2019
585 Clouds 24 1024 31 16093 3.94 32.283 00:38 08.10.2019
586 Clouds 24 1024 31 16093 5.13 34.108 00:19 08.10.2019
587 Clouds 24 1024 31 16093 6.2 50 23:39 07.10.2019
588 Clouds 24 1024 31 16093 6.2 50 23:19 07.10.2019
589 Clouds 23 1025 35 16093 6.2 40 22:55 07.10.2019
590 Clouds 23 1025 35 16093 6.2 40 22:55 07.10.2019
591 Clouds 23 1025 35 16093 6.2 40 22:37 07.10.2019
592 Clouds 23 1025 35 16093 6.2 40 22:19 07.10.2019
593 Clouds 22 1026 40 14484 5.1 350 21:55 07.10.2019
594 Clouds 22 1026 40 14484 5.1 350 21:37 07.10.2019
595 Clouds 22 1026 40 14484 5.1 350 21:18 07.10.2019
596 Clouds 21 1027 42 14484 4.1 40 20:56 07.10.2019
597 Clouds 21 1027 42 14484 4.1 40 20:38 07.10.2019
598 Clouds 21 1027 42 14484 4.1 40 20:38 07.10.2019
599 Clouds 21 1027 42 14484 4.1 40 20:19 07.10.2019
600 Clouds 20 1028 48 14484 5.1 30 19:54 07.10.2019
601 Clouds 20 1028 48 14484 5.1 30 19:36 07.10.2019
602 Clouds 20 1028 48 14484 5.1 30 19:18 07.10.2019
603 Clouds 19 1028 45 12874 5.7 30 18:43 07.10.2019
604 Clouds 19 1028 45 12874 5.7 30 18:19 07.10.2019
605 Clouds 17 1028 59 12874 3.1 50 17:59 07.10.2019
606 Clouds 17 1028 59 12874 3.1 50 17:41 07.10.2019
607 Clouds 17 1028 59 12874 3.1 50 17:19 07.10.2019
608 Ash 14 1028 72 12874 2.1 80 16:46 07.10.2019
609 Ash 14 1028 72 12874 2.1 80 16:46 07.10.2019
610 Ash 14 1028 72 12874 2.1 80 16:28 07.10.2019
611 Ash 12 1027 82 12874 2.1 80 15:59 07.10.2019
612 Ash 12 1027 82 12874 2.1 80 15:40 07.10.2019
613 Ash 12 1027 82 12874 2.1 80 15:21 07.10.2019
614 Mist 12 1027 76 12874 3.1 310 14:42 07.10.2019
615 Mist 11 1027 76 12874 3.1 310 14:23 07.10.2019
616 Clouds 11 1027 76 12874 2.6 310 13:45 07.10.2019
617 Clouds 12 1027 76 12874 2.6 310 13:21 07.10.2019
618 Clouds 11 1026 76 16093 2.6 310 12:59 07.10.2019
619 Clouds 11 1026 76 16093 2.6 310 12:40 07.10.2019
620 Clouds 11 1026 76 16093 2.6 310 12:40 07.10.2019
621 Clouds 11 1026 76 16093 2.6 310 12:21 07.10.2019
622 Clouds 11 1026 76 16093 2.6 310 12:21 07.10.2019
623 Clouds 11 1026 76 16093 2.6 310 12:21 07.10.2019
624 Clouds 12 1026 76 16093 1.5 310 11:59 07.10.2019
625 Clouds 12 1026 76 16093 1.5 310 11:59 07.10.2019
626 Clouds 11 1026 76 16093 1.5 310 11:40 07.10.2019
627 Clouds 12 1026 76 16093 1.5 310 11:21 07.10.2019
628 Clouds 12 1026 76 16093 1.5 310 11:21 07.10.2019
629 Clouds 12 1027 71 16093 2.6 340 10:57 07.10.2019
630 Clouds 12 1027 71 16093 2.6 340 10:39 07.10.2019
631 Clouds 12 1027 71 16093 2.6 340 10:20 07.10.2019
632 Clouds 13 1027 67 16093 2.6 360 09:39 07.10.2019
633 Clouds 13 1027 67 16093 2.6 360 09:39 07.10.2019
634 Clouds 13 1027 67 16093 2.6 360 09:21 07.10.2019
635 Clear 12 1029 76 11265 2.6 280 08:44 07.10.2019
636 Clear 14 1029 76 11265 2.6 280 08:21 07.10.2019
637 Clouds 14 1028 63 16093 3.1 360 07:56 07.10.2019
638 Clouds 14 1028 63 16093 3.1 360 07:36 07.10.2019
639 Clouds 14 1028 63 16093 3.1 360 07:18 07.10.2019
640 Clouds 15 1028 59 16093 5.1 30 06:43 07.10.2019
641 Clouds 15 1028 59 16093 5.1 30 06:20 07.10.2019
642 Clouds 15 1027 59 16093 7.2 20 05:27 07.10.2019
643 Clouds 16 1026 55 16093 7.7 40 04:54 07.10.2019
644 Clouds 17 1025 55 16093 7.7 40 03:48 07.10.2019
645 Clouds 17 1025 55 16093 7.7 40 03:48 07.10.2019
646 Clouds 18 1025 49 16093 8.7 50 03:30 07.10.2019
647 Clouds 21 1024 49 16093 9.8 60 02:39 07.10.2019
648 Clouds 22 1023 35 14484 7.2 10 02:19 07.10.2019
649 Clouds 24 1023 29 12874 6.2 20 01:24 07.10.2019
650 Clouds 24 1023 25 12874 3.1 340 00:53 07.10.2019
651 Clouds 24 1023 25 12874 3.1 340 00:26 07.10.2019
652 Clouds 24 1024 29 12874 4.6 80 23:59 06.10.2019
653 Clouds 24 1024 29 12874 4.6 80 23:40 06.10.2019
654 Clouds 24 1024 29 12874 4.6 80 23:20 06.10.2019
655 Clouds 24 1024 31 12874 5.1 30 22:56 06.10.2019
656 Clouds 24 1024 31 12874 5.1 30 22:37 06.10.2019
657 Clouds 24 1024 31 12874 5.1 30 22:19 06.10.2019
658 Clouds 22 1026 40 12874 5.1 60 21:55 06.10.2019
659 Clouds 22 1026 40 12874 5.1 60 21:36 06.10.2019
660 Clouds 22 1026 40 12874 5.1 60 21:18 06.10.2019
661 Clouds 22 1026 35 12874 3.1 20 20:54 06.10.2019
662 Clouds 22 1027 45 12874 3.6 40 20:36 06.10.2019
663 Clouds 22 1027 45 12874 3.6 40 20:36 06.10.2019
664 Clouds 22 1027 45 12874 3.6 40 20:36 06.10.2019
665 Clouds 21 1027 45 12874 3.6 40 20:18 06.10.2019
666 Clouds 20 1028 55 12874 2.5 38.137 19:55 06.10.2019
667 Clouds 20 1028 55 12874 2.5 38.137 19:55 06.10.2019
668 Clouds 20 1028 55 12874 2.5 38.137 19:36 06.10.2019
669 Clouds 20 1028 55 12874 2.5 38.137 19:18 06.10.2019
670 Clouds 17 1029 59 12874 1.5 140 18:55 06.10.2019
671 Clouds 17 1029 59 12874 1.5 140 18:55 06.10.2019
672 Clouds 17 1029 59 12874 1.5 140 18:36 06.10.2019
673 Clouds 18 1029 59 12874 1.5 140 18:18 06.10.2019
674 Clouds 18 1029 59 12874 1.5 140 18:18 06.10.2019
675 Clouds 17 1029 67 14484 2.6 70 17:42 06.10.2019
676 Clouds 16 1029 67 14484 2.6 70 17:20 06.10.2019
677 Haze 15 1028 77 14484 3.6 80 16:55 06.10.2019
678 Haze 15 1028 77 14484 3.6 80 16:55 06.10.2019
679 Haze 15 1028 77 14484 3.6 80 16:37 06.10.2019
680 Haze 15 1028 77 14484 3.6 80 16:18 06.10.2019
681 Mist 13 1027 82 12874 2.1 70 15:42 06.10.2019
682 Mist 13 1027 82 12874 2.1 70 15:42 06.10.2019
683 Mist 13 1027 82 12874 2.1 70 15:21 06.10.2019
684 Mist 13 1027 76 9656 1 80 14:44 06.10.2019
685 Mist 12 1027 76 9656 1 80 14:26 06.10.2019
686 Mist 11 1027 71 9656 0.9 65.029 13:59 06.10.2019
687 Mist 11 1027 71 9656 0.9 65.029 13:40 06.10.2019
688 Mist 12 1027 71 9656 0.89 61.096 13:21 06.10.2019
689 Clouds 12 1027 72 11265 2.1 330 12:58 06.10.2019
690 Clouds 13 1027 72 11265 2.1 330 12:39 06.10.2019
691 Clouds 13 1027 72 11265 2.1 330 12:21 06.10.2019
692 Clouds 13 1027 67 11265 2.6 360 11:58 06.10.2019
693 Clouds 13 1027 67 11265 2.6 360 11:39 06.10.2019
694 Clouds 13 1027 67 11265 2.6 360 11:20 06.10.2019
695 Clouds 13 1027 67 11265 3.1 20 10:54 06.10.2019
696 Clouds 13 1027 67 11265 3.1 20 10:36 06.10.2019
697 Clouds 13 1027 67 11265 3.1 20 10:18 06.10.2019
698 Clouds 14 1027 63 12874 3.6 20 09:40 06.10.2019
699 Clouds 14 1027 63 12874 3.6 20 09:19 06.10.2019
700 Clouds 14 1027 63 12874 3.6 20 09:19 06.10.2019
701 Clouds 14 1028 63 14484 3.1 350 08:47 06.10.2019
702 Clouds 14 1028 63 14484 3.1 350 08:21 06.10.2019
703 Clouds 15 1028 55 14484 6.2 340 07:57 06.10.2019
704 Clouds 15 1028 55 14484 6.2 340 07:38 06.10.2019
705 Clouds 15 1028 59 14484 3.6 350 06:39 06.10.2019
706 Clouds 16 1027 63 14484 4.6 360 05:36 06.10.2019
707 Clouds 17 1026 59 12874 8.2 40 04:29 06.10.2019
708 Clouds 21 1024 52 12874 7.7 60 02:48 06.10.2019
709 Clouds 21 1024 43 11265 6.7 40 02:28 06.10.2019
710 Clouds 22 1023 31 11265 6.2 30 01:46 06.10.2019
711 Clouds 23 1023 31 11265 6.2 30 01:27 06.10.2019
712 Clouds 23 1023 31 11265 6.2 30 01:27 06.10.2019
713 Clouds 24 1023 31 11265 3.1 330 00:59 06.10.2019
714 Clouds 24 1023 31 11265 3.1 330 00:29 06.10.2019
715 Clouds 24 1024 33 9656 4.1 20 23:46 05.10.2019
716 Clouds 24 1024 33 9656 4.1 20 23:23 05.10.2019
717 Clouds 24 1025 38 9656 2.6 270 22:59 05.10.2019
718 Clouds 23 1025 38 9656 2.6 270 22:40 05.10.2019
719 Clouds 23 1025 38 9656 2.6 270 22:21 05.10.2019
720 Clouds 23 1026 35 9656 3.1 350 21:57 05.10.2019
721 Clouds 23 1026 35 9656 3.1 350 21:57 05.10.2019
722 Clouds 23 1026 35 9656 3.1 350 21:39 05.10.2019
723 Clouds 23 1026 35 9656 3.1 350 21:20 05.10.2019
724 Clouds 22 1027 49 9656 2.1 80 20:56 05.10.2019
725 Clouds 22 1027 49 9656 2.1 80 20:38 05.10.2019
726 Clouds 22 1027 49 9656 2.1 80 20:19 05.10.2019
727 Clouds 21 1029 52 9656 2.1 40 19:39 05.10.2019
728 Clouds 21 1029 52 9656 2.1 40 19:21 05.10.2019
729 Haze 20 1029 59 9656 1.92 31.516 18:57 05.10.2019
730 Haze 20 1029 59 9656 1.92 31.516 18:39 05.10.2019
731 Haze 20 1029 59 9656 0.68 44.643 18:20 05.10.2019
732 Mist 17 1029 67 9656 2.6 40 17:46 05.10.2019
733 Mist 17 1029 67 9656 2.6 40 17:28 05.10.2019
734 Fog 16 1029 77 9656 3.1 50 16:59 05.10.2019
735 Fog 16 1029 77 9656 3.1 50 16:41 05.10.2019
736 Fog 16 1029 77 9656 3.1 50 16:21 05.10.2019
737 Fog 14 1030 93 201 2.1 330 15:57 05.10.2019
738 Fog 14 1030 93 201 2.1 330 15:39 05.10.2019
739 Mist 15 1028 82 11265 3.6 70 15:21 05.10.2019
740 Mist 15 1028 77 14484 3.6 70 14:56 05.10.2019
741 Mist 15 1028 77 14484 3.6 70 14:56 05.10.2019
742 Mist 15 1028 77 14484 3.6 70 14:56 05.10.2019
743 Mist 15 1028 77 14484 3.6 70 14:38 05.10.2019
744 Mist 13 1028 77 14484 3.6 70 14:19 05.10.2019
745 Mist 14 1028 77 16093 2.1 80 13:41 05.10.2019
746 Mist 14 1028 77 16093 2.1 80 13:21 05.10.2019
747 Clouds 14 1028 72 16093 3.1 80 12:46 05.10.2019
748 Clouds 14 1028 72 16093 3.1 80 12:21 05.10.2019
749 Clouds 14 1028 67 12874 2.1 20 11:54 05.10.2019
750 Clouds 14 1028 67 12874 2.1 20 11:36 05.10.2019
751 Clouds 14 1028 67 12874 2.1 20 11:18 05.10.2019
752 Clouds 14 1028 67 12874 4.1 20 10:44 05.10.2019
753 Clouds 14 1028 67 12874 4.1 20 10:24 05.10.2019
754 Clouds 15 1029 63 12874 4.1 20 09:57 05.10.2019
755 Clouds 15 1029 63 12874 4.1 20 09:38 05.10.2019
756 Clouds 15 1029 63 12874 4.1 20 09:20 05.10.2019
757 Clouds 16 1030 87 8047 1.17 27.005 08:39 05.10.2019
758 Clouds 16 1030 87 8047 1.17 27.005 08:39 05.10.2019
759 Rain 16 1029 59 14484 3.1 310 08:19 05.10.2019
760 Rain 16 1029 59 14484 3.6 40 07:56 05.10.2019
761 Rain 16 1029 59 14484 3.6 40 07:33 05.10.2019
762 Clouds 15 1029 59 14484 4.1 30 06:58 05.10.2019
763 Clouds 15 1029 59 14484 4.1 30 06:26 05.10.2019
764 Clouds 15 1028 59 14484 5.1 40 05:40 05.10.2019
765 Clouds 16 1026 59 16093 5.7 60 03:42 05.10.2019
766 Clouds 16 1026 59 16093 5.7 60 03:42 05.10.2019
767 Clouds 19 1026 59 16093 5.7 60 03:22 05.10.2019
768 Clouds 22 1024 33 9656 1 60 01:30 05.10.2019
769 Thunderstorm 21 1024 33 9656 2.1 110 00:58 05.10.2019
770 Thunderstorm 21 1024 33 9656 2.1 110 00:40 05.10.2019
771 Thunderstorm 21 1024 33 9656 2.1 110 00:22 05.10.2019
772 Thunderstorm 21 1025 38 8047 2.1 310 23:43 04.10.2019
773 Thunderstorm 21 1025 38 8047 2.1 310 23:43 04.10.2019
774 Thunderstorm 21 1025 38 8047 2.1 310 23:24 04.10.2019
775 Clouds 23 1026 43 9656 2.1 150 22:58 04.10.2019
776 Clouds 22 1026 43 9656 2.1 150 22:38 04.10.2019
777 Clouds 22 1026 43 9656 2.1 150 22:38 04.10.2019
778 Clouds 22 1026 43 9656 2.1 150 22:19 04.10.2019
779 Clouds 22 1027 45 9656 2.1 50 21:55 04.10.2019
780 Clouds 22 1027 45 9656 2.1 50 21:36 04.10.2019
781 Clouds 22 1027 45 9656 2.1 50 21:36 04.10.2019
782 Clouds 22 1027 45 9656 2.1 50 21:18 04.10.2019
783 Clouds 21 1028 49 9656 2.6 360 20:42 04.10.2019
784 Clouds 21 1028 49 9656 2.6 360 20:23 04.10.2019
785 Clouds 21 1028 52 9656 2.1 70 19:57 04.10.2019
786 Clouds 21 1028 52 9656 2.1 70 19:39 04.10.2019
787 Clouds 20 1029 59 11265 1.5 60 19:20 04.10.2019
788 Clouds 19 1029 55 11265 3.1 40 18:56 04.10.2019
789 Clouds 19 1029 55 11265 3.1 40 18:37 04.10.2019
790 Clouds 19 1029 55 11265 3.1 40 18:18 04.10.2019
791 Clouds 17 1029 63 12874 4.6 50 17:41 04.10.2019
792 Clouds 17 1029 63 12874 4.6 50 17:22 04.10.2019
793 Haze 15 1029 72 12874 3.6 40 16:58 04.10.2019
794 Haze 15 1029 72 12874 3.6 40 16:39 04.10.2019
795 Haze 15 1029 72 12874 3.6 40 16:39 04.10.2019
796 Haze 15 1029 72 12874 3.6 40 16:18 04.10.2019
797 Haze 15 1029 72 12874 3.6 40 16:18 04.10.2019
798 Haze 15 1029 72 12874 3.6 40 16:18 04.10.2019
799 Mist 14 1028 71 12874 3.6 50 15:56 04.10.2019
800 Mist 14 1028 71 12874 3.6 50 15:38 04.10.2019
801 Mist 14 1028 71 12874 3.6 50 15:38 04.10.2019
802 Mist 14 1028 71 12874 3.6 50 15:19 04.10.2019
803 Haze 14 1029 87 3219 1.18 35.571 14:55 04.10.2019
804 Haze 14 1029 87 3219 1.18 35.571 14:37 04.10.2019
805 Fog 14 1028 76 11265 2.1 20 14:19 04.10.2019
806 Clouds 14 1027 67 12874 2.1 360 13:44 04.10.2019
807 Clouds 14 1027 67 12874 2.1 360 13:22 04.10.2019
808 Clouds 14 1027 72 12874 3.1 360 12:54 04.10.2019
809 Clouds 14 1027 72 12874 3.1 360 12:36 04.10.2019
810 Clouds 14 1027 72 12874 3.1 360 12:18 04.10.2019
811 Clouds 14 1027 67 11265 3.1 10 11:42 04.10.2019
812 Clouds 14 1027 67 11265 3.1 10 11:41 04.10.2019
813 Clouds 14 1027 67 11265 3.1 10 11:41 04.10.2019
814 Clouds 14 1027 67 11265 3.1 10 11:21 04.10.2019
815 Clouds 16 1027 67 11265 2.6 20 10:41 04.10.2019
816 Clouds 16 1027 67 11265 2.6 20 10:21 04.10.2019
817 Clouds 14 1027 67 11265 2.6 20 10:21 04.10.2019
818 Clouds 14 1027 67 12874 3.1 30 09:50 04.10.2019
819 Clouds 14 1027 67 12874 3.1 30 09:32 04.10.2019
820 Clouds 14 1028 67 12874 4.1 10 08:59 04.10.2019
821 Clouds 14 1028 67 12874 4.1 10 08:41 04.10.2019
822 Clouds 14 1028 67 12874 4.1 10 08:23 04.10.2019
823 Rain 15 1028 63 12874 5.1 30 07:47 04.10.2019
824 Rain 15 1028 63 12874 5.1 30 07:23 04.10.2019
825 Rain 15 1027 67 12874 2.6 60 06:48 04.10.2019
826 Rain 15 1027 67 12874 2.6 60 06:27 04.10.2019
827 Rain 15 1027 67 12874 2.6 60 06:27 04.10.2019
828 Rain 15 1027 72 12874 2.1 30 05:52 04.10.2019
829 Rain 15 1027 72 12874 2.1 30 05:52 04.10.2019
830 Rain 15 1027 72 12874 2.1 30 05:19 04.10.2019
831 Rain 17 1025 72 16093 5.1 90 03:56 04.10.2019
832 Clouds 19 1024 59 16093 7.2 80 02:54 04.10.2019
833 Clouds 20 1023 43 14484 6.2 10 02:21 04.10.2019
834 Clouds 22 1022 40 14484 6.7 20 01:43 04.10.2019
835 Clouds 22 1022 40 14484 6.7 20 01:24 04.10.2019
836 Ash 23 1022 35 12874 4.6 360 00:18 04.10.2019
837 Ash 24 1023 36 12874 3.25 59.209 23:37 03.10.2019
838 Ash 24 1023 36 12874 3.25 59.209 23:18 03.10.2019
839 Ash 24 1024 33 12874 3.1 350 22:57 03.10.2019
840 Ash 24 1024 33 12874 3.1 350 22:57 03.10.2019
841 Ash 24 1024 33 12874 3.1 350 22:39 03.10.2019
842 Ash 24 1024 33 12874 3.1 350 22:21 03.10.2019
843 Ash 22 1025 40 14484 4.1 340 21:56 03.10.2019
844 Ash 22 1025 40 14484 4.1 340 21:37 03.10.2019
845 Ash 22 1025 40 14484 4.1 340 21:19 03.10.2019
846 Clouds 22 1026 45 14484 3.1 320 20:56 03.10.2019
847 Clouds 22 1026 45 14484 3.1 320 20:37 03.10.2019
848 Clouds 22 1026 45 14484 3.1 320 20:37 03.10.2019
849 Clouds 21 1026 45 14484 3.1 320 20:19 03.10.2019
850 Clouds 19 1027 48 12874 3.1 350 19:41 03.10.2019
851 Clouds 20 1027 48 12874 3.1 350 19:22 03.10.2019
852 Clouds 19 1027 59 12874 1.5 150 18:59 03.10.2019
853 Clouds 19 1027 59 12874 1.5 150 18:39 03.10.2019
854 Clouds 19 1027 59 12874 1.5 150 18:19 03.10.2019
855 Clouds 17 1027 63 12874 1.38 66.349 17:59 03.10.2019
856 Clouds 17 1027 63 12874 1.38 66.349 17:59 03.10.2019
857 Clouds 17 1027 63 12874 1.38 66.349 17:41 03.10.2019
858 Clouds 16 1027 77 12874 4.1 70 17:19 03.10.2019
859 Clouds 14 1027 76 11265 1.5 60 16:44 03.10.2019
860 Clouds 14 1027 76 11265 1.5 60 16:26 03.10.2019
861 Fog 12 1026 87 11265 2.6 90 15:56 03.10.2019
862 Fog 12 1026 87 11265 2.6 90 15:38 03.10.2019
863 Fog 12 1026 87 11265 2.6 90 15:20 03.10.2019
864 Fog 12 1026 82 12874 2.1 40 14:46 03.10.2019
865 Fog 12 1026 82 12874 2.1 40 14:27 03.10.2019
866 Clouds 11 1025 82 12874 2.6 100 13:59 03.10.2019
867 Clouds 11 1025 82 12874 2.6 100 13:41 03.10.2019
868 Clouds 12 1025 82 12874 2.6 100 13:19 03.10.2019
869 Clouds 12 1025 82 12874 2.6 100 12:56 03.10.2019
870 Clouds 12 1025 82 12874 2.6 100 12:37 03.10.2019
871 Clouds 13 1025 72 12874 2.1 320 12:19 03.10.2019
872 Clouds 13 1025 72 12874 2.1 320 12:19 03.10.2019
873 Clouds 13 1025 67 12874 1 30 11:41 03.10.2019
874 Clouds 13 1025 67 12874 1 30 11:41 03.10.2019
875 Clouds 13 1025 67 12874 1 30 11:23 03.10.2019
876 Clouds 14 1025 67 16093 2.1 10 10:59 03.10.2019
877 Clouds 14 1025 67 16093 2.1 10 10:40 03.10.2019
878 Clouds 14 1025 67 16093 2.1 10 10:19 03.10.2019
879 Clouds 14 1026 59 17702 3.1 20 09:58 03.10.2019
880 Clouds 14 1026 59 17702 3.1 20 09:39 03.10.2019
881 Clouds 14 1026 59 17702 3.1 20 09:20 03.10.2019
882 Clouds 15 1026 59 19312 2.6 360 08:45 03.10.2019
883 Clouds 15 1026 59 19312 2.6 360 08:27 03.10.2019
884 Clouds 15 1026 55 19312 2.1 20 07:57 03.10.2019
885 Clouds 15 1026 55 19312 2.1 20 07:39 03.10.2019
886 Clouds 15 1026 55 19312 2.1 20 07:19 03.10.2019
887 Clouds 15 1025 55 16093 4.1 360 06:46 03.10.2019
888 Clouds 15 1025 55 16093 4.1 360 06:20 03.10.2019
889 Clouds 16 1025 48 16093 5.1 30 05:43 03.10.2019
890 Clouds 17 1024 48 16093 6.7 30 04:51 03.10.2019
891 Clouds 19 1024 48 16093 6.7 30 04:25 03.10.2019
892 Clouds 20 1022 37 16093 7.2 40 03:23 03.10.2019
893 Clouds 21 1023 37 11265 3.6 60 02:37 03.10.2019
894 Clouds 23 1021 33 14484 5.7 350 01:51 03.10.2019
895 Clouds 23 1021 33 14484 5.7 350 01:32 03.10.2019
896 Clouds 24 1022 29 16093 5.1 310 00:47 03.10.2019
897 Clouds 24 1022 29 16093 5.1 310 00:18 03.10.2019
898 Clouds 24 1022 29 16093 2.6 50 23:43 02.10.2019
899 Clouds 24 1022 29 16093 2.6 50 23:21 02.10.2019
900 Clouds 22 1023 33 16093 4.1 90 22:44 02.10.2019
901 Clouds 22 1023 33 16093 4.1 90 22:44 02.10.2019
902 Clouds 23 1023 33 16093 4.1 90 22:21 02.10.2019
903 Clouds 23 1024 28 16093 3.1 40 21:56 02.10.2019
904 Clouds 23 1024 28 16093 3.1 40 21:56 02.10.2019
905 Clouds 23 1024 28 16093 3.1 40 21:38 02.10.2019
906 Clouds 23 1024 28 16093 3.1 40 21:20 02.10.2019
907 Clouds 21 1025 40 16093 2.6 50 20:57 02.10.2019
908 Clouds 21 1025 40 16093 2.6 50 20:38 02.10.2019
909 Clouds 21 1025 40 16093 2.6 50 20:20 02.10.2019
910 Clouds 21 1026 43 16093 4.6 10 19:54 02.10.2019
911 Clouds 21 1026 43 16093 4.6 10 19:36 02.10.2019
912 Clouds 21 1026 43 16093 4.6 10 19:36 02.10.2019
913 Clouds 20 1026 52 16093 3.1 50 19:18 02.10.2019
914 Clouds 19 1026 55 16093 3.1 70 18:56 02.10.2019
915 Clouds 19 1026 55 16093 3.1 70 18:36 02.10.2019
916 Clouds 18 1027 63 16093 2.6 40 18:18 02.10.2019
917 Clouds 16 1026 72 11265 4.1 40 17:42 02.10.2019
918 Clouds 16 1026 72 11265 4.1 40 17:21 02.10.2019
919 Fog 15 1026 82 9656 4.6 60 16:58 02.10.2019
920 Fog 15 1026 82 9656 4.6 60 16:39 02.10.2019
921 Clouds 13 1025 82 9656 2.6 280 16:20 02.10.2019
922 Fog 14 1025 82 9656 2.6 280 15:56 02.10.2019
923 Fog 14 1025 82 9656 2.6 280 15:37 02.10.2019
924 Fog 14 1025 82 9656 2.6 280 15:18 02.10.2019
925 Fog 14 1025 82 9656 2.6 280 15:18 02.10.2019
926 Clouds 13 1025 77 11265 2.6 320 14:45 02.10.2019
927 Clouds 13 1025 77 11265 2.6 320 14:27 02.10.2019
928 Clouds 13 1025 82 12874 1 240 13:58 02.10.2019
929 -273 0 0 0 0 0 13:40 02.10.2019
930 Clouds 13 1025 82 12874 1 240 13:21 02.10.2019
931 Clouds 13 1025 82 12874 2.1 220 12:41 02.10.2019
932 Clouds 13 1025 82 12874 2.1 220 12:22 02.10.2019
933 Clouds 12 1025 82 12874 1 50 11:59 02.10.2019
934 Clouds 13 1025 82 12874 1 50 11:41 02.10.2019
935 Clouds 13 1025 82 12874 1 50 11:21 02.10.2019
936 Clouds 13 1025 87 14484 1.5 360 10:39 02.10.2019
937 Clouds 13 1025 87 14484 1.5 360 10:19 02.10.2019
938 Clouds 13 1025 87 14484 1.5 360 10:19 02.10.2019
939 Clouds 13 1025 77 16093 1.25 1.603 09:41 02.10.2019
940 Clouds 13 1025 77 16093 0.76 64.282 09:20 02.10.2019
941 Clouds 14 1025 77 16093 4.1 320 08:56 02.10.2019
942 Clouds 14 1025 77 16093 4.1 320 08:38 02.10.2019
943 Clouds 14 1025 77 16093 4.1 320 08:20 02.10.2019
944 Rain 14 1025 82 16093 4.1 330 07:43 02.10.2019
945 Rain 14 1025 82 16093 4.1 330 07:24 02.10.2019
946 Rain 13 1026 87 11265 2.6 280 06:58 02.10.2019
947 Rain 13 1026 87 11265 2.6 280 06:27 02.10.2019
948 Rain 13 1026 87 9656 6.7 240 05:49 02.10.2019
949 Thunderstorm 13 1025 76 8047 4.1 220 05:20 02.10.2019
950 Thunderstorm 15 1023 77 11265 5.1 40 03:53 02.10.2019
951 Rain 19 1023 68 9656 5.7 60 03:31 02.10.2019
952 Thunderstorm 19 1021 63 9656 7.7 30 02:26 02.10.2019
953 Thunderstorm 20 1021 63 9656 5.1 30 01:59 02.10.2019
954 Clouds 22 1021 49 11265 6.7 20 00:52 02.10.2019
955 Clouds 23 1021 36 11265 3.1 90 00:29 02.10.2019
956 Clouds 23 1022 38 11265 1.02 91.403 23:55 01.10.2019
957 Clouds 23 1022 38 11265 1.02 91.403 23:36 01.10.2019
958 Clouds 23 1022 38 11265 1.02 91.403 23:18 01.10.2019
959 Thunderstorm 24 1023 38 11265 3.6 120 22:57 01.10.2019
960 Thunderstorm 24 1023 38 11265 3.6 120 22:37 01.10.2019
961 Thunderstorm 24 1023 38 11265 3.6 120 22:18 01.10.2019
962 Clouds 22 1024 40 12874 3.1 50 21:42 01.10.2019
963 Clouds 23 1024 40 12874 3.1 50 21:22 01.10.2019
964 Clouds 23 1024 40 12874 3.1 50 21:22 01.10.2019
965 Clouds 22 1025 49 12874 1.56 96.761 20:57 01.10.2019
966 Clouds 22 1025 49 12874 1.65 116.022 20:38 01.10.2019
967 Clouds 22 1025 49 12874 1.65 116.022 20:20 01.10.2019
968 Clouds 22 1025 49 12874 1.65 116.022 20:20 01.10.2019
969 Clouds 20 1025 46 12874 1.65 116.022 19:57 01.10.2019
970 Clouds 19 1026 56 11265 2.1 60 19:38 01.10.2019
971 Clouds 19 1026 56 11265 2.1 60 19:20 01.10.2019
972 -273 0 0 0 0 0 18:55 01.10.2019
973 Clouds 18 1026 59 12874 2.1 100 18:37 01.10.2019
974 Clouds 19 1026 59 12874 2.1 100 18:19 01.10.2019
975 Clouds 17 1026 67 12874 2.1 340 17:43 01.10.2019
976 Clouds 17 1026 67 12874 2.1 340 17:20 01.10.2019
977 Clouds 16 1026 77 16093 1.5 80 16:59 01.10.2019
978 Clouds 16 1026 77 16093 1.5 80 16:40 01.10.2019
979 Clouds 15 1026 77 16093 1.5 80 16:22 01.10.2019
980 Clouds 14 1023 77 16093 1 70 15:48 01.10.2019
981 Clouds 14 1025 82 12874 2.6 100 15:24 01.10.2019
982 Mist 14 1025 82 16093 0.36 128.042 14:58 01.10.2019
983 Clouds 13 1025 82 16093 0.36 128.042 14:38 01.10.2019
984 Clouds 13 1024 82 19312 0.36 128.042 14:19 01.10.2019
985 Clouds 12 1024 82 19312 0.36 128.042 13:55 01.10.2019
986 Clouds 12 1024 82 19312 0.36 128.042 13:55 01.10.2019
987 Clouds 12 1024 82 19312 0.36 128.042 13:55 01.10.2019
988 -273 0 0 0 0 0 13:55 01.10.2019
989 Clouds 13 1024 82 19312 0.36 128.042 13:36 01.10.2019
990 Clouds 13 1024 82 19312 0.71 178.947 13:18 01.10.2019
991 Clouds 13 1024 87 24140 0.71 178.947 12:42 01.10.2019
992 Clouds 13 1024 87 24140 0.63 196.246 12:21 01.10.2019
993 Clouds 12 1025 87 24140 0.63 196.246 11:58 01.10.2019
994 Clouds 13 1025 87 24140 0.63 196.246 11:39 01.10.2019
995 Clouds 13 1025 87 24140 0.63 196.246 11:19 01.10.2019
996 Clouds 13 1025 82 24140 3.6 100 10:59 01.10.2019
997 Clouds 13 1025 82 24140 3.6 100 10:41 01.10.2019
998 Clouds 13 1025 82 24140 3.6 100 10:23 01.10.2019
999 Clouds 14 1025 82 24140 4.1 110 09:43 01.10.2019
1000 Clouds 14 1025 82 24140 4.1 110 09:25 01.10.2019
1001 Clouds 14 1026 82 19312 1.5 260 08:43 01.10.2019
1002 Clouds 14 1026 82 19312 1.5 260 08:25 01.10.2019
1003 Clouds 14 1026 82 16093 1.5 250 07:49 01.10.2019
1004 Clouds 14 1026 82 16093 1.5 250 07:25 01.10.2019
1005 Clouds 14 1026 82 16093 1.5 250 07:25 01.10.2019
1006 Clouds 14 1026 82 16093 2.6 220 06:50 01.10.2019
1007 Rain 15 1025 82 16093 2.6 270 06:22 01.10.2019
1008 Rain 15 1025 82 12874 3.1 300 05:46 01.10.2019
1009 Rain 15 1025 82 12874 3.1 300 05:18 01.10.2019
1010 Rain 14 1025 87 9656 3.6 80 04:30 01.10.2019
1011 Clouds 18 1023 52 14484 4.1 90 02:29 01.10.2019
1012 Rain 19 1025 87 11265 3.6 140 01:59 01.10.2019
1013 Clouds 20 1023 49 12874 4.1 140 00:59 01.10.2019
1014 Clouds 20 1023 49 12874 4.1 140 00:37 01.10.2019
1015 Clouds 20 1023 49 12874 4.1 140 00:37 01.10.2019
1016 Clouds 20 1023 49 12874 4.1 140 00:18 01.10.2019
1017 Clouds 21 1024 46 12874 5.1 110 23:41 30.09.2019
1018 Clouds 21 1024 46 12874 5.1 110 23:20 30.09.2019
1019 Clouds 20 1024 52 12874 2.1 350 22:43 30.09.2019
1020 Clouds 20 1024 52 12874 2.1 350 22:25 30.09.2019
1021 Fog 19 1026 56 14484 2.1 130 21:58 30.09.2019
1022 Rain 19 1026 56 14484 2.1 130 21:38 30.09.2019
1023 Rain 19 1026 56 14484 2.1 130 21:19 30.09.2019
1024 Rain 17 1027 55 14484 3.6 80 20:57 30.09.2019
1025 Rain 17 1027 55 14484 3.6 80 20:39 30.09.2019
1026 Rain 17 1027 55 14484 3.6 80 20:20 30.09.2019
1027 Rain 16 1028 59 14484 1.37 145.238 19:57 30.09.2019
1028 Rain 16 1028 59 14484 1.37 145.238 19:56 30.09.2019
1029 Rain 16 1028 59 14484 1.37 145.238 19:38 30.09.2019
1030 Rain 16 1028 59 14484 2.6 190 19:19 30.09.2019
1031 Rain 16 1028 59 14484 2.6 190 18:57 30.09.2019
1032 Rain 16 1028 59 14484 2.6 190 18:57 30.09.2019
1033 Rain 16 1028 59 14484 2.6 190 18:37 30.09.2019
1034 Rain 15 1030 87 6437 3.1 130 18:19 30.09.2019
1035 Rain 14 1028 71 14484 3.1 100 17:43 30.09.2019
1036 Rain 14 1028 71 14484 3.1 100 17:23 30.09.2019
1037 Rain 13 1028 71 16093 4.1 110 16:57 30.09.2019
1038 Rain 13 1028 71 16093 4.1 110 16:39 30.09.2019
1039 Rain 13 1028 71 16093 4.1 110 16:19 30.09.2019
1040 Rain 14 1027 67 16093 4.6 110 15:58 30.09.2019
1041 Rain 14 1027 67 16093 4.6 110 15:37 30.09.2019
1042 Rain 14 1027 67 16093 4.6 110 15:19 30.09.2019
1043 Rain 14 1026 62 16093 4.6 110 14:57 30.09.2019
1044 Rain 13 1026 62 16093 4.6 110 14:37 30.09.2019
1045 Rain 13 1026 62 16093 4.6 110 14:18 30.09.2019
1046 Rain 13 1026 62 16093 4.6 110 14:18 30.09.2019
1047 Clouds 13 1026 67 16093 5.1 120 13:56 30.09.2019
1048 Clouds 13 1026 67 16093 5.1 120 13:37 30.09.2019
1049 Clouds 13 1026 67 16093 5.1 120 13:19 30.09.2019
1050 Clouds 14 1025 72 16093 3.1 130 12:41 30.09.2019
1051 Clouds 14 1025 72 16093 3.1 130 12:21 30.09.2019
1052 Clouds 15 1025 77 16093 4.1 150 11:56 30.09.2019
1053 Clouds 15 1025 77 16093 4.1 150 11:56 30.09.2019
1054 Clouds 15 1025 77 16093 4.1 150 11:37 30.09.2019
1055 Clouds 14 1025 77 16093 4.1 150 11:18 30.09.2019
1056 Clouds 14 1026 72 16093 6.2 130 10:41 30.09.2019
1057 Clouds 14 1026 72 16093 6.2 130 10:19 30.09.2019
1058 Clouds 14 1026 82 16093 6.2 130 09:58 30.09.2019
1059 Clouds 13 1026 82 16093 6.2 130 09:39 30.09.2019
1060 Clouds 13 1026 82 16093 6.2 130 09:20 30.09.2019
1061 Clouds 13 1026 82 16093 6.2 130 08:47 30.09.2019
1062 Rain 14 1026 77 16093 7.2 140 08:28 30.09.2019
1063 Rain 14 1027 72 16093 7.2 120 07:45 30.09.2019
1064 Rain 14 1027 72 16093 7.2 120 07:45 30.09.2019
1065 Rain 14 1027 72 16093 7.2 120 07:27 30.09.2019
1066 Rain 14 1027 72 16093 7.2 120 07:27 30.09.2019
1067 Rain 14 1026 82 16093 8.2 140 06:56 30.09.2019
1068 Rain 14 1026 82 16093 8.2 140 06:33 30.09.2019
1069 Rain 15 1026 77 16093 8.2 140 05:48 30.09.2019
1070 Haze 15 1025 77 16093 9.3 130 04:32 30.09.2019
1071 Haze 17 1024 63 12874 6.2 120 02:48 30.09.2019
1072 Rain 18 1023 63 11265 4.1 180 01:37 30.09.2019
1073 Haze 19 1023 63 11265 9.3 150 00:42 30.09.2019
1074 Haze 19 1023 63 11265 9.3 150 00:22 30.09.2019
1075 Haze 20 1023 56 12874 9.3 140 23:47 29.09.2019
1076 Haze 20 1023 56 12874 9.3 140 23:27 29.09.2019
1077 Haze 20 1023 64 9656 5.1 90 22:59 29.09.2019
1078 Haze 20 1023 64 9656 5.1 90 22:40 29.09.2019
1079 Haze 20 1023 64 9656 5.1 90 22:22 29.09.2019
1080 Haze 20 1024 68 9656 5.1 130 21:57 29.09.2019
1081 Rain 20 1024 72 9656 4.6 110 21:37 29.09.2019
1082 Rain 19 1024 72 9656 4.6 110 21:19 29.09.2019
1083 Rain 19 1025 77 9656 3.6 130 20:45 29.09.2019
1084 Rain 19 1025 77 9656 3.6 130 20:20 29.09.2019
1085 Rain 19 1025 77 11265 4.6 110 19:59 29.09.2019
1086 Rain 19 1026 72 3219 6.7 160 19:38 29.09.2019
1087 Rain 19 1025 72 12874 4.1 90 19:19 29.09.2019
1088 Rain 18 1025 82 9656 2.6 110 18:56 29.09.2019
1089 Rain 18 1025 82 9656 2.6 110 18:38 29.09.2019
1090 Rain 18 1025 82 9656 2.6 110 18:38 29.09.2019
1091 Rain 18 1025 82 9656 2.6 110 18:19 29.09.2019
1092 Rain 17 1025 82 9656 2.6 110 17:58 29.09.2019
1093 Rain 17 1025 82 9656 2.6 110 17:40 29.09.2019
1094 Rain 17 1025 82 9656 2.6 110 17:20 29.09.2019
1095 Rain 17 1025 77 11265 2.6 70 16:58 29.09.2019
1096 Rain 17 1024 77 11265 2.81 98.375 16:40 29.09.2019
1097 Rain 17 1024 77 11265 2.81 98.375 16:19 29.09.2019
1098 Rain 16 1024 82 11265 2.81 98.375 15:57 29.09.2019
1099 Rain 16 1024 82 11265 2.81 98.375 15:57 29.09.2019
1100 Rain 16 1024 82 11265 2.81 98.375 15:36 29.09.2019
1101 Rain 16 1024 82 11265 1.87 116.688 15:18 29.09.2019
1102 Rain 16 1024 82 11265 1.87 116.688 14:55 29.09.2019
1103 Rain 16 1023 82 12874 2.1 280 14:36 29.09.2019
1104 Clouds 14 1022 82 19312 2.1 230 14:18 29.09.2019
1105 Clouds 14 1022 82 19312 2.1 230 13:42 29.09.2019
1106 Clouds 14 1022 82 19312 2.1 230 13:19 29.09.2019
1107 Clouds 15 1022 82 24140 2.1 50 12:58 29.09.2019
1108 Clouds 15 1022 82 24140 2.1 50 12:40 29.09.2019
1109 Clouds 15 1022 82 24140 2.1 50 12:21 29.09.2019
1110 -273 0 0 0 0 0 11:57 29.09.2019
1111 Clouds 15 1022 77 24140 4.6 310 11:39 29.09.2019
1112 Clouds 15 1022 77 24140 4.6 310 11:19 29.09.2019
1113 Clouds 16 1022 77 19312 4.1 290 10:57 29.09.2019
1114 Clouds 16 1022 77 19312 4.1 290 10:57 29.09.2019
1115 Clouds 16 1022 77 19312 4.1 290 10:37 29.09.2019
1116 Clouds 16 1022 77 19312 4.1 290 10:18 29.09.2019
1117 Clouds 15 1023 82 19312 4.6 280 09:47 29.09.2019
1118 Clouds 16 1023 82 19312 4.6 280 09:21 29.09.2019
1119 Clouds 16 1023 82 16093 3.6 250 08:59 29.09.2019
1120 Clouds 16 1023 82 16093 3.6 250 08:39 29.09.2019
1121 Clouds 16 1023 82 16093 3.6 250 08:20 29.09.2019
1122 Haze 17 1023 72 16093 4.1 270 07:43 29.09.2019
1123 Haze 17 1023 72 16093 4.1 270 07:24 29.09.2019
1124 Haze 17 1023 72 16093 4.1 270 07:24 29.09.2019
1125 Haze 17 1023 72 16093 4.1 270 07:24 29.09.2019
1126 Haze 17 1023 59 19312 2.6 340 06:43 29.09.2019
1127 Rain 17 1022 63 16093 5.1 20 05:27 29.09.2019
1128 Clouds 18 1021 60 11265 5.1 30 04:38 29.09.2019
1129 Clouds 18 1021 60 11265 5.1 30 04:18 29.09.2019
1130 Rain 21 1020 53 11265 3.6 70 02:47 29.09.2019
1131 Rain 21 1020 53 11265 3.6 70 02:18 29.09.2019
1132 Rain 21 1019 53 9656 4.1 20 01:32 29.09.2019
1133 Clouds 22 1019 46 9656 7.2 20 00:52 29.09.2019
1134 Clouds 24 1020 41 9656 4.6 70 00:21 29.09.2019
1135 Clouds 22 1019 46 9656 7.2 20 00:21 29.09.2019
1136 Clouds 24 1020 41 9656 4.6 70 23:43 28.09.2019
1137 Clouds 24 1020 41 9656 4.6 70 23:23 28.09.2019
1138 Clouds 24 1021 41 9656 4.1 140 22:57 28.09.2019
1139 Clouds 24 1021 41 9656 4.1 140 22:38 28.09.2019
1140 Clouds 24 1021 41 9656 4.1 140 22:20 28.09.2019
1141 Clouds 24 1022 46 8047 2.6 50 21:56 28.09.2019
1142 Clouds 24 1022 46 8047 2.6 50 21:38 28.09.2019
1143 Clouds 24 1022 46 8047 2.6 50 21:19 28.09.2019
1144 Clouds 23 1023 46 8047 1.5 360 20:57 28.09.2019
1145 Clouds 23 1023 46 8047 1.5 360 20:57 28.09.2019
1146 Clouds 23 1023 46 8047 1.5 360 20:38 28.09.2019
1147 Clouds 23 1023 46 8047 1.5 360 20:18 28.09.2019
1148 Clouds 22 1024 52 8047 1.5 260 19:55 28.09.2019
1149 Clouds 22 1024 52 8047 1.5 260 19:36 28.09.2019
1150 Clouds 22 1024 52 8047 1.5 260 19:18 28.09.2019
1151 Clouds 21 1024 59 8047 1 0 18:41 28.09.2019
1152 Clouds 18 1024 63 9656 1.5 350 18:22 28.09.2019
1153 Clouds 21 1024 59 8047 1 0 18:22 28.09.2019
1154 Clouds 18 1024 63 9656 1.5 350 17:59 28.09.2019
1155 Clouds 18 1024 63 9656 1.5 350 17:40 28.09.2019
1156 Clouds 18 1024 63 9656 1.5 350 17:21 28.09.2019
1157 Clouds 15 1024 72 9656 3.1 60 16:49 28.09.2019
1158 Clouds 16 1024 72 9656 3.1 60 16:29 28.09.2019
1159 Clouds 15 1023 67 9656 2.6 20 15:59 28.09.2019
1160 Clouds 15 1023 67 9656 2.6 20 15:39 28.09.2019
1161 Clouds 15 1023 67 9656 2.6 20 15:21 28.09.2019
1162 -273 0 0 0 0 0 14:55 28.09.2019
1163 Clouds 15 1022 72 9656 4.1 80 14:55 28.09.2019
1164 Clouds 15 1022 72 9656 4.1 80 14:36 28.09.2019
1165 Clouds 15 1022 72 9656 4.1 80 14:18 28.09.2019
1166 Clouds 14 1022 67 11265 3.1 10 13:43 28.09.2019
1167 Clouds 14 1022 67 11265 3.1 10 13:20 28.09.2019
1168 Clouds 14 1022 67 11265 2.1 20 12:57 28.09.2019
1169 Clouds 14 1022 67 11265 2.1 20 12:37 28.09.2019
1170 Clouds 15 1022 63 11265 2.6 50 12:18 28.09.2019
1171 Clouds 15 1022 63 11265 2.6 50 11:40 28.09.2019
1172 Clouds 15 1022 63 11265 2.6 50 11:20 28.09.2019
1173 Clouds 15 1023 63 11265 3.1 310 10:44 28.09.2019
1174 Clouds 15 1023 63 11265 3.1 310 10:21 28.09.2019
1175 Rain 15 1023 67 11265 3.1 300 09:59 28.09.2019
1176 Rain 15 1023 67 11265 3.1 300 09:40 28.09.2019
1177 Rain 16 1023 67 11265 3.1 300 09:19 28.09.2019
1178 Rain 16 1023 67 11265 3.1 300 09:19 28.09.2019
1179 Clouds 16 1023 67 12874 3.6 300 08:48 28.09.2019
1180 Clouds 16 1023 67 12874 3.6 300 08:29 28.09.2019
1181 Clouds 17 1023 63 12874 3.1 20 07:57 28.09.2019
1182 Clouds 17 1023 63 12874 3.1 20 07:38 28.09.2019
1183 Clouds 17 1023 63 12874 3.1 20 07:19 28.09.2019
1184 Clouds 18 1023 59 12874 5.1 10 06:38 28.09.2019
1185 Clouds 18 1023 59 12874 5.1 10 06:20 28.09.2019
1186 Clouds 18 1022 59 12874 5.1 30 05:25 28.09.2019
1187 Clouds 19 1021 56 16093 3.6 40 04:54 28.09.2019
1188 Clouds 19 1021 56 16093 3.6 40 04:29 28.09.2019
1189 Clouds 20 1020 49 16093 5.7 30 03:41 28.09.2019
1190 Ash 23 1019 46 16093 8.7 40 02:59 28.09.2019
1191 Ash 23 1019 46 16093 8.7 40 02:40 28.09.2019
1192 Ash 22 1019 46 16093 8.7 40 02:19 28.09.2019
1193 Clouds 24 1019 26 16093 5.1 60 01:42 28.09.2019
1194 Clouds 26 1019 26 16093 5.1 60 01:19 28.09.2019
1195 Clouds 25 1019 26 16093 3.6 130 00:45 28.09.2019
1196 Clouds 25 1019 26 16093 3.6 130 00:27 28.09.2019
1197 Clouds 25 1020 27 16093 3.6 70 23:39 27.09.2019
1198 Clouds 25 1020 27 16093 3.6 70 23:21 27.09.2019
1199 Clouds 25 1021 33 16093 2.1 80 22:49 27.09.2019
1200 Clouds 25 1021 33 16093 2.1 80 22:21 27.09.2019
1201 Clear 24 1023 38 16093 2.6 40 22:00 27.09.2019
1202 Clear 24 1023 38 16093 2.6 40 21:40 27.09.2019
1203 Clear 24 1023 38 16093 2.6 40 21:21 27.09.2019
1204 Clear 23 1024 37 12874 3.1 320 20:59 27.09.2019
1205 Clear 23 1024 37 12874 3.1 320 20:59 27.09.2019
1206 Clear 23 1024 37 12874 3.1 320 20:40 27.09.2019
1207 Clear 23 1024 37 12874 3.1 320 20:20 27.09.2019
1208 Clear 23 1024 37 12874 3.1 320 20:20 27.09.2019
1209 Clear 22 1024 37 12874 2.6 300 19:57 27.09.2019
1210 Clouds 21 1025 45 12874 2.6 350 19:39 27.09.2019
1211 Clouds 20 1025 55 11265 4.1 320 19:20 27.09.2019
1212 Clouds 20 1025 55 11265 4.1 320 18:42 27.09.2019
1213 Clouds 20 1025 55 11265 4.1 320 18:24 27.09.2019
1214 Haze 19 1025 63 9656 2.1 80 17:56 27.09.2019
1215 Haze 19 1025 63 9656 2.1 80 17:38 27.09.2019
1216 Haze 19 1025 63 9656 2.1 80 17:20 27.09.2019
1217 Haze 19 1025 63 9656 2.1 80 17:20 27.09.2019
1218 Mist 14 1025 77 11265 2.6 90 16:57 27.09.2019
1219 Mist 14 1025 77 11265 2.6 90 16:37 27.09.2019
1220 Mist 14 1025 77 11265 2.6 90 16:37 27.09.2019
1221 Mist 15 1025 77 11265 2.6 90 16:18 27.09.2019
1222 Mist 15 1025 77 11265 2.6 90 16:18 27.09.2019
1223 Fog 13 1024 82 11265 2.6 80 15:46 27.09.2019
1224 Fog 13 1024 82 11265 2.6 80 15:21 27.09.2019
1225 Fog 14 1024 72 14484 3.1 340 14:59 27.09.2019
1226 Fog 14 1024 72 14484 3.1 340 14:41 27.09.2019
1227 Fog 14 1024 72 14484 3.1 340 14:21 27.09.2019
1228 Clouds 13 1023 72 16093 3.1 360 13:58 27.09.2019
1229 Clouds 13 1023 72 16093 3.1 360 13:40 27.09.2019
1230 Clouds 13 1023 72 16093 3.1 360 13:21 27.09.2019
1231 Clouds 13 1023 72 16093 3.1 360 13:21 27.09.2019
1232 Clouds 13 1024 72 19312 2.1 330 13:21 27.09.2019
1233 Clouds 14 1024 72 19312 2.1 330 12:54 27.09.2019
1234 Clouds 14 1024 72 19312 2.1 330 12:24 27.09.2019
1235 Clouds 14 1024 67 19312 2.1 340 11:59 27.09.2019
1236 Clouds 14 1024 67 19312 2.1 340 11:38 27.09.2019
1237 Clouds 14 1024 67 19312 2.1 340 11:20 27.09.2019
1238 Clouds 14 1025 67 19312 2.6 20 10:43 27.09.2019
1239 Clouds 14 1025 67 19312 2.6 20 10:23 27.09.2019
1240 Clouds 15 1025 63 19312 2.1 320 09:58 27.09.2019
1241 Clouds 15 1025 63 19312 2.1 320 09:58 27.09.2019
1242 Clouds 15 1025 63 19312 2.1 320 09:40 27.09.2019
1243 Clouds 15 1025 63 19312 2.1 320 09:20 27.09.2019
1244 Clouds 17 1025 59 19312 3.1 320 08:42 27.09.2019
1245 Clouds 17 1025 59 19312 3.1 320 08:21 27.09.2019
1246 Clouds 17 1025 59 19312 3.6 10 07:57 27.09.2019
1247 Clouds 17 1025 59 19312 3.6 10 07:39 27.09.2019
1248 Clouds 17 1025 55 19312 4.1 10 07:19 27.09.2019
1249 Clouds 17 1025 55 19312 4.1 10 06:40 27.09.2019
1250 Clouds 17 1025 55 19312 4.1 10 06:21 27.09.2019
1251 Clouds 18 1025 59 19312 4.6 30 05:47 27.09.2019
1252 Clouds 18 1025 59 19312 4.6 30 05:29 27.09.2019
1253 Clouds 19 1022 43 16093 6.2 40 03:52 27.09.2019
1254 Clouds 25 1014 57 12874 2.1 240 01:57 27.09.2019
1255 Clouds 25 1014 57 12874 2.1 240 01:57 27.09.2019
1256 Clouds 24 1021 36 9656 5.1 320 01:34 27.09.2019
1257 Clouds 26 1021 36 9656 4.6 320 00:44 27.09.2019
1258 Clouds 25 1022 36 9656 3.1 40 23:59 26.09.2019
1259 Clouds 25 1022 36 9656 3.1 40 23:41 26.09.2019
1260 Clouds 25 1022 36 9656 3.1 40 23:22 26.09.2019
1261 Clouds 25 1024 41 9656 2.1 70 22:59 26.09.2019
1262 Clouds 25 1024 41 9656 2.1 70 22:40 26.09.2019
1263 Clouds 25 1024 41 9656 2.1 70 22:19 26.09.2019
1264 Clouds 24 1025 46 8047 3.6 40 21:59 26.09.2019
1265 Clouds 24 1025 46 8047 3.6 40 21:38 26.09.2019
1266 Clouds 24 1025 46 8047 3.6 40 21:20 26.09.2019
1267 Haze 23 1026 49 6437 3.1 30 20:59 26.09.2019
1268 Haze 23 1026 49 6437 3.1 30 20:40 26.09.2019
1269 Haze 23 1026 49 6437 3.1 30 20:40 26.09.2019
1270 Haze 23 1026 49 6437 3.1 30 20:22 26.09.2019
1271 Haze 19 1027 60 4828 1.5 110 19:59 26.09.2019
1272 Haze 19 1027 60 4828 1.5 110 19:40 26.09.2019
1273 Haze 19 1027 60 4828 1.5 110 19:18 26.09.2019
1274 Haze 20 1027 64 4828 1.5 150 18:57 26.09.2019
1275 Haze 19 1029 72 3219 2.1 210 18:37 26.09.2019
1276 Haze 19 1029 72 3219 2.1 210 18:19 26.09.2019
1277 Haze 16 1027 77 4828 1 280 17:38 26.09.2019
1278 Mist 16 1027 82 3219 2.1 320 17:19 26.09.2019
1279 Mist 16 1027 82 3219 2.1 320 16:58 26.09.2019
1280 Mist 16 1027 82 3219 2.1 320 16:39 26.09.2019
1281 Mist 16 1027 82 3219 2.1 320 16:20 26.09.2019
1282 Mist 14 1026 82 4828 2.6 270 15:56 26.09.2019
1283 Mist 15 1026 82 4828 2.6 270 15:37 26.09.2019
1284 Mist 15 1026 82 4828 2.6 270 15:18 26.09.2019
1285 Mist 15 1026 93 4828 1.5 230 14:41 26.09.2019
1286 Mist 15 1026 93 4828 1.5 230 14:23 26.09.2019
1287 Mist 14 1025 93 4023 1 300 13:58 26.09.2019
1288 Mist 14 1025 93 4023 1 300 13:40 26.09.2019
1289 Mist 14 1025 93 4023 1 300 13:19 26.09.2019
1290 Mist 13 1025 100 6437 1 60 12:55 26.09.2019
1291 Mist 13 1025 100 6437 1 60 12:36 26.09.2019
1292 Mist 13 1025 100 6437 1 60 12:18 26.09.2019
1293 Mist 14 1026 93 6437 2.1 80 11:42 26.09.2019
1294 Mist 14 1026 93 6437 2.1 80 11:21 26.09.2019
1295 Haze 13 1026 93 6437 3.1 70 10:43 26.09.2019
1296 Haze 13 1026 93 6437 3.1 70 10:25 26.09.2019
1297 Haze 14 1027 87 6437 1.5 90 09:59 26.09.2019
1298 Haze 14 1027 87 6437 1.5 90 09:59 26.09.2019
1299 Haze 14 1027 87 6437 1.5 90 09:41 26.09.2019
1300 Haze 14 1027 87 6437 1.5 90 09:22 26.09.2019
1301 Haze 14 1028 87 6437 2.1 60 08:54 26.09.2019
1302 Haze 14 1028 87 6437 2.1 60 08:32 26.09.2019
1303 Clouds 14 1028 87 8047 2.1 360 07:58 26.09.2019
1304 Clouds 14 1028 87 8047 2.1 360 07:40 26.09.2019
1305 Clouds 15 1028 87 8047 2.1 360 07:19 26.09.2019
1306 Clouds 15 1028 87 8047 2.6 360 06:43 26.09.2019
1307 Clouds 15 1028 87 8047 2.6 360 06:24 26.09.2019
1308 Rain 15 1027 87 8047 3.1 250 05:40 26.09.2019
1309 Rain 15 1027 87 8047 3.1 250 05:20 26.09.2019
1310 Thunderstorm 18 1025 82 4828 2.1 50 02:41 26.09.2019
1311 Thunderstorm 18 1024 72 6437 8.2 20 01:49 26.09.2019
1312 Thunderstorm 18 1024 72 6437 8.2 20 01:27 26.09.2019
1313 Clouds 21 1023 56 9656 8.2 340 00:54 26.09.2019
1314 Clouds 21 1022 46 9656 8.7 150 00:36 26.09.2019
1315 Thunderstorm 22 1026 72 6437 4.1 180 23:45 25.09.2019
1316 Thunderstorm 22 1026 72 6437 4.1 180 23:27 25.09.2019
1317 Thunderstorm 22 1024 40 9656 2.1 30 22:56 25.09.2019
1318 Thunderstorm 22 1024 40 9656 2.1 30 22:56 25.09.2019
1319 Thunderstorm 22 1024 40 9656 2.1 30 22:38 25.09.2019
1320 Thunderstorm 22 1024 40 9656 2.1 30 22:38 25.09.2019
1321 Thunderstorm 22 1024 40 9656 2.1 30 22:20 25.09.2019
1322 Thunderstorm 22 1024 40 9656 2.1 30 22:20 25.09.2019
1323 Rain 22 1027 55 6437 8.2 120 21:56 25.09.2019
1324 Haze 22 1025 43 9656 3.6 100 21:38 25.09.2019
1325 Haze 23 1025 43 9656 3.6 100 21:18 25.09.2019
1326 Haze 23 1026 41 8047 1.5 0 20:56 25.09.2019
1327 Haze 23 1026 41 8047 1.5 0 20:38 25.09.2019
1328 Haze 23 1026 41 8047 1.5 0 20:19 25.09.2019
1329 Haze 22 1027 53 6437 2.6 60 19:41 25.09.2019
1330 Haze 22 1027 53 6437 2.6 60 19:41 25.09.2019
1331 Haze 21 1027 53 6437 1.5 60 19:21 25.09.2019
1332 Haze 21 1027 53 6437 1.5 60 18:57 25.09.2019
1333 Haze 20 1027 60 6437 2.6 100 18:39 25.09.2019
1334 Haze 20 1027 60 6437 2.6 100 18:21 25.09.2019
1335 Mist 19 1027 63 8047 1.5 360 17:58 25.09.2019
1336 Mist 19 1027 63 8047 1.5 360 17:37 25.09.2019
1337 Mist 19 1027 63 8047 1.5 360 17:18 25.09.2019
1338 Mist 17 1027 72 6437 0.76 286.815 16:44 25.09.2019
1339 Mist 17 1027 72 6437 0.76 286.815 16:26 25.09.2019
1340 Mist 17 1027 72 6437 0.76 286.815 16:26 25.09.2019
1341 Mist 15 1026 77 6437 1.5 60 15:58 25.09.2019
1342 Mist 15 1026 77 6437 1.5 60 15:40 25.09.2019
1343 Mist 15 1026 77 6437 1.5 60 15:21 25.09.2019
1344 Mist 15 1026 77 6437 2.1 90 14:54 25.09.2019
1345 Mist 15 1026 77 6437 2.1 90 14:54 25.09.2019
1346 Mist 14 1026 77 6437 2.1 90 14:36 25.09.2019
1347 Mist 14 1026 77 6437 2.1 90 14:18 25.09.2019
1348 Mist 13 1025 93 6437 2.1 70 13:41 25.09.2019
1349 Mist 14 1026 87 6437 2.1 60 13:20 25.09.2019
1350 Mist 14 1026 87 6437 2.1 60 12:58 25.09.2019
1351 Mist 14 1026 87 6437 2.1 60 12:39 25.09.2019
1352 Mist 14 1026 87 6437 2.1 60 12:39 25.09.2019
1353 Mist 13 1028 87 4828 1.41 191.692 12:20 25.09.2019
1354 Mist 14 1026 87 6437 1.41 191.692 11:42 25.09.2019
1355 Mist 14 1026 87 6437 1.41 191.692 11:21 25.09.2019
1356 Clouds 14 1026 87 6437 2.1 340 10:57 25.09.2019
1357 Clouds 14 1026 87 6437 2.1 340 10:38 25.09.2019
1358 Clouds 14 1026 87 6437 2.1 340 10:19 25.09.2019
1359 Clouds 14 1026 87 6437 2.1 340 10:19 25.09.2019
1360 Clouds 14 1026 87 6437 2.1 340 10:19 25.09.2019
1361 Clouds 15 1026 82 6437 1.41 191.692 09:55 25.09.2019
1362 Clouds 15 1026 82 6437 1.41 191.692 09:36 25.09.2019
1363 Clouds 15 1027 82 8047 1.5 110 09:18 25.09.2019
1364 Clouds 15 1027 82 8047 1.5 110 08:41 25.09.2019
1365 Clouds 15 1027 82 8047 1.5 110 08:20 25.09.2019
1366 Clouds 15 1027 87 8047 2.1 50 07:55 25.09.2019
1367 -273 0 0 0 0 0 07:55 25.09.2019
1368 Clouds 15 1027 87 8047 2.1 50 07:36 25.09.2019
1369 Mist 15 1029 87 4023 2.1 70 07:18 25.09.2019
1370 Mist 15 1029 87 4023 2.1 70 06:37 25.09.2019
1371 Rain 15 1027 82 8047 2.6 320 05:52 25.09.2019
1372 Thunderstorm 15 1026 82 8047 2.1 270 05:26 25.09.2019
1373 Thunderstorm 15 1026 87 6437 2.1 260 04:45 25.09.2019
1374 Thunderstorm 21 1023 72 8047 6.2 250 01:44 25.09.2019
1375 Clouds 24 1022 38 9656 2.1 80 00:42 25.09.2019
1376 Clouds 24 1022 38 9656 2.1 80 00:23 25.09.2019
1377 Clouds 25 1023 33 8047 2.1 250 23:45 24.09.2019
1378 Clouds 25 1023 33 8047 2.1 250 23:23 24.09.2019
1379 Clouds 24 1024 38 8047 4.1 320 22:59 24.09.2019
1380 Clouds 24 1024 38 8047 4.1 320 22:38 24.09.2019
1381 Clouds 24 1024 38 8047 4.1 320 22:20 24.09.2019
1382 Clouds 23 1025 38 8047 3.1 50 21:56 24.09.2019
1383 Clouds 23 1025 38 8047 3.1 50 21:37 24.09.2019
1384 Clouds 23 1025 38 8047 3.1 50 21:18 24.09.2019
1385 Clouds 23 1027 46 8047 2.6 360 20:56 24.09.2019
1386 Clouds 23 1027 46 8047 2.6 360 20:38 24.09.2019
1387 -273 0 0 0 0 0 20:19 24.09.2019
1388 Haze 21 1028 56 9656 1 270 19:43 24.09.2019
1389 Haze 21 1028 56 9656 1 270 19:21 24.09.2019
1390 Haze 18 1028 63 9656 1.5 260 18:58 24.09.2019
1391 Haze 18 1028 63 9656 1.5 260 18:39 24.09.2019
1392 Mist 18 1028 63 9656 2.1 240 18:21 24.09.2019
1393 Mist 18 1028 63 9656 2.1 240 17:57 24.09.2019
1394 Mist 18 1028 63 9656 2.1 240 17:38 24.09.2019
1395 Mist 18 1028 63 9656 2.1 240 17:20 24.09.2019
1396 Mist 16 1028 63 8047 1.5 220 16:43 24.09.2019
1397 Mist 16 1028 63 8047 1.5 220 16:21 24.09.2019
1398 Fog 15 1028 77 8047 0.94 165.668 15:59 24.09.2019
1399 Fog 14 1029 93 805 0.94 165.668 15:41 24.09.2019
1400 Fog 14 1029 93 805 0.43 146.162 15:22 24.09.2019
1401 Fog 14 1029 93 805 0.43 146.162 15:22 24.09.2019
1402 Mist 13 1026 72 9656 4.1 290 14:40 24.09.2019
1403 Mist 13 1026 72 9656 4.1 290 14:19 24.09.2019
1404 Mist 13 1026 72 9656 2.1 260 13:45 24.09.2019
1405 Mist 13 1026 72 9656 2.1 260 13:24 24.09.2019
1406 Mist 14 1026 67 9656 1 310 12:59 24.09.2019
1407 Mist 14 1026 67 9656 1 310 12:39 24.09.2019
1408 Mist 14 1026 67 11265 3.1 60 12:18 24.09.2019
1409 Mist 14 1026 67 9656 1 310 12:18 24.09.2019
1410 Mist 14 1026 67 11265 3.1 60 11:42 24.09.2019
1411 Mist 14 1026 67 11265 3.1 60 11:22 24.09.2019
1412 Clouds 15 1027 63 11265 3.6 310 10:57 24.09.2019
1413 Clouds 15 1027 63 11265 3.6 310 10:37 24.09.2019
1414 Clouds 15 1027 63 11265 3.6 310 10:18 24.09.2019
1415 Clouds 15 1027 67 12874 3.6 310 09:45 24.09.2019
1416 Clouds 15 1027 67 12874 3.6 310 09:27 24.09.2019
1417 Clouds 16 1027 63 12874 5.1 310 08:57 24.09.2019
1418 Clouds 16 1027 63 12874 5.1 310 08:38 24.09.2019
1419 Clouds 16 1027 63 12874 5.1 310 08:19 24.09.2019
1420 Clouds 16 1028 59 14484 2.1 330 08:19 24.09.2019
1421 Clouds 16 1028 59 14484 2.1 330 07:52 24.09.2019
1422 Clouds 16 1028 59 14484 2.1 330 07:25 24.09.2019
1423 Clouds 17 1027 52 14484 5.1 20 06:57 24.09.2019
1424 Clouds 17 1027 52 14484 5.1 20 06:36 24.09.2019
1425 Clouds 17 1027 55 12874 4.6 360 05:51 24.09.2019
1426 Clouds 17 1027 55 12874 4.6 360 05:20 24.09.2019
1427 Clouds 19 1025 43 12874 4.1 360 03:45 24.09.2019
1428 Clouds 23 1024 40 11265 7.7 350 02:57 24.09.2019
1429 Clouds 23 1024 40 11265 7.7 350 02:38 24.09.2019
1430 Clouds 24 1024 29 11265 3.1 70 01:22 24.09.2019
1431 Clouds 25 1024 27 9656 2.1 350 00:37 24.09.2019
1432 Clouds 25 1025 29 8047 2.1 350 00:18 24.09.2019
1433 Clouds 25 1025 29 8047 2.1 350 23:40 23.09.2019
1434 Clouds 25 1025 29 8047 2.1 350 23:21 23.09.2019
1435 Clouds 25 1026 31 6437 3.1 110 22:40 23.09.2019
1436 Clouds 25 1026 31 6437 3.1 110 22:21 23.09.2019
1437 Haze 23 1027 37 9656 2.6 60 21:58 23.09.2019
1438 Haze 23 1027 37 9656 2.6 60 21:40 23.09.2019
1439 Haze 23 1027 37 9656 2.6 60 21:19 23.09.2019
1440 Haze 22 1028 43 8047 3.1 80 20:55 23.09.2019
1441 Haze 22 1028 43 8047 3.1 80 20:36 23.09.2019
1442 Haze 21 1028 43 8047 3.1 80 20:18 23.09.2019
1443 Haze 21 1028 43 8047 3.1 80 20:18 23.09.2019
1444 Haze 21 1029 52 8047 3.1 90 19:39 23.09.2019
1445 Haze 19 1030 59 8047 1.45 56.758 19:21 23.09.2019
1446 Haze 19 1030 59 8047 1.45 56.758 18:57 23.09.2019
1447 Haze 19 1030 59 8047 1.45 56.758 18:38 23.09.2019
1448 Haze 17 1030 59 9656 2.1 300 18:18 23.09.2019
1449 Haze 17 1030 59 9656 2.1 300 17:55 23.09.2019
1450 Haze 17 1030 59 9656 2.1 300 17:37 23.09.2019
1451 Haze 17 1030 59 9656 2.1 300 17:18 23.09.2019
1452 Haze 15 1029 76 11265 4.1 70 16:40 23.09.2019
1453 Haze 14 1029 76 11265 4.1 70 16:22 23.09.2019
1454 Mist 10 1029 93 3219 1.5 30 15:59 23.09.2019
1455 Mist 13 1029 87 1609 2.1 40 15:41 23.09.2019
1456 Mist 13 1029 87 1609 2.1 40 15:20 23.09.2019
1457 Mist 13 1029 87 1609 2.1 40 15:20 23.09.2019
1458 Mist 12 1029 93 1609 0.87 69.843 14:59 23.09.2019
1459 Fog 12 1028 81 11265 4.1 60 14:39 23.09.2019
1460 Fog 12 1028 81 11265 4.1 60 14:19 23.09.2019
1461 Fog 12 1028 76 12874 3.6 80 13:57 23.09.2019
1462 Fog 12 1028 76 12874 3.6 80 13:37 23.09.2019
1463 Fog 12 1028 76 12874 3.6 80 13:18 23.09.2019
1464 Clouds 13 1027 72 19312 3.1 320 12:41 23.09.2019
1465 Clouds 13 1027 72 19312 3.1 320 12:21 23.09.2019
1466 Clouds 13 1028 67 24140 2.6 360 11:55 23.09.2019
1467 Clouds 13 1028 67 24140 2.6 360 11:37 23.09.2019
1468 Clouds 13 1028 67 24140 2.6 360 11:18 23.09.2019
1469 Clouds 13 1028 67 24140 2.6 360 11:18 23.09.2019
1470 Clouds 14 1028 63 19312 1.5 10 10:44 23.09.2019
1471 Clouds 14 1028 63 19312 1.5 10 10:20 23.09.2019
1472 Clouds 15 1029 59 19312 2.1 350 09:43 23.09.2019
1473 Clouds 15 1029 59 19312 2.1 350 09:25 23.09.2019
1474 Clouds 15 1029 59 19312 2.6 320 08:58 23.09.2019
1475 Clouds 15 1029 59 19312 2.6 320 08:39 23.09.2019
1476 Clouds 15 1029 59 19312 2.6 320 08:19 23.09.2019
1477 Clouds 16 1029 55 19312 4.1 340 07:38 23.09.2019
1478 Clouds 16 1029 55 19312 4.1 340 07:20 23.09.2019
1479 Clouds 16 1028 55 19312 3.6 350 06:20 23.09.2019
1480 Clouds 17 1028 55 19312 5.7 20 05:38 23.09.2019
1481 Clouds 18 1027 49 16093 6.2 20 04:58 23.09.2019
1482 Clouds 21 1025 43 14484 5.1 30 04:00 23.09.2019
1483 Clouds 24 1024 33 11265 6.2 340 01:26 23.09.2019
1484 Rain 24 1024 33 11265 4.1 350 00:38 23.09.2019
1485 Rain 24 1025 33 9656 4.1 260 00:18 23.09.2019
1486 Rain 24 1025 33 9656 4.1 260 23:41 22.09.2019
1487 Rain 24 1025 33 9656 4.1 260 23:22 22.09.2019
1488 Clouds 24 1026 36 9656 2.1 330 22:56 22.09.2019
1489 Clouds 24 1026 36 9656 2.1 330 22:37 22.09.2019
1490 Clouds 24 1026 36 9656 2.1 330 22:19 22.09.2019
1491 Clouds 23 1027 43 9656 3.6 60 21:42 22.09.2019
1492 Ash 23 1028 49 9656 2.1 140 21:21 22.09.2019
1493 Ash 23 1028 49 9656 2.1 140 20:45 22.09.2019
1494 Ash 23 1028 49 9656 2.1 140 20:45 22.09.2019
1495 Ash 23 1028 49 9656 2.1 140 20:27 22.09.2019
1496 Ash 23 1028 49 9656 2.1 140 20:27 22.09.2019
1497 Ash 22 1028 46 9656 2.12 54.62 19:59 22.09.2019
1498 Ash 22 1028 46 9656 2.12 54.62 19:59 22.09.2019
1499 Ash 21 1029 59 8047 1.5 300 19:41 22.09.2019
1500 Ash 21 1029 59 8047 1.5 300 19:21 22.09.2019
1501 Haze 20 1029 63 8047 1.5 230 18:57 22.09.2019
1502 Haze 20 1029 63 8047 1.5 230 18:38 22.09.2019
1503 Haze 18 1030 77 8047 4.1 90 18:18 22.09.2019
1504 Haze 18 1030 77 8047 4.1 90 17:47 22.09.2019
1505 Haze 18 1030 77 8047 4.1 90 17:27 22.09.2019
1506 Mist 15 1029 82 9656 2.6 60 16:58 22.09.2019
1507 Mist 15 1029 82 9656 2.6 60 16:58 22.09.2019
1508 Mist 15 1029 82 9656 2.6 60 16:40 22.09.2019
1509 Mist 15 1029 82 9656 2.6 60 16:20 22.09.2019
1510 Haze 14 1030 93 3219 0.66 88.792 15:46 22.09.2019
1511 Mist 14 1028 82 9656 2.6 90 15:26 22.09.2019
1512 Clouds 14 1027 82 9656 3.1 70 14:57 22.09.2019
1513 Clouds 14 1027 82 9656 3.1 70 14:39 22.09.2019
1514 Clouds 13 1027 82 11265 2.6 60 14:21 22.09.2019
1515 Clouds 13 1027 82 11265 2.6 60 13:43 22.09.2019
1516 Clouds 13 1027 82 11265 2.6 60 13:43 22.09.2019
1517 Clouds 13 1027 82 11265 2.6 60 13:25 22.09.2019
1518 Clouds 14 1027 77 12874 2.1 90 12:57 22.09.2019
1519 Clouds 14 1027 77 12874 2.1 90 12:39 22.09.2019
1520 Clouds 14 1027 67 12874 2.6 330 12:21 22.09.2019
1521 Clouds 14 1027 67 12874 2.6 330 11:56 22.09.2019
1522 Clouds 14 1027 67 12874 2.6 330 11:56 22.09.2019
1523 Clouds 14 1027 67 12874 2.6 330 11:37 22.09.2019
1524 Clouds 15 1027 67 12874 2.6 280 11:18 22.09.2019
1525 Clouds 15 1027 67 12874 2.6 280 10:42 22.09.2019
1526 Clouds 15 1027 67 12874 2.6 280 10:42 22.09.2019
1527 Clouds 15 1027 67 12874 2.6 280 10:20 22.09.2019
1528 Clouds 15 1028 67 14484 3.1 300 09:43 22.09.2019
1529 Clouds 15 1028 67 14484 3.1 300 09:22 22.09.2019
1530 Clouds 15 1028 63 14484 3.1 300 08:58 22.09.2019
1531 Clouds 15 1028 63 14484 3.1 300 08:40 22.09.2019
1532 Clouds 16 1028 63 14484 3.1 300 08:22 22.09.2019
1533 Clouds 16 1028 63 14484 3.1 300 08:22 22.09.2019
1534 Clouds 16 1028 59 14484 3.6 280 07:44 22.09.2019
1535 Clouds 17 1028 59 14484 3.6 280 07:26 22.09.2019
1536 Clouds 16 1027 59 16093 4.1 350 06:58 22.09.2019
1537 Clouds 17 1027 59 16093 4.1 350 06:34 22.09.2019
1538 Clouds 18 1025 52 19312 7.2 20 04:41 22.09.2019
1539 Clouds 23 1025 49 16093 7.2 30 02:45 22.09.2019
1540 Clouds 24 1024 36 16093 6.2 360 02:24 22.09.2019
1541 Clouds 24 1024 36 16093 6.2 360 01:38 22.09.2019
1542 Clouds 25 1024 33 16093 4.1 10 00:53 22.09.2019
1543 Clouds 25 1024 33 16093 4.1 10 00:32 22.09.2019
1544 Clouds 25 1024 33 16093 2.6 360 23:54 21.09.2019
1545 Clouds 25 1024 33 16093 2.6 360 23:36 21.09.2019
1546 Clouds 24 1025 33 16093 4.1 30 22:46 21.09.2019
1547 Clouds 24 1025 33 16093 4.1 30 22:25 21.09.2019
1548 Clouds 24 1026 36 12874 2.1 60 21:59 21.09.2019
1549 Clear 23 1027 33 12874 3.6 20 21:41 21.09.2019
1550 Clear 23 1027 33 12874 3.6 20 21:19 21.09.2019
1551 Clear 22 1028 32 12874 3.6 90 20:55 21.09.2019
1552 Clear 22 1028 32 12874 3.6 90 20:36 21.09.2019
1553 Clear 21 1029 37 12874 1 50 20:18 21.09.2019
1554 Clear 21 1029 37 12874 1 50 19:42 21.09.2019
1555 Clouds 21 1030 55 6437 1.5 320 19:19 21.09.2019
1556 Haze 20 1029 55 11265 2.31 64.545 18:40 21.09.2019
1557 Haze 19 1031 67 4828 2.1 100 18:21 21.09.2019
1558 Mist 18 1029 67 9656 2.1 20 17:42 21.09.2019
1559 Mist 18 1029 67 9656 2.1 20 17:42 21.09.2019
1560 Mist 18 1029 67 9656 2.1 20 17:23 21.09.2019
1561 Mist 16 1029 76 9656 2.1 70 16:57 21.09.2019
1562 Mist 15 1029 76 9656 2.1 70 16:37 21.09.2019
1563 Mist 15 1029 76 9656 2.1 70 16:19 21.09.2019
1564 Fog 14 1029 87 9656 3.6 80 15:42 21.09.2019
1565 Fog 14 1029 87 9656 3.6 80 15:21 21.09.2019
1566 Mist 14 1028 82 8047 1.5 40 14:47 21.09.2019
1567 Mist 14 1028 82 8047 1.5 40 14:28 21.09.2019
1568 Mist 12 1027 87 8047 2.6 80 13:46 21.09.2019
1569 Mist 12 1027 87 8047 2.6 80 13:26 21.09.2019
1570 Mist 12 1027 82 9656 2.6 60 12:59 21.09.2019
1571 Mist 13 1027 82 9656 2.6 60 12:41 21.09.2019
1572 Mist 13 1027 82 9656 2.6 60 12:21 21.09.2019
1573 Mist 13 1027 87 9656 0.18 119.34 11:58 21.09.2019
1574 Mist 13 1027 87 9656 0.18 119.34 11:39 21.09.2019
1575 Mist 13 1027 87 9656 0.18 119.34 11:19 21.09.2019
1576 Mist 13 1027 82 9656 2.1 20 10:41 21.09.2019
1577 Mist 13 1028 87 11265 2.1 320 10:21 21.09.2019
1578 Mist 13 1028 87 11265 2.1 320 09:57 21.09.2019
1579 Mist 13 1028 87 11265 2.1 320 09:38 21.09.2019
1580 Mist 13 1028 87 11265 2.1 320 09:19 21.09.2019
1581 Clouds 14 1028 77 11265 1.5 240 08:50 21.09.2019
1582 Clouds 14 1028 77 11265 1.5 240 08:22 21.09.2019
1583 Clouds 14 1028 77 12874 2.1 240 07:40 21.09.2019
1584 Clouds 14 1028 77 12874 2.1 240 07:20 21.09.2019
1585 Rain 14 1027 77 12874 4.1 230 06:36 21.09.2019
1586 Clouds 14 1027 77 12874 3.1 240 05:51 21.09.2019
1587 Thunderstorm 15 1026 82 8047 3.6 250 04:48 21.09.2019
1588 Thunderstorm 15 1026 82 8047 3.6 250 04:29 21.09.2019
1589 Thunderstorm 19 1024 77 8047 4.1 220 02:26 21.09.2019
1590 Thunderstorm 21 1024 82 4828 3.1 250 01:50 21.09.2019
1591 Thunderstorm 20 1024 82 4828 3.1 250 01:32 21.09.2019
1592 Thunderstorm 23 1024 46 6437 12.9 80 00:26 21.09.2019
1593 Thunderstorm 23 1023 36 6437 3.1 300 23:58 20.09.2019
1594 Thunderstorm 23 1023 36 6437 3.1 300 23:31 20.09.2019
1595 Thunderstorm 23 1026 63 9656 6.7 170 22:59 20.09.2019
1596 Clouds 24 1024 38 8047 2.6 300 22:38 20.09.2019
1597 Clouds 24 1024 38 8047 2.6 300 22:20 20.09.2019
1598 Clouds 23 1025 43 8047 2.1 30 21:55 20.09.2019
1599 Clouds 23 1025 43 8047 2.1 30 21:37 20.09.2019
1600 Clouds 23 1025 43 8047 2.1 30 21:18 20.09.2019
1601 Clouds 23 1026 46 6437 1.5 90 20:41 20.09.2019
1602 Clouds 23 1026 46 6437 1.5 90 20:41 20.09.2019
1603 Clouds 23 1026 46 6437 1.5 90 20:21 20.09.2019
1604 Haze 21 1027 56 6437 1.5 320 19:59 20.09.2019
1605 Haze 21 1027 56 6437 1.5 320 19:40 20.09.2019
1606 Mist 20 1027 63 8047 2.1 260 19:20 20.09.2019
1607 Mist 20 1027 63 8047 2.1 260 18:40 20.09.2019
1608 Mist 20 1027 63 8047 2.1 260 18:20 20.09.2019
1609 Mist 18 1028 76 3219 2.1 290 17:59 20.09.2019
1610 Mist 17 1027 72 8047 2.1 260 17:41 20.09.2019
1611 Mist 17 1027 72 8047 2.1 260 17:22 20.09.2019
1612 Mist 16 1027 82 8047 1.5 70 16:41 20.09.2019
1613 Mist 16 1027 82 8047 1.5 70 16:19 20.09.2019
1614 Mist 13 1026 82 8047 2.6 70 15:43 20.09.2019
1615 Mist 13 1026 82 8047 2.6 70 15:24 20.09.2019
1616 Mist 13 1026 82 8047 2.6 70 15:24 20.09.2019
1617 Mist 13 1027 93 3219 2.1 50 14:59 20.09.2019
1618 Fog 13 1026 87 8047 2.6 60 14:41 20.09.2019
1619 Fog 13 1026 87 8047 2.6 60 14:41 20.09.2019
1620 Fog 13 1026 87 8047 2.6 60 14:18 20.09.2019
1621 Fog 13 1026 87 8047 2.6 60 14:18 20.09.2019
1622 Clouds 14 1026 93 0 2.24 70 13:47 20.09.2019
1623 Mist 12 1027 93 4828 0.54 128.127 13:28 20.09.2019
1624 Mist 14 1026 87 8047 1 70 12:57 20.09.2019
1625 Mist 14 1026 87 8047 1 70 12:36 20.09.2019
1626 Mist 14 1026 87 8047 1 70 12:18 20.09.2019
1627 Mist 14 1026 87 8047 1 80 11:48 20.09.2019
1628 Mist 14 1026 87 8047 1 80 11:21 20.09.2019
1629 Mist 14 1026 87 9656 1.5 80 10:43 20.09.2019
1630 Mist 14 1026 87 9656 1.5 80 10:24 20.09.2019
1631 Mist 14 1027 82 9656 1.5 240 09:55 20.09.2019
1632 Mist 14 1027 82 9656 1.5 240 09:36 20.09.2019
1633 Mist 14 1027 82 9656 1.5 240 09:18 20.09.2019
1634 Mist 15 1026 77 9656 3.1 290 08:41 20.09.2019
1635 Mist 15 1026 77 9656 3.1 290 08:22 20.09.2019
1636 Clouds 15 1027 82 9656 3.1 280 07:45 20.09.2019
1637 Clouds 15 1027 82 9656 3.1 280 07:26 20.09.2019
1638 Clouds 15 1026 77 9656 2.1 280 06:44 20.09.2019
1639 Clouds 16 1026 77 9656 2.1 280 06:21 20.09.2019
1640 Rain 15 1026 82 9656 2.6 290 05:43 20.09.2019
1641 Clouds 17 1025 68 11265 2.1 310 03:36 20.09.2019
1642 Rain 19 1025 68 11265 2.1 310 03:18 20.09.2019
1643 Rain 18 1024 87 8047 12.9 360 01:44 20.09.2019
1644 Rain 18 1024 87 8047 12.9 360 01:44 20.09.2019
1645 Rain 19 1023 72 9656 7.2 270 00:52 20.09.2019
1646 Clouds 22 1023 46 9656 2.6 80 00:21 20.09.2019
1647 Clouds 22 1023 46 9656 2.6 80 23:42 19.09.2019
1648 Clouds 22 1023 46 9656 2.6 80 23:19 19.09.2019
1649 Rain 22 1024 53 8047 4.1 100 22:55 19.09.2019
1650 Rain 22 1024 53 8047 4.1 100 22:36 19.09.2019
1651 Rain 22 1024 53 8047 4.1 100 22:18 19.09.2019
1652 Rain 22 1024 60 8047 6.7 120 21:55 19.09.2019
1653 Clouds 23 1025 44 9656 1 200 21:36 19.09.2019
1654 Haze 23 1025 44 9656 1 200 21:18 19.09.2019
1655 Haze 22 1026 49 9656 2.6 300 20:43 19.09.2019
1656 Haze 22 1026 49 9656 2.6 300 20:21 19.09.2019
1657 Haze 20 1027 52 8047 2.6 90 19:55 19.09.2019
1658 Haze 20 1027 52 8047 2.6 90 19:37 19.09.2019
1659 Haze 20 1027 52 8047 1.5 140 19:19 19.09.2019
1660 Haze 20 1027 52 8047 1.5 140 18:42 19.09.2019
1661 Haze 18 1027 68 9656 1.88 254.929 18:24 19.09.2019
1662 Haze 18 1027 68 9656 1.88 254.929 17:54 19.09.2019
1663 Haze 18 1027 68 9656 1.88 254.929 17:36 19.09.2019
1664 Haze 16 1027 82 12874 1.5 190 17:18 19.09.2019
1665 Haze 16 1027 82 12874 1.5 190 16:42 19.09.2019
1666 Haze 16 1027 82 9656 1.5 190 16:20 19.09.2019
1667 Haze 16 1027 82 9656 1.5 190 15:55 19.09.2019
1668 Haze 16 1027 82 9656 1.5 190 15:55 19.09.2019
1669 Haze 16 1027 82 9656 1.5 190 15:55 19.09.2019
1670 Haze 16 1027 82 9656 1.5 190 15:55 19.09.2019
1671 Haze 16 1027 82 9656 1.5 190 15:55 19.09.2019
1672 Haze 16 1027 82 9656 1.5 190 15:36 19.09.2019
1673 Haze 15 1027 82 9656 1.5 190 15:18 19.09.2019
1674 Mist 15 1026 87 12874 2.1 200 14:41 19.09.2019
1675 Mist 15 1026 87 12874 2.1 200 14:22 19.09.2019
1676 Clouds 14 1026 87 16093 2.1 230 13:58 19.09.2019
1677 Clouds 14 1026 87 16093 2.1 230 13:37 19.09.2019
1678 Clouds 14 1026 87 16093 1.16 257.809 13:18 19.09.2019
1679 Clouds 14 1026 87 16093 1.16 257.809 12:37 19.09.2019
1680 Clouds 14 1026 87 16093 0.96 229.373 12:18 19.09.2019
1681 Rain 14 1027 93 12874 2.6 60 11:41 19.09.2019
1682 Rain 14 1027 93 12874 2.6 60 11:22 19.09.2019
1683 Rain 14 1027 93 12874 2.6 60 11:22 19.09.2019
1684 Rain 14 1027 87 12874 1.5 120 10:59 19.09.2019
1685 Rain 14 1027 87 12874 1.5 120 10:39 19.09.2019
1686 Rain 14 1027 87 12874 1.5 120 10:21 19.09.2019
1687 Rain 14 1027 87 12874 1.5 120 10:21 19.09.2019
1688 Rain 14 1028 82 16093 0.96 229.373 09:58 19.09.2019
1689 Rain 14 1028 82 16093 0.96 229.373 09:40 19.09.2019
1690 Rain 14 1028 82 16093 0.96 229.373 09:40 19.09.2019
1691 Rain 14 1028 82 16093 1.3 299.936 09:19 19.09.2019
1692 Rain 14 1028 87 16093 1.53 265.84 08:51 19.09.2019
1693 Rain 14 1028 87 16093 1.53 265.84 08:24 19.09.2019
1694 Rain 14 1029 93 12874 1.53 265.84 07:44 19.09.2019
1695 Rain 14 1029 87 8047 4.1 260 07:22 19.09.2019
1696 Rain 15 1029 87 8047 4.1 260 06:57 19.09.2019
1697 Rain 15 1029 87 8047 4.1 260 06:37 19.09.2019
1698 Thunderstorm 15 1029 87 6437 4.1 220 06:19 19.09.2019
1699 Thunderstorm 15 1028 87 6437 3.6 60 05:42 19.09.2019
1700 Thunderstorm 15 1027 82 9656 5.1 360 04:18 19.09.2019
1701 Thunderstorm 16 1026 77 12874 2.6 160 03:20 19.09.2019
1702 Thunderstorm 21 1024 40 12874 2.1 160 01:40 19.09.2019
1703 Thunderstorm 22 1027 77 9656 5.1 320 01:19 19.09.2019
1704 Thunderstorm 22 1027 77 9656 5.1 320 00:42 19.09.2019
1705 Thunderstorm 22 1027 77 9656 5.1 320 00:18 19.09.2019
1706 Clouds 22 1024 41 14484 5.1 120 23:37 18.09.2019
1707 Clouds 23 1024 41 14484 5.1 120 23:19 18.09.2019
1708 Clouds 23 1025 43 14484 5.1 130 22:38 18.09.2019
1709 Clouds 23 1025 43 14484 5.1 130 22:19 18.09.2019
1710 Clouds 22 1026 46 16093 3.6 120 21:57 18.09.2019
1711 Clouds 22 1026 46 16093 3.6 120 21:39 18.09.2019
1712 Clouds 22 1026 46 16093 3.6 120 21:18 18.09.2019
1713 Clouds 22 1028 46 16093 3.1 210 20:57 18.09.2019
1714 Clouds 22 1028 46 16093 3.1 210 20:57 18.09.2019
1715 Clouds 22 1028 46 16093 3.1 210 20:39 18.09.2019
1716 Clouds 22 1028 43 16093 3.1 170 20:20 18.09.2019
1717 Clouds 22 1028 43 16093 3.1 170 20:20 18.09.2019
1718 Clouds 22 1028 43 16093 3.1 170 19:56 18.09.2019
1719 Clouds 21 1028 52 16093 2.6 230 19:37 18.09.2019
1720 Mist 20 1028 60 16093 2.6 40 19:18 18.09.2019
1721 Mist 20 1028 60 16093 2.6 40 18:54 18.09.2019
1722 Mist 20 1028 60 16093 2.6 40 18:36 18.09.2019
1723 Mist 19 1028 60 16093 2.6 40 18:18 18.09.2019
1724 Mist 17 1028 67 16093 4.1 110 17:41 18.09.2019
1725 Mist 17 1028 67 16093 4.1 110 17:20 18.09.2019
1726 Mist 16 1030 82 9656 3.1 120 16:59 18.09.2019
1727 Mist 16 1030 82 9656 3.1 120 16:41 18.09.2019
1728 Mist 16 1030 82 9656 3.1 120 16:22 18.09.2019
1729 Mist 15 1027 72 16093 2.6 110 15:56 18.09.2019
1730 Mist 15 1027 72 16093 2.6 110 15:56 18.09.2019
1731 Mist 15 1027 72 16093 2.6 110 15:38 18.09.2019
1732 Mist 15 1027 72 16093 2.6 110 15:20 18.09.2019
1733 Mist 16 1029 87 8047 5.7 150 14:58 18.09.2019
1734 Clouds 15 1027 67 16093 3.1 160 14:40 18.09.2019
1735 Clouds 15 1027 67 16093 3.1 160 14:21 18.09.2019
1736 Clouds 14 1027 77 16093 3.6 120 13:58 18.09.2019
1737 Clouds 14 1027 77 16093 3.6 120 13:58 18.09.2019
1738 Clouds 14 1027 77 16093 3.6 120 13:37 18.09.2019
1739 Clouds 15 1026 67 16093 1 180 13:18 18.09.2019
1740 Clouds 15 1026 67 16093 1 180 13:18 18.09.2019
1741 Clouds 15 1026 67 16093 1 180 12:42 18.09.2019
1742 Clouds 15 1026 67 16093 1 180 12:22 18.09.2019
1743 Clouds 15 1027 72 16093 1 150 11:40 18.09.2019
1744 Clouds 15 1027 72 16093 1 150 11:40 18.09.2019
1745 Clouds 15 1027 72 16093 1 150 11:20 18.09.2019
1746 Clouds 15 1027 72 14484 2.1 180 10:58 18.09.2019
1747 Clouds 15 1027 72 14484 2.1 180 10:39 18.09.2019
1748 Clouds 15 1027 72 14484 2.1 180 10:20 18.09.2019
1749 Clouds 16 1027 68 14484 1.5 230 09:55 18.09.2019
1750 Clouds 16 1027 68 14484 1.5 230 09:37 18.09.2019
1751 Clouds 16 1027 68 14484 1.5 230 09:18 18.09.2019
1752 Clouds 15 1028 72 11265 1.5 210 08:41 18.09.2019
1753 Clouds 15 1028 72 11265 1.5 210 08:41 18.09.2019
1754 Clouds 15 1028 72 11265 1.5 210 08:21 18.09.2019
1755 Clouds 15 1028 72 11265 2.1 270 07:45 18.09.2019
1756 Clouds 15 1028 72 11265 2.1 270 07:23 18.09.2019
1757 Clouds 15 1027 77 12874 3.1 290 06:55 18.09.2019
1758 Clouds 15 1027 77 12874 3.1 290 06:55 18.09.2019
1759 Clouds 15 1027 77 12874 3.1 290 06:29 18.09.2019
1760 Rain 15 1027 77 12874 3.6 280 05:39 18.09.2019
1761 Thunderstorm 19 1026 72 9656 3.1 280 03:49 18.09.2019
1762 Thunderstorm 19 1023 82 1609 15.4 50 02:41 18.09.2019
1763 Thunderstorm 22 1023 49 9656 5.1 120 01:50 18.09.2019
1764 Clouds 25 1023 33 9656 2.6 80 00:57 18.09.2019
1765 Clouds 25 1023 33 9656 2.6 80 00:34 18.09.2019
1766 Clouds 25 1024 31 9656 3.1 340 23:48 17.09.2019
1767 Clouds 25 1024 31 9656 3.1 340 23:48 17.09.2019
1768 Clouds 25 1024 31 9656 3.1 340 23:26 17.09.2019
1769 Clouds 25 1025 36 8047 2.6 90 22:59 17.09.2019
1770 Clouds 24 1025 36 8047 2.6 90 22:41 17.09.2019
1771 Clouds 24 1025 36 8047 2.6 90 22:22 17.09.2019
1772 Clouds 23 1026 40 9656 3.1 90 21:54 17.09.2019
1773 Clouds 23 1026 40 9656 3.1 90 21:36 17.09.2019
1774 Clouds 23 1026 40 9656 3.1 90 21:18 17.09.2019
1775 Clouds 23 1026 40 9656 3.1 90 21:18 17.09.2019
1776 Clouds 23 1026 40 9656 3.1 90 21:18 17.09.2019
1777 -273 0 0 0 0 0 20:57 17.09.2019
1778 Clouds 22 1027 46 8047 1.54 56.134 20:38 17.09.2019
1779 Clouds 22 1027 46 8047 1.54 56.134 20:20 17.09.2019
1780 Clouds 22 1027 46 8047 1.54 56.134 20:20 17.09.2019
1781 Mist 22 1028 43 8047 2.6 80 19:57 17.09.2019
1782 Mist 21 1028 56 8047 3.1 20 19:38 17.09.2019
1783 Mist 19 1029 63 8047 3.1 280 19:18 17.09.2019
1784 Mist 19 1029 63 8047 3.1 280 18:43 17.09.2019
1785 Mist 19 1029 63 8047 3.1 280 18:22 17.09.2019
1786 Mist 18 1029 72 8047 2.1 90 17:56 17.09.2019
1787 Mist 18 1029 72 8047 2.1 90 17:38 17.09.2019
1788 Mist 18 1029 72 8047 2.1 90 17:19 17.09.2019
1789 Fog 16 1028 82 9656 3.1 80 16:42 17.09.2019
1790 Fog 14 1028 82 8047 2.6 80 16:23 17.09.2019
1791 Fog 14 1028 82 8047 2.6 80 15:59 17.09.2019
1792 Fog 15 1028 82 8047 2.6 80 15:38 17.09.2019
1793 Fog 15 1028 82 8047 2.6 80 15:19 17.09.2019
1794 Fog 14 1027 87 9656 3.1 120 14:56 17.09.2019
1795 Fog 14 1027 87 9656 3.1 120 14:56 17.09.2019
1796 Fog 13 1027 87 9656 3.1 120 14:37 17.09.2019
1797 Fog 12 1027 87 12874 1.5 80 14:19 17.09.2019
1798 Fog 13 1027 87 12874 1.5 80 13:43 17.09.2019
1799 Fog 13 1027 87 12874 1.5 80 13:23 17.09.2019
1800 Fog 12 1026 87 16093 2.6 70 12:56 17.09.2019
1801 Fog 13 1026 87 16093 2.6 70 12:37 17.09.2019
1802 Fog 13 1026 82 19312 2.1 300 12:18 17.09.2019
1803 Fog 13 1026 82 19312 2.1 300 11:42 17.09.2019
1804 Fog 13 1026 82 19312 2.1 300 11:24 17.09.2019
1805 Fog 13 1026 82 19312 2.1 300 11:24 17.09.2019
1806 Fog 13 1027 87 19312 2.1 270 10:55 17.09.2019
1807 Fog 13 1027 87 19312 2.1 270 10:37 17.09.2019
1808 Fog 13 1027 87 19312 2.1 270 10:18 17.09.2019
1809 Mist 14 1027 82 19312 2.6 260 09:41 17.09.2019
1810 Clouds 14 1028 72 19312 5.1 280 09:21 17.09.2019
1811 Clouds 15 1028 72 19312 5.1 280 08:50 17.09.2019
1812 Clouds 15 1028 72 19312 5.1 280 08:32 17.09.2019
1813 Mist 15 1027 72 19312 2.1 260 07:59 17.09.2019
1814 Mist 15 1027 72 19312 2.1 260 07:39 17.09.2019
1815 Mist 15 1027 72 19312 2.1 260 07:39 17.09.2019
1816 Mist 15 1027 72 19312 2.1 260 07:39 17.09.2019
1817 Rain 15 1028 82 19312 2.6 280 07:19 17.09.2019
1818 Rain 14 1028 82 19312 2.6 280 06:45 17.09.2019
1819 Thunderstorm 14 1027 82 11265 4.6 280 06:20 17.09.2019
1820 Thunderstorm 14 1027 82 11265 4.6 280 05:47 17.09.2019
1821 Thunderstorm 14 1027 93 8047 5.1 300 04:29 17.09.2019
1822 Rain 20 1025 72 11265 3.1 270 02:57 17.09.2019
1823 Clouds 20 1025 63 11265 3.1 260 02:38 17.09.2019
1824 Clouds 20 1025 63 11265 3.1 260 02:38 17.09.2019
1825 Clouds 21 1024 56 11265 5.1 130 01:26 17.09.2019
1826 Rain 23 1023 36 12874 4.1 40 00:40 17.09.2019
1827 Clouds 23 1024 36 11265 3.1 20 23:40 16.09.2019
1828 Clouds 23 1024 36 11265 3.1 20 23:19 16.09.2019
1829 Clouds 24 1026 38 9656 3.1 350 22:56 16.09.2019
1830 Clouds 24 1026 38 9656 3.1 350 22:56 16.09.2019
1831 Clouds 24 1026 38 9656 3.1 350 22:56 16.09.2019
1832 Clouds 23 1026 38 9656 3.1 350 22:37 16.09.2019
1833 Clouds 23 1026 38 9656 3.1 350 22:19 16.09.2019
1834 Clouds 23 1027 46 9656 4.1 160 21:41 16.09.2019
1835 Clouds 23 1027 46 9656 4.1 160 21:22 16.09.2019
1836 Clouds 23 1027 46 9656 2.17 51.266 20:59 16.09.2019
1837 Clouds 22 1028 52 9656 2.6 220 20:40 16.09.2019
1838 Clouds 22 1028 52 9656 2.6 220 20:20 16.09.2019
1839 Clouds 20 1029 55 9656 1.5 180 19:57 16.09.2019
1840 Clouds 20 1029 55 9656 1.5 180 19:38 16.09.2019
1841 Clouds 20 1029 55 9656 1.5 180 19:19 16.09.2019
1842 Clouds 19 1029 59 9656 2.25 57.32 18:46 16.09.2019
1843 Clouds 19 1029 59 9656 2.25 57.32 18:27 16.09.2019
1844 Haze 17 1029 67 8047 2.1 300 17:57 16.09.2019
1845 Haze 17 1029 67 8047 2.1 300 17:38 16.09.2019
1846 Haze 17 1029 67 8047 2.1 300 17:19 16.09.2019
1847 Mist 15 1029 77 6437 2.6 240 16:44 16.09.2019
1848 Mist 15 1029 77 6437 2.6 240 16:22 16.09.2019
1849 Mist 13 1028 82 9656 2.1 80 15:58 16.09.2019
1850 Mist 13 1028 82 9656 2.1 80 15:39 16.09.2019
1851 Mist 13 1028 82 9656 2.1 80 15:21 16.09.2019
1852 Smoke 13 1028 87 8047 2.6 90 14:58 16.09.2019
1853 Smoke 11 1028 87 8047 2.6 90 14:40 16.09.2019
1854 Smoke 11 1028 87 8047 2.6 90 14:21 16.09.2019
1855 Smoke 12 1027 82 9656 3.6 60 13:43 16.09.2019
1856 Clouds 12 1027 82 11265 3.6 70 13:22 16.09.2019
1857 Clouds 12 1027 82 11265 3.6 70 12:59 16.09.2019
1858 Clouds 12 1027 82 11265 3.6 70 12:39 16.09.2019
1859 Clouds 12 1027 82 11265 3.6 70 12:21 16.09.2019
1860 Clouds 13 1027 67 16093 3.1 80 11:46 16.09.2019
1861 Clouds 13 1027 67 16093 3.1 80 11:23 16.09.2019
1862 Smoke 14 1028 63 16093 2.1 90 10:56 16.09.2019
1863 Smoke 14 1028 63 16093 2.1 90 10:38 16.09.2019
1864 Smoke 14 1028 63 16093 2.1 90 10:19 16.09.2019
1865 Clouds 15 1028 63 16093 3.6 300 09:55 16.09.2019
1866 Clouds 15 1028 63 16093 3.6 300 09:36 16.09.2019
1867 Clouds 15 1028 63 16093 3.6 300 09:18 16.09.2019
1868 Clouds 15 1029 59 16093 4.1 290 08:41 16.09.2019
1869 Clouds 15 1029 59 16093 4.1 290 08:41 16.09.2019
1870 Clouds 15 1029 59 16093 4.1 290 08:22 16.09.2019
1871 Smoke 15 1029 59 16093 1.5 350 07:43 16.09.2019
1872 Smoke 15 1029 59 16093 1.5 350 07:24 16.09.2019
1873 Clouds 15 1028 59 19312 4.1 360 06:58 16.09.2019
1874 Clouds 15 1028 59 19312 4.1 360 06:39 16.09.2019
1875 Clouds 16 1027 55 19312 6.7 10 06:20 16.09.2019
1876 Clouds 16 1027 55 19312 6.7 10 05:42 16.09.2019
1877 Clouds 16 1026 52 19312 5.1 360 05:21 16.09.2019
1878 Clouds 20 1025 40 19312 7.2 20 03:46 16.09.2019
1879 Clouds 22 1024 33 19312 9.3 20 01:31 16.09.2019
1880 Rain 23 1024 27 16093 2.1 130 00:38 16.09.2019
1881 Rain 23 1024 27 16093 2.1 130 00:20 16.09.2019
1882 Clouds 24 1025 29 16093 2.1 20 23:39 15.09.2019
1883 Clouds 24 1026 31 16093 3.1 40 23:20 15.09.2019
1884 Clouds 24 1026 31 16093 3.1 40 22:40 15.09.2019
1885 Clouds 24 1026 31 16093 3.1 40 22:21 15.09.2019
1886 Clouds 23 1027 33 16093 4.6 60 21:58 15.09.2019
1887 Clouds 23 1027 33 16093 4.6 60 21:39 15.09.2019
1888 Clouds 23 1027 33 16093 4.6 60 21:39 15.09.2019
1889 Clouds 23 1027 33 16093 4.6 60 21:39 15.09.2019
1890 Clouds 23 1027 33 16093 4.6 60 21:39 15.09.2019
1891 Clouds 22 1028 37 16093 3.6 340 21:21 15.09.2019
1892 Clouds 22 1028 37 16093 3.6 340 20:57 15.09.2019
1893 Clouds 22 1028 37 16093 3.6 340 20:57 15.09.2019
1894 Clouds 22 1028 37 16093 3.6 340 20:38 15.09.2019
1895 Clouds 22 1028 37 16093 3.6 340 20:20 15.09.2019
1896 Clouds 21 1029 40 16093 3.6 130 19:42 15.09.2019
1897 Clouds 21 1029 40 16093 3.6 130 19:22 15.09.2019
1898 Clouds 19 1029 55 14484 2.1 80 18:42 15.09.2019
1899 Clouds 19 1029 55 14484 2.1 80 18:24 15.09.2019
1900 Haze 16 1029 67 14484 2.1 50 17:58 15.09.2019
1901 Haze 16 1029 67 14484 2.1 50 17:39 15.09.2019
1902 Haze 16 1029 67 14484 2.1 50 17:20 15.09.2019
1903 Haze 14 1029 76 14484 3.1 90 16:44 15.09.2019
1904 Haze 14 1029 76 14484 3.1 90 16:25 15.09.2019
1905 Mist 13 1028 82 14484 2.6 60 15:58 15.09.2019
1906 Mist 13 1028 82 14484 2.6 60 15:40 15.09.2019
1907 Mist 13 1028 82 14484 2.6 60 15:20 15.09.2019
1908 Mist 11 1029 93 3219 2.1 320 14:58 15.09.2019
1909 Clouds 11 1028 82 16093 3.1 70 14:39 15.09.2019
1910 Clouds 11 1028 82 16093 3.1 70 14:20 15.09.2019
1911 Clouds 12 1028 76 19312 1.5 90 13:46 15.09.2019
1912 Clouds 12 1028 76 19312 1.5 90 13:46 15.09.2019
1913 Clouds 12 1028 76 19312 1.5 90 13:24 15.09.2019
1914 Clouds 12 1028 76 19312 2.1 50 12:55 15.09.2019
1915 Clouds 12 1028 76 19312 2.1 50 12:36 15.09.2019
1916 Clouds 13 1028 67 19312 2.1 10 12:18 15.09.2019
1917 Clouds 13 1028 67 19312 2.1 10 11:42 15.09.2019
1918 Clouds 13 1028 67 19312 2.1 10 11:22 15.09.2019
1919 Clouds 13 1028 67 16093 2.6 280 10:56 15.09.2019
1920 Clouds 13 1028 67 16093 2.6 280 10:38 15.09.2019
1921 Clouds 13 1028 67 16093 2.6 280 10:19 15.09.2019
1922 Clouds 13 1029 62 19312 2.6 290 09:40 15.09.2019
1923 Clouds 14 1029 59 19312 4.1 330 09:20 15.09.2019
1924 Clouds 14 1029 59 19312 4.1 330 08:47 15.09.2019
1925 Clouds 14 1029 59 19312 4.1 330 08:47 15.09.2019
1926 Clouds 14 1029 59 19312 4.1 330 08:28 15.09.2019
1927 Clouds 14 1029 59 19312 4.1 330 08:28 15.09.2019
1928 Clouds 14 1029 59 19312 4.6 10 07:51 15.09.2019
1929 Clouds 14 1029 59 19312 4.6 10 07:32 15.09.2019
1930 Clouds 15 1029 63 19312 4.1 330 06:43 15.09.2019
1931 Clouds 18 1026 45 16093 9.8 30 03:54 15.09.2019
1932 Clouds 21 1026 45 16093 9.3 40 02:46 15.09.2019
1933 Clouds 22 1025 38 16093 6.2 10 01:45 15.09.2019
1934 Clouds 22 1025 38 16093 6.2 10 01:45 15.09.2019
1935 Clouds 22 1025 38 16093 6.2 10 01:45 15.09.2019
1936 Clouds 22 1025 38 16093 6.2 10 01:27 15.09.2019
1937 Clouds 23 1025 35 16093 5.1 360 00:50 15.09.2019
1938 Clouds 23 1025 35 16093 5.1 360 00:24 15.09.2019
1939 Clouds 23 1026 43 16093 5.1 340 23:59 14.09.2019
1940 Clouds 22 1026 43 16093 5.1 340 23:41 14.09.2019
1941 Clouds 22 1026 43 16093 5.1 340 23:22 14.09.2019
1942 Clouds 22 1027 49 16093 4.1 330 22:59 14.09.2019
1943 Clouds 22 1027 49 16093 4.1 330 22:40 14.09.2019
1944 Clouds 22 1027 49 16093 4.1 330 22:21 14.09.2019
1945 Clouds 21 1028 52 16093 5.1 40 21:57 14.09.2019
1946 Clouds 21 1028 52 16093 5.1 40 21:39 14.09.2019
1947 Clouds 21 1028 52 16093 5.1 40 21:19 14.09.2019
1948 Clouds 21 1029 55 16093 4.1 360 20:55 14.09.2019
1949 Clouds 21 1029 55 16093 4.1 360 20:55 14.09.2019
1950 Clouds 20 1029 55 16093 4.1 360 20:36 14.09.2019
1951 Clouds 20 1029 55 16093 4.1 360 20:18 14.09.2019
1952 Mist 20 1029 59 12874 5.1 360 19:44 14.09.2019
1953 Mist 20 1029 59 12874 5.1 360 19:21 14.09.2019
1954 Fog 19 1029 63 12874 3.6 340 18:55 14.09.2019
1955 Fog 18 1030 72 12874 3.6 350 18:37 14.09.2019
1956 Mist 17 1030 67 4828 4.1 270 18:18 14.09.2019
1957 Mist 16 1029 72 12874 2.1 360 17:42 14.09.2019
1958 Mist 16 1029 72 12874 2.1 360 17:22 14.09.2019
1959 Mist 15 1030 82 4828 2.26 57.3 16:47 14.09.2019
1960 Mist 15 1030 82 4828 2.26 57.3 16:47 14.09.2019
1961 Mist 15 1029 77 12874 2.1 360 16:26 14.09.2019
1962 Mist 15 1028 77 12874 2.6 310 15:57 14.09.2019
1963 Mist 15 1028 77 12874 2.6 310 15:38 14.09.2019
1964 Mist 15 1028 77 12874 2.6 310 15:19 14.09.2019
1965 Fog 15 1028 77 16093 1.5 310 14:43 14.09.2019
1966 Fog 15 1028 77 16093 1.5 310 14:19 14.09.2019
1967 Clouds 14 1027 77 19312 1.5 340 13:48 14.09.2019
1968 Clouds 14 1027 77 19312 1.5 340 13:23 14.09.2019
1969 Clouds 14 1027 77 19312 2.6 350 12:58 14.09.2019
1970 Clouds 14 1027 77 19312 2.6 350 12:37 14.09.2019
1971 Clouds 14 1027 77 19312 2.6 350 12:18 14.09.2019
1972 Clouds 14 1027 72 19312 4.1 350 11:40 14.09.2019
1973 Clouds 14 1027 72 19312 4.1 350 11:19 14.09.2019
1974 Clouds 15 1028 67 19312 4.1 340 10:39 14.09.2019
1975 Clouds 15 1028 63 19312 2.6 10 10:20 14.09.2019
1976 Clouds 15 1028 63 19312 2.6 10 09:57 14.09.2019
1977 Clouds 15 1028 63 19312 2.6 10 09:39 14.09.2019
1978 Clouds 15 1028 63 19312 2.6 10 09:19 14.09.2019
1979 Clouds 15 1028 67 19312 5.1 340 08:46 14.09.2019
1980 Clouds 15 1028 67 19312 5.1 340 08:24 14.09.2019
1981 Clouds 15 1029 67 19312 5.1 350 07:47 14.09.2019
1982 Clouds 15 1029 67 19312 5.1 350 07:28 14.09.2019
1983 Clouds 16 1028 67 19312 4.1 10 06:52 14.09.2019
1984 Clouds 16 1028 67 19312 4.1 10 06:28 14.09.2019
1985 Clouds 16 1028 67 19312 4.1 10 06:28 14.09.2019
1986 Rain 17 1028 63 19312 4.6 10 05:26 14.09.2019
1987 Clouds 17 1026 82 11265 2.6 260 03:46 14.09.2019
1988 Rain 18 1026 77 11265 3.1 230 02:54 14.09.2019
1989 Rain 18 1026 77 11265 3.1 230 02:54 14.09.2019
1990 Rain 18 1025 63 11265 4.6 290 01:52 14.09.2019
1991 Rain 18 1025 59 11265 2.6 240 01:23 14.09.2019
1992 Rain 21 1025 52 12874 3.1 20 00:58 14.09.2019
1993 Rain 21 1025 52 12874 3.1 20 00:38 14.09.2019
1994 Clouds 20 1025 52 11265 3.6 260 00:20 14.09.2019
1995 Clouds 22 1025 52 11265 3.6 260 23:38 13.09.2019
1996 Clouds 22 1025 52 11265 3.6 260 23:19 13.09.2019
1997 Clouds 22 1026 59 11265 2.6 220 22:58 13.09.2019
1998 Rain 21 1026 55 9656 2.6 200 22:38 13.09.2019
1999 Rain 21 1026 55 9656 2.6 200 22:20 13.09.2019
2000 Clouds 21 1028 55 16093 3.1 240 21:42 13.09.2019
2001 Clouds 21 1028 55 16093 3.1 240 21:20 13.09.2019
2002 Clouds 21 1028 55 16093 3.1 240 21:20 13.09.2019
2003 Clouds 20 1028 55 16093 2.1 10 20:59 13.09.2019
2004 Clouds 20 1028 55 16093 2.1 10 20:40 13.09.2019
2005 Clouds 20 1028 55 16093 2.1 10 20:21 13.09.2019
2006 Clouds 20 1029 59 16093 3.6 300 19:58 13.09.2019
2007 Clouds 20 1029 59 16093 3.6 300 19:40 13.09.2019
2008 Clouds 19 1029 63 12874 2.6 350 19:19 13.09.2019
2009 Clouds 18 1029 63 12874 2.6 350 18:56 13.09.2019
2010 Clouds 18 1029 63 12874 2.6 350 18:37 13.09.2019
2011 Clouds 17 1028 67 11265 2.6 10 18:18 13.09.2019
2012 Clouds 17 1028 67 11265 2.6 10 17:39 13.09.2019
2013 Clouds 17 1028 67 11265 2.6 10 17:39 13.09.2019
2014 Clouds 17 1028 67 11265 2.6 10 17:19 13.09.2019
2015 Fog 16 1027 67 11265 3.6 40 16:42 13.09.2019
2016 Fog 16 1027 67 11265 3.6 40 16:22 13.09.2019
2017 Fog 15 1027 72 12874 3.6 40 15:58 13.09.2019
2018 Fog 15 1027 72 12874 3.6 40 15:39 13.09.2019
2019 Fog 15 1027 72 12874 3.6 40 15:20 13.09.2019
2020 Fog 15 1027 77 16093 1.5 280 14:44 13.09.2019
2021 Fog 15 1027 77 16093 1.5 280 14:22 13.09.2019
2022 Clouds 14 1026 72 16093 2.6 20 13:56 13.09.2019
2023 Clouds 14 1026 72 16093 2.6 20 13:37 13.09.2019
2024 Clouds 14 1026 72 16093 2.6 20 13:18 13.09.2019
2025 Clouds 14 1026 67 19312 2.6 20 12:41 13.09.2019
2026 Clouds 14 1026 67 19312 2.6 20 12:23 13.09.2019
2027 Clouds 15 1026 67 19312 2.1 360 11:56 13.09.2019
2028 Clouds 15 1026 67 19312 2.1 360 11:20 13.09.2019
2029 Clouds 15 1027 72 19312 2.1 320 10:41 13.09.2019
2030 Clouds 15 1027 72 19312 2.1 320 10:20 13.09.2019
2031 Clouds 14 1027 77 19312 3.1 320 09:46 13.09.2019
2032 Clouds 14 1027 77 19312 3.1 320 09:25 13.09.2019
2033 Clouds 15 1027 72 19312 1.5 350 08:59 13.09.2019
2034 Clouds 15 1027 72 19312 1.5 350 08:41 13.09.2019
2035 Clouds 15 1027 72 19312 1.5 350 08:21 13.09.2019
2036 Clouds 15 1028 72 24140 3.6 350 07:56 13.09.2019
2037 Clouds 15 1028 72 24140 3.6 350 07:38 13.09.2019
2038 Rain 15 1028 67 24140 2.1 10 06:49 13.09.2019
2039 Rain 15 1027 67 24140 4.1 350 05:50 13.09.2019
2040 Rain 15 1027 67 24140 4.1 350 05:18 13.09.2019
2041 Clouds 17 1025 63 14484 5.1 10 03:40 13.09.2019
2042 Clouds 20 1024 63 14484 5.1 10 02:48 13.09.2019
2043 Clouds 20 1024 63 14484 5.1 10 02:18 13.09.2019
2044 Rain 21 1024 56 14484 9.3 80 01:35 13.09.2019
2045 Rain 22 1024 49 14484 5.1 40 00:58 13.09.2019
2046 Rain 21 1023 55 14484 8.7 30 00:31 13.09.2019
2047 Clouds 24 1024 40 11265 3.6 20 23:40 12.09.2019
2048 Clouds 24 1024 40 11265 3.6 20 23:20 12.09.2019
2049 Clouds 23 1025 46 11265 2.98 37.659 23:20 12.09.2019
2050 Clouds 23 1025 46 11265 2.98 37.659 22:42 12.09.2019
2051 Clouds 23 1025 46 11265 2.98 37.659 22:24 12.09.2019
2052 Clouds 22 1026 49 11265 2.1 250 21:57 12.09.2019
2053 Clouds 22 1026 49 11265 2.1 250 21:38 12.09.2019
2054 Clouds 22 1026 49 11265 2.1 250 21:20 12.09.2019
2055 Clouds 21 1027 49 9656 2.1 60 20:57 12.09.2019
2056 Clouds 21 1027 49 9656 2.1 60 20:56 12.09.2019
2057 Clouds 21 1027 49 9656 2.1 60 20:38 12.09.2019
2058 Clouds 21 1027 49 9656 2.1 60 20:19 12.09.2019
2059 Clouds 21 1027 49 9656 2.1 60 20:19 12.09.2019
2060 Clouds 21 1028 52 9656 2.1 250 19:54 12.09.2019
2061 Clouds 21 1028 52 9656 2.1 250 19:36 12.09.2019
2062 Mist 19 1028 56 9656 3.1 300 19:18 12.09.2019
2063 Mist 19 1028 63 9656 2.1 360 18:37 12.09.2019
2064 Mist 17 1028 72 11265 4.1 60 18:19 12.09.2019
2065 Mist 17 1028 72 11265 4.1 60 17:56 12.09.2019
2066 Mist 17 1028 72 11265 4.1 60 17:38 12.09.2019
2067 Mist 17 1028 72 11265 4.1 60 17:19 12.09.2019
2068 Mist 15 1027 77 11265 2.1 70 16:41 12.09.2019
2069 Mist 15 1027 77 11265 2.1 70 16:21 12.09.2019
2070 Mist 14 1027 82 11265 2.6 80 15:45 12.09.2019
2071 Mist 14 1027 82 11265 2.6 80 15:27 12.09.2019
2072 Mist 14 1026 82 11265 3.6 90 14:58 12.09.2019
2073 Mist 14 1026 82 11265 3.6 90 14:40 12.09.2019
2074 Mist 14 1026 82 11265 3.6 90 14:40 12.09.2019
2075 Mist 14 1026 82 11265 3.6 90 14:21 12.09.2019
2076 Mist 13 1026 82 11265 1.5 90 13:39 12.09.2019
2077 Mist 13 1026 82 11265 1.5 90 13:21 12.09.2019
2078 Mist 14 1026 72 12874 1 80 12:49 12.09.2019
2079 Clouds 13 1026 72 12874 2.6 320 12:20 12.09.2019
2080 Clouds 13 1026 72 12874 2.6 320 12:20 12.09.2019
2081 Clouds 14 1026 72 12874 2.6 320 11:59 12.09.2019
2082 Clouds 14 1026 72 12874 2.6 320 11:40 12.09.2019
2083 Clouds 14 1026 72 12874 2.6 320 11:21 12.09.2019
2084 Clouds 14 1027 72 14484 3.1 300 10:56 12.09.2019
2085 Clouds 14 1027 72 14484 3.1 300 10:37 12.09.2019
2086 Clouds 14 1028 72 19312 3.1 300 10:18 12.09.2019
2087 Clouds 14 1028 72 19312 3.1 300 09:42 12.09.2019
2088 Clouds 14 1028 67 19312 2.6 20 09:20 12.09.2019
2089 Clouds 14 1028 67 19312 2.6 20 08:45 12.09.2019
2090 Clouds 14 1028 67 19312 2.6 20 08:45 12.09.2019
2091 Clouds 14 1028 67 19312 2.6 20 08:25 12.09.2019
2092 Clouds 15 1027 63 19312 4.1 310 07:56 12.09.2019
2093 Clouds 15 1027 63 19312 4.1 310 07:36 12.09.2019
2094 Clouds 16 1027 63 19312 3.6 360 07:18 12.09.2019
2095 Clouds 16 1027 63 19312 3.6 360 06:46 12.09.2019
2096 Clouds 16 1027 63 19312 3.6 360 06:19 12.09.2019
2097 Clouds 17 1027 63 19312 6.2 360 05:43 12.09.2019
2098 Clouds 17 1027 63 19312 6.2 360 05:19 12.09.2019
2099 Rain 16 1025 63 12874 3.6 10 03:58 12.09.2019
2100 Clouds 20 1025 68 12874 7.7 30 01:44 12.09.2019
2101 Clouds 20 1025 68 12874 7.7 30 01:26 12.09.2019
2102 Rain 21 1024 68 12874 9.8 60 00:50 12.09.2019
2103 Rain 21 1024 68 12874 9.8 60 00:31 12.09.2019
2104 Clouds 23 1025 38 11265 4.1 20 23:47 11.09.2019
2105 Clouds 23 1025 38 11265 4.1 20 23:27 11.09.2019
2106 Clouds 23 1026 43 11265 2.1 120 22:58 11.09.2019
2107 Clouds 23 1026 43 11265 2.1 120 22:38 11.09.2019
2108 Clouds 23 1026 43 11265 2.1 120 22:20 11.09.2019
2109 Clouds 23 1026 43 11265 2.1 120 22:20 11.09.2019
2110 Clouds 22 1027 49 9656 4.1 330 21:59 11.09.2019
2111 Clouds 22 1027 49 9656 4.1 330 21:41 11.09.2019
2112 Clouds 22 1027 49 9656 4.1 330 21:22 11.09.2019
2113 Clouds 21 1028 52 9656 1.5 340 20:56 11.09.2019
2114 Clouds 21 1028 52 9656 1.5 340 20:38 11.09.2019
2115 Clouds 21 1028 52 9656 1.5 340 20:19 11.09.2019
2116 Clouds 20 1029 59 11265 2.1 30 19:56 11.09.2019
2117 Clouds 20 1029 59 11265 2.1 30 19:56 11.09.2019
2118 Clouds 20 1029 59 11265 2.1 30 19:37 11.09.2019
2119 Clouds 19 1029 63 11265 2.6 310 19:19 11.09.2019
2120 Clouds 19 1029 63 11265 2.6 310 18:42 11.09.2019
2121 Clouds 19 1029 63 11265 2.6 310 18:23 11.09.2019
2122 Clouds 16 1029 72 11265 1.24 43.622 17:58 11.09.2019
2123 Clouds 16 1029 72 11265 1.24 43.622 17:40 11.09.2019
2124 Clouds 16 1029 72 11265 1.24 43.622 17:21 11.09.2019
2125 Clouds 15 1029 82 9656 2.6 100 16:56 11.09.2019
2126 Clouds 15 1029 82 9656 2.6 100 16:36 11.09.2019
2127 Clouds 15 1029 82 9656 2.6 100 16:18 11.09.2019
2128 Clouds 14 1028 82 9656 1.5 90 15:46 11.09.2019
2129 Clouds 14 1028 82 9656 1.5 90 15:23 11.09.2019
2130 Clouds 14 1028 82 11265 2.1 300 14:57 11.09.2019
2131 Clouds 14 1028 82 11265 2.1 300 14:38 11.09.2019
2132 Clouds 14 1028 82 11265 2.1 300 14:19 11.09.2019
2133 Clouds 13 1028 87 11265 2.1 280 13:57 11.09.2019
2134 Clouds 13 1028 87 11265 2.1 280 13:36 11.09.2019
2135 Clouds 13 1028 93 12874 0.47 56.412 13:18 11.09.2019
2136 Clouds 13 1028 93 12874 0.47 56.412 12:41 11.09.2019
2137 Clouds 13 1028 93 12874 1.17 65.382 12:21 11.09.2019
2138 Clouds 13 1028 87 12874 2.1 290 11:56 11.09.2019
2139 Clouds 13 1028 87 12874 2.1 290 11:36 11.09.2019
2140 Mist 13 1028 87 12874 2.1 290 11:18 11.09.2019
2141 Mist 13 1028 87 12874 2.1 290 11:18 11.09.2019
2142 Mist 13 1028 87 12874 1.17 65.382 10:40 11.09.2019
2143 Mist 13 1028 87 12874 1.17 65.382 10:22 11.09.2019
2144 Mist 14 1029 82 12874 1.5 10 09:41 11.09.2019
2145 Mist 14 1029 82 12874 1.5 10 09:20 11.09.2019
2146 Clouds 14 1029 82 16093 3.1 340 08:59 11.09.2019
2147 Clouds 14 1029 82 16093 3.1 340 08:39 11.09.2019
2148 Clouds 14 1029 82 16093 3.1 340 08:21 11.09.2019
2149 Clouds 15 1029 87 16093 2.6 260 07:46 11.09.2019
2150 Clouds 15 1029 87 12874 2.6 260 07:23 11.09.2019
2151 Clouds 15 1029 87 12874 2.6 260 06:54 11.09.2019
2152 Clouds 15 1029 87 12874 2.6 260 06:35 11.09.2019
2153 Clouds 15 1029 87 12874 4.1 260 05:49 11.09.2019
2154 Clouds 15 1029 87 12874 4.1 260 05:28 11.09.2019
2155 Rain 14 1028 93 9656 3.6 350 04:51 11.09.2019
2156 Rain 18 1027 87 11265 5.1 300 03:36 11.09.2019
2157 Clouds 19 1026 72 11265 4.1 330 02:56 11.09.2019
2158 Clouds 19 1026 72 11265 4.1 330 02:26 11.09.2019
2159 Thunderstorm 17 1026 87 4828 4.1 70 00:57 11.09.2019
2160 Rain 20 1025 59 8047 7.7 40 00:29 11.09.2019
2161 Haze 21 1025 52 8047 7.7 20 23:57 10.09.2019
2162 Haze 23 1025 36 8047 2.6 330 23:39 10.09.2019
2163 Haze 22 1028 82 4828 3.1 200 23:20 10.09.2019
2164 Haze 22 1028 82 4828 3.1 200 22:41 10.09.2019
2165 Clouds 23 1027 43 9656 3.1 10 22:20 10.09.2019
2166 Clouds 22 1027 43 9656 3.1 10 21:56 10.09.2019
2167 Clouds 22 1027 43 9656 3.1 10 21:38 10.09.2019
2168 Clouds 22 1027 43 9656 3.1 10 21:20 10.09.2019
2169 Clouds 21 1028 46 8047 1.5 0 20:58 10.09.2019
2170 Clouds 21 1028 46 8047 1.5 0 20:39 10.09.2019
2171 Clouds 21 1028 46 8047 1.5 0 20:21 10.09.2019
2172 Haze 20 1029 52 8047 3.6 300 19:57 10.09.2019
2173 Haze 20 1029 52 8047 3.6 300 19:37 10.09.2019
2174 Haze 20 1029 52 8047 3.6 300 19:19 10.09.2019
2175 Haze 20 1029 52 9656 2.1 70 18:55 10.09.2019
2176 Haze 20 1029 52 9656 2.1 70 18:37 10.09.2019
2177 Haze 18 1031 63 6437 2.6 110 18:19 10.09.2019
2178 Haze 17 1029 63 9656 1.5 80 17:43 10.09.2019
2179 Haze 17 1029 63 9656 1.5 80 17:23 10.09.2019
2180 Mist 16 1029 72 9656 3.6 90 16:59 10.09.2019
2181 Mist 16 1029 72 9656 3.6 90 16:39 10.09.2019
2182 Mist 15 1028 72 9656 2.1 50 16:21 10.09.2019
2183 Mist 15 1028 72 9656 2.1 50 15:59 10.09.2019
2184 Mist 15 1028 72 9656 2.1 50 15:40 10.09.2019
2185 Mist 15 1028 72 9656 2.1 50 15:20 10.09.2019
2186 Mist 14 1028 77 11265 2.6 90 14:42 10.09.2019
2187 Mist 14 1028 77 11265 2.6 90 14:24 10.09.2019
2188 Clouds 15 1027 72 11265 1.5 70 13:56 10.09.2019
2189 Clouds 15 1027 72 11265 1.5 70 13:37 10.09.2019
2190 Clouds 14 1027 72 11265 1.5 70 13:19 10.09.2019
2191 Clouds 14 1027 77 12874 2.6 60 12:43 10.09.2019
2192 Clouds 14 1027 77 12874 2.6 60 12:43 10.09.2019
2193 Clouds 14 1027 77 12874 2.6 60 12:24 10.09.2019
2194 Clouds 14 1027 67 12874 1 230 11:56 10.09.2019
2195 Clouds 14 1027 67 12874 1 230 11:38 10.09.2019
2196 Clouds 14 1027 67 12874 1 230 11:20 10.09.2019
2197 Clouds 14 1029 87 8047 0.91 228.513 10:39 10.09.2019
2198 Clouds 13 1030 87 8047 0.91 228.513 10:19 10.09.2019
2199 Clouds 13 1030 87 8047 0.91 228.513 10:19 10.09.2019
2200 Clouds 14 1028 67 12874 3.1 110 09:55 10.09.2019
2201 Clouds 14 1028 67 12874 3.1 110 09:37 10.09.2019
2202 Rain 15 1029 67 12874 4.1 120 09:18 10.09.2019
2203 Rain 15 1029 67 12874 4.1 120 08:43 10.09.2019
2204 Rain 15 1029 67 12874 4.1 120 08:24 10.09.2019
2205 Rain 15 1029 67 12874 4.1 120 08:24 10.09.2019
2206 Rain 15 1029 67 11265 2.6 180 07:44 10.09.2019
2207 Rain 15 1029 67 11265 2.6 180 07:26 10.09.2019
2208 Rain 16 1028 67 11265 4.1 200 06:51 10.09.2019
2209 Rain 16 1028 67 11265 4.1 200 06:32 10.09.2019
2210 Smoke 17 1027 55 11265 3.1 180 04:57 10.09.2019
2211 Clouds 18 1026 55 12874 2.6 320 03:48 10.09.2019
2212 Clouds 20 1025 59 12874 7.2 30 02:23 10.09.2019
2213 Clouds 21 1025 55 12874 7.2 20 01:57 10.09.2019
2214 Clouds 21 1025 55 12874 7.2 20 01:39 10.09.2019
2215 Clouds 22 1024 40 11265 6.2 120 00:46 10.09.2019
2216 Clouds 22 1024 40 11265 6.2 120 00:25 10.09.2019
2217 Thunderstorm 23 1025 27 11265 4.1 70 23:47 09.09.2019
2218 Thunderstorm 24 1025 27 11265 4.1 70 23:20 09.09.2019
2219 Clouds 24 1026 31 9656 4.1 40 22:56 09.09.2019
2220 Clouds 24 1026 31 9656 4.1 40 22:38 09.09.2019
2221 Clouds 23 1027 33 9656 2.1 100 22:20 09.09.2019
2222 Clouds 23 1027 33 9656 2.1 100 21:57 09.09.2019
2223 Clouds 23 1027 33 9656 2.1 100 21:38 09.09.2019
2224 Clouds 22 1028 40 8047 1.5 50 21:20 09.09.2019
2225 Clouds 22 1028 40 8047 1.5 50 20:56 09.09.2019
2226 Clouds 22 1028 40 8047 1.5 50 20:37 09.09.2019
2227 Clouds 22 1028 43 8047 1.5 170 20:19 09.09.2019
2228 Clouds 22 1028 43 8047 1.5 170 19:57 09.09.2019
2229 Clouds 22 1028 43 8047 1.5 170 19:38 09.09.2019
2230 Clouds 20 1030 52 8047 2.1 250 19:19 09.09.2019
2231 Clouds 20 1030 52 8047 2.1 250 19:19 09.09.2019
2232 Clouds 19 1029 55 9656 2.1 90 18:57 09.09.2019
2233 Clouds 19 1029 55 9656 2.1 90 18:38 09.09.2019
2234 Clouds 18 1029 59 9656 2.1 60 18:20 09.09.2019
2235 Clouds 18 1029 59 9656 2.1 60 17:57 09.09.2019
2236 Clouds 18 1029 59 9656 2.1 60 17:39 09.09.2019
2237 Haze 15 1029 72 9656 2.6 70 17:20 09.09.2019
2238 Haze 15 1029 72 9656 2.6 70 16:55 09.09.2019
2239 Haze 15 1029 72 9656 2.6 70 16:37 09.09.2019
2240 Fog 14 1028 71 9656 2.6 70 16:18 09.09.2019
2241 Fog 14 1028 71 9656 2.6 70 15:44 09.09.2019
2242 Fog 14 1028 71 9656 2.6 70 15:24 09.09.2019
2243 Fog 14 1028 76 12874 1.5 30 14:59 09.09.2019
2244 Fog 13 1028 76 12874 1.5 30 14:40 09.09.2019
2245 Fog 13 1028 76 12874 1.5 30 14:21 09.09.2019
2246 Clouds 12 1027 76 16093 3.1 90 13:57 09.09.2019
2247 Clouds 12 1027 76 16093 3.1 90 13:39 09.09.2019
2248 Clouds 13 1027 76 16093 2.6 80 13:18 09.09.2019
2249 Clouds 13 1027 76 16093 2.6 80 12:54 09.09.2019
2250 Clouds 14 1027 67 19312 2.1 280 12:36 09.09.2019
2251 Clouds 14 1027 63 19312 2.1 290 12:18 09.09.2019
2252 Clouds 14 1027 63 19312 2.1 290 11:43 09.09.2019
2253 Clouds 14 1028 63 19312 3.1 290 11:20 09.09.2019
2254 Clouds 14 1028 63 19312 3.1 290 10:42 09.09.2019
2255 Clouds 15 1028 63 19312 3.1 290 10:24 09.09.2019
2256 Clouds 15 1028 59 19312 2.1 300 09:59 09.09.2019
2257 Clouds 15 1028 59 19312 2.1 300 09:40 09.09.2019
2258 Clouds 15 1028 59 19312 2.1 300 09:22 09.09.2019
2259 Clouds 15 1028 55 19312 2.1 20 08:56 09.09.2019
2260 Clouds 15 1028 55 19312 2.1 20 08:37 09.09.2019
2261 Clouds 14 1030 76 11265 1.5 130 08:18 09.09.2019
2262 Clouds 16 1028 52 19312 4.6 30 07:41 09.09.2019
2263 Clouds 16 1028 52 19312 4.1 30 07:20 09.09.2019
2264 Clouds 17 1028 52 19312 4.1 30 06:53 09.09.2019
2265 Clouds 17 1027 52 19312 4.6 30 06:27 09.09.2019
2266 Clouds 21 1025 40 14484 7.2 60 03:21 09.09.2019
2267 Clouds 22 1024 33 16093 8.2 20 02:41 09.09.2019
2268 Rain 24 1024 43 12874 7.2 30 01:24 09.09.2019
2269 Rain 24 1024 43 12874 7.2 30 01:24 09.09.2019
2270 Clouds 25 1024 26 14484 4.1 40 00:24 09.09.2019
2271 Clouds 25 1025 27 12874 4.6 80 23:55 08.09.2019
2272 Clouds 25 1025 27 12874 4.6 80 23:37 08.09.2019
2273 Clouds 25 1026 29 12874 4.1 40 23:19 08.09.2019
2274 Clouds 24 1026 29 12874 4.1 40 22:40 08.09.2019
2275 Clouds 24 1026 29 12874 4.1 40 22:22 08.09.2019
2276 Clouds 23 1027 35 11265 4.1 30 21:58 08.09.2019
2277 Clouds 23 1027 35 11265 4.1 30 21:39 08.09.2019
2278 Clouds 23 1027 35 11265 4.1 30 21:39 08.09.2019
2279 Clouds 22 1028 37 9656 3.1 60 21:21 08.09.2019
2280 Clouds 22 1028 37 9656 3.1 60 20:41 08.09.2019
2281 Clouds 22 1028 37 9656 3.1 60 20:22 08.09.2019
2282 Ash 21 1029 49 9656 2.1 360 19:59 08.09.2019
2283 Ash 20 1029 55 11265 2.6 50 19:39 08.09.2019
2284 Ash 20 1029 55 11265 2.6 50 19:21 08.09.2019
2285 Ash 20 1029 55 11265 2.6 50 19:21 08.09.2019
2286 Ash 19 1031 55 6437 3.6 240 18:58 08.09.2019
2287 Ash 19 1031 55 6437 3.6 240 18:39 08.09.2019
2288 Mist 18 1030 63 11265 2.1 40 18:19 08.09.2019
2289 Mist 18 1030 63 11265 2.1 40 17:58 08.09.2019
2290 Mist 18 1030 63 11265 2.1 40 17:37 08.09.2019
2291 Mist 15 1029 76 11265 2.6 80 17:18 08.09.2019
2292 Mist 15 1029 76 11265 2.6 80 16:54 08.09.2019
2293 Mist 15 1029 76 11265 2.6 80 16:54 08.09.2019
2294 Mist 15 1029 76 11265 2.6 80 16:36 08.09.2019
2295 Mist 13 1030 81 3219 0.63 223.65 16:18 08.09.2019
2296 Mist 14 1030 81 3219 0.63 223.65 15:41 08.09.2019
2297 Mist 13 1030 81 3219 0.5 221.624 15:22 08.09.2019
2298 Mist 12 1028 87 9656 2.6 90 14:59 08.09.2019
2299 Mist 12 1028 87 9656 2.6 90 14:39 08.09.2019
2300 Mist 11 1028 81 9656 2.1 80 14:21 08.09.2019
2301 Mist 11 1028 81 9656 2.1 80 13:57 08.09.2019
2302 Mist 11 1028 81 9656 2.1 80 13:38 08.09.2019
2303 Mist 11 1028 81 9656 2.1 80 13:20 08.09.2019
2304 Mist 12 1027 76 11265 4.1 80 12:44 08.09.2019
2305 Mist 11 1029 93 4828 1.23 205.395 12:24 08.09.2019
2306 Mist 12 1028 76 11265 2.1 50 11:59 08.09.2019
2307 Mist 13 1028 76 11265 2.1 50 11:41 08.09.2019
2308 Mist 13 1028 76 11265 2.1 50 11:20 08.09.2019
2309 Mist 14 1028 72 14484 2.1 160 10:59 08.09.2019
2310 Mist 14 1028 72 14484 2.1 160 10:41 08.09.2019
2311 Mist 13 1029 72 12874 2.6 100 10:22 08.09.2019
2312 Mist 13 1029 72 12874 2.6 100 10:22 08.09.2019
2313 Mist 14 1029 72 12874 2.6 100 09:55 08.09.2019
2314 Mist 14 1029 72 12874 2.6 100 09:37 08.09.2019
2315 Mist 14 1029 63 12874 2.1 360 09:18 08.09.2019
2316 Mist 14 1029 63 12874 2.1 360 08:39 08.09.2019
2317 Mist 14 1029 67 14484 3.1 20 08:18 08.09.2019
2318 Mist 14 1029 67 14484 3.1 20 07:41 08.09.2019
2319 Clouds 15 1029 67 14484 3.1 20 07:21 08.09.2019
2320 Clouds 15 1029 63 14484 3.6 360 06:54 08.09.2019
2321 Clouds 15 1029 63 14484 3.6 360 06:34 08.09.2019
2322 Clouds 16 1028 55 16093 1 340 05:39 08.09.2019
2323 Clouds 15 1027 67 11265 1.96 157.731 04:27 08.09.2019
2324 Thunderstorm 19 1027 67 11265 2.6 100 03:19 08.09.2019
2325 Thunderstorm 20 1026 59 11265 3.1 70 02:36 08.09.2019
2326 Thunderstorm 19 1026 63 11265 2.6 30 01:53 08.09.2019
2327 Thunderstorm 20 1026 63 11265 2.6 30 01:25 08.09.2019
2328 Thunderstorm 21 1026 59 9656 7.7 40 00:46 08.09.2019
2329 Thunderstorm 21 1026 59 9656 7.7 40 00:28 08.09.2019
2330 Clouds 22 1026 60 9656 2.6 190 23:39 07.09.2019
2331 Clouds 22 1026 60 9656 2.6 190 23:21 07.09.2019
2332 Clouds 22 1026 60 9656 2.6 190 22:59 07.09.2019
2333 Clouds 22 1026 60 9656 2.6 190 22:59 07.09.2019
2334 Rain 22 1027 52 9656 4.6 100 22:40 07.09.2019
2335 Rain 22 1027 52 9656 4.6 100 22:22 07.09.2019
2336 Clouds 23 1027 43 9656 7.2 80 21:54 07.09.2019
2337 Clouds 24 1027 35 9656 1.5 0 21:36 07.09.2019
2338 Clouds 22 1029 40 9656 2.6 300 21:18 07.09.2019
2339 Clouds 22 1029 40 9656 2.6 300 20:39 07.09.2019
2340 Clouds 22 1029 40 9656 2.6 300 20:20 07.09.2019
2341 Clouds 22 1030 46 9656 1.21 17.159 20:20 07.09.2019
2342 Clouds 21 1030 46 9656 1.21 17.159 19:56 07.09.2019
2343 Clouds 21 1030 46 9656 1.21 17.159 19:37 07.09.2019
2344 Clouds 20 1030 52 8047 2.1 50 19:19 07.09.2019
2345 Clouds 20 1030 52 8047 2.1 50 18:58 07.09.2019
2346 Clouds 20 1030 52 8047 2.1 50 18:38 07.09.2019
2347 Haze 19 1030 67 8047 3.1 70 18:20 07.09.2019
2348 Haze 18 1030 67 8047 3.1 70 17:56 07.09.2019
2349 Haze 18 1030 67 8047 3.1 70 17:38 07.09.2019
2350 Mist 15 1030 67 8047 3.1 70 17:18 07.09.2019
2351 Mist 14 1031 77 8047 3.6 70 16:43 07.09.2019
2352 Mist 14 1031 77 8047 3.6 70 16:43 07.09.2019
2353 Mist 14 1030 67 9656 3.1 240 16:23 07.09.2019
2354 Mist 14 1030 67 9656 3.1 240 15:58 07.09.2019
2355 Mist 14 1030 67 9656 3.1 240 15:39 07.09.2019
2356 Mist 13 1031 93 3219 1.5 270 15:21 07.09.2019
2357 Mist 13 1031 93 3219 1.5 270 14:55 07.09.2019
2358 Mist 13 1031 93 3219 1.5 270 14:55 07.09.2019
2359 Mist 13 1031 93 3219 1.5 270 14:55 07.09.2019
2360 Mist 13 1029 82 9656 0.92 176.128 14:36 07.09.2019
2361 Mist 13 1029 82 9656 0.92 176.128 14:36 07.09.2019
2362 Clouds 11 1029 82 11265 2.1 70 14:18 07.09.2019
2363 Clouds 12 1029 82 11265 2.1 70 13:43 07.09.2019
2364 Clouds 12 1028 72 12874 3.1 80 13:25 07.09.2019
2365 Clouds 13 1028 72 12874 3.1 80 12:54 07.09.2019
2366 Clouds 13 1028 72 12874 3.1 80 12:36 07.09.2019
2367 Clouds 13 1028 67 12874 2.1 280 12:18 07.09.2019
2368 Clouds 13 1028 67 12874 2.1 280 11:40 07.09.2019
2369 Clouds 13 1029 67 11265 3.6 290 11:21 07.09.2019
2370 Clouds 13 1029 67 11265 3.6 290 10:41 07.09.2019
2371 Clouds 13 1029 67 11265 3.6 290 10:41 07.09.2019
2372 Clouds 12 1031 76 11265 0.42 117.797 10:22 07.09.2019
2373 Clouds 14 1030 63 11265 4.6 310 09:58 07.09.2019
2374 Clouds 14 1030 63 11265 4.6 310 09:39 07.09.2019
2375 Clouds 14 1030 63 11265 4.6 310 09:20 07.09.2019
2376 Clouds 15 1030 59 12874 4.6 300 08:48 07.09.2019
2377 Clouds 15 1030 59 12874 4.6 300 08:30 07.09.2019
2378 Clouds 15 1030 59 16093 4.1 290 07:48 07.09.2019
2379 Clouds 14 1030 59 16093 4.1 290 07:28 07.09.2019
2380 Clouds 15 1029 55 16093 4.1 320 06:55 07.09.2019
2381 Clouds 15 1029 55 16093 4.1 320 06:35 07.09.2019
2382 Clouds 16 1029 52 16093 5.7 350 05:32 07.09.2019
2383 Clouds 18 1027 43 11265 5.7 330 04:26 07.09.2019
2384 Clouds 21 1027 40 11265 5.7 360 03:27 07.09.2019
2385 Clouds 23 1026 31 11265 5.7 30 02:21 07.09.2019
2386 Clouds 24 1026 23 11265 4.1 20 01:27 07.09.2019
2387 Ash 25 1026 22 8047 2.6 350 00:48 07.09.2019
2388 Ash 25 1029 43 8047 6.7 140 00:21 07.09.2019
2389 Ash 24 1027 33 8047 1.5 230 23:55 06.09.2019
2390 Ash 24 1027 33 8047 1.5 230 23:37 06.09.2019
2391 Ash 24 1028 35 8047 1.5 310 23:18 06.09.2019
2392 Ash 24 1028 35 8047 1.5 310 22:55 06.09.2019
2393 Ash 24 1028 35 8047 1.5 310 22:36 06.09.2019
2394 Clouds 22 1029 40 9656 4.1 10 22:18 06.09.2019
2395 Ash 23 1029 40 9656 4.1 10 21:41 06.09.2019
2396 Ash 22 1022 50 12874 2.6 310 21:23 06.09.2019
2397 Ash 22 1030 40 8047 3.6 20 20:59 06.09.2019
2398 Ash 22 1030 40 8047 3.6 20 20:40 06.09.2019
2399 Ash 22 1030 40 8047 3.6 20 20:21 06.09.2019
2400 Clouds 21 1030 43 8047 2.6 110 19:58 06.09.2019
2401 Clouds 21 1030 43 8047 2.6 110 19:40 06.09.2019
2402 Haze 20 1030 52 8047 3.01 58.938 19:20 06.09.2019
2403 Haze 20 1030 52 8047 3.01 58.938 18:47 06.09.2019
2404 Haze 20 1030 52 8047 3.01 58.938 18:29 06.09.2019
2405 Haze 19 1031 55 8047 1.5 40 17:59 06.09.2019
2406 Haze 19 1031 55 8047 1.5 40 17:38 06.09.2019
2407 Mist 17 1031 72 9656 2.6 80 17:20 06.09.2019
2408 Mist 16 1031 72 9656 2.6 80 16:42 06.09.2019
2409 Mist 15 1031 72 9656 2.6 80 16:19 06.09.2019
2410 Mist 15 1030 67 9656 2.1 80 15:59 06.09.2019
2411 Mist 15 1030 67 9656 2.1 80 15:39 06.09.2019
2412 Mist 15 1029 67 9656 3.6 20 15:21 06.09.2019
2413 Mist 15 1029 67 9656 3.6 20 14:40 06.09.2019
2414 Mist 14 1029 67 9656 3.6 50 14:18 06.09.2019
2415 Mist 13 1029 67 9656 3.6 50 13:43 06.09.2019
2416 Mist 15 1031 87 6437 0.71 12.608 13:22 06.09.2019
2417 Mist 15 1029 67 9656 2.1 310 12:41 06.09.2019
2418 Mist 15 1029 67 9656 2.1 310 12:23 06.09.2019
2419 Mist 15 1029 67 9656 2.6 280 11:58 06.09.2019
2420 Mist 15 1029 67 9656 2.6 280 11:58 06.09.2019
2421 Mist 15 1029 67 9656 2.6 280 11:40 06.09.2019
2422 Clouds 15 1029 67 12874 1 280 11:21 06.09.2019
2423 Clouds 15 1029 67 12874 1 280 10:43 06.09.2019
2424 Clouds 15 1029 67 12874 1 280 10:22 06.09.2019
2425 Clouds 17 1030 63 11265 2.6 300 09:58 06.09.2019
2426 Clouds 17 1030 63 11265 2.6 300 09:37 06.09.2019
2427 Clouds 15 1030 59 12874 4.6 290 09:19 06.09.2019
2428 Clouds 16 1030 59 12874 4.6 290 08:44 06.09.2019
2429 Clouds 16 1030 59 12874 4.6 290 08:26 06.09.2019
2430 Clouds 17 1030 55 12874 1 60 07:51 06.09.2019
2431 Clouds 17 1030 55 12874 1 60 07:28 06.09.2019
2432 Clouds 17 1029 55 12874 4.6 360 06:59 06.09.2019
2433 Clouds 17 1029 55 12874 4.6 360 06:41 06.09.2019
2434 Clouds 17 1029 55 12874 5.1 360 05:46 06.09.2019
2435 Clouds 17 1028 56 12874 5.7 330 04:55 06.09.2019
2436 Clouds 18 1028 56 12874 5.7 330 04:25 06.09.2019
2437 Thunderstorm 21 1026 43 11265 2.6 320 02:44 06.09.2019
2438 Clouds 25 1026 31 11265 4.6 170 00:57 06.09.2019
2439 Clouds 24 1026 31 11265 2.6 60 00:20 06.09.2019
2440 Clouds 24 1026 31 11265 2.6 60 00:20 06.09.2019
2441 Clouds 25 1026 31 11265 2.6 60 23:41 05.09.2019
2442 Clouds 24 1028 36 11265 2.1 100 23:22 05.09.2019
2443 Clouds 24 1028 36 11265 2.1 100 22:45 05.09.2019
2444 Clouds 24 1028 36 11265 2.1 100 22:25 05.09.2019
2445 Clouds 24 1029 41 11265 2.6 90 21:57 05.09.2019
2446 Clouds 24 1029 41 11265 2.6 90 21:39 05.09.2019
2447 Clouds 24 1029 41 11265 2.6 90 21:39 05.09.2019
2448 Clouds 23 1029 43 9656 4.6 80 21:20 05.09.2019
2449 Clouds 23 1029 43 9656 4.6 80 20:58 05.09.2019
2450 Clouds 23 1029 43 9656 4.6 80 20:38 05.09.2019
2451 Clouds 23 1029 43 9656 4.6 80 20:20 05.09.2019
2452 Ash 22 1030 43 9656 3.6 50 19:57 05.09.2019
2453 Ash 22 1030 43 9656 3.6 50 19:38 05.09.2019
2454 Haze 21 1030 46 9656 3.1 60 19:19 05.09.2019
2455 Haze 21 1030 46 9656 3.1 60 18:41 05.09.2019
2456 Haze 18 1030 63 9656 3.1 80 18:23 05.09.2019
2457 Haze 18 1030 63 9656 3.1 80 17:59 05.09.2019
2458 Haze 18 1030 63 9656 3.1 80 17:39 05.09.2019
2459 Haze 18 1030 63 9656 3.1 80 17:39 05.09.2019
2460 Haze 17 1032 77 4828 1.12 118.256 17:20 05.09.2019
2461 -273 0 0 0 0 0 16:57 05.09.2019
2462 Mist 16 1030 67 9656 2.1 50 16:39 05.09.2019
2463 Mist 15 1029 72 9656 2.1 60 16:18 05.09.2019
2464 Mist 15 1029 72 9656 2.1 60 15:40 05.09.2019
2465 Mist 15 1029 72 9656 2.1 60 15:40 05.09.2019
2466 Mist 14 1031 93 1609 1.5 70 15:19 05.09.2019
2467 Mist 14 1031 93 1609 1.5 70 14:56 05.09.2019
2468 Fog 14 1028 72 9656 1.5 60 14:38 05.09.2019
2469 Clouds 13 1030 93 8047 1.5 170 14:18 05.09.2019
2470 Mist 13 1030 93 3219 1 160 13:42 05.09.2019
2471 Clouds 14 1028 67 9656 2.6 80 13:19 05.09.2019
2472 Clouds 14 1028 67 9656 2.6 80 12:44 05.09.2019
2473 Clouds 14 1028 67 9656 2.6 80 12:26 05.09.2019
2474 Clouds 14 1028 72 9656 1.5 80 11:57 05.09.2019
2475 Clouds 14 1028 72 9656 1.5 80 11:38 05.09.2019
2476 Clouds 14 1028 77 9656 3.1 80 11:18 05.09.2019
2477 Clouds 13 1028 77 9656 3.1 80 10:41 05.09.2019
2478 Clouds 14 1028 77 9656 3.1 80 10:22 05.09.2019
2479 Clouds 14 1028 77 9656 3.1 80 10:22 05.09.2019
2480 Clouds 15 1029 67 11265 0.85 11.27 09:57 05.09.2019
2481 Clouds 15 1029 67 11265 0.49 52.919 09:38 05.09.2019
2482 Clouds 15 1029 67 11265 2.1 280 09:18 05.09.2019
2483 Clouds 15 1029 67 11265 2.1 280 08:45 05.09.2019
2484 Clouds 15 1029 67 11265 2.1 280 08:26 05.09.2019
2485 Clouds 15 1029 68 11265 4.6 290 07:45 05.09.2019
2486 Clouds 15 1029 68 11265 4.6 290 07:27 05.09.2019
2487 Clouds 16 1031 76 6437 4.6 20 06:53 05.09.2019
2488 Clouds 16 1031 76 6437 4.6 20 06:29 05.09.2019
2489 Clouds 17 1027 52 12874 3.6 110 05:50 05.09.2019
2490 Clouds 17 1027 52 12874 3.6 110 05:30 05.09.2019
2491 Haze 16 1026 56 12874 4.6 150 04:48 05.09.2019
2492 Haze 16 1026 56 12874 4.6 150 04:24 05.09.2019
2493 Haze 17 1025 56 11265 5.1 110 03:38 05.09.2019
2494 Rain 21 1025 49 11265 3.1 90 02:45 05.09.2019
2495 Rain 21 1024 56 9656 2.33 151.11 02:20 05.09.2019
2496 Rain 21 1024 56 9656 0.63 185.729 01:26 05.09.2019
2497 Thunderstorm 21 1024 52 9656 6.2 140 00:42 05.09.2019
2498 Thunderstorm 20 1024 56 9656 6.7 120 00:20 05.09.2019
2499 Rain 20 1024 56 9656 5.7 130 23:48 04.09.2019
2500 Rain 20 1024 56 9656 5.7 130 23:26 04.09.2019
2501 Thunderstorm 21 1025 46 9656 5.1 250 22:59 04.09.2019
2502 Thunderstorm 21 1025 46 9656 5.1 250 22:38 04.09.2019
2503 Rain 22 1027 67 6437 4.1 280 22:18 04.09.2019
2504 Clouds 22 1025 43 11265 4.6 150 21:39 04.09.2019
2505 Clouds 23 1025 43 11265 4.6 150 21:20 04.09.2019
2506 Clouds 22 1026 40 11265 1.5 0 20:56 04.09.2019
2507 Clouds 22 1026 40 11265 1.5 0 20:38 04.09.2019
2508 Mist 21 1026 46 9656 3.6 340 20:18 04.09.2019
2509 Mist 21 1026 46 9656 3.6 340 19:55 04.09.2019
2510 Mist 21 1026 46 9656 3.6 340 19:36 04.09.2019
2511 Mist 21 1026 46 9656 1.85 212.077 19:18 04.09.2019
2512 Mist 20 1027 56 9656 2.1 180 18:38 04.09.2019
2513 Mist 19 1026 63 11265 2.1 70 18:19 04.09.2019
2514 Mist 18 1026 63 11265 2.1 70 17:41 04.09.2019
2515 Mist 18 1026 63 11265 2.1 70 17:23 04.09.2019
2516 Mist 16 1026 72 11265 1.5 50 16:58 04.09.2019
2517 Mist 16 1026 72 11265 1.5 50 16:39 04.09.2019
2518 Mist 15 1026 77 11265 2.1 60 16:21 04.09.2019
2519 Mist 15 1026 77 11265 2.1 60 15:55 04.09.2019
2520 Mist 15 1026 77 11265 2.1 60 15:37 04.09.2019
2521 Mist 14 1025 82 11265 1 20 15:18 04.09.2019
2522 Mist 14 1025 82 11265 1 20 14:54 04.09.2019
2523 Mist 14 1025 82 11265 1 20 14:36 04.09.2019
2524 Clouds 12 1025 76 11265 3.1 60 14:18 04.09.2019
2525 Clouds 12 1025 76 11265 3.1 60 13:39 04.09.2019
2526 Clouds 10 1026 87 11265 1.41 203.455 13:21 04.09.2019
2527 Clouds 13 1025 77 11265 2.6 40 12:45 04.09.2019
2528 Clouds 11 1026 87 11265 0.69 199.587 12:26 04.09.2019
2529 Clouds 13 1025 77 11265 2.6 40 12:26 04.09.2019
2530 Clouds 13 1025 77 12874 2.6 50 11:58 04.09.2019
2531 Clouds 13 1025 77 12874 2.6 50 11:39 04.09.2019
2532 Clouds 13 1025 77 12874 2.6 50 11:21 04.09.2019
2533 Clouds 14 1025 67 14484 1 290 10:56 04.09.2019
2534 Clouds 14 1025 67 14484 1 290 10:38 04.09.2019
2535 Clouds 14 1025 67 14484 1 290 10:38 04.09.2019
2536 Clouds 13 1027 76 11265 0.69 199.587 10:19 04.09.2019
2537 Clouds 15 1025 63 16093 3.1 300 09:45 04.09.2019
2538 Clouds 15 1025 63 16093 3.1 300 09:21 04.09.2019
2539 Clouds 15 1026 63 16093 2.1 330 08:43 04.09.2019
2540 Clouds 15 1026 63 16093 2.1 330 08:24 04.09.2019
2541 Clouds 15 1026 59 16093 3.1 20 07:59 04.09.2019
2542 Clouds 16 1026 59 16093 3.1 20 07:36 04.09.2019
2543 Clouds 16 1026 59 19312 4.1 30 06:59 04.09.2019
2544 Clouds 16 1026 59 19312 4.1 30 06:39 04.09.2019
2545 Clouds 18 1025 55 19312 7.2 50 04:55 04.09.2019
2546 Clouds 19 1024 43 12874 6.7 40 04:23 04.09.2019
2547 Clouds 22 1022 35 12874 5.7 360 02:51 04.09.2019
2548 Clouds 23 1024 42 11265 3.1 80 01:20 04.09.2019
2549 Clouds 23 1022 31 12874 3.1 10 00:45 04.09.2019
2550 Clouds 23 1022 31 12874 3.1 10 00:27 04.09.2019
2551 Clouds 24 1023 31 12874 3.1 10 23:51 03.09.2019
2552 Clouds 24 1023 31 12874 3.1 10 23:27 03.09.2019
2553 Clouds 24 1024 37 12874 5.1 10 22:43 03.09.2019
2554 Clouds 23 1024 37 12874 5.1 10 22:25 03.09.2019
2555 Clouds 23 1025 37 12874 3.6 360 21:59 03.09.2019
2556 Clouds 23 1025 37 12874 3.6 360 21:39 03.09.2019
2557 Clouds 22 1025 40 14484 3.6 360 21:20 03.09.2019
2558 Clouds 21 1025 40 14484 3.6 360 20:59 03.09.2019
2559 Clouds 21 1025 40 14484 3.6 360 20:40 03.09.2019
2560 Clouds 21 1026 42 16093 2.6 10 20:21 03.09.2019
2561 Clouds 21 1026 42 16093 2.6 10 19:55 03.09.2019
2562 Clouds 21 1026 42 16093 2.6 10 19:36 03.09.2019
2563 Clouds 21 1026 42 16093 2.6 10 19:18 03.09.2019
2564 Clouds 20 1027 52 16093 2.6 40 18:42 03.09.2019
2565 Clouds 21 1027 52 16093 2.6 40 18:24 03.09.2019
2566 Haze 17 1027 59 12874 3.1 50 17:56 03.09.2019
2567 Haze 17 1027 59 12874 3.1 50 17:38 03.09.2019
2568 Haze 16 1027 63 11265 1.5 60 17:19 03.09.2019
2569 Haze 16 1027 63 11265 1.5 60 16:43 03.09.2019
2570 Haze 14 1027 63 11265 1.5 60 16:23 03.09.2019
2571 Haze 14 1027 59 11265 1 44.879 15:58 03.09.2019
2572 Haze 13 1027 67 12874 3.6 70 15:38 03.09.2019
2573 Mist 13 1026 67 19312 2.6 340 15:20 03.09.2019
2574 Mist 13 1026 67 19312 2.6 340 14:56 03.09.2019
2575 Mist 13 1026 67 19312 2.6 340 14:37 03.09.2019
2576 Mist 11 1025 76 16093 2.1 270 14:18 03.09.2019
2577 Mist 11 1025 76 16093 2.1 270 13:55 03.09.2019
2578 Mist 11 1025 76 16093 2.1 270 13:37 03.09.2019
2579 Clouds 12 1025 76 16093 2.1 320 13:18 03.09.2019
2580 Clouds 12 1025 76 16093 2.1 320 12:47 03.09.2019
2581 Clouds 12 1025 76 16093 2.1 320 12:29 03.09.2019
2582 Clouds 12 1026 71 16093 0.53 72.865 11:44 03.09.2019
2583 Clouds 12 1026 71 16093 0.53 72.865 11:25 03.09.2019
2584 -273 0 0 0 0 0 10:59 03.09.2019
2585 Clouds 13 1026 67 16093 3.1 330 10:59 03.09.2019
2586 Clouds 13 1026 67 16093 3.1 330 10:40 03.09.2019
2587 Clouds 13 1026 67 16093 3.1 330 10:21 03.09.2019
2588 Clouds 13 1027 63 19312 3.1 290 09:51 03.09.2019
2589 Clouds 13 1027 63 19312 3.1 290 09:33 03.09.2019
2590 Clouds 14 1028 63 19312 3.1 310 08:57 03.09.2019
2591 Clouds 14 1028 63 19312 3.1 310 08:38 03.09.2019
2592 Clouds 14 1028 63 19312 3.1 310 08:38 03.09.2019
2593 Clear 12 1029 71 11265 1.57 46.16 08:19 03.09.2019
2594 Clouds 15 1028 59 19312 3.1 340 07:43 03.09.2019
2595 Clouds 15 1028 59 19312 3.1 340 07:24 03.09.2019
2596 Clouds 15 1027 59 19312 3.6 30 06:50 03.09.2019
2597 Clouds 15 1027 59 19312 3.6 30 06:32 03.09.2019
2598 Clouds 19 1025 49 16093 6.2 40 03:44 03.09.2019
2599 Clouds 22 1024 28 16093 5.7 20 02:48 03.09.2019
2600 Clouds 22 1024 28 16093 5.7 20 02:29 03.09.2019
2601 Clouds 24 1024 31 14484 8.7 340 01:58 03.09.2019
2602 Clouds 24 1024 31 14484 8.7 340 01:39 03.09.2019
2603 Clouds 24 1024 31 14484 10.3 30 01:20 03.09.2019
2604 Clouds 26 1024 31 14484 10.3 30 00:27 03.09.2019
2605 Clouds 25 1024 25 14484 4.1 340 23:41 02.09.2019
2606 Clouds 25 1025 33 12874 3.1 360 23:21 02.09.2019
2607 Clouds 25 1025 33 12874 3.1 360 23:21 02.09.2019
2608 Clouds 24 1025 33 12874 3.1 360 22:58 02.09.2019
2609 Clouds 24 1025 33 12874 3.1 360 22:58 02.09.2019
2610 Clouds 24 1025 33 12874 3.1 360 22:39 02.09.2019
2611 Clouds 24 1025 33 12874 3.1 360 22:21 02.09.2019
2612 Clouds 22 1026 36 12874 3.6 40 21:58 02.09.2019
2613 Clouds 23 1026 36 12874 3.6 40 21:40 02.09.2019
2614 Clouds 23 1026 36 11265 4.1 310 21:20 02.09.2019
2615 Clouds 23 1026 36 11265 4.1 310 20:59 02.09.2019
2616 Clouds 23 1027 43 11265 4.6 50 20:40 02.09.2019
2617 Clouds 23 1027 43 11265 4.6 50 20:40 02.09.2019
2618 Clouds 21 1028 46 11265 2.6 360 20:19 02.09.2019
2619 Clouds 21 1028 46 11265 2.6 360 19:57 02.09.2019
2620 Clouds 21 1028 46 11265 2.6 360 19:38 02.09.2019
2621 Clouds 20 1030 48 8047 2.6 320 19:19 02.09.2019
2622 Clouds 19 1028 49 12874 4.1 110 18:40 02.09.2019
2623 Haze 19 1028 55 12874 2.6 50 18:22 02.09.2019
2624 Haze 19 1028 55 12874 2.6 50 17:58 02.09.2019
2625 Haze 19 1028 55 12874 2.6 50 17:58 02.09.2019
2626 Haze 19 1028 55 12874 2.6 50 17:39 02.09.2019
2627 Haze 19 1028 55 12874 2.6 50 17:21 02.09.2019
2628 Mist 16 1028 63 12874 1.44 31.032 16:58 02.09.2019
2629 Mist 16 1028 63 12874 1.44 31.032 16:36 02.09.2019
2630 Fog 14 1021 77 12874 1.44 31.032 16:18 02.09.2019
2631 Fog 13 1028 76 12874 3.6 80 15:44 02.09.2019
2632 Fog 13 1028 76 12874 3.6 80 15:22 02.09.2019
2633 Fog 11 1029 93 805 0.23 17.716 14:56 02.09.2019
2634 Mist 11 1027 82 12874 3.1 70 14:37 02.09.2019
2635 Clouds 12 1028 72 16093 1.5 60 14:19 02.09.2019
2636 Clouds 13 1028 72 16093 1.5 60 13:46 02.09.2019
2637 Clouds 13 1028 72 16093 1.5 60 13:46 02.09.2019
2638 Clear 11 1029 87 9656 0.5 56.087 13:25 02.09.2019
2639 Clouds 13 1028 72 16093 2.1 20 12:59 02.09.2019
2640 Clouds 13 1028 72 16093 2.1 20 12:41 02.09.2019
2641 Clear 11 1029 87 11265 1.35 48.356 12:23 02.09.2019
2642 Clear 11 1029 87 11265 1.35 48.356 12:23 02.09.2019
2643 Clouds 13 1028 72 16093 2.1 360 11:58 02.09.2019
2644 Clouds 13 1028 72 16093 2.1 360 11:38 02.09.2019
2645 Clouds 13 1028 72 16093 2.1 360 11:19 02.09.2019
2646 Clouds 14 1028 63 12874 2.6 30 10:42 02.09.2019
2647 Clouds 14 1028 63 12874 2.6 30 10:22 02.09.2019
2648 Clouds 14 1029 67 14484 2.6 350 09:59 02.09.2019
2649 Clouds 14 1029 67 14484 2.6 350 09:40 02.09.2019
2650 Clouds 15 1029 59 12874 3.6 360 09:20 02.09.2019
2651 Clouds 15 1029 59 12874 3.6 360 09:20 02.09.2019
2652 Clouds 15 1029 59 12874 3.6 360 08:43 02.09.2019
2653 Clouds 15 1029 59 14484 6.2 10 08:22 02.09.2019
2654 Clouds 15 1029 59 14484 6.2 10 07:57 02.09.2019
2655 Clouds 15 1029 59 14484 6.2 10 07:38 02.09.2019
2656 Clouds 16 1028 55 14484 6.7 30 07:20 02.09.2019
2657 Clouds 17 1028 55 14484 6.7 30 06:43 02.09.2019
2658 Clouds 16 1027 55 14484 6.2 10 05:54 02.09.2019
2659 Clouds 16 1027 55 14484 6.2 10 05:54 02.09.2019
2660 Clouds 17 1027 55 14484 6.2 10 05:26 02.09.2019
2661 Clouds 18 1026 45 16093 9.3 20 04:48 02.09.2019
2662 Clouds 23 1024 36 16093 8.2 40 02:29 02.09.2019
2663 Clouds 25 1024 22 16093 4.1 360 01:41 02.09.2019
2664 Clouds 26 1024 57 16093 6.2 360 00:42 02.09.2019
2665 Clouds 25 1025 17 16093 4.1 10 00:20 02.09.2019
2666 Clouds 25 1025 17 16093 4.1 10 23:39 01.09.2019
2667 Clouds 25 1026 16 16093 5.1 360 23:19 01.09.2019
2668 Clouds 25 1026 16 16093 5.1 360 22:56 01.09.2019
2669 Clouds 25 1026 16 16093 5.1 360 22:56 01.09.2019
2670 Clouds 25 1026 16 16093 5.1 360 22:38 01.09.2019
2671 Clouds 24 1027 27 16093 3.1 80 22:18 01.09.2019
2672 Clouds 24 1027 27 16093 3.1 80 21:43 01.09.2019
2673 Clouds 23 1027 27 16093 3.1 80 21:23 01.09.2019
2674 Clouds 23 1028 26 16093 3.1 280 20:58 01.09.2019
2675 Clouds 22 1028 26 16093 3.1 280 20:39 01.09.2019
2676 Clouds 22 1022 44 16093 2.1 210 20:19 01.09.2019
2677 Clouds 21 1022 44 16093 2.1 210 19:59 01.09.2019
2678 Clouds 21 1028 35 16093 1.5 110 19:40 01.09.2019
2679 Clouds 21 1028 35 16093 1.5 110 19:21 01.09.2019
2680 Clear 20 1029 39 16093 2.1 360 18:48 01.09.2019
2681 Clear 19 1029 39 16093 2.1 360 18:30 01.09.2019
2682 Clear 18 1030 55 9656 1.08 83.625 17:59 01.09.2019
2683 Clear 16 1029 51 16093 4.1 70 17:39 01.09.2019
2684 Clear 16 1029 51 16093 4.1 70 17:21 01.09.2019
2685 Clear 15 1029 58 16093 2.6 50 16:41 01.09.2019
2686 Clear 15 1029 58 16093 2.6 50 16:41 01.09.2019
2687 Clear 15 1029 58 16093 2.6 50 16:41 01.09.2019
2688 Clear 15 1029 58 16093 2.6 50 16:21 01.09.2019
2689 Clear 12 1028 66 19312 3.6 60 15:59 01.09.2019
2690 Clear 12 1028 66 19312 3.6 60 15:41 01.09.2019
2691 Clear 12 1028 66 19312 3.6 60 15:22 01.09.2019
2692 Clear 12 1028 66 19312 0.93 78.06 14:44 01.09.2019
2693 Clear 12 1028 66 19312 0.93 78.06 14:26 01.09.2019
2694 Clear 11 1028 66 19312 2.1 50 13:59 01.09.2019
2695 Clear 11 1028 66 19312 2.1 50 13:40 01.09.2019
2696 Clear 9 1029 87 9656 0.68 70.476 13:21 01.09.2019
2697 Clear 12 1028 58 19312 3.1 40 12:44 01.09.2019
2698 Clear 12 1028 58 19312 3.1 40 12:25 01.09.2019
2699 Clear 13 1028 62 19312 4.6 310 11:56 01.09.2019
2700 Clear 13 1028 62 19312 4.6 310 11:38 01.09.2019
2701 Clear 11 1030 81 11265 0.76 31.548 11:18 01.09.2019
2702 Clear 13 1029 59 19312 4.1 310 10:44 01.09.2019
2703 Clear 13 1029 59 19312 4.1 310 10:44 01.09.2019
2704 Clear 13 1029 59 19312 4.1 310 10:23 01.09.2019
2705 Clear 17 1029 45 19312 3.1 320 09:47 01.09.2019
2706 Clouds 15 1029 55 19312 4.1 290 09:26 01.09.2019
2707 Clouds 15 1029 55 19312 4.1 290 08:56 01.09.2019
2708 Clouds 15 1029 55 19312 4.1 290 08:37 01.09.2019
2709 Clouds 15 1029 55 19312 1.5 20 08:19 01.09.2019
2710 Clouds 15 1029 55 19312 1.5 20 07:41 01.09.2019
2711 Clear 13 1029 66 11265 3.6 60 07:19 01.09.2019
2712 Clouds 16 1028 52 19312 4.1 30 06:38 01.09.2019
2713 Clouds 17 1027 48 19312 5.1 20 05:57 01.09.2019
2714 Clouds 18 1026 42 16093 6.2 40 04:36 01.09.2019
2715 Clouds 19 1025 33 16093 8.2 40 03:43 01.09.2019
2716 Clouds 23 1025 35 16093 8.2 40 02:59 01.09.2019
2717 Clouds 24 1024 22 16093 6.7 40 02:29 01.09.2019
2718 Clouds 25 1024 56 16093 5.1 360 01:52 01.09.2019
2719 Clouds 26 1024 58 16093 5.1 360 01:25 01.09.2019
2720 Clouds 26 1024 16 16093 4.1 350 00:47 01.09.2019
2721 Clouds 26 1024 16 16093 4.1 350 00:23 01.09.2019
2722 Clouds 26 1025 16 16093 4.1 30 23:56 31.08.2019
2723 Clouds 26 1025 16 16093 4.1 30 23:38 31.08.2019
2724 Clouds 25 1026 16 16093 2.6 50 23:18 31.08.2019
2725 Clouds 25 1026 16 16093 2.6 50 23:18 31.08.2019
2726 Clouds 25 1026 16 16093 2.6 50 22:44 31.08.2019
2727 Clouds 25 1026 16 16093 2.6 50 22:26 31.08.2019
2728 Clear 24 1027 17 16093 4.88 45.257 21:58 31.08.2019
2729 Clear 24 1027 17 16093 5.23 42.946 21:39 31.08.2019
2730 Clear 22 1028 18 16093 4.6 50 21:21 31.08.2019
2731 Clear 23 1028 18 16093 4.6 50 20:49 31.08.2019
2732 Clear 23 1028 18 16093 4.6 50 20:31 31.08.2019
2733 Clear 22 1028 18 16093 4.6 50 19:57 31.08.2019
2734 Clear 21 1028 28 16093 4.1 20 19:39 31.08.2019
2735 Clear 21 1028 28 16093 4.1 20 19:39 31.08.2019
2736 Clear 20 1028 42 12874 1.5 300 19:20 31.08.2019
2737 Clear 20 1028 42 12874 1.5 300 18:40 31.08.2019
2738 Clear 17 1028 42 12874 1.5 300 18:21 31.08.2019
2739 Clear 18 1028 42 12874 1.5 300 17:58 31.08.2019
2740 Clear 18 1029 51 12874 1.5 320 17:37 31.08.2019
2741 Clouds 15 1029 62 16093 1.5 260 17:19 31.08.2019
2742 Clouds 15 1029 62 16093 1.5 260 17:19 31.08.2019
2743 Clouds 15 1029 62 16093 1.5 260 16:58 31.08.2019
2744 Clouds 15 1029 62 16093 1.5 260 16:58 31.08.2019
2745 Clouds 15 1029 62 16093 1.5 260 16:40 31.08.2019
2746 Clouds 15 1029 62 16093 1.5 260 16:21 31.08.2019
2747 Clouds 15 1029 62 16093 1.5 260 16:21 31.08.2019
2748 Clouds 12 1029 62 16093 0.77 68.599 15:57 31.08.2019
2749 Clouds 12 1029 62 16093 0.77 68.599 15:36 31.08.2019
2750 Clouds 12 1028 71 12874 2.1 80 15:18 31.08.2019
2751 Clouds 12 1028 71 12874 2.1 80 14:41 31.08.2019
2752 Clouds 12 1028 71 12874 2.1 80 14:22 31.08.2019
2753 Clear 10 1027 71 12874 3.6 60 13:42 31.08.2019
2754 Clear 11 1027 71 12874 3.6 60 13:23 31.08.2019
2755 Clear 11 1028 66 12874 2.1 60 12:59 31.08.2019
2756 Clear 11 1028 66 12874 2.1 60 12:39 31.08.2019
2757 Clear 12 1028 67 14484 2.6 40 12:20 31.08.2019
2758 Clear 12 1028 67 14484 2.6 40 12:20 31.08.2019
2759 Clear 12 1028 67 14484 2.6 40 11:55 31.08.2019
2760 Clear 12 1028 67 14484 2.6 40 11:36 31.08.2019
2761 Clear 13 1028 51 14484 2.1 280 11:18 31.08.2019
2762 Clear 13 1028 51 14484 2.1 280 11:18 31.08.2019
2763 Clear 14 1028 51 14484 2.1 280 10:42 31.08.2019
2764 Clouds 13 1030 71 9656 0.6 39.598 10:19 31.08.2019
2765 Clouds 14 1030 71 9656 0.6 39.598 09:59 31.08.2019
2766 Clouds 14 1030 71 9656 0.59 2.926 09:38 31.08.2019
2767 Clear 15 1029 51 14484 3.1 300 09:19 31.08.2019
2768 Clear 15 1029 51 14484 3.1 300 08:43 31.08.2019
2769 Clear 15 1029 51 14484 3.1 300 08:23 31.08.2019
2770 Clouds 16 1029 45 16093 2.1 20 07:41 31.08.2019
2771 Clouds 16 1028 45 16093 3.1 20 07:22 31.08.2019
2772 Clouds 16 1028 45 16093 3.1 20 06:41 31.08.2019
2773 Clouds 16 1028 45 16093 3.1 20 06:41 31.08.2019
2774 Clouds 17 1027 45 16093 6.2 30 06:18 31.08.2019
2775 Clouds 17 1027 45 16093 6.2 30 06:18 31.08.2019
2776 Clouds 17 1027 45 16093 6.2 30 05:33 31.08.2019
2777 Clouds 19 1026 40 16093 6.7 30 04:36 31.08.2019
2778 Clouds 19 1025 37 16093 4.1 240 03:45 31.08.2019
2779 Clouds 22 1025 35 11265 4.1 220 02:49 31.08.2019
2780 Ash 23 1025 33 11265 3.6 220 01:55 31.08.2019
2781 Ash 23 1025 33 11265 3.6 220 01:34 31.08.2019
2782 Ash 24 1025 29 11265 3.6 30 00:52 31.08.2019
2783 Ash 24 1025 29 11265 3.6 30 00:30 31.08.2019
2784 Clouds 25 1026 27 11265 4.1 330 23:58 30.08.2019
2785 Clouds 25 1026 27 11265 4.1 330 23:39 30.08.2019
2786 Clouds 23 1027 31 11265 5.1 70 23:18 30.08.2019
2787 Clouds 24 1027 31 11265 5.1 70 22:42 30.08.2019
2788 Clouds 21 1030 34 12874 3.1 210 22:24 30.08.2019
2789 Clouds 22 1028 31 11265 2.6 230 21:58 30.08.2019
2790 Clouds 23 1028 31 11265 2.6 230 21:38 30.08.2019
2791 Clouds 23 1029 31 11265 2.1 320 21:19 30.08.2019
2792 Clouds 23 1029 31 11265 2.1 320 20:59 30.08.2019
2793 Clouds 23 1029 31 11265 2.1 320 20:40 30.08.2019
2794 Clear 21 1029 35 11265 1.5 50 20:20 30.08.2019
2795 Clear 21 1029 42 12874 1.5 80 19:57 30.08.2019
2796 Clear 22 1029 35 11265 1.5 50 19:57 30.08.2019
2797 Clear 21 1029 42 12874 1.5 80 19:39 30.08.2019
2798 Clear 21 1029 42 12874 1.5 80 19:19 30.08.2019
2799 Clear 20 1029 45 12874 2.1 150 18:49 30.08.2019
2800 Clear 18 1029 59 12874 2.1 90 18:25 30.08.2019
2801 Clear 18 1029 59 12874 2.1 90 17:59 30.08.2019
2802 Clear 18 1029 59 12874 2.1 90 17:41 30.08.2019
2803 Clear 16 1029 63 12874 2.1 90 17:19 30.08.2019
2804 Clear 15 1029 63 12874 2.1 90 16:59 30.08.2019
2805 Clear 15 1029 63 12874 2.1 90 16:40 30.08.2019
2806 Clear 15 1029 63 12874 2.1 90 16:22 30.08.2019
2807 Clear 13 1029 71 16093 2.1 100 15:43 30.08.2019
2808 Clear 12 1029 71 16093 2.1 100 15:23 30.08.2019
2809 Clear 13 1029 71 16093 2.1 100 15:23 30.08.2019
2810 Clear 12 1029 76 16093 3.1 280 14:47 30.08.2019
2811 Clear 12 1029 76 16093 3.1 280 14:29 30.08.2019
2812 Clear 10 1028 76 16093 2.6 60 13:58 30.08.2019
2813 Clear 10 1028 76 16093 2.6 60 13:40 30.08.2019
2814 Clouds 11 1028 82 19312 2.1 70 13:22 30.08.2019
2815 Clouds 12 1028 82 19312 2.1 70 12:46 30.08.2019
2816 Clouds 12 1028 82 19312 2.1 70 12:27 30.08.2019
2817 Clouds 13 1028 72 19312 2.6 320 11:59 30.08.2019
2818 Clouds 13 1028 72 19312 2.6 320 11:41 30.08.2019
2819 Clouds 12 1031 87 9656 2.6 100 11:23 30.08.2019
2820 Clouds 14 1029 72 19312 4.1 280 10:39 30.08.2019
2821 Clouds 14 1029 72 19312 4.1 280 10:20 30.08.2019
2822 Clouds 14 1029 67 19312 4.6 290 09:56 30.08.2019
2823 Clouds 14 1029 67 19312 4.6 290 09:56 30.08.2019
2824 Clouds 14 1029 67 19312 4.6 290 09:36 30.08.2019
2825 Clouds 14 1029 67 19312 4.6 290 09:36 30.08.2019
2826 Clouds 15 1029 63 19312 3.6 260 09:18 30.08.2019
2827 Clouds 15 1029 63 19312 3.6 260 09:18 30.08.2019
2828 Clouds 15 1029 63 19312 3.6 260 08:44 30.08.2019
2829 Clouds 15 1029 63 19312 3.6 260 08:24 30.08.2019
2830 Rain 15 1030 63 19312 4.1 290 07:56 30.08.2019
2831 Rain 15 1030 63 19312 4.1 290 07:37 30.08.2019
2832 Rain 15 1030 63 19312 4.1 290 07:37 30.08.2019
2833 Rain 15 1029 59 16093 5.1 280 07:18 30.08.2019
2834 Rain 16 1029 59 16093 5.1 280 06:40 30.08.2019
2835 Rain 16 1028 59 16093 2.6 180 06:21 30.08.2019
2836 Rain 16 1028 59 16093 2.6 180 05:32 30.08.2019
2837 Thunderstorm 19 1025 43 11265 5.7 50 03:57 30.08.2019
2838 Thunderstorm 19 1025 43 11265 5.7 50 03:37 30.08.2019
2839 Thunderstorm 19 1025 43 11265 5.7 50 03:37 30.08.2019
2840 Thunderstorm 19 1025 43 11265 5.7 50 03:37 30.08.2019
2841 Thunderstorm 23 1025 40 11265 7.7 360 02:44 30.08.2019
2842 Thunderstorm 25 1025 36 11265 6.2 10 02:19 30.08.2019
2843 Ash 26 1025 19 12874 3.6 90 00:57 30.08.2019
2844 Clouds 26 1026 19 11265 2.6 100 00:23 30.08.2019
2845 Clouds 26 1026 19 11265 2.6 100 23:49 29.08.2019
2846 Clouds 26 1026 19 11265 2.6 100 23:49 29.08.2019
2847 Clouds 24 1026 22 11265 2.6 90 23:23 29.08.2019
2848 Clouds 25 1026 22 11265 2.6 90 22:58 29.08.2019
2849 Clouds 24 1027 27 11265 1.5 250 22:38 29.08.2019
2850 Clouds 24 1027 27 11265 1.5 250 22:20 29.08.2019
2851 Clouds 24 1028 29 11265 4.1 330 21:42 29.08.2019
2852 Ash 23 1028 31 9656 1.5 160 21:21 29.08.2019
2853 Ash 22 1028 31 9656 1.5 160 20:59 29.08.2019
2854 Ash 22 1028 31 9656 1.5 160 20:41 29.08.2019
2855 Ash 21 1029 40 9656 2.6 300 20:19 29.08.2019
2856 Ash 21 1030 45 9656 3.6 360 19:56 29.08.2019
2857 Ash 21 1030 45 9656 3.6 360 19:38 29.08.2019
2858 Ash 21 1030 45 9656 3.6 360 19:19 29.08.2019
2859 Haze 20 1030 49 9656 4.1 340 18:41 29.08.2019
2860 Haze 20 1030 49 9656 4.1 340 18:20 29.08.2019
2861 Clear 19 1030 59 9656 1 100 17:56 29.08.2019
2862 Clear 19 1030 59 9656 1 100 17:36 29.08.2019
2863 Mist 17 1030 59 9656 1 100 17:18 29.08.2019
2864 Mist 15 1030 72 8047 2.1 40 16:43 29.08.2019
2865 Mist 14 1031 87 4828 0.67 108.57 16:23 29.08.2019
2866 Mist 13 1031 87 4828 0.67 108.57 15:57 29.08.2019
2867 Mist 12 1029 82 9656 3.6 70 15:37 29.08.2019
2868 Mist 13 1030 87 3219 0.39 52.924 15:18 29.08.2019
2869 Mist 13 1030 87 3219 0.39 52.924 14:43 29.08.2019
2870 Clouds 11 1028 76 11265 3.1 100 14:21 29.08.2019
2871 Clouds 11 1028 76 11265 3.1 100 13:58 29.08.2019
2872 Clouds 11 1028 76 11265 3.1 100 13:58 29.08.2019
2873 Clouds 11 1028 76 11265 3.1 100 13:39 29.08.2019
2874 Clouds 12 1028 72 12874 2.6 330 13:20 29.08.2019
2875 Clouds 13 1028 72 12874 2.6 330 12:58 29.08.2019
2876 Clouds 13 1028 72 12874 2.6 330 12:39 29.08.2019
2877 Clear 13 1029 67 12874 3.1 310 12:20 29.08.2019
2878 Clear 13 1029 67 12874 3.1 310 11:57 29.08.2019
2879 Clear 13 1029 67 12874 3.1 310 11:36 29.08.2019
2880 Clear 13 1029 63 14484 4.1 290 11:18 29.08.2019
2881 Clear 14 1029 63 14484 4.1 290 10:42 29.08.2019
2882 Clear 14 1029 63 14484 4.1 290 10:42 29.08.2019
2883 Clear 14 1029 63 14484 3.1 320 10:23 29.08.2019
2884 Clear 14 1029 63 14484 3.1 320 09:42 29.08.2019
2885 Clear 14 1030 55 14484 3.6 350 09:21 29.08.2019
2886 Clear 15 1030 55 14484 3.6 350 08:58 29.08.2019
2887 Clear 15 1030 55 14484 3.6 350 08:39 29.08.2019
2888 Clear 15 1030 59 16093 4.1 350 08:21 29.08.2019
2889 Clear 15 1030 59 16093 4.1 350 07:43 29.08.2019
2890 Clear 15 1030 59 16093 4.1 350 07:25 29.08.2019
2891 Clouds 16 1029 52 19312 5.1 20 06:43 29.08.2019
2892 Clouds 16 1029 52 19312 5.1 20 06:21 29.08.2019
2893 Clouds 17 1028 37 19312 6.2 340 05:38 29.08.2019
2894 Clouds 18 1027 32 16093 3.1 320 04:50 29.08.2019
2895 Clouds 19 1027 32 16093 3.1 320 04:28 29.08.2019
2896 Clouds 23 1025 31 16093 6.7 20 02:44 29.08.2019
2897 Clouds 24 1025 31 16093 8.2 10 01:42 29.08.2019
2898 Clouds 25 1025 27 16093 5.1 20 00:58 29.08.2019
2899 Clouds 25 1025 27 16093 5.1 20 00:40 29.08.2019
2900 Clouds 25 1027 35 8047 5.7 50 00:20 29.08.2019
2901 Clouds 25 1025 27 16093 6.2 30 23:41 28.08.2019
2902 Clouds 24 1026 27 12874 5.1 360 23:22 28.08.2019
2903 Clouds 24 1026 27 12874 5.1 360 22:57 28.08.2019
2904 Clouds 25 1026 26 12874 4.1 310 22:38 28.08.2019
2905 Clouds 25 1027 33 11265 4.1 60 22:18 28.08.2019
2906 Clouds 25 1027 33 11265 4.1 60 21:57 28.08.2019
2907 Clouds 25 1027 33 11265 4.1 60 21:38 28.08.2019
2908 Haze 24 1027 33 11265 5.1 20 21:19 28.08.2019
2909 Haze 23 1028 43 9656 4.1 60 20:41 28.08.2019
2910 Haze 23 1028 43 9656 3.6 90 20:22 28.08.2019
2911 Mist 22 1029 52 8047 3.07 56.951 19:55 28.08.2019
2912 Mist 21 1029 52 8047 3.07 56.951 19:37 28.08.2019
2913 Mist 21 1029 52 8047 3.07 56.951 19:37 28.08.2019
2914 Mist 21 1029 52 8047 3.07 56.951 19:18 28.08.2019
2915 Mist 19 1029 59 8047 1.5 240 18:41 28.08.2019
2916 Mist 19 1031 93 1609 1 280 18:21 28.08.2019
2917 Mist 17 1029 59 8047 0.46 60.333 17:39 28.08.2019
2918 Fog 17 1029 59 8047 0.46 60.333 17:20 28.08.2019
2919 Fog 16 1029 72 8047 3.1 290 16:58 28.08.2019
2920 Fog 16 1029 72 8047 3.1 290 16:40 28.08.2019
2921 Fog 16 1031 93 805 1.5 70 16:18 28.08.2019
2922 Mist 15 1029 77 9656 2.6 110 15:39 28.08.2019
2923 Fog 15 1028 72 9656 0.48 82.326 15:20 28.08.2019
2924 Fog 15 1028 72 9656 0.48 82.326 14:58 28.08.2019
2925 Fog 15 1028 72 9656 0.48 82.326 14:40 28.08.2019
2926 Fog 13 1028 77 9656 2.1 60 14:21 28.08.2019
2927 Fog 13 1028 77 9656 2.1 60 13:59 28.08.2019
2928 Fog 13 1028 77 9656 2.1 60 13:39 28.08.2019
2929 Fog 13 1030 93 201 0.31 91.668 13:20 28.08.2019
2930 Fog 13 1028 77 12874 1.5 50 12:42 28.08.2019
2931 Mist 13 1028 77 12874 1.5 50 12:24 28.08.2019
2932 Mist 14 1027 72 12874 2.1 320 11:59 28.08.2019
2933 Mist 14 1027 72 12874 2.1 320 11:39 28.08.2019
2934 Mist 14 1027 72 12874 3.6 310 11:20 28.08.2019
2935 Mist 15 1027 72 12874 3.6 310 10:56 28.08.2019
2936 Mist 15 1027 72 12874 3.6 310 10:37 28.08.2019
2937 Mist 14 1027 72 12874 3.6 310 10:19 28.08.2019
2938 Mist 15 1028 63 12874 4.1 320 09:41 28.08.2019
2939 Mist 16 1028 59 12874 2.6 340 09:21 28.08.2019
2940 Mist 16 1028 59 12874 2.6 340 08:55 28.08.2019
2941 Mist 16 1028 59 12874 2.6 340 08:36 28.08.2019
2942 Clouds 16 1028 63 12874 3.1 320 08:18 28.08.2019
2943 Clouds 17 1028 63 12874 3.1 320 07:37 28.08.2019
2944 Clouds 17 1027 59 12874 3.6 290 07:19 28.08.2019
2945 Clouds 17 1027 59 12874 3.6 290 06:46 28.08.2019
2946 Clouds 18 1026 56 12874 6.2 230 05:52 28.08.2019
2947 Thunderstorm 18 1026 52 11265 3.6 360 04:40 28.08.2019
2948 Rain 23 1024 46 9656 4.6 20 01:57 28.08.2019
2949 Clouds 25 1023 31 11265 4.1 60 01:30 28.08.2019
2950 Rain 24 1023 33 8047 1.5 60 00:43 28.08.2019
2951 Thunderstorm 23 1024 33 8047 2.1 90 00:23 28.08.2019
2952 Thunderstorm 23 1024 33 8047 2.1 90 23:44 27.08.2019
2953 Thunderstorm 24 1024 33 8047 2.1 90 23:22 27.08.2019
2954 Thunderstorm 24 1025 36 8047 4.1 100 22:59 27.08.2019
2955 Thunderstorm 25 1025 36 8047 4.1 100 22:39 27.08.2019
2956 Thunderstorm 25 1025 36 8047 4.1 100 22:39 27.08.2019
2957 Clouds 24 1026 38 8047 3.6 60 22:20 27.08.2019
2958 Clouds 24 1026 38 8047 3.6 60 21:56 27.08.2019
2959 Clouds 24 1026 38 8047 3.6 60 21:38 27.08.2019
2960 Clouds 23 1026 46 9656 2.1 120 21:18 27.08.2019
2961 Clouds 23 1026 46 9656 2.1 120 20:55 27.08.2019
2962 Clouds 23 1026 46 9656 2.1 120 20:37 27.08.2019
2963 Clouds 22 1027 53 9656 0.99 83.942 20:18 27.08.2019
2964 Clouds 21 1027 53 9656 0.99 83.942 19:42 27.08.2019
2965 Clouds 21 1027 60 9656 3.1 20 19:24 27.08.2019
2966 Clouds 20 1027 60 9656 3.1 20 18:55 27.08.2019
2967 Clouds 19 1027 59 9656 0.99 83.942 18:36 27.08.2019
2968 Clouds 19 1029 55 9656 0.7 177.035 18:18 27.08.2019
2969 Clouds 18 1027 68 8047 1.5 280 17:42 27.08.2019
2970 Clouds 18 1027 68 8047 1.5 280 17:22 27.08.2019
2971 Clouds 16 1027 72 8047 1 30 16:48 27.08.2019
2972 Clouds 15 1027 72 8047 1 30 16:28 27.08.2019
2973 Fog 14 1026 77 8047 1.5 140 15:58 27.08.2019
2974 Fog 14 1026 77 8047 1.5 140 15:40 27.08.2019
2975 Fog 15 1025 77 9656 1 60 15:21 27.08.2019
2976 Fog 15 1025 77 9656 1 60 14:58 27.08.2019
2977 Fog 15 1025 77 9656 1 60 14:40 27.08.2019
2978 Fog 15 1020 93 16093 0.62 165.761 14:20 27.08.2019
2979 Clouds 14 1026 77 9656 1 180 13:42 27.08.2019
2980 Clouds 15 1026 63 9656 1 300 13:23 27.08.2019
2981 -273 0 0 0 0 0 12:55 27.08.2019
2982 Clouds 15 1026 63 9656 1 300 12:36 27.08.2019
2983 Clouds 15 1026 63 11265 1 250 12:18 27.08.2019
2984 Clouds 15 1026 63 11265 1 250 11:43 27.08.2019
2985 Clouds 15 1026 63 11265 1 250 11:23 27.08.2019
2986 Clouds 16 1026 63 11265 2.6 300 10:42 27.08.2019
2987 Clouds 15 1026 67 11265 2.6 220 10:20 27.08.2019
2988 Clouds 15 1026 67 11265 2.6 220 09:57 27.08.2019
2989 Clouds 15 1026 67 11265 2.6 220 09:38 27.08.2019
2990 Thunderstorm 15 1027 72 11265 4.1 240 09:19 27.08.2019
2991 Thunderstorm 15 1027 72 11265 4.1 240 08:46 27.08.2019
2992 Thunderstorm 15 1027 72 11265 4.1 240 08:26 27.08.2019
2993 Clouds 15 1027 72 11265 4.1 240 07:56 27.08.2019
2994 Rain 16 1027 63 12874 3.6 60 07:37 27.08.2019
2995 Rain 16 1027 63 12874 3.6 60 07:37 27.08.2019
2996 Rain 16 1027 63 12874 3.6 60 07:18 27.08.2019
2997 Clouds 16 1026 59 12874 3.1 260 06:48 27.08.2019
2998 Clouds 17 1026 52 14484 3.6 300 06:20 27.08.2019
2999 Clouds 17 1026 52 14484 3.6 300 05:29 27.08.2019
3000 Thunderstorm 17 1024 52 11265 3.6 300 03:45 27.08.2019
3001 Clouds 19 1022 46 9656 2.1 160 03:21 27.08.2019
3002 Thunderstorm 22 1022 40 9656 3.1 200 01:48 27.08.2019
3003 Thunderstorm 22 1022 40 9656 3.1 200 01:26 27.08.2019
3004 Rain 22 1022 43 9656 6.2 150 00:49 27.08.2019
3005 Haze 24 1023 33 11265 3.1 80 00:28 27.08.2019
3006 Haze 24 1023 33 11265 3.1 80 23:44 26.08.2019
3007 Haze 24 1023 33 11265 3.1 80 23:26 26.08.2019
3008 Thunderstorm 25 1025 40 9656 2.1 190 22:59 26.08.2019
3009 Clouds 25 1024 41 9656 1.5 80 22:37 26.08.2019
3010 Clouds 25 1024 41 9656 1.5 80 22:19 26.08.2019
3011 Clouds 23 1025 43 9656 2.1 170 21:40 26.08.2019
3012 Clouds 23 1025 43 9656 2.1 170 21:22 26.08.2019
3013 Haze 22 1026 49 9656 2.1 100 20:59 26.08.2019
3014 Haze 22 1026 49 9656 2.1 100 20:41 26.08.2019
3015 Haze 22 1026 49 9656 2.1 100 20:20 26.08.2019
3016 Haze 21 1027 52 9656 2.1 40 19:58 26.08.2019
3017 Haze 21 1027 52 9656 2.1 40 19:58 26.08.2019
3018 Haze 21 1027 52 9656 2.1 40 19:40 26.08.2019
3019 Haze 21 1027 52 9656 2.1 40 19:19 26.08.2019
3020 Haze 21 1027 52 9656 3.1 110 18:55 26.08.2019
3021 Haze 21 1027 52 9656 3.1 110 18:37 26.08.2019
3022 Mist 20 1027 52 9656 3.1 110 18:18 26.08.2019
3023 Mist 19 1027 63 11265 0.57 208.74 17:43 26.08.2019
3024 Mist 19 1027 63 11265 0.57 208.74 17:19 26.08.2019
3025 Fog 18 1027 63 11265 1.5 150 16:56 26.08.2019
3026 Fog 18 1027 63 11265 1.5 150 16:38 26.08.2019
3027 Fog 17 1027 77 11265 2.6 80 16:18 26.08.2019
3028 Fog 16 1026 72 11265 2.6 80 15:42 26.08.2019
3029 Fog 16 1026 72 11265 2.6 80 15:22 26.08.2019
3030 Fog 15 1028 93 805 2.1 200 14:57 26.08.2019
3031 Mist 13 1026 77 12874 1.5 70 14:37 26.08.2019
3032 Mist 13 1026 77 12874 1.5 70 14:19 26.08.2019
3033 Mist 13 1026 87 12874 0.51 177.994 13:42 26.08.2019
3034 Mist 13 1026 87 12874 0.96 228.282 13:21 26.08.2019
3035 Mist 13 1026 82 12874 3.6 100 12:46 26.08.2019
3036 Mist 13 1026 82 12874 3.6 100 12:28 26.08.2019
3037 Clouds 14 1026 77 12874 2.1 80 11:59 26.08.2019
3038 Clouds 14 1026 77 12874 2.1 80 11:38 26.08.2019
3039 Clouds 14 1026 77 12874 2.1 80 11:19 26.08.2019
3040 Clouds 14 1026 77 12874 1.5 270 10:55 26.08.2019
3041 Clouds 14 1026 77 12874 1.5 270 10:55 26.08.2019
3042 Clouds 14 1026 77 12874 1.5 270 10:36 26.08.2019
3043 Clouds 15 1026 77 12874 1.5 270 10:18 26.08.2019
3044 Clouds 15 1027 77 16093 2.1 260 09:41 26.08.2019
3045 Clouds 15 1027 77 16093 2.1 260 09:23 26.08.2019
3046 Clouds 15 1027 77 16093 3.1 310 08:55 26.08.2019
3047 Thunderstorm 15 1028 82 12874 4.1 300 08:37 26.08.2019
3048 Thunderstorm 15 1028 82 12874 4.1 300 08:18 26.08.2019
3049 Thunderstorm 16 1028 82 11265 7.2 310 07:42 26.08.2019
3050 Thunderstorm 16 1028 82 11265 7.2 310 07:23 26.08.2019
3051 Thunderstorm 16 1027 82 9656 4.1 290 06:49 26.08.2019
3052 Thunderstorm 17 1027 77 9656 5.7 280 06:25 26.08.2019
3053 Rain 16 1027 87 9656 5.7 250 05:51 26.08.2019
3054 Clouds 19 1025 52 12874 5.1 280 04:31 26.08.2019
3055 Clouds 22 1025 49 12874 3.1 300 03:19 26.08.2019
3056 Thunderstorm 24 1023 38 12874 3.1 90 01:40 26.08.2019
3057 Thunderstorm 24 1023 38 12874 3.1 90 01:21 26.08.2019
3058 Thunderstorm 24 1023 34 12874 5.1 120 00:41 26.08.2019
3059 Thunderstorm 24 1023 34 12874 5.1 120 00:22 26.08.2019
3060 Thunderstorm 25 1024 29 12874 3.1 20 23:43 25.08.2019
3061 Thunderstorm 25 1024 29 12874 3.1 20 23:19 25.08.2019
3062 Clouds 26 1025 31 12874 4.1 220 22:57 25.08.2019
3063 Clouds 26 1025 31 12874 4.1 220 22:39 25.08.2019
3064 Clouds 26 1025 31 12874 4.1 220 22:20 25.08.2019
3065 Clouds 25 1026 36 12874 4.6 80 21:57 25.08.2019
3066 Clouds 25 1026 36 12874 4.6 80 21:37 25.08.2019
3067 Clouds 25 1026 36 12874 4.6 80 21:18 25.08.2019
3068 Clouds 24 1027 46 9656 2.6 120 20:40 25.08.2019
3069 Clouds 23 1027 46 9656 2.6 120 20:20 25.08.2019
3070 Clouds 22 1028 49 9656 1.18 264.067 19:58 25.08.2019
3071 Clouds 22 1028 60 9656 1.18 264.067 19:39 25.08.2019
3072 Clouds 22 1028 60 9656 1.18 264.067 19:19 25.08.2019
3073 Haze 20 1029 68 9656 2.1 100 18:57 25.08.2019
3074 Haze 20 1029 68 9656 2.1 100 18:39 25.08.2019
3075 Haze 20 1029 68 9656 2.1 100 18:21 25.08.2019
3076 Mist 18 1029 72 9656 2.1 70 17:43 25.08.2019
3077 Mist 18 1029 72 9656 2.1 70 17:25 25.08.2019
3078 Mist 16 1029 77 9656 2.1 80 16:56 25.08.2019
3079 Mist 16 1029 77 9656 2.1 80 16:36 25.08.2019
3080 Mist 16 1029 77 9656 2.1 80 16:18 25.08.2019
3081 Mist 15 1028 82 8047 1.45 220.691 15:42 25.08.2019
3082 Mist 15 1028 82 8047 0.88 194.005 15:24 25.08.2019
3083 Mist 14 1028 82 8047 2.1 80 14:43 25.08.2019
3084 Mist 14 1028 82 8047 2.1 80 14:24 25.08.2019
3085 Clouds 14 1027 87 8047 0.88 194.005 13:56 25.08.2019
3086 Clouds 14 1027 87 8047 0.88 194.005 13:37 25.08.2019
3087 Clouds 13 1027 87 8047 0.66 207.92 13:18 25.08.2019
3088 Clouds 12 1027 87 8047 2.1 70 12:42 25.08.2019
3089 Clouds 12 1027 87 8047 2.1 70 12:24 25.08.2019
3090 Clouds 13 1027 82 9656 3.1 80 11:58 25.08.2019
3091 Clouds 13 1027 82 9656 3.1 80 11:38 25.08.2019
3092 Clouds 13 1027 82 9656 3.1 80 11:20 25.08.2019
3093 Clouds 15 1027 72 9656 1.5 110 10:56 25.08.2019
3094 Clouds 15 1027 72 9656 1.5 110 10:37 25.08.2019
3095 Clouds 15 1027 72 9656 1.5 110 10:19 25.08.2019
3096 Clouds 15 1028 72 9656 1 70 09:43 25.08.2019
3097 Clouds 15 1028 72 9656 1 70 09:24 25.08.2019
3098 Clouds 16 1028 68 11265 3.1 100 08:47 25.08.2019
3099 Clouds 16 1028 68 11265 3.1 100 08:29 25.08.2019
3100 Clouds 16 1029 72 11265 3.6 80 07:54 25.08.2019
3101 Clouds 17 1029 72 11265 3.6 80 07:32 25.08.2019
3102 Clouds 18 1028 63 11265 3.6 60 06:39 25.08.2019
3103 Clouds 18 1027 59 11265 3.1 90 05:27 25.08.2019
3104 Clouds 18 1026 63 11265 4.6 210 03:48 25.08.2019
3105 Clouds 22 1025 64 11265 2.6 240 02:44 25.08.2019
3106 Clouds 22 1025 64 11265 2.6 240 02:20 25.08.2019
3107 Thunderstorm 23 1025 56 9656 8.2 120 00:56 25.08.2019
3108 Thunderstorm 23 1024 33 9656 6.7 80 00:24 25.08.2019
3109 Thunderstorm 24 1025 33 9656 2.6 80 23:58 24.08.2019
3110 Thunderstorm 24 1025 33 9656 2.6 80 23:40 24.08.2019
3111 Thunderstorm 24 1025 33 9656 2.6 80 23:22 24.08.2019
3112 Clouds 25 1026 38 9656 2.1 80 22:54 24.08.2019
3113 Clouds 25 1026 38 9656 2.1 80 22:36 24.08.2019
3114 Clouds 25 1026 38 9656 2.1 80 22:18 24.08.2019
3115 Clouds 24 1027 46 9656 3.6 80 21:42 24.08.2019
3116 Clouds 24 1027 46 9656 3.6 80 21:42 24.08.2019
3117 Clouds 24 1027 46 9656 3.6 80 21:42 24.08.2019
3118 Clouds 23 1027 46 9656 3.6 80 21:24 24.08.2019
3119 Clouds 21 1028 46 9656 1.5 30 20:58 24.08.2019
3120 Clouds 21 1028 46 9656 1.5 30 20:40 24.08.2019
3121 Clouds 22 1028 46 9656 1.5 30 20:20 24.08.2019
3122 Clouds 21 1029 49 9656 2.6 80 19:58 24.08.2019
3123 Clouds 21 1029 49 9656 2.6 80 19:39 24.08.2019
3124 Clouds 21 1029 49 9656 2.6 80 19:21 24.08.2019
3125 Clouds 21 1029 49 9656 2.6 70 18:46 24.08.2019
3126 Clouds 20 1029 59 11265 0.42 62.829 18:25 24.08.2019
3127 Clouds 19 1030 59 11265 2.6 110 17:57 24.08.2019
3128 Clouds 18 1030 67 11265 2.6 90 17:39 24.08.2019
3129 Clouds 18 1030 67 11265 2.6 90 17:21 24.08.2019
3130 Clouds 15 1029 67 11265 2.6 130 16:40 24.08.2019
3131 Clouds 16 1029 67 11265 2.6 130 16:19 24.08.2019
3132 Clouds 15 1031 81 6437 1.5 120 15:44 24.08.2019
3133 Mist 14 1028 72 11265 0.25 251.421 15:26 24.08.2019
3134 Mist 14 1030 87 4828 0.25 251.421 14:59 24.08.2019
3135 Mist 14 1028 77 12874 2.6 170 14:40 24.08.2019
3136 Mist 14 1028 77 12874 2.6 170 14:19 24.08.2019
3137 Mist 13 1030 87 3219 4.1 50 13:54 24.08.2019
3138 Mist 13 1027 72 16093 0.25 251.421 13:36 24.08.2019
3139 Mist 13 1027 72 16093 0.68 257.793 13:18 24.08.2019
3140 Clouds 13 1027 72 16093 1.5 150 12:41 24.08.2019
3141 Clouds 13 1027 72 16093 1.5 150 12:22 24.08.2019
3142 Clouds 14 1027 77 16093 2.1 120 11:52 24.08.2019
3143 Clouds 14 1027 77 16093 2.1 120 11:32 24.08.2019
3144 Clouds 14 1028 77 16093 2.6 350 10:59 24.08.2019
3145 Clouds 14 1028 77 16093 2.6 350 10:40 24.08.2019
3146 Clouds 14 1028 77 16093 2.6 350 10:21 24.08.2019
3147 Rain 14 1029 72 12874 2.6 120 09:42 24.08.2019
3148 Rain 15 1029 72 12874 2.6 120 09:19 24.08.2019
3149 Rain 14 1030 77 12874 5.1 110 08:43 24.08.2019
3150 Rain 14 1030 77 12874 5.1 110 08:25 24.08.2019
3151 Rain 15 1030 72 11265 4.6 120 07:53 24.08.2019
3152 Rain 15 1029 67 12874 5.7 110 07:30 24.08.2019
3153 Clouds 15 1028 67 12874 2.1 230 06:52 24.08.2019
3154 Clouds 16 1028 67 12874 2.1 230 06:21 24.08.2019
3155 Rain 16 1028 72 12874 0.61 168.525 05:36 24.08.2019
3156 Clouds 16 1027 77 11265 3.6 10 03:48 24.08.2019
3157 Thunderstorm 16 1026 77 8047 4.1 60 03:28 24.08.2019
3158 Thunderstorm 19 1026 82 4828 5.7 50 02:18 24.08.2019
3159 Thunderstorm 20 1025 68 9656 4.1 80 01:25 24.08.2019
3160 Thunderstorm 20 1025 59 9656 5.7 130 00:47 24.08.2019
3161 Thunderstorm 20 1025 59 9656 5.7 130 00:23 24.08.2019
3162 Thunderstorm 20 1025 59 9656 5.7 130 00:23 24.08.2019
3163 Thunderstorm 22 1028 87 4828 1.5 210 23:45 23.08.2019
3164 Thunderstorm 22 1028 87 4828 1.5 210 23:45 23.08.2019
3165 Thunderstorm 22 1024 43 9656 7.2 260 23:20 23.08.2019
3166 Thunderstorm 23 1029 77 1609 7.7 220 22:45 23.08.2019
3167 Clouds 24 1025 41 9656 2.6 350 22:27 23.08.2019
3168 Clouds 24 1026 41 9656 4.1 30 21:56 23.08.2019
3169 Clouds 24 1026 41 9656 4.1 30 21:37 23.08.2019
3170 Clouds 24 1026 41 9656 4.1 30 21:37 23.08.2019
3171 Clouds 24 1026 41 9656 4.1 30 21:19 23.08.2019
3172 Clouds 23 1026 41 8047 2.6 310 20:51 23.08.2019
3173 Clouds 23 1027 49 8047 2.6 100 20:33 23.08.2019
3174 Clouds 22 1027 49 8047 2.1 40 19:47 23.08.2019
3175 Clouds 22 1027 49 8047 2.1 40 19:19 23.08.2019
3176 Clouds 21 1027 56 8047 3.6 50 18:56 23.08.2019
3177 Clouds 21 1027 56 8047 3.6 50 18:37 23.08.2019
3178 Clouds 21 1027 56 8047 3.6 50 18:19 23.08.2019
3179 Clouds 19 1028 63 8047 2.1 80 17:42 23.08.2019
3180 Clouds 19 1028 63 8047 2.1 80 17:24 23.08.2019
3181 Clouds 17 1028 72 8047 2.1 80 16:56 23.08.2019
3182 Clouds 17 1028 72 8047 2.1 80 16:38 23.08.2019
3183 Clouds 17 1028 72 8047 2.1 80 16:20 23.08.2019
3184 Clouds 16 1028 77 8047 3.6 80 15:40 23.08.2019
3185 Clouds 16 1028 77 8047 3.6 80 15:22 23.08.2019
3186 Clouds 16 1028 77 8047 3.6 80 14:56 23.08.2019
3187 Clouds 16 1028 77 8047 3.6 80 14:38 23.08.2019
3188 Clouds 16 1028 77 8047 3.6 80 14:20 23.08.2019
3189 Clouds 14 1027 77 9656 2.1 60 13:42 23.08.2019
3190 Clouds 14 1027 77 9656 2.1 60 13:23 23.08.2019
3191 Clouds 15 1027 72 9656 3.1 110 13:00 23.08.2019
3192 Clouds 15 1027 72 9656 3.1 110 12:41 23.08.2019
3193 Clouds 15 1027 72 9656 3.1 110 12:22 23.08.2019
3194 Clouds 15 1027 72 9656 1.5 50 11:58 23.08.2019
3195 Clouds 15 1027 72 9656 1.5 50 11:39 23.08.2019
3196 Clouds 15 1027 72 9656 1.5 50 11:19 23.08.2019
3197 Clouds 15 1027 67 9656 2.6 70 10:56 23.08.2019
3198 Clouds 15 1027 67 9656 2.6 70 10:38 23.08.2019
3199 Clouds 15 1027 67 9656 2.6 70 10:18 23.08.2019
3200 Clouds 15 1027 67 9656 2.1 50 09:43 23.08.2019
3201 Clouds 15 1027 67 9656 2.1 50 09:20 23.08.2019
3202 Clouds 15 1027 72 11265 3.1 60 08:45 23.08.2019
3203 Clouds 15 1027 72 11265 3.1 60 08:22 23.08.2019
3204 Clouds 15 1028 72 11265 2.6 330 07:59 23.08.2019
3205 Clouds 15 1028 72 11265 2.6 330 07:40 23.08.2019
3206 Clouds 15 1028 72 11265 2.6 330 07:22 23.08.2019
3207 Clouds 15 1027 63 11265 4.1 300 06:41 23.08.2019
3208 Clouds 15 1027 63 11265 4.1 300 06:22 23.08.2019
3209 Clouds 16 1027 55 12874 6.2 50 05:44 23.08.2019
3210 -273 0 0 0 0 0 05:25 23.08.2019
3211 Clouds 17 1025 52 11265 3.1 140 03:46 23.08.2019
3212 Rain 20 1024 56 11265 2.1 210 02:39 23.08.2019
3213 Rain 20 1024 56 11265 2.1 210 02:20 23.08.2019
3214 Thunderstorm 20 1024 46 8047 5.7 250 00:58 23.08.2019
3215 Thunderstorm 21 1024 46 8047 5.7 250 00:39 23.08.2019
3216 Thunderstorm 21 1024 46 8047 5.7 250 00:18 23.08.2019
3217 Thunderstorm 23 1025 40 9656 5.1 180 23:41 22.08.2019
3218 Thunderstorm 23 1025 40 9656 5.1 180 23:21 22.08.2019
3219 Clouds 24 1019 57 16093 2.6 330 22:42 22.08.2019
3220 Clouds 24 1027 40 9656 2.6 240 22:24 22.08.2019
3221 Clouds 23 1026 41 9656 3.1 90 21:58 22.08.2019
3222 Clouds 23 1026 41 9656 3.1 90 21:40 22.08.2019
3223 Clouds 23 1026 41 9656 3.1 90 21:22 22.08.2019
3224 Clouds 22 1027 46 9656 1.5 130 20:58 22.08.2019
3225 Clouds 22 1027 46 9656 1.5 130 20:39 22.08.2019
3226 Clouds 22 1027 46 9656 1.5 130 20:20 22.08.2019
3227 Clouds 21 1028 52 9656 2.6 140 19:56 22.08.2019
3228 Clouds 21 1028 52 9656 2.6 140 19:38 22.08.2019
3229 Clouds 21 1028 52 9656 2.6 140 19:20 22.08.2019
3230 Rain 20 1028 56 11265 3.6 120 18:57 22.08.2019
3231 Rain 20 1028 56 11265 3.6 120 18:39 22.08.2019
3232 Rain 20 1028 56 11265 3.6 120 18:19 22.08.2019
3233 Rain 19 1031 72 8047 2.1 70 17:43 22.08.2019
3234 Clouds 19 1028 59 0 2.68 90 17:24 22.08.2019
3235 Rain 17 1028 67 12874 1.22 244.108 16:59 22.08.2019
3236 Rain 17 1028 67 12874 1.22 244.108 16:40 22.08.2019
3237 Rain 17 1028 67 12874 1.22 244.108 16:22 22.08.2019
3238 Rain 17 1028 67 12874 1.22 244.108 16:22 22.08.2019
3239 Rain 17 1028 67 12874 1.22 244.108 16:21 22.08.2019
3240 Rain 17 1028 67 12874 1.22 244.108 16:21 22.08.2019
3241 Clouds 17 1028 67 0 1.22 244.108 15:59 22.08.2019
3242 Clouds 17 1028 67 0 1.22 244.108 15:59 22.08.2019
3243 Fog 18 1022 93 8047 1.22 244.108 15:40 22.08.2019
3244 Fog 18 1022 93 8047 1.22 244.108 15:40 22.08.2019
3245 Fog 18 1022 93 8047 1.22 244.108 15:40 22.08.2019
3246 Fog 16 1028 72 12874 0.91 215.245 15:21 22.08.2019
3247 Fog 16 1028 72 12874 0.91 215.245 14:57 22.08.2019
3248 Fog 16 1028 72 12874 0.91 215.245 14:38 22.08.2019
3249 Fog 16 1028 72 12874 0.91 215.245 14:18 22.08.2019
3250 Clouds 14 1027 77 16093 1.5 190 13:56 22.08.2019
3251 Clouds 14 1027 77 16093 1.5 190 13:37 22.08.2019
3252 Clouds 14 1027 77 16093 1.5 190 13:18 22.08.2019
3253 Clouds 14 1027 72 16093 2.6 140 12:40 22.08.2019
3254 Clouds 14 1027 72 16093 2.6 140 12:21 22.08.2019
3255 Clouds 14 1027 77 16093 2.1 210 11:55 22.08.2019
3256 Clouds 14 1027 77 16093 2.1 210 11:36 22.08.2019
3257 Clouds 14 1027 77 16093 2.1 210 11:18 22.08.2019
3258 Clouds 15 1027 72 16093 1.5 240 10:57 22.08.2019
3259 Clouds 15 1027 72 16093 1.5 240 10:36 22.08.2019
3260 Clouds 15 1027 72 16093 1.5 240 10:18 22.08.2019
3261 Rain 18 1027 63 0 2.24 270 09:40 22.08.2019
3262 Clouds 16 1028 63 19312 2.6 270 09:21 22.08.2019
3263 Clouds 16 1028 63 19312 2.6 270 08:59 22.08.2019
3264 Clouds 16 1028 63 19312 2.6 270 08:40 22.08.2019
3265 Clouds 16 1028 63 19312 2.6 270 08:21 22.08.2019
3266 Clouds 17 1028 59 19312 3.1 130 07:43 22.08.2019
3267 Clouds 17 1028 59 19312 3.1 130 07:24 22.08.2019
3268 Clouds 16 1027 55 19312 5.7 130 06:58 22.08.2019
3269 Clouds 16 1027 55 19312 5.7 130 06:40 22.08.2019
3270 Clouds 17 1027 55 19312 5.7 130 06:19 22.08.2019
3271 Clouds 18 1026 49 16093 6.2 150 04:42 22.08.2019
3272 Clouds 23 1025 43 12874 4.6 120 02:56 22.08.2019
3273 Clouds 22 1025 43 12874 4.6 120 02:34 22.08.2019
3274 Clouds 23 1025 43 12874 4.6 180 01:26 22.08.2019
3275 Clouds 23 1025 43 12874 5.7 90 00:48 22.08.2019
3276 Clouds 23 1025 43 12874 5.7 90 00:30 22.08.2019
3277 Clouds 23 1025 46 12874 4.6 50 23:58 21.08.2019
3278 Clouds 23 1025 46 12874 4.6 50 23:39 21.08.2019
3279 Clouds 23 1025 46 12874 4.6 50 23:19 21.08.2019
3280 Clouds 23 1026 40 12874 4.1 120 22:55 21.08.2019
3281 Clouds 23 1026 40 12874 4.1 120 22:37 21.08.2019
3282 Clouds 23 1026 40 12874 4.1 120 22:19 21.08.2019
3283 Clouds 23 1026 40 11265 3.1 40 21:55 21.08.2019
3284 Clouds 23 1026 40 11265 3.1 40 21:36 21.08.2019
3285 Clouds 22 1026 40 11265 3.1 40 21:18 21.08.2019
3286 Clear 22 1027 37 11265 2.1 190 20:43 21.08.2019
3287 Clear 22 1027 37 11265 2.1 190 20:24 21.08.2019
3288 Clear 21 1028 49 9656 2.6 80 19:57 21.08.2019
3289 Clear 21 1028 49 9656 2.6 80 19:39 21.08.2019
3290 Clear 21 1028 49 9656 2.6 80 19:20 21.08.2019
3291 Clear 20 1028 49 9656 2.2 66.89 18:55 21.08.2019
3292 Clear 19 1029 55 11265 1 190 18:37 21.08.2019
3293 Smoke 18 1029 63 12874 2.1 70 18:19 21.08.2019
3294 Smoke 17 1029 63 12874 2.1 70 17:42 21.08.2019
3295 Smoke 17 1029 63 12874 2.1 70 17:20 21.08.2019
3296 Smoke 16 1029 67 12874 2.1 100 16:54 21.08.2019
3297 Smoke 15 1028 76 16093 3.1 110 16:36 21.08.2019
3298 Smoke 15 1028 76 16093 3.1 110 16:18 21.08.2019
3299 Clouds 12 1028 76 16093 2.1 90 15:42 21.08.2019
3300 Clouds 12 1028 76 16093 2.1 90 15:22 21.08.2019
3301 Clouds 13 1028 76 12874 1 30 14:59 21.08.2019
3302 Clouds 13 1028 76 12874 1 30 14:39 21.08.2019
3303 Clouds 13 1028 76 12874 1 30 14:21 21.08.2019
3304 Clouds 13 1028 76 12874 1 30 14:21 21.08.2019
3305 Clouds 12 1027 67 16093 2.1 290 13:58 21.08.2019
3306 Clouds 12 1027 67 16093 2.1 290 13:40 21.08.2019
3307 Clouds 12 1027 67 16093 2.1 290 13:19 21.08.2019
3308 Clouds 13 1027 71 19312 3.6 290 12:44 21.08.2019
3309 Clouds 13 1027 71 19312 3.6 290 12:25 21.08.2019
3310 Clouds 13 1027 71 19312 3.6 300 11:59 21.08.2019
3311 Clouds 14 1027 71 19312 3.6 300 11:41 21.08.2019
3312 Clouds 14 1027 71 19312 3.6 300 11:22 21.08.2019
3313 Clouds 15 1027 67 12874 3.1 280 10:57 21.08.2019
3314 Clouds 15 1027 67 12874 3.1 280 10:38 21.08.2019
3315 Clouds 13 1027 67 12874 3.1 280 10:20 21.08.2019
3316 Clouds 14 1027 67 14484 3.6 300 09:57 21.08.2019
3317 Clouds 14 1027 67 14484 3.6 300 09:37 21.08.2019
3318 Clouds 14 1027 67 14484 3.6 300 09:37 21.08.2019
3319 Clouds 14 1027 67 14484 3.6 300 09:18 21.08.2019
3320 Clouds 14 1028 63 16093 2.6 360 08:44 21.08.2019
3321 Clouds 14 1028 63 16093 2.6 360 08:44 21.08.2019
3322 Clouds 14 1028 63 16093 2.6 360 08:24 21.08.2019
3323 Clouds 15 1028 59 16093 3.1 20 07:43 21.08.2019
3324 Clouds 15 1028 59 16093 3.1 20 07:24 21.08.2019
3325 Clouds 16 1028 59 16093 4.1 360 06:50 21.08.2019
3326 Clouds 16 1028 59 16093 4.1 360 06:28 21.08.2019
3327 Clouds 17 1027 55 16093 6.2 40 05:47 21.08.2019
3328 Clouds 17 1027 55 16093 6.2 40 05:25 21.08.2019
3329 Clouds 19 1025 46 16093 8.7 40 03:56 21.08.2019
3330 Clouds 24 1023 38 16093 5.7 90 01:52 21.08.2019
3331 Clouds 24 1023 38 16093 5.7 90 01:23 21.08.2019
3332 Clouds 25 1024 36 16093 5.7 60 00:38 21.08.2019
3333 Clouds 25 1024 36 16093 5.7 60 00:18 21.08.2019
3334 Clouds 25 1024 33 16093 3.1 40 23:43 20.08.2019
3335 Clouds 25 1024 33 16093 3.1 40 23:19 20.08.2019
3336 Clouds 25 1024 33 16093 4.1 50 22:58 20.08.2019
3337 Clouds 25 1024 33 16093 4.1 50 22:39 20.08.2019
3338 Clouds 24 1025 33 16093 2.6 50 22:21 20.08.2019
3339 Clouds 23 1026 35 16093 2.6 280 21:57 20.08.2019
3340 -273 0 0 0 0 0 21:57 20.08.2019
3341 Clouds 23 1026 35 16093 2.6 280 21:38 20.08.2019
3342 Clouds 23 1026 35 16093 2.6 280 21:19 20.08.2019
3343 Clouds 22 1026 35 16093 2.1 110 20:56 20.08.2019
3344 Clouds 22 1026 35 16093 2.1 110 20:56 20.08.2019
3345 Clouds 22 1027 37 16093 3.6 360 20:36 20.08.2019
3346 Clouds 21 1027 37 16093 3.6 360 20:36 20.08.2019
3347 Clouds 21 1027 37 16093 3.6 360 20:18 20.08.2019
3348 Clouds 20 1028 39 19312 2.6 50 19:39 20.08.2019
3349 Clouds 20 1028 39 19312 2.6 50 19:20 20.08.2019
3350 Clouds 19 1028 45 19312 2.6 360 18:56 20.08.2019
3351 Clouds 18 1028 45 0 2.24 360 18:38 20.08.2019
3352 Clouds 18 1028 51 19312 2.1 270 18:19 20.08.2019
3353 Clouds 17 1028 51 19312 2.1 270 17:55 20.08.2019
3354 Clouds 17 1028 51 19312 2.1 270 17:37 20.08.2019
3355 Clouds 16 1028 55 19312 2.6 280 17:18 20.08.2019
3356 Clouds 16 1028 55 19312 2.6 280 16:42 20.08.2019
3357 Clouds 16 1028 55 19312 2.6 280 16:23 20.08.2019
3358 Clouds 14 1028 62 19312 2.6 320 15:42 20.08.2019
3359 Clouds 13 1027 62 19312 1.95 45.477 15:19 20.08.2019
3360 Clouds 13 1027 62 19312 1.95 45.477 14:57 20.08.2019
3361 Clouds 13 1027 62 19312 1.95 45.477 14:39 20.08.2019
3362 Clouds 11 1027 66 24140 2.1 270 14:20 20.08.2019
3363 Clouds 11 1027 66 24140 2.1 270 13:56 20.08.2019
3364 Clouds 11 1027 66 24140 2.1 270 13:56 20.08.2019
3365 Clouds 11 1027 66 24140 2.1 270 13:37 20.08.2019
3366 Clouds 11 1026 66 24140 3.6 310 13:18 20.08.2019
3367 Clouds 12 1026 66 24140 3.6 310 12:50 20.08.2019
3368 Clouds 11 1027 76 11265 3.1 50 12:25 20.08.2019
3369 Clouds 12 1026 71 24140 4.1 300 11:56 20.08.2019
3370 Clouds 12 1026 71 24140 4.1 300 11:38 20.08.2019
3371 Clouds 13 1027 62 19312 3.6 20 11:18 20.08.2019
3372 Clouds 13 1027 62 19312 3.6 20 10:56 20.08.2019
3373 Clouds 13 1027 62 19312 3.6 20 10:37 20.08.2019
3374 Clouds 13 1027 62 19312 5.1 350 10:19 20.08.2019
3375 Clouds 14 1027 62 19312 5.1 350 09:42 20.08.2019
3376 Clouds 14 1027 63 19312 6.2 40 09:24 20.08.2019
3377 Clouds 14 1027 63 19312 6.2 40 08:43 20.08.2019
3378 Clouds 14 1027 63 19312 6.2 40 08:25 20.08.2019
3379 Clouds 15 1026 63 19312 6.2 20 07:59 20.08.2019
3380 Clouds 15 1026 63 19312 6.2 20 07:41 20.08.2019
3381 Clouds 15 1028 71 11265 4.1 50 07:22 20.08.2019
3382 Clouds 16 1026 63 19312 5.1 30 06:56 20.08.2019
3383 Clouds 18 1027 71 11265 2.86 50.3 06:24 20.08.2019
3384 Clouds 18 1026 59 19312 9.3 50 05:49 20.08.2019
3385 Clouds 19 1025 55 16093 6.2 30 04:56 20.08.2019
3386 Clouds 20 1025 49 16093 7.2 60 03:37 20.08.2019
3387 Clouds 22 1024 46 16093 10.3 50 02:34 20.08.2019
3388 Clouds 23 1024 43 16093 7.2 30 01:36 20.08.2019
3389 Clouds 24 1023 36 14484 6.2 360 00:50 20.08.2019
3390 Clouds 24 1023 36 14484 6.2 360 00:31 20.08.2019
3391 Clouds 23 1024 38 12874 7.7 60 23:56 19.08.2019
3392 Clouds 23 1024 38 12874 7.7 60 23:37 19.08.2019
3393 Clouds 23 1025 40 14484 8.7 60 23:18 19.08.2019
3394 Clouds 23 1025 40 14484 8.7 60 22:41 19.08.2019
3395 Clouds 23 1026 43 14484 5.7 360 22:21 19.08.2019
3396 Clouds 22 1026 43 14484 5.7 360 21:58 19.08.2019
3397 Clouds 22 1026 43 14484 5.7 360 21:39 19.08.2019
3398 Clouds 22 1026 43 14484 5.7 360 21:20 19.08.2019
3399 Clouds 22 1026 43 14484 5.7 360 21:20 19.08.2019
3400 Clouds 22 1026 40 16093 5.1 30 20:59 19.08.2019
3401 Clouds 22 1026 40 16093 5.1 30 20:38 19.08.2019
3402 Clouds 22 1027 40 14484 4.6 20 20:20 19.08.2019
3403 Clouds 22 1027 40 14484 4.6 20 19:55 19.08.2019
3404 Clouds 22 1027 40 14484 4.6 20 19:55 19.08.2019
3405 Clouds 21 1027 52 14484 3.6 70 19:37 19.08.2019
3406 Clouds 21 1027 52 14484 3.6 70 19:18 19.08.2019
3407 Clouds 21 1027 52 14484 3.6 70 19:18 19.08.2019
3408 Clouds 20 1027 55 12874 4.6 40 18:44 19.08.2019
3409 Clouds 20 1027 55 12874 4.6 40 18:26 19.08.2019
3410 Haze 18 1027 55 11265 4.6 10 17:58 19.08.2019
3411 Haze 18 1027 55 11265 4.6 10 17:40 19.08.2019
3412 Mist 18 1029 93 3219 2.1 280 17:19 19.08.2019
3413 Mist 17 1029 93 3219 2.1 280 16:58 19.08.2019
3414 Fog 17 1027 63 9656 2.6 360 16:37 19.08.2019
3415 Fog 17 1027 63 9656 2.6 360 16:18 19.08.2019
3416 Fog 15 1026 77 9656 1.5 330 15:45 19.08.2019
3417 Fog 15 1026 77 9656 1.5 330 15:20 19.08.2019
3418 Fog 15 1026 77 9656 2.6 300 14:57 19.08.2019
3419 Fog 14 1026 77 9656 2.6 300 14:37 19.08.2019
3420 Fog 14 1026 77 9656 2.6 300 14:19 19.08.2019
3421 Mist 14 1026 72 9656 2.6 60 13:56 19.08.2019
3422 Mist 14 1026 72 9656 2.6 60 13:36 19.08.2019
3423 Mist 14 1026 72 9656 2.6 60 13:18 19.08.2019
3424 Clouds 14 1026 72 11265 2.6 320 12:43 19.08.2019
3425 Clouds 14 1026 72 11265 2.6 320 12:43 19.08.2019
3426 Clouds 14 1026 72 11265 2.6 320 12:23 19.08.2019
3427 Clouds 15 1026 67 11265 3.1 290 11:56 19.08.2019
3428 Clouds 15 1026 67 11265 3.1 290 11:36 19.08.2019
3429 Clouds 15 1026 67 11265 3.1 290 11:18 19.08.2019
3430 Clouds 15 1026 67 11265 2.6 280 10:40 19.08.2019
3431 Clouds 15 1026 67 11265 2.6 280 10:19 19.08.2019
3432 Clear 15 1026 63 12874 3.6 310 09:56 19.08.2019
3433 Clear 15 1026 63 12874 3.6 310 09:38 19.08.2019
3434 Clear 16 1026 63 12874 3.6 310 09:20 19.08.2019
3435 Clouds 16 1027 68 12874 3.6 360 08:45 19.08.2019
3436 Clouds 16 1027 68 12874 3.6 360 08:25 19.08.2019
3437 Clear 17 1026 63 12874 3.1 10 07:57 19.08.2019
3438 Clear 17 1026 63 12874 3.1 10 07:39 19.08.2019
3439 Clear 17 1026 63 12874 3.1 10 07:19 19.08.2019
3440 Clear 17 1026 63 12874 3.1 10 07:19 19.08.2019
3441 Clear 17 1026 63 16093 3.6 80 06:36 19.08.2019
3442 Clouds 18 1025 52 16093 3.1 290 05:28 19.08.2019
3443 Thunderstorm 18 1025 49 11265 2.1 320 04:34 19.08.2019
3444 Thunderstorm 18 1025 52 11265 3.1 360 03:58 19.08.2019
3445 Thunderstorm 21 1025 52 11265 3.1 360 03:18 19.08.2019
3446 Rain 22 1024 52 11265 7.2 90 01:45 19.08.2019
3447 Rain 23 1023 36 11265 5.1 20 00:59 19.08.2019
3448 Thunderstorm 24 1023 31 11265 4.1 30 00:37 19.08.2019
3449 Thunderstorm 24 1023 31 11265 4.1 30 00:18 19.08.2019
3450 Thunderstorm 25 1024 32 9656 2.1 220 23:39 18.08.2019
3451 Thunderstorm 25 1024 32 9656 2.1 220 23:20 18.08.2019
3452 Clouds 25 1025 36 9656 5.1 70 22:40 18.08.2019
3453 Clouds 25 1025 36 9656 5.1 70 22:21 18.08.2019
3454 Haze 24 1026 41 8047 4.1 60 21:57 18.08.2019
3455 Haze 24 1026 41 8047 4.1 60 21:39 18.08.2019
3456 Haze 24 1026 41 8047 4.1 60 21:20 18.08.2019
3457 Haze 23 1026 44 6437 3.1 110 20:55 18.08.2019
3458 Haze 23 1026 44 6437 3.1 110 20:36 18.08.2019
3459 Haze 22 1026 49 8047 2.6 100 20:18 18.08.2019
3460 Haze 22 1026 49 8047 2.6 100 19:41 18.08.2019
3461 Haze 21 1027 56 8047 2.1 40 19:23 18.08.2019
3462 Mist 20 1027 60 8047 2.6 290 18:56 18.08.2019
3463 Mist 20 1027 60 8047 2.6 290 18:56 18.08.2019
3464 Mist 20 1027 60 8047 2.6 290 18:38 18.08.2019
3465 Mist 20 1027 60 8047 2.6 290 18:20 18.08.2019
3466 Mist 18 1028 68 8047 2.6 40 17:54 18.08.2019
3467 Mist 18 1028 68 8047 2.6 40 17:36 18.08.2019
3468 Mist 18 1028 68 8047 2.6 40 17:18 18.08.2019
3469 Fog 14 1027 77 9656 2.6 70 16:42 18.08.2019
3470 Fog 16 1027 77 9656 2.6 70 16:23 18.08.2019
3471 Mist 15 1026 77 9656 2.6 90 15:59 18.08.2019
3472 Mist 15 1026 77 9656 2.6 90 15:39 18.08.2019
3473 Mist 15 1026 77 9656 2.6 90 15:20 18.08.2019
3474 Fog 15 1026 82 11265 2.1 80 14:57 18.08.2019
3475 Fog 13 1026 82 11265 2.1 80 14:38 18.08.2019
3476 Fog 13 1026 82 11265 2.1 80 14:19 18.08.2019
3477 Mist 14 1025 77 12874 2.6 100 13:56 18.08.2019
3478 Mist 14 1025 77 12874 2.6 100 13:37 18.08.2019
3479 Mist 14 1025 77 12874 2.6 100 13:19 18.08.2019
3480 Clouds 13 1025 77 16093 1 70 12:41 18.08.2019
3481 Clouds 13 1025 77 16093 1 70 12:22 18.08.2019
3482 Clouds 13 1026 77 16093 2.1 60 11:55 18.08.2019
3483 Clouds 13 1026 77 16093 2.1 60 11:36 18.08.2019
3484 Clouds 13 1026 77 16093 2.1 60 11:18 18.08.2019
3485 Clouds 15 1026 72 12874 0.44 252.56 10:41 18.08.2019
3486 Clouds 15 1026 72 12874 0.44 252.56 10:21 18.08.2019
3487 Clouds 15 1026 63 12874 2.1 360 09:50 18.08.2019
3488 Clouds 15 1026 63 12874 2.1 360 09:22 18.08.2019
3489 Clouds 16 1026 63 12874 2.1 20 08:54 18.08.2019
3490 Clouds 16 1026 63 12874 2.1 20 08:36 18.08.2019
3491 Clouds 16 1026 63 12874 2.1 20 08:18 18.08.2019
3492 Clouds 16 1027 63 12874 2.1 30 07:44 18.08.2019
3493 Clouds 16 1027 63 12874 2.1 30 07:25 18.08.2019
3494 Clouds 16 1026 64 16093 2.1 320 05:48 18.08.2019
3495 Clouds 16 1025 68 12874 3.1 320 04:53 18.08.2019
3496 Thunderstorm 16 1024 68 11265 5.1 80 03:36 18.08.2019
3497 Thunderstorm 20 1024 68 11265 5.7 80 02:46 18.08.2019
3498 Thunderstorm 20 1024 72 11265 6.7 40 02:23 18.08.2019
3499 Clouds 24 1023 47 11265 6.2 80 01:30 18.08.2019
3500 Clouds 25 1023 34 11265 2.6 60 00:56 18.08.2019
3501 Clouds 25 1023 34 11265 2.6 60 00:37 18.08.2019
3502 Clouds 25 1023 34 11265 2.6 60 00:18 18.08.2019
3503 Clouds 25 1024 41 11265 4.6 150 23:56 17.08.2019
3504 Clouds 25 1024 41 11265 4.6 150 23:36 17.08.2019
3505 Clouds 25 1024 41 11265 4.6 150 23:18 17.08.2019
3506 Clouds 25 1024 41 11265 4.6 150 23:18 17.08.2019
3507 Clouds 25 1025 36 11265 3.6 70 22:41 17.08.2019
3508 Clouds 25 1025 36 11265 3.6 70 22:23 17.08.2019
3509 Clouds 24 1026 44 11265 4.1 80 21:59 17.08.2019
3510 Clouds 24 1026 44 11265 4.1 80 21:40 17.08.2019
3511 Clouds 24 1026 44 11265 4.1 80 21:21 17.08.2019
3512 Clouds 23 1026 46 9656 2.6 60 20:40 17.08.2019
3513 Clouds 22 1026 46 9656 2.6 60 20:21 17.08.2019
3514 Clouds 22 1027 49 9656 1.5 0 19:57 17.08.2019
3515 Clouds 22 1027 49 9656 1.5 0 19:39 17.08.2019
3516 Clouds 22 1027 49 9656 1.5 0 19:20 17.08.2019
3517 Clouds 22 1027 49 9656 1.5 0 19:20 17.08.2019
3518 Clear 22 1027 56 9656 1.5 50 18:41 17.08.2019
3519 Haze 20 1027 56 9656 1.5 50 18:19 17.08.2019
3520 Haze 20 1028 60 9656 1 100 17:58 17.08.2019
3521 Haze 20 1028 60 9656 1 100 17:40 17.08.2019
3522 Haze 20 1028 60 9656 1 100 17:21 17.08.2019
3523 Haze 20 1028 60 9656 1 100 17:21 17.08.2019
3524 Mist 18 1028 63 9656 1.5 40 16:45 17.08.2019
3525 Mist 17 1027 72 9656 1.5 80 16:26 17.08.2019
3526 Mist 16 1027 72 9656 2.1 60 15:59 17.08.2019
3527 Mist 15 1027 72 9656 2.1 60 15:40 17.08.2019
3528 Mist 15 1027 72 9656 2.1 60 15:21 17.08.2019
3529 Clouds 14 1027 77 11265 2.6 70 14:43 17.08.2019
3530 Clouds 14 1027 77 11265 2.6 70 14:23 17.08.2019
3531 Mist 14 1027 72 11265 2.1 110 13:49 17.08.2019
3532 Mist 14 1027 72 11265 2.1 110 13:23 17.08.2019
3533 Clouds 14 1027 72 11265 2.6 70 12:59 17.08.2019
3534 Clouds 14 1027 72 11265 2.6 70 12:41 17.08.2019
3535 Clouds 14 1027 72 11265 2.6 70 12:19 17.08.2019
3536 Clouds 16 1027 67 11265 3.1 70 11:56 17.08.2019
3537 Clouds 16 1027 67 11265 3.1 70 11:36 17.08.2019
3538 Clouds 16 1027 67 11265 3.1 70 11:18 17.08.2019
3539 Clouds 17 1028 55 12874 3.1 280 10:39 17.08.2019
3540 Clouds 17 1028 55 12874 3.1 280 10:19 17.08.2019
3541 Clouds 17 1028 59 12874 3.1 310 09:49 17.08.2019
3542 Clouds 17 1028 59 12874 3.1 310 09:30 17.08.2019
3543 Rain 18 1028 52 12874 5.1 300 08:54 17.08.2019
3544 Rain 18 1028 52 12874 5.1 300 08:25 17.08.2019
3545 Clouds 18 1028 60 14484 3.1 240 07:52 17.08.2019
3546 Clouds 18 1028 60 14484 3.1 240 07:22 17.08.2019
3547 Clouds 18 1028 60 14484 3.1 240 07:22 17.08.2019
3548 Clouds 18 1027 56 14484 3.6 360 06:54 17.08.2019
3549 Thunderstorm 18 1026 49 16093 2.6 20 05:35 17.08.2019
3550 Clouds 21 1025 46 12874 6.7 60 04:29 17.08.2019
3551 Clouds 21 1024 46 12874 4.1 120 03:33 17.08.2019
3552 Clouds 25 1024 25 12874 6.2 10 01:47 17.08.2019
3553 Clouds 25 1024 25 12874 6.2 10 01:28 17.08.2019
3554 Clouds 25 1025 24 12874 2.6 50 00:55 17.08.2019
3555 Clouds 25 1025 24 12874 2.6 50 00:28 17.08.2019
3556 Clouds 26 1025 24 12874 2.6 130 23:50 16.08.2019
3557 Clouds 25 1026 29 12874 4.1 90 23:27 16.08.2019
3558 Clouds 25 1027 31 12874 2.6 100 22:56 16.08.2019
3559 Clouds 25 1027 31 12874 2.6 100 22:38 16.08.2019
3560 Clouds 25 1027 31 12874 2.6 100 22:19 16.08.2019
3561 Clear 24 1028 31 12874 3.6 10 21:40 16.08.2019
3562 Clear 24 1028 31 12874 3.6 10 21:20 16.08.2019
3563 Clear 23 1029 38 9656 2.1 130 20:56 16.08.2019
3564 Clear 23 1029 38 9656 2.1 130 20:37 16.08.2019
3565 Clear 23 1029 38 9656 2.1 130 20:18 16.08.2019
3566 Clear 21 1029 49 8047 2.1 90 19:43 16.08.2019
3567 Clear 21 1029 49 8047 2.1 90 19:23 16.08.2019
3568 Clear 19 1030 56 8047 2.1 90 18:44 16.08.2019
3569 Clear 19 1030 56 8047 2.1 90 18:26 16.08.2019
3570 Clouds 19 1032 72 6437 1.05 227.859 17:59 16.08.2019
3571 Mist 17 1030 59 9656 1.5 50 17:41 16.08.2019
3572 Mist 17 1030 59 9656 1.5 50 17:23 16.08.2019
3573 Mist 17 1030 59 9656 1.5 50 17:23 16.08.2019
3574 Mist 16 1030 77 11265 4.1 80 16:42 16.08.2019
3575 Mist 15 1030 77 11265 4.1 80 16:22 16.08.2019
3576 Mist 14 1029 82 12874 3.1 90 15:59 16.08.2019
3577 Mist 14 1029 82 12874 3.1 90 15:40 16.08.2019
3578 Mist 14 1029 82 12874 3.1 90 15:21 16.08.2019
3579 Mist 14 1029 82 12874 3.1 90 15:21 16.08.2019
3580 Clouds 13 1029 82 12874 0.46 165.628 14:58 16.08.2019
3581 Clouds 12 1029 82 12874 0.46 165.628 14:39 16.08.2019
3582 Clouds 12 1029 82 12874 0.46 165.628 14:19 16.08.2019
3583 Clouds 13 1028 72 16093 2.6 80 13:42 16.08.2019
3584 Clouds 13 1028 72 16093 2.6 80 13:23 16.08.2019
3585 Clouds 14 1028 72 19312 2.6 310 12:58 16.08.2019
3586 Clouds 14 1028 72 19312 2.6 310 12:37 16.08.2019
3587 Clouds 14 1028 72 19312 2.6 310 12:37 16.08.2019
3588 Clouds 13 1028 72 19312 2.6 310 12:19 16.08.2019
3589 Clouds 14 1029 63 19312 2.6 260 11:42 16.08.2019
3590 Clouds 14 1029 63 19312 2.6 260 11:24 16.08.2019
3591 Clouds 14 1029 59 19312 3.6 20 10:44 16.08.2019
3592 Clouds 14 1029 59 19312 3.6 20 10:26 16.08.2019
3593 Clouds 15 1030 52 19312 3.1 310 09:57 16.08.2019
3594 Clouds 15 1030 52 19312 3.1 310 09:37 16.08.2019
3595 Clouds 15 1030 52 19312 3.1 310 09:18 16.08.2019
3596 Clouds 16 1030 42 19312 3.6 330 08:41 16.08.2019
3597 Clouds 16 1030 42 19312 3.6 330 08:21 16.08.2019
3598 Clouds 16 1030 52 19312 1.5 280 07:55 16.08.2019
3599 Clouds 16 1030 52 19312 1.5 280 07:33 16.08.2019
3600 Thunderstorm 16 1029 52 19312 2.1 200 06:59 16.08.2019
3601 Thunderstorm 16 1029 52 19312 2.1 200 06:31 16.08.2019
3602 Thunderstorm 16 1028 59 16093 3.1 150 05:42 16.08.2019
3603 Rain 18 1027 56 12874 6.2 70 04:31 16.08.2019
3604 Clouds 22 1025 49 12874 9.3 60 02:46 16.08.2019
3605 Clouds 24 1025 25 12874 6.2 120 01:34 16.08.2019
3606 Rain 25 1025 26 12874 4.6 20 00:59 16.08.2019
3607 Rain 25 1025 26 12874 4.6 20 00:40 16.08.2019
3608 Rain 25 1025 26 12874 4.6 20 00:21 16.08.2019
3609 Clouds 26 1026 29 12874 2.6 50 23:45 15.08.2019
3610 Clouds 26 1026 29 12874 2.6 50 23:22 15.08.2019
3611 Clouds 25 1027 41 11265 2.6 130 22:58 15.08.2019
3612 Clouds 24 1027 41 11265 2.6 130 22:39 15.08.2019
3613 Clouds 24 1027 41 11265 2.6 130 22:39 15.08.2019
3614 Clouds 24 1027 41 11265 2.6 130 22:20 15.08.2019
3615 Clouds 24 1028 36 9656 4.1 70 21:54 15.08.2019
3616 Clouds 24 1028 36 9656 4.1 70 21:36 15.08.2019
3617 Clouds 24 1028 36 9656 4.1 70 21:18 15.08.2019
3618 Clouds 23 1029 40 9656 2.6 90 20:42 15.08.2019
3619 Clouds 23 1029 40 9656 2.6 90 20:21 15.08.2019
3620 Clouds 23 1029 40 9656 2.6 90 20:21 15.08.2019
3621 Clouds 22 1029 43 9656 0.5 345.853 19:57 15.08.2019
3622 Clouds 22 1030 49 9656 1.5 70 19:38 15.08.2019
3623 Clouds 21 1030 49 9656 1.5 70 19:20 15.08.2019
3624 Clouds 21 1030 49 9656 3.1 40 18:47 15.08.2019
3625 Clouds 21 1030 49 9656 3.1 40 18:23 15.08.2019
3626 Clouds 21 1030 49 9656 3.1 40 18:23 15.08.2019
3627 Clear 19 1030 59 11265 2.1 120 17:57 15.08.2019
3628 Clear 19 1030 59 11265 2.1 120 17:57 15.08.2019
3629 Clear 19 1030 59 11265 2.1 120 17:37 15.08.2019
3630 Clear 19 1030 59 11265 2.1 120 17:19 15.08.2019
3631 Clouds 18 1032 72 8047 1.5 100 16:48 15.08.2019
3632 Clear 17 1030 59 11265 2.1 220 16:28 15.08.2019
3633 Clear 14 1029 67 11265 2.1 190 15:59 15.08.2019
3634 Clear 14 1029 67 11265 2.1 190 15:38 15.08.2019
3635 Clear 14 1029 67 11265 2.1 190 15:19 15.08.2019
3636 Clear 14 1029 67 11265 2.1 190 15:19 15.08.2019
3637 Clouds 14 1029 67 12874 2.1 200 14:43 15.08.2019
3638 Clouds 14 1029 67 12874 2.1 200 14:24 15.08.2019
3639 Clouds 14 1030 67 12874 2.1 150 13:59 15.08.2019
3640 Clouds 14 1030 67 12874 2.1 150 13:59 15.08.2019
3641 Clouds 14 1030 67 12874 2.1 150 13:41 15.08.2019
3642 Clouds 14 1030 67 12874 2.1 150 13:21 15.08.2019
3643 Clouds 14 1029 67 14484 1 190 12:59 15.08.2019
3644 Clouds 14 1029 67 14484 1 190 12:39 15.08.2019
3645 Clouds 14 1029 67 14484 1 190 12:20 15.08.2019
3646 Clouds 15 1030 59 14484 3.1 200 11:57 15.08.2019
3647 Clouds 15 1030 59 14484 3.1 200 11:37 15.08.2019
3648 Clouds 15 1030 59 14484 3.1 200 11:37 15.08.2019
3649 Clouds 15 1030 59 14484 3.1 200 11:18 15.08.2019
3650 Clouds 15 1030 59 12874 3.1 200 10:57 15.08.2019
3651 Clouds 15 1030 59 12874 3.1 200 10:36 15.08.2019
3652 Clouds 16 1030 59 12874 3.1 200 10:18 15.08.2019
3653 Rain 15 1030 67 12874 4.1 220 09:41 15.08.2019
3654 Rain 15 1030 67 12874 4.1 220 09:21 15.08.2019
3655 Clouds 16 1030 63 9656 5.1 280 08:38 15.08.2019
3656 Clouds 16 1030 63 9656 5.1 280 08:20 15.08.2019
3657 Clouds 16 1029 68 9656 4.1 280 07:54 15.08.2019
3658 Rain 16 1029 63 9656 4.1 280 07:36 15.08.2019
3659 Rain 17 1029 63 9656 4.1 280 07:18 15.08.2019
3660 Rain 17 1029 49 11265 2.1 360 06:40 15.08.2019
3661 Rain 17 1029 49 11265 2.1 360 06:40 15.08.2019
3662 Thunderstorm 18 1028 52 12874 3.1 20 06:21 15.08.2019
3663 Thunderstorm 19 1027 52 12874 9.3 50 05:29 15.08.2019
3664 Thunderstorm 19 1026 52 12874 10.3 20 04:51 15.08.2019
3665 Clouds 20 1025 46 12874 8.7 10 03:51 15.08.2019
3666 Clouds 24 1024 26 14484 1.5 100 02:53 15.08.2019
3667 Clouds 24 1024 26 14484 1.5 100 02:24 15.08.2019
3668 Clouds 25 1024 27 14484 2.6 50 01:39 15.08.2019
3669 Thunderstorm 26 1025 29 14484 2.6 360 00:54 15.08.2019
3670 Thunderstorm 26 1025 29 14484 2.6 360 00:36 15.08.2019
3671 Clouds 25 1025 29 14484 2.6 360 00:18 15.08.2019
3672 Clouds 26 1025 31 14484 1.5 140 23:41 14.08.2019
3673 Clouds 26 1025 31 14484 1.5 140 23:20 14.08.2019
3674 Clouds 25 1026 38 14484 1.5 100 22:59 14.08.2019
3675 Clouds 25 1026 38 14484 1.5 100 22:40 14.08.2019
3676 Clouds 25 1026 38 14484 1.5 100 22:22 14.08.2019
3677 Clouds 24 1027 38 16093 1.5 0 21:57 14.08.2019
3678 Clouds 24 1027 38 16093 1.5 0 21:38 14.08.2019
3679 Clouds 24 1027 38 16093 1.5 0 21:20 14.08.2019
3680 Clouds 23 1028 43 12874 4.1 90 20:54 14.08.2019
3681 Clouds 23 1028 43 12874 4.1 90 20:54 14.08.2019
3682 Clouds 23 1028 43 12874 4.1 90 20:36 14.08.2019
3683 Clouds 23 1028 43 12874 4.1 90 20:18 14.08.2019
3684 Clouds 21 1029 49 11265 2.1 130 19:40 14.08.2019
3685 Clouds 20 1029 49 11265 2.1 130 19:22 14.08.2019
3686 Clouds 20 1029 49 11265 3.1 90 18:57 14.08.2019
3687 Clouds 20 1029 49 11265 3.1 90 18:57 14.08.2019
3688 Clouds 20 1029 49 11265 3.1 90 18:39 14.08.2019
3689 Clouds 20 1029 49 11265 3.1 90 18:39 14.08.2019
3690 Clouds 19 1029 68 11265 2.6 50 18:20 14.08.2019
3691 Clouds 19 1029 68 11265 2.6 50 18:20 14.08.2019
3692 Clouds 19 1029 68 11265 2.6 50 17:58 14.08.2019
3693 Clouds 19 1029 68 11265 2.6 50 17:37 14.08.2019
3694 Clouds 19 1029 68 11265 2.6 50 17:19 14.08.2019
3695 Clouds 16 1029 77 11265 2.6 80 16:55 14.08.2019
3696 Clouds 16 1029 77 11265 2.6 80 16:36 14.08.2019
3697 Clouds 15 1029 77 11265 2.6 80 16:18 14.08.2019
3698 Clouds 14 1028 82 12874 2.6 100 15:42 14.08.2019
3699 Clouds 14 1028 82 12874 2.6 100 15:18 14.08.2019
3700 Clouds 14 1028 82 16093 0.86 192.905 14:54 14.08.2019
3701 Clouds 12 1028 82 16093 0.86 192.905 14:36 14.08.2019
3702 Clouds 12 1028 82 16093 0.86 192.905 14:18 14.08.2019
3703 Clouds 13 1028 82 19312 0.86 192.905 13:43 14.08.2019
3704 Clouds 13 1028 82 19312 0.83 187.408 13:23 14.08.2019
3705 Clouds 13 1028 82 19312 2.1 60 12:56 14.08.2019
3706 Clouds 13 1028 82 19312 2.1 60 12:38 14.08.2019
3707 Clouds 13 1028 82 19312 2.1 60 12:38 14.08.2019
3708 Clouds 13 1028 82 19312 2.1 60 12:20 14.08.2019
3709 Clouds 14 1029 77 19312 2.1 210 11:48 14.08.2019
3710 Clouds 14 1029 77 19312 2.1 210 11:23 14.08.2019
3711 Clouds 14 1029 77 19312 2.1 210 11:23 14.08.2019
3712 Clouds 13 1029 77 19312 1.45 198.16 10:59 14.08.2019
3713 Clouds 13 1029 77 19312 1.45 198.16 10:40 14.08.2019
3714 Clouds 13 1029 77 19312 1.45 198.16 10:22 14.08.2019
3715 Clouds 13 1029 82 19312 2.6 240 09:45 14.08.2019
3716 Clouds 13 1029 82 19312 2.6 240 09:22 14.08.2019
3717 Clouds 13 1030 82 11265 2.1 260 08:52 14.08.2019
3718 Clouds 13 1030 82 11265 2.1 260 08:34 14.08.2019
3719 Thunderstorm 13 1030 93 8047 5.1 280 07:58 14.08.2019
3720 Thunderstorm 13 1030 93 8047 5.1 280 07:39 14.08.2019
3721 Thunderstorm 13 1030 87 6437 5.1 250 07:21 14.08.2019
3722 Thunderstorm 13 1029 87 6437 5.1 180 06:43 14.08.2019
3723 Rain 16 1028 56 19312 2.6 10 05:48 14.08.2019
3724 Thunderstorm 16 1026 56 12874 5.7 60 04:45 14.08.2019
3725 Thunderstorm 22 1025 49 12874 10.8 240 02:56 14.08.2019
3726 Thunderstorm 22 1025 49 12874 10.8 240 02:26 14.08.2019
3727 Clouds 24 1024 36 12874 5.7 90 01:38 14.08.2019
3728 Clouds 25 1024 29 12874 3.1 120 00:51 14.08.2019
3729 Clouds 24 1025 31 11265 4.6 90 23:47 13.08.2019
3730 Clouds 24 1025 31 11265 4.6 90 23:23 13.08.2019
3731 Clouds 24 1026 36 11265 2.38 355.102 22:57 13.08.2019
3732 Clouds 24 1026 36 11265 2.38 355.102 22:39 13.08.2019
3733 Clouds 24 1026 36 11265 2.38 355.102 22:39 13.08.2019
3734 Clouds 24 1026 36 11265 2.38 355.102 22:20 13.08.2019
3735 Clouds 24 1026 43 11265 3.6 70 21:57 13.08.2019
3736 Clouds 23 1026 43 11265 3.6 70 21:37 13.08.2019
3737 Clouds 23 1026 43 11265 3.6 70 21:18 13.08.2019
3738 Clouds 23 1027 49 11265 3.1 100 20:45 13.08.2019
3739 Clouds 23 1027 49 11265 3.1 100 20:20 13.08.2019
3740 Clouds 21 1027 52 11265 0.63 56.637 19:58 13.08.2019
3741 Clouds 21 1027 52 11265 0.63 56.637 19:40 13.08.2019
3742 Clouds 21 1027 52 11265 0.63 56.637 19:21 13.08.2019
3743 Ash 20 1027 56 11265 2.6 90 18:42 13.08.2019
3744 Ash 20 1027 56 11265 2.6 90 18:23 13.08.2019
3745 Ash 19 1027 68 11265 3.1 60 17:58 13.08.2019
3746 Ash 19 1027 68 11265 3.1 60 17:39 13.08.2019
3747 Ash 18 1027 68 11265 3.1 60 17:19 13.08.2019
3748 Ash 17 1029 72 6437 1 70 16:56 13.08.2019
3749 Ash 16 1027 77 11265 2.6 80 16:37 13.08.2019
3750 Ash 16 1027 77 11265 2.6 80 16:19 13.08.2019
3751 Fog 14 1027 82 12874 1.5 60 15:39 13.08.2019
3752 Mist 14 1027 82 12874 1.5 60 15:20 13.08.2019
3753 Mist 15 1021 100 3219 1 184.253 14:57 13.08.2019
3754 Mist 15 1021 100 3219 1 184.253 14:57 13.08.2019
3755 Fog 15 1027 72 12874 2.6 320 14:38 13.08.2019
3756 Fog 15 1027 72 12874 2.6 320 14:38 13.08.2019
3757 Fog 15 1027 72 12874 2.6 320 14:18 13.08.2019
3758 Fog 15 1027 72 12874 2.6 320 14:18 13.08.2019
3759 Clouds 14 1027 72 12874 2.1 240 13:41 13.08.2019
3760 Clouds 14 1027 72 12874 2.1 240 13:21 13.08.2019
3761 Clear 14 1027 72 12874 1.5 270 12:58 13.08.2019
3762 Clear 14 1027 72 12874 1.5 270 12:40 13.08.2019
3763 Clear 14 1027 72 12874 1.5 270 12:21 13.08.2019
3764 Clear 14 1027 72 14484 2.1 260 11:57 13.08.2019
3765 Clear 14 1027 72 14484 2.1 260 11:37 13.08.2019
3766 Clear 14 1027 72 14484 2.1 260 11:18 13.08.2019
3767 Clouds 15 1028 67 14484 3.1 280 10:55 13.08.2019
3768 Clouds 15 1028 67 14484 3.1 280 10:36 13.08.2019
3769 Clouds 15 1028 67 14484 3.1 280 10:18 13.08.2019
3770 Clouds 15 1028 67 16093 4.1 280 09:42 13.08.2019
3771 Clouds 15 1028 67 16093 4.1 280 09:23 13.08.2019
3772 Clouds 16 1028 63 16093 3.1 280 08:43 13.08.2019
3773 Clouds 16 1028 63 16093 3.1 280 08:22 13.08.2019
3774 Clouds 16 1028 63 19312 2.6 260 07:56 13.08.2019
3775 Clouds 16 1028 63 19312 2.6 260 07:32 13.08.2019
3776 Clouds 16 1027 63 19312 2.6 270 06:53 13.08.2019
3777 Clouds 16 1027 63 19312 2.6 270 06:34 13.08.2019
3778 Rain 16 1027 68 19312 4.1 240 05:34 13.08.2019
3779 Rain 24 1024 38 12874 5.1 350 02:38 13.08.2019
3780 Clouds 24 1024 31 14484 1.83 15.032 01:58 13.08.2019
3781 Clouds 24 1025 38 14484 3.1 20 00:56 13.08.2019
3782 Clouds 24 1025 38 14484 3.1 20 00:37 13.08.2019
3783 Clouds 23 1026 38 14484 5.1 70 23:49 12.08.2019
3784 Clouds 23 1026 38 14484 5.1 70 23:24 12.08.2019
3785 Clouds 23 1027 40 14484 4.6 60 22:58 12.08.2019
3786 Clouds 23 1027 40 14484 4.6 60 22:39 12.08.2019
3787 Clouds 23 1027 40 14484 4.6 60 22:19 12.08.2019
3788 Clouds 22 1027 40 14484 2.6 30 21:55 12.08.2019
3789 Clouds 22 1027 40 14484 2.6 30 21:55 12.08.2019
3790 Clouds 22 1027 40 14484 2.6 30 21:37 12.08.2019
3791 Clouds 22 1027 40 14484 2.6 30 21:18 12.08.2019
3792 Clouds 20 1028 46 14484 3.1 80 20:56 12.08.2019
3793 Clouds 20 1028 46 14484 3.1 80 20:56 12.08.2019
3794 Clouds 20 1028 46 14484 3.1 80 20:37 12.08.2019
3795 Clouds 21 1028 46 14484 3.1 80 20:19 12.08.2019
3796 Clouds 20 1029 49 16093 1.5 10 19:55 12.08.2019
3797 Clouds 20 1029 49 16093 1.5 10 19:36 12.08.2019
3798 Clouds 20 1029 49 16093 1.5 10 19:18 12.08.2019
3799 Clouds 19 1029 52 16093 2.6 120 18:54 12.08.2019
3800 Clouds 19 1029 52 16093 2.6 120 18:36 12.08.2019
3801 Clouds 19 1029 52 16093 2.6 120 18:18 12.08.2019
3802 Mist 17 1029 72 19312 2.6 50 17:46 12.08.2019
3803 Mist 17 1029 72 19312 2.6 50 17:27 12.08.2019
3804 Mist 16 1029 77 19312 2.6 90 16:56 12.08.2019
3805 Mist 16 1029 77 19312 2.6 90 16:38 12.08.2019
3806 Mist 16 1029 77 19312 2.6 90 16:19 12.08.2019
3807 Mist 16 1029 77 19312 2.6 90 16:19 12.08.2019
3808 Mist 15 1029 82 19312 3.1 120 15:57 12.08.2019
3809 Mist 15 1029 82 19312 3.1 120 15:57 12.08.2019
3810 Mist 15 1029 82 19312 3.1 120 15:38 12.08.2019
3811 Mist 15 1029 82 19312 3.1 120 15:20 12.08.2019
3812 Mist 15 1028 82 19312 4.1 120 14:43 12.08.2019
3813 Mist 15 1028 82 19312 4.1 120 14:42 12.08.2019
3814 Clouds 14 1028 82 19312 4.1 120 14:23 12.08.2019
3815 Clouds 14 1028 87 12874 1 240 13:58 12.08.2019
3816 Clouds 14 1028 87 12874 1 240 13:58 12.08.2019
3817 Clouds 14 1028 87 12874 1 240 13:40 12.08.2019
3818 Clouds 14 1028 87 12874 1 240 13:21 12.08.2019
3819 Clouds 14 1028 82 12874 1 270 12:43 12.08.2019
3820 Clouds 14 1028 82 12874 1 270 12:43 12.08.2019
3821 Clouds 14 1028 82 12874 1 270 12:21 12.08.2019
3822 Clouds 14 1028 87 12874 2.1 240 11:47 12.08.2019
3823 Clouds 14 1028 87 12874 2.1 240 11:29 12.08.2019
3824 Rain 15 1028 87 12874 4.1 200 10:59 12.08.2019
3825 Clouds 16 1029 77 12874 3.1 180 10:40 12.08.2019
3826 Clouds 14 1029 77 12874 3.1 180 10:22 12.08.2019
3827 Clouds 14 1029 77 12874 3.1 180 10:22 12.08.2019
3828 Clouds 15 1029 72 16093 2.1 170 09:55 12.08.2019
3829 Clouds 15 1029 72 16093 2.1 170 09:37 12.08.2019
3830 Clouds 15 1029 72 16093 2.1 170 09:37 12.08.2019
3831 Clouds 15 1029 72 16093 2.1 170 09:18 12.08.2019
3832 Clouds 15 1029 72 19312 2.6 190 08:40 12.08.2019
3833 Clouds 16 1029 72 19312 2.6 190 08:22 12.08.2019
3834 Clouds 15 1028 77 19312 1.5 200 07:56 12.08.2019
3835 Clouds 15 1028 77 19312 1.5 200 07:35 12.08.2019
3836 Rain 16 1028 72 19312 3.1 90 06:54 12.08.2019
3837 Rain 16 1028 72 19312 3.1 90 06:20 12.08.2019
3838 Thunderstorm 17 1027 72 9656 4.1 30 04:29 12.08.2019
3839 Thunderstorm 19 1026 77 8047 4.1 320 02:43 12.08.2019
3840 Thunderstorm 20 1025 82 8047 5.7 20 01:45 12.08.2019
3841 Thunderstorm 22 1025 56 9656 5.1 320 01:18 12.08.2019
3842 Thunderstorm 23 1028 63 8047 1.5 10 00:54 12.08.2019
3843 Clouds 21 1025 38 12874 5.1 30 00:36 12.08.2019
3844 Clouds 24 1025 38 12874 5.1 30 00:18 12.08.2019
3845 Clouds 24 1026 41 12874 4.1 40 23:39 11.08.2019
3846 Clouds 24 1026 41 12874 4.1 40 23:39 11.08.2019
3847 Clouds 24 1026 41 12874 4.1 40 23:19 11.08.2019
3848 Clouds 24 1026 41 11265 3.1 30 22:56 11.08.2019
3849 Clouds 24 1026 41 11265 3.1 30 22:37 11.08.2019
3850 Clouds 24 1026 41 11265 3.1 30 22:18 11.08.2019
3851 Clouds 23 1027 49 9656 2.6 30 21:56 11.08.2019
3852 Clouds 23 1027 49 9656 2.6 30 21:38 11.08.2019
3853 Clouds 23 1021 69 16093 1.5 150 21:19 11.08.2019
3854 Clouds 23 1028 49 8047 2.1 40 20:44 11.08.2019
3855 Clouds 23 1028 49 8047 2.1 40 20:23 11.08.2019
3856 -273 0 0 0 0 0 19:56 11.08.2019
3857 -273 0 0 0 0 0 19:55 11.08.2019
3858 Clouds 21 1029 56 9656 2.1 20 19:36 11.08.2019
3859 Clouds 21 1029 56 9656 2.1 20 19:18 11.08.2019
3860 Clouds 20 1030 64 9656 3.1 260 18:39 11.08.2019
3861 Clouds 20 1030 64 9656 3.1 260 18:19 11.08.2019
3862 Clouds 19 1030 72 9656 2.1 80 17:54 11.08.2019
3863 Clouds 19 1030 72 9656 2.1 80 17:36 11.08.2019
3864 Clouds 19 1030 72 9656 2.1 80 17:18 11.08.2019
3865 Fog 17 1030 77 11265 2.6 90 16:40 11.08.2019
3866 Fog 17 1030 77 11265 2.6 90 16:22 11.08.2019
3867 Fog 15 1029 82 9656 1.5 110 15:57 11.08.2019
3868 Fog 15 1029 82 9656 1.5 110 15:39 11.08.2019
3869 Fog 15 1029 82 9656 1.5 110 15:21 11.08.2019
3870 Fog 15 1029 82 11265 1 100 14:55 11.08.2019
3871 Clouds 14 1029 82 11265 1 100 14:37 11.08.2019
3872 Clouds 14 1029 82 11265 1 100 14:19 11.08.2019
3873 Clouds 14 1029 87 11265 1.5 120 13:43 11.08.2019
3874 Clouds 14 1029 87 11265 1.5 120 13:23 11.08.2019
3875 Clouds 15 1028 82 11265 2.1 70 12:44 11.08.2019
3876 Clouds 15 1028 82 11265 2.1 70 12:22 11.08.2019
3877 Clouds 15 1029 87 9656 1.5 160 11:41 11.08.2019
3878 Clouds 15 1029 87 9656 1.5 160 11:23 11.08.2019
3879 Rain 15 1029 87 8047 3.1 110 10:57 11.08.2019
3880 Rain 15 1029 87 8047 3.1 110 10:39 11.08.2019
3881 Rain 15 1029 87 8047 3.1 110 10:21 11.08.2019
3882 Rain 15 1029 82 8047 3.1 120 09:55 11.08.2019
3883 Rain 15 1029 82 9656 3.1 120 09:37 11.08.2019
3884 Rain 16 1029 82 9656 3.1 120 09:19 11.08.2019
3885 Rain 16 1029 82 9656 3.1 120 09:19 11.08.2019
3886 Clouds 16 1029 82 11265 3.1 110 08:43 11.08.2019
3887 Clouds 16 1029 82 11265 3.1 110 08:25 11.08.2019
3888 Rain 15 1029 82 9656 2.6 180 07:49 11.08.2019
3889 Rain 15 1029 82 9656 2.6 180 07:21 11.08.2019
3890 Rain 15 1029 82 9656 2.6 180 06:39 11.08.2019
3891 Clouds 19 1027 60 16093 5.1 30 05:34 11.08.2019
3892 Clouds 19 1025 49 19312 6.7 110 03:36 11.08.2019
3893 Clouds 22 1024 40 19312 5.7 130 02:46 11.08.2019
3894 Clouds 24 1024 33 19312 5.7 160 01:36 11.08.2019
3895 Clouds 25 1024 36 19312 3.6 130 00:59 11.08.2019
3896 Clouds 25 1024 36 19312 3.6 130 00:41 11.08.2019
3897 Clouds 25 1025 36 19312 3.6 90 00:23 11.08.2019
3898 Clouds 25 1025 36 19312 3.1 140 23:43 10.08.2019
3899 Clouds 25 1025 36 19312 3.1 140 23:23 10.08.2019
3900 Clouds 22 1026 38 19312 4.1 170 22:43 10.08.2019
3901 Clouds 22 1026 38 19312 4.1 170 22:43 10.08.2019
3902 Clouds 24 1026 38 19312 4.1 170 22:24 10.08.2019
3903 Clouds 23 1027 40 19312 6.7 110 21:57 10.08.2019
3904 Clouds 23 1027 40 19312 6.7 110 21:38 10.08.2019
3905 Clouds 23 1027 40 19312 6.7 110 21:19 10.08.2019
3906 Clouds 24 1028 38 19312 7.2 140 20:56 10.08.2019
3907 Clouds 24 1028 38 19312 7.2 140 20:37 10.08.2019
3908 Clouds 23 1028 38 19312 7.2 140 20:18 10.08.2019
3909 Clouds 22 1028 43 16093 4.6 130 19:39 10.08.2019
3910 Clouds 22 1028 43 16093 4.6 130 19:20 10.08.2019
3911 Clouds 22 1028 60 11265 1.5 120 18:40 10.08.2019
3912 Clouds 22 1028 60 11265 1.5 120 18:40 10.08.2019
3913 Clouds 21 1028 60 11265 1.5 120 18:22 10.08.2019
3914 Clouds 20 1028 72 9656 2.1 80 17:45 10.08.2019
3915 Clouds 20 1028 72 9656 2.1 80 17:25 10.08.2019
3916 Clouds 16 1028 72 9656 1.5 50 16:47 10.08.2019
3917 Clouds 16 1028 82 9656 1.5 10 16:28 10.08.2019
3918 Haze 16 1027 77 11265 2.1 280 15:56 10.08.2019
3919 Haze 16 1027 77 11265 2.1 280 15:26 10.08.2019
3920 Mist 15 1027 82 12874 2.6 280 14:45 10.08.2019
3921 Mist 15 1027 82 12874 2.6 280 14:45 10.08.2019
3922 Mist 14 1027 82 12874 2.6 280 14:23 10.08.2019
3923 Mist 14 1026 82 12874 0.99 109.81 13:57 10.08.2019
3924 Mist 14 1026 82 12874 0.99 109.81 13:39 10.08.2019
3925 Mist 14 1026 82 12874 0.89 129.534 13:18 10.08.2019
3926 Mist 14 1026 82 12874 0.89 129.534 13:18 10.08.2019
3927 Clouds 14 1026 82 16093 0.89 129.534 12:41 10.08.2019
3928 Clouds 14 1026 82 16093 0.67 141.674 12:21 10.08.2019
3929 Clouds 14 1026 87 16093 2.6 270 11:56 10.08.2019
3930 Clouds 14 1026 87 16093 2.6 270 11:37 10.08.2019
3931 Clouds 14 1026 87 16093 2.6 270 11:19 10.08.2019
3932 Clouds 15 1027 87 12874 3.1 290 10:39 10.08.2019
3933 Clouds 15 1027 87 12874 3.1 290 10:20 10.08.2019
3934 Clouds 15 1027 87 12874 3.1 290 10:20 10.08.2019
3935 Clouds 15 1027 82 12874 4.6 360 09:44 10.08.2019
3936 Rain 15 1027 77 12874 0.35 111.251 09:25 10.08.2019
3937 Clouds 16 1027 72 12874 3.1 10 08:59 10.08.2019
3938 Clouds 16 1027 72 12874 3.1 10 08:38 10.08.2019
3939 Clouds 16 1027 72 12874 3.1 10 08:19 10.08.2019
3940 Clouds 16 1028 68 14484 1 42.443 07:48 10.08.2019
3941 Clouds 16 1028 68 14484 1 42.443 07:26 10.08.2019
3942 Thunderstorm 16 1027 63 16093 3.1 40 06:47 10.08.2019
3943 Thunderstorm 16 1027 63 16093 3.1 40 06:18 10.08.2019
3944 Clouds 17 1027 68 16093 3.6 20 05:22 10.08.2019
3945 Clouds 17 1026 77 14484 3.1 50 04:18 10.08.2019
3946 Thunderstorm 20 1025 68 11265 1.5 300 02:52 10.08.2019
3947 Rain 21 1025 63 9656 5.7 30 01:57 10.08.2019
3948 Rain 21 1025 63 9656 5.7 30 01:38 10.08.2019
3949 Thunderstorm 21 1025 68 9656 4.1 320 01:19 10.08.2019
3950 Thunderstorm 22 1025 77 8047 6.2 20 00:43 10.08.2019
3951 Thunderstorm 23 1025 52 8047 9.3 40 00:21 10.08.2019
3952 Thunderstorm 23 1025 38 8047 5.1 60 23:42 09.08.2019
3953 Thunderstorm 24 1025 38 8047 5.1 60 23:22 09.08.2019
3954 Clouds 24 1026 44 8047 3.1 60 22:56 09.08.2019
3955 Clouds 24 1026 44 8047 3.1 60 22:56 09.08.2019
3956 Clouds 24 1026 44 8047 3.1 60 22:38 09.08.2019
3957 Clouds 24 1026 44 8047 3.1 60 22:19 09.08.2019
3958 Clouds 24 1027 43 8047 3.1 90 21:41 09.08.2019
3959 Clouds 23 1027 43 8047 3.1 90 21:22 09.08.2019
3960 Clouds 23 1028 49 8047 1.5 170 20:58 09.08.2019
3961 Clouds 23 1028 49 8047 1.5 170 20:39 09.08.2019
3962 Clouds 23 1028 49 8047 1.5 170 20:39 09.08.2019
3963 Clouds 23 1028 49 8047 1.5 170 20:20 09.08.2019
3964 Clouds 22 1028 49 6437 3.34 68.946 19:44 09.08.2019
3965 Clouds 21 1029 60 6437 2.6 30 19:23 09.08.2019
3966 Haze 20 1029 68 4828 2.1 130 18:59 09.08.2019
3967 Haze 20 1029 68 4828 2.1 130 18:39 09.08.2019
3968 Haze 20 1029 68 4828 2.1 130 18:21 09.08.2019
3969 Haze 19 1029 68 6437 1.5 20 17:45 09.08.2019
3970 Haze 19 1029 68 6437 1.5 20 17:25 09.08.2019
3971 Haze 17 1030 76 4828 1.03 46.297 16:58 09.08.2019
3972 Haze 17 1028 82 8047 2.1 40 16:38 09.08.2019
3973 Haze 17 1028 82 8047 2.1 40 16:20 09.08.2019
3974 Haze 14 1027 87 8047 2.6 90 15:55 09.08.2019
3975 Haze 14 1027 87 8047 2.6 90 15:36 09.08.2019
3976 Haze 14 1027 87 8047 2.6 90 15:18 09.08.2019
3977 Clouds 14 1027 82 8047 0.39 93.495 14:42 09.08.2019
3978 Clouds 14 1027 82 8047 0.39 93.495 14:21 09.08.2019
3979 Clouds 13 1026 87 8047 1.5 50 13:55 09.08.2019
3980 Clouds 13 1026 87 8047 1.5 50 13:37 09.08.2019
3981 Clouds 13 1026 87 8047 1.5 50 13:18 09.08.2019
3982 Clouds 14 1026 77 8047 1 340 12:41 09.08.2019
3983 Clouds 14 1026 77 8047 1 340 12:22 09.08.2019
3984 Clouds 15 1027 72 9656 1 110 11:42 09.08.2019
3985 Clouds 16 1027 72 9656 1 110 11:21 09.08.2019
3986 Clouds 16 1027 72 9656 1 110 11:21 09.08.2019
3987 Clouds 15 1027 72 11265 1 40 10:58 09.08.2019
3988 Clouds 15 1027 72 11265 1 40 10:39 09.08.2019
3989 Clouds 16 1027 72 11265 1 40 10:20 09.08.2019
3990 Clouds 16 1027 59 11265 2.1 300 09:42 09.08.2019
3991 Clouds 16 1027 59 11265 2.1 300 09:19 09.08.2019
3992 Clouds 16 1028 63 11265 1.5 10 08:46 09.08.2019
3993 Clouds 16 1028 63 11265 1.5 10 08:26 09.08.2019
3994 Rain 17 1028 63 11265 3.6 70 07:59 09.08.2019
3995 Rain 17 1028 63 11265 3.6 70 07:41 09.08.2019
3996 Clouds 17 1028 59 14484 2.6 20 07:21 09.08.2019
3997 Clouds 17 1027 63 14484 4.1 360 06:50 09.08.2019
3998 Clouds 17 1027 63 14484 4.1 360 06:22 09.08.2019
3999 Clouds 18 1026 60 14484 5.1 20 05:45 09.08.2019
4000 Clouds 23 1024 33 16093 3.6 90 02:30 09.08.2019
4001 Clouds 24 1024 33 16093 4.1 90 01:30 09.08.2019
4002 Clouds 25 1025 36 16093 3.1 80 00:43 09.08.2019
4003 Clouds 25 1025 36 16093 3.1 80 00:24 09.08.2019
4004 Clouds 24 1026 36 16093 3.1 60 23:57 08.08.2019
4005 Clouds 24 1026 36 16093 3.1 60 23:37 08.08.2019
4006 Clouds 24 1026 36 16093 3.1 60 23:19 08.08.2019
4007 Clouds 24 1027 40 16093 2.1 120 22:56 08.08.2019
4008 Clouds 24 1027 40 16093 2.1 120 22:36 08.08.2019
4009 Clouds 24 1027 40 16093 2.1 120 22:18 08.08.2019
4010 Clouds 23 1028 40 16093 1.5 120 21:43 08.08.2019
4011 Clouds 23 1028 40 16093 1.5 120 21:24 08.08.2019
4012 Clouds 21 1029 52 12874 4.1 140 20:58 08.08.2019
4013 Clouds 21 1029 52 12874 4.1 140 20:40 08.08.2019
4014 Clouds 21 1029 52 12874 4.1 140 20:19 08.08.2019
4015 Clouds 21 1029 59 12874 1.58 164.314 19:49 08.08.2019
4016 Clouds 21 1029 59 12874 1.58 164.314 19:29 08.08.2019
4017 Clouds 19 1029 63 12874 2.6 90 18:59 08.08.2019
4018 Clouds 19 1029 63 12874 2.6 90 18:40 08.08.2019
4019 Clouds 19 1029 63 12874 2.6 90 18:19 08.08.2019
4020 Clouds 17 1029 67 16093 1.5 350 17:42 08.08.2019
4021 Clouds 17 1029 67 16093 1.5 350 17:24 08.08.2019
4022 Clouds 15 1029 77 16093 1.5 270 16:58 08.08.2019
4023 Clouds 15 1029 77 16093 1.5 270 16:40 08.08.2019
4024 Clouds 15 1029 77 16093 1.5 270 16:22 08.08.2019
4025 Fog 14 1028 82 12874 2.6 280 15:57 08.08.2019
4026 Fog 14 1028 82 12874 2.6 280 15:37 08.08.2019
4027 Fog 14 1028 82 12874 2.6 280 15:19 08.08.2019
4028 Fog 13 1028 87 16093 2.1 60 14:38 08.08.2019
4029 Fog 13 1028 87 16093 2.1 60 14:19 08.08.2019
4030 Clouds 12 1027 93 19312 3.1 60 13:42 08.08.2019
4031 Clouds 12 1027 93 19312 3.1 60 13:23 08.08.2019
4032 Clouds 12 1027 87 19312 1 160 12:57 08.08.2019
4033 Clouds 12 1027 87 19312 1 160 12:38 08.08.2019
4034 Clouds 12 1027 87 19312 1 160 12:18 08.08.2019
4035 Clouds 12 1027 87 19312 1 170 11:42 08.08.2019
4036 Clouds 12 1027 87 19312 1 170 11:24 08.08.2019
4037 Clouds 13 1028 87 19312 1.23 184.331 10:41 08.08.2019
4038 Clouds 13 1028 87 19312 1.23 184.331 10:22 08.08.2019
4039 Clouds 13 1029 82 19312 2.1 170 09:58 08.08.2019
4040 Clouds 13 1029 82 19312 2.1 170 09:39 08.08.2019
4041 Clouds 13 1029 82 19312 2.1 170 09:20 08.08.2019
4042 Clouds 13 1030 82 14484 2.6 130 08:40 08.08.2019
4043 Clouds 13 1030 82 14484 2.6 130 08:21 08.08.2019
4044 Rain 13 1030 82 9656 1.5 180 07:42 08.08.2019
4045 Rain 13 1030 82 8047 3.6 170 07:21 08.08.2019
4046 Rain 14 1030 87 8047 3.6 170 06:58 08.08.2019
4047 Rain 14 1029 93 9656 2.1 280 06:40 08.08.2019
4048 Rain 14 1028 87 9656 4.6 290 05:54 08.08.2019
4049 Thunderstorm 14 1028 87 9656 3.6 320 05:27 08.08.2019
4050 Thunderstorm 14 1026 87 1609 6.7 70 03:54 08.08.2019
4051 Thunderstorm 16 1025 63 11265 5.1 300 03:35 08.08.2019
4052 Rain 21 1025 60 11265 1.5 260 01:39 08.08.2019
4053 Clouds 21 1025 56 9656 3.6 260 00:45 08.08.2019
4054 Thunderstorm 20 1025 72 9656 3.6 220 00:18 08.08.2019
4055 Rain 20 1025 60 11265 3.1 270 23:22 07.08.2019
4056 Thunderstorm 22 1026 52 11265 3.1 140 22:59 07.08.2019
4057 Thunderstorm 22 1026 52 11265 3.1 140 22:41 07.08.2019
4058 Thunderstorm 22 1026 52 11265 3.1 140 22:20 07.08.2019
4059 Clouds 22 1027 49 12874 2.6 50 21:56 07.08.2019
4060 Clouds 22 1027 49 12874 2.6 50 21:38 07.08.2019
4061 Clouds 22 1027 49 12874 2.6 50 21:38 07.08.2019
4062 Clouds 22 1027 49 12874 2.6 50 21:19 07.08.2019
4063 Clouds 21 1028 56 12874 2.6 140 20:56 07.08.2019
4064 Clouds 21 1028 56 12874 2.6 140 20:37 07.08.2019
4065 Clouds 21 1028 56 12874 2.6 140 20:19 07.08.2019
4066 Clouds 20 1028 63 12874 2.1 140 19:40 07.08.2019
4067 Clouds 20 1028 63 12874 2.1 140 19:22 07.08.2019
4068 Clouds 19 1028 63 12874 2.1 120 18:59 07.08.2019
4069 Clouds 18 1028 67 16093 2.1 50 18:39 07.08.2019
4070 Clouds 18 1028 67 16093 2.1 50 18:19 07.08.2019
4071 Clouds 16 1029 72 16093 1.5 80 17:54 07.08.2019
4072 Clouds 16 1029 72 16093 1.5 80 17:36 07.08.2019
4073 Mist 16 1029 72 16093 1.5 80 17:18 07.08.2019
4074 Mist 16 1029 72 16093 1.5 80 17:18 07.08.2019
4075 Mist 15 1028 82 16093 2.6 90 16:55 07.08.2019
4076 Mist 15 1028 82 16093 2.6 90 16:37 07.08.2019
4077 Mist 15 1028 82 16093 2.6 90 16:18 07.08.2019
4078 Mist 14 1028 82 16093 1.5 190 15:42 07.08.2019
4079 Mist 14 1028 82 16093 1.5 190 15:20 07.08.2019
4080 Mist 14 1028 82 16093 2.6 100 14:49 07.08.2019
4081 Rain 14 1028 82 12874 3.1 120 14:30 07.08.2019
4082 Rain 13 1028 82 12874 4.1 120 13:57 07.08.2019
4083 Clouds 14 1028 77 12874 1.5 120 13:38 07.08.2019
4084 Clouds 14 1028 77 12874 1.5 120 13:19 07.08.2019
4085 Rain 14 1028 82 12874 1.5 100 12:56 07.08.2019
4086 Rain 14 1028 82 12874 1.5 100 12:37 07.08.2019
4087 Rain 14 1028 82 12874 1.5 100 12:19 07.08.2019
4088 Rain 14 1028 82 9656 1.5 180 11:43 07.08.2019
4089 Rain 14 1028 82 9656 1.5 180 11:21 07.08.2019
4090 Clouds 14 1029 82 9656 3.1 120 10:58 07.08.2019
4091 Clouds 14 1029 82 9656 3.1 120 10:40 07.08.2019
4092 Clouds 14 1029 82 9656 3.1 120 10:19 07.08.2019
4093 Rain 14 1029 82 9656 2.6 120 09:46 07.08.2019
4094 Rain 14 1029 82 9656 2.6 120 09:46 07.08.2019
4095 Rain 14 1029 82 9656 2.6 120 09:23 07.08.2019
4096 Rain 14 1030 87 9656 1.29 156.942 08:59 07.08.2019
4097 Rain 14 1030 87 9656 1.02 264.301 08:41 07.08.2019
4098 Rain 14 1030 87 9656 1.02 264.301 08:23 07.08.2019
4099 Rain 14 1030 87 9656 2.1 180 07:43 07.08.2019
4100 Rain 14 1030 87 9656 2.1 180 07:21 07.08.2019
4101 Rain 15 1029 82 11265 3.1 120 06:40 07.08.2019
4102 Rain 14 1028 87 11265 1.5 180 05:59 07.08.2019
4103 -273 0 0 0 0 0 04:58 07.08.2019
4104 Clouds 18 1027 72 11265 5.1 310 03:21 07.08.2019
4105 Thunderstorm 18 1026 67 11265 7.2 300 02:50 07.08.2019
4106 Thunderstorm 19 1026 55 11265 2.6 280 02:22 07.08.2019
4107 Rain 20 1026 56 11265 6.7 20 01:42 07.08.2019
4108 Thunderstorm 20 1026 52 11265 6.2 20 00:51 07.08.2019
4109 Thunderstorm 21 1025 46 12874 4.1 140 00:22 07.08.2019
4110 Thunderstorm 21 1025 49 12874 1.5 140 23:44 06.08.2019
4111 Thunderstorm 21 1026 52 12874 3.1 170 23:22 06.08.2019
4112 Thunderstorm 21 1026 49 12874 6.2 120 22:58 06.08.2019
4113 Thunderstorm 21 1026 56 12874 7.2 80 22:38 06.08.2019
4114 Thunderstorm 21 1026 56 12874 7.2 80 22:20 06.08.2019
4115 Thunderstorm 21 1026 56 12874 7.2 80 22:20 06.08.2019
4116 Thunderstorm 21 1027 46 11265 3.1 40 21:43 06.08.2019
4117 Thunderstorm 21 1027 46 11265 3.1 40 21:25 06.08.2019
4118 Haze 22 1028 49 11265 4.1 70 20:59 06.08.2019
4119 Haze 22 1028 49 11265 4.1 70 20:40 06.08.2019
4120 Haze 22 1028 49 11265 4.1 70 20:22 06.08.2019
4121 Haze 22 1028 53 9656 0.3 84.823 19:45 06.08.2019
4122 Haze 21 1029 60 9656 0.3 84.823 19:26 06.08.2019
4123 Haze 19 1029 63 9656 1.5 230 18:54 06.08.2019
4124 Haze 19 1029 63 9656 1.5 230 18:36 06.08.2019
4125 Haze 19 1029 63 9656 1.5 230 18:18 06.08.2019
4126 Haze 17 1029 72 9656 1 240 17:54 06.08.2019
4127 Haze 17 1029 72 9656 1 240 17:36 06.08.2019
4128 Haze 17 1029 72 9656 1 240 17:18 06.08.2019
4129 Haze 17 1029 72 9656 1 240 17:18 06.08.2019
4130 Haze 16 1028 82 9656 1.5 110 16:41 06.08.2019
4131 Haze 16 1028 82 9656 1.5 110 16:21 06.08.2019
4132 Mist 14 1028 87 9656 2.6 60 15:57 06.08.2019
4133 Mist 14 1028 87 9656 2.6 60 15:38 06.08.2019
4134 Mist 14 1028 87 9656 2.6 60 15:20 06.08.2019
4135 Clouds 14 1027 82 11265 1.5 170 14:44 06.08.2019
4136 Clouds 14 1027 82 11265 1.5 170 14:25 06.08.2019
4137 Clouds 13 1027 87 12874 0.83 181.168 13:58 06.08.2019
4138 Clouds 13 1027 87 12874 0.83 181.168 13:39 06.08.2019
4139 Clouds 13 1027 87 12874 1.04 183.766 13:20 06.08.2019
4140 Clouds 13 1028 93 12874 2.1 70 12:58 06.08.2019
4141 Clouds 13 1028 93 12874 2.1 70 12:39 06.08.2019
4142 Clouds 13 1028 93 12874 2.1 70 12:39 06.08.2019
4143 Clouds 13 1028 93 12874 2.1 70 12:21 06.08.2019
4144 Clouds 14 1028 87 12874 3.6 110 11:42 06.08.2019
4145 Clouds 14 1028 87 12874 3.6 110 11:19 06.08.2019
4146 -273 0 0 0 0 0 10:56 06.08.2019
4147 Clouds 14 1029 82 12874 1.5 150 10:37 06.08.2019
4148 Clouds 14 1029 82 12874 1.5 150 10:19 06.08.2019
4149 Clouds 14 1029 87 16093 1.5 90 09:39 06.08.2019
4150 Clouds 14 1029 87 16093 1.5 90 09:20 06.08.2019
4151 Clouds 14 1029 87 16093 2 150.519 08:47 06.08.2019
4152 Clouds 14 1029 87 16093 2 150.519 08:26 06.08.2019
4153 Rain 14 1030 87 11265 2.1 200 07:47 06.08.2019
4154 Rain 14 1030 87 11265 2.1 200 07:23 06.08.2019
4155 Rain 14 1030 87 9656 2.6 220 06:43 06.08.2019
4156 Rain 14 1030 93 8047 3.1 210 05:55 06.08.2019
4157 Thunderstorm 16 1028 87 6437 3.6 320 04:35 06.08.2019
4158 Clouds 20 1026 68 16093 7.7 50 01:59 06.08.2019
4159 Thunderstorm 20 1025 55 12874 4.1 100 01:24 06.08.2019
4160 Rain 21 1025 46 12874 9.8 120 00:37 06.08.2019
4161 Rain 22 1025 36 11265 1.5 40 23:47 05.08.2019
4162 Rain 22 1025 36 11265 1.5 40 23:19 05.08.2019
4163 Thunderstorm 23 1026 38 11265 2.1 160 22:42 05.08.2019
4164 Thunderstorm 23 1026 38 11265 2.1 160 22:23 05.08.2019
4165 Clouds 23 1027 43 11265 3.1 40 21:56 05.08.2019
4166 Clouds 23 1027 43 11265 3.1 40 21:37 05.08.2019
4167 Clouds 23 1027 43 11265 3.1 40 21:19 05.08.2019
4168 Clouds 21 1028 46 11265 3.6 30 20:55 05.08.2019
4169 Clouds 21 1028 46 11265 3.6 30 20:37 05.08.2019
4170 Clouds 21 1028 46 11265 3.6 30 20:18 05.08.2019
4171 Clouds 20 1028 56 11265 2.1 70 19:43 05.08.2019
4172 Clouds 20 1028 56 11265 2.1 70 19:24 05.08.2019
4173 Clouds 19 1029 55 11265 2.1 210 18:57 05.08.2019
4174 Clouds 19 1029 55 11265 2.1 210 18:39 05.08.2019
4175 Clouds 19 1029 55 11265 2.1 210 18:19 05.08.2019
4176 Clouds 17 1029 59 11265 3.1 220 17:45 05.08.2019
4177 Clouds 17 1029 59 11265 3.1 220 17:26 05.08.2019
4178 Haze 16 1028 63 11265 2.6 260 16:46 05.08.2019
4179 Haze 16 1028 63 11265 2.6 260 16:26 05.08.2019
4180 Mist 16 1028 67 11265 2.1 140 15:56 05.08.2019
4181 Mist 16 1028 67 11265 2.1 140 15:37 05.08.2019
4182 Mist 16 1028 67 11265 2.1 140 15:18 05.08.2019
4183 Mist 15 1027 72 9656 2.6 100 14:39 05.08.2019
4184 Mist 14 1027 72 9656 2.6 100 14:19 05.08.2019
4185 Rain 14 1027 72 9656 3.1 150 13:44 05.08.2019
4186 Rain 14 1027 72 9656 3.1 150 13:22 05.08.2019
4187 Rain 14 1027 72 9656 3.1 150 13:22 05.08.2019
4188 Mist 15 1027 67 9656 1.5 170 12:48 05.08.2019
4189 Mist 15 1027 67 9656 1.5 170 12:20 05.08.2019
4190 Mist 15 1027 67 9656 1.5 170 11:47 05.08.2019
4191 Mist 15 1027 67 9656 1.5 170 11:28 05.08.2019
4192 Mist 15 1028 63 11265 3.1 90 10:59 05.08.2019
4193 Mist 15 1028 63 11265 3.1 90 10:41 05.08.2019
4194 Mist 15 1028 63 11265 3.1 90 10:21 05.08.2019
4195 Mist 15 1028 72 11265 4.1 50 09:43 05.08.2019
4196 Mist 15 1028 72 11265 4.1 50 09:24 05.08.2019
4197 Rain 16 1028 63 12874 2.6 40 08:50 05.08.2019
4198 Rain 16 1028 63 12874 2.6 40 08:28 05.08.2019
4199 Thunderstorm 16 1028 63 12874 3.1 250 07:55 05.08.2019
4200 Thunderstorm 16 1028 63 12874 3.1 250 07:32 05.08.2019
4201 Thunderstorm 16 1027 67 12874 4.1 240 06:59 05.08.2019
4202 Thunderstorm 16 1027 67 12874 4.1 240 06:29 05.08.2019
4203 Thunderstorm 17 1029 72 6437 5.1 80 05:46 05.08.2019
4204 Clouds 17 1027 59 12874 4.1 120 05:18 05.08.2019
4205 Haze 21 1025 43 16093 7.2 120 03:58 05.08.2019
4206 Haze 22 1025 47 16093 6.2 100 03:20 05.08.2019
4207 Haze 24 1024 27 16093 4.1 320 02:26 05.08.2019
4208 Haze 24 1024 29 12874 2.1 280 01:32 05.08.2019
4209 Rain 24 1024 33 12874 4.1 20 00:41 05.08.2019
4210 Rain 24 1024 33 12874 4.1 20 00:21 05.08.2019
4211 Rain 23 1025 36 12874 5.1 50 23:55 04.08.2019
4212 Rain 23 1025 36 12874 5.1 50 23:36 04.08.2019
4213 Rain 23 1025 36 12874 5.1 50 23:18 04.08.2019
4214 Rain 22 1026 35 12874 5.1 70 22:54 04.08.2019
4215 Rain 22 1026 35 12874 5.1 70 22:36 04.08.2019
4216 Rain 22 1026 35 12874 5.1 70 22:18 04.08.2019
4217 Haze 24 1026 38 11265 2.6 110 21:42 04.08.2019
4218 Haze 24 1026 38 11265 2.6 110 21:20 04.08.2019
4219 Haze 22 1028 46 11265 3.6 70 20:43 04.08.2019
4220 Haze 22 1028 46 11265 3.6 70 20:19 04.08.2019
4221 Haze 21 1028 52 9656 3.1 50 19:57 04.08.2019
4222 Haze 21 1028 52 9656 3.1 50 19:37 04.08.2019
4223 Mist 20 1029 56 9656 2.6 40 19:19 04.08.2019
4224 Mist 20 1029 56 9656 2.6 40 18:42 04.08.2019
4225 Mist 20 1029 56 9656 2.6 40 18:20 04.08.2019
4226 Mist 20 1029 56 9656 2.6 40 18:20 04.08.2019
4227 Mist 18 1029 63 9656 2.6 20 17:45 04.08.2019
4228 Mist 18 1029 63 9656 2.6 20 17:25 04.08.2019
4229 Mist 17 1028 67 9656 3.6 40 16:56 04.08.2019
4230 Mist 17 1028 67 9656 3.6 40 16:38 04.08.2019
4231 Mist 17 1028 67 9656 3.6 40 16:19 04.08.2019
4232 Mist 15 1028 77 9656 3.1 80 15:40 04.08.2019
4233 Mist 15 1028 77 9656 3.1 80 15:20 04.08.2019
4234 Mist 15 1027 77 11265 3.1 80 14:44 04.08.2019
4235 Mist 14 1027 77 11265 3.1 80 14:26 04.08.2019
4236 Clouds 14 1027 72 16093 1.5 310 13:47 04.08.2019
4237 Clouds 14 1027 72 16093 1.5 310 13:27 04.08.2019
4238 Clouds 15 1027 67 16093 3.1 320 12:58 04.08.2019
4239 Clouds 15 1027 67 16093 3.1 320 12:40 04.08.2019
4240 Clouds 15 1027 67 16093 3.1 320 12:22 04.08.2019
4241 Clouds 17 1027 67 19312 2.6 330 11:49 04.08.2019
4242 Clouds 17 1027 67 19312 2.6 330 11:23 04.08.2019
4243 Clouds 16 1027 59 19312 2.1 330 10:51 04.08.2019
4244 Clouds 16 1027 59 19312 2.1 330 10:24 04.08.2019
4245 Clouds 16 1028 59 19312 3.6 360 09:55 04.08.2019
4246 Clouds 16 1028 59 19312 3.6 360 09:37 04.08.2019
4247 Clouds 16 1028 59 19312 3.6 360 09:18 04.08.2019
4248 Clouds 17 1028 59 19312 3.1 20 08:38 04.08.2019
4249 Clouds 17 1028 59 19312 3.1 20 08:18 04.08.2019
4250 Clouds 18 1028 59 19312 3.1 20 07:44 04.08.2019
4251 Thunderstorm 17 1028 63 16093 2.6 30 06:46 04.08.2019
4252 Thunderstorm 17 1028 63 16093 2.6 30 06:23 04.08.2019
4253 Clouds 20 1025 43 16093 7.2 20 03:38 04.08.2019
4254 Clouds 25 1024 21 16093 3.1 330 01:56 04.08.2019
4255 Clouds 25 1024 21 16093 3.1 330 01:33 04.08.2019
4256 Clouds 25 1027 40 12874 5.1 50 00:43 04.08.2019
4257 Clouds 25 1027 40 12874 5.1 50 00:25 04.08.2019
4258 Clouds 25 1025 29 14484 3.1 40 23:56 03.08.2019
4259 Clouds 25 1025 29 14484 3.1 40 23:37 03.08.2019
4260 Clouds 25 1025 29 14484 3.1 40 23:18 03.08.2019
4261 Clouds 24 1026 31 14484 4.1 40 22:41 03.08.2019
4262 Clouds 24 1026 31 14484 4.1 40 22:19 03.08.2019
4263 Clouds 24 1026 31 16093 3.1 50 21:40 03.08.2019
4264 Clouds 24 1026 31 16093 3.1 50 21:40 03.08.2019
4265 Clouds 23 1026 31 16093 3.1 50 21:22 03.08.2019
4266 Clear 22 1027 35 16093 2.6 40 20:46 03.08.2019
4267 Clear 22 1027 35 16093 2.6 40 20:25 03.08.2019
4268 Clear 21 1028 45 16093 2.6 80 19:57 03.08.2019
4269 Clear 21 1028 45 16093 2.6 80 19:39 03.08.2019
4270 Clear 21 1028 45 16093 2.6 80 19:21 03.08.2019
4271 Clear 20 1028 48 16093 2.6 90 18:46 03.08.2019
4272 Clear 20 1028 48 16093 2.6 90 18:26 03.08.2019
4273 Clear 18 1028 55 12874 2.1 70 17:46 03.08.2019
4274 Clear 18 1028 55 12874 2.1 70 17:20 03.08.2019
4275 Clear 16 1028 67 16093 1.33 76.255 16:39 03.08.2019
4276 Clear 15 1028 67 16093 1.33 76.255 16:21 03.08.2019
4277 Clear 14 1028 72 16093 1.5 160 15:59 03.08.2019
4278 Clear 14 1028 72 16093 1.5 160 15:39 03.08.2019
4279 Clear 13 1028 76 16093 0.84 70.726 15:20 03.08.2019
4280 Clear 12 1028 76 12874 2.6 80 14:37 03.08.2019
4281 Clear 12 1028 76 12874 2.6 80 14:18 03.08.2019
4282 Clear 12 1028 76 12874 2.6 80 14:18 03.08.2019
4283 Clear 10 1028 81 12874 2.6 60 13:43 03.08.2019
4284 Clear 10 1028 81 12874 2.6 60 13:23 03.08.2019
4285 Clear 11 1027 76 12874 2.1 60 12:56 03.08.2019
4286 Clear 12 1027 76 12874 2.1 60 12:37 03.08.2019
4287 Clear 12 1027 76 12874 2.1 60 12:19 03.08.2019
4288 Clear 12 1028 76 14484 3.1 80 11:39 03.08.2019
4289 Clear 12 1028 76 14484 3.1 80 11:20 03.08.2019
4290 Clear 13 1028 72 14484 3.1 60 10:38 03.08.2019
4291 Clear 13 1028 72 14484 3.1 60 10:20 03.08.2019
4292 Clouds 14 1029 59 16093 2.1 10 09:38 03.08.2019
4293 Clouds 14 1029 59 16093 2.1 10 09:38 03.08.2019
4294 Clouds 14 1029 59 16093 2.1 10 09:18 03.08.2019
4295 Clouds 16 1029 55 16093 3.1 10 08:43 03.08.2019
4296 Clouds 15 1029 59 16093 2.1 260 07:40 03.08.2019
4297 Clouds 16 1029 55 16093 3.6 220 06:57 03.08.2019
4298 Clouds 16 1029 55 16093 3.6 220 06:20 03.08.2019
4299 Rain 22 1025 29 19312 5.1 340 03:35 03.08.2019
4300 Rain 22 1025 27 19312 3.6 340 02:26 03.08.2019
4301 Clouds 24 1025 23 16093 2.1 100 00:59 03.08.2019
4302 Clouds 24 1025 23 16093 2.1 100 00:32 03.08.2019
4303 Clouds 24 1025 29 14484 5.7 50 23:42 02.08.2019
4304 Clouds 24 1025 29 14484 5.7 50 23:20 02.08.2019
4305 Thunderstorm 22 1026 33 14484 4.1 50 22:59 02.08.2019
4306 Thunderstorm 22 1026 33 14484 4.1 50 22:40 02.08.2019
4307 Thunderstorm 22 1026 33 14484 4.1 50 22:22 02.08.2019
4308 Clouds 23 1027 40 11265 2.6 50 21:56 02.08.2019
4309 Clouds 23 1027 40 11265 2.6 50 21:37 02.08.2019
4310 Clouds 23 1027 40 11265 2.6 50 21:37 02.08.2019
4311 Clouds 23 1027 40 11265 2.6 50 21:19 02.08.2019
4312 Clear 22 1028 43 11265 2.1 150 20:43 02.08.2019
4313 Clear 22 1028 43 11265 2.1 150 20:22 02.08.2019
4314 Clear 21 1028 45 11265 3.6 70 19:53 02.08.2019
4315 Clear 21 1028 45 11265 3.6 70 19:32 02.08.2019
4316 Clear 20 1029 48 11265 1.45 2.856 18:50 02.08.2019
4317 Clear 20 1029 48 11265 1.45 2.856 18:32 02.08.2019
4318 Clear 19 1029 55 9656 2.1 280 17:57 02.08.2019
4319 Clear 18 1029 63 9656 2.1 100 17:39 02.08.2019
4320 -273 0 0 0 0 0 17:20 02.08.2019
4321 Haze 15 1029 71 12874 3.6 70 16:39 02.08.2019
4322 Haze 15 1029 71 12874 3.6 70 16:20 02.08.2019
4323 Clouds 13 1029 76 12874 3.1 80 15:56 02.08.2019
4324 Clouds 13 1029 76 12874 3.1 80 15:36 02.08.2019
4325 Clouds 13 1029 76 12874 3.1 80 15:18 02.08.2019
4326 Clear 13 1028 71 16093 2.1 110 14:41 02.08.2019
4327 Clear 13 1028 71 16093 2.1 110 14:18 02.08.2019
4328 Clouds 12 1028 71 19312 2.1 70 13:45 02.08.2019
4329 Clouds 12 1028 71 19312 2.1 70 13:20 02.08.2019
4330 Clouds 13 1028 67 19312 4.6 80 12:43 02.08.2019
4331 Clouds 13 1028 67 19312 4.6 80 12:20 02.08.2019
4332 Clouds 14 1028 62 19312 2.6 70 11:41 02.08.2019
4333 Clouds 14 1028 62 19312 2.6 70 11:41 02.08.2019
4334 Clouds 14 1028 62 19312 2.6 70 11:22 02.08.2019
4335 Clouds 14 1029 55 19312 3.6 290 10:48 02.08.2019
4336 Clouds 14 1029 55 19312 3.6 290 10:24 02.08.2019
4337 Clouds 16 1029 48 19312 3.6 300 09:57 02.08.2019
4338 Clouds 16 1029 48 19312 3.6 300 09:38 02.08.2019
4339 Clouds 16 1029 48 19312 3.6 300 09:38 02.08.2019
4340 Clouds 16 1029 48 19312 3.6 300 09:20 02.08.2019
4341 Clouds 16 1030 48 19312 2.1 300 08:40 02.08.2019
4342 Clouds 16 1030 48 19312 2.1 300 08:18 02.08.2019
4343 Clouds 16 1030 45 19312 3.6 330 07:42 02.08.2019
4344 Clouds 16 1030 45 19312 3.6 330 07:24 02.08.2019
4345 Clouds 17 1029 48 19312 3.1 10 06:33 02.08.2019
4346 Clouds 18 1028 45 19312 5.1 360 05:44 02.08.2019
4347 Clouds 22 1025 37 19312 7.7 50 03:35 02.08.2019
4348 Clouds 22 1025 35 19312 8.2 60 02:42 02.08.2019
4349 Clouds 24 1025 23 19312 5.1 30 01:38 02.08.2019
4350 Clouds 25 1025 22 16093 5.1 30 00:32 02.08.2019
4351 Clouds 24 1026 25 16093 4.1 50 23:44 01.08.2019
4352 Clouds 24 1026 25 16093 4.1 50 23:26 01.08.2019
4353 Clouds 24 1028 31 16093 3.6 40 22:45 01.08.2019
4354 Clouds 24 1028 31 16093 3.6 40 22:25 01.08.2019
4355 Clouds 22 1029 33 12874 1.5 30 21:57 01.08.2019
4356 Clouds 22 1029 33 12874 1.5 30 21:39 01.08.2019
4357 Clouds 22 1029 33 12874 1.5 30 21:21 01.08.2019
4358 Clouds 21 1029 35 12874 1.5 330 20:46 01.08.2019
4359 Clouds 21 1029 35 12874 1.5 330 20:23 01.08.2019
4360 Clear 20 1030 48 8047 3.6 30 19:54 01.08.2019
4361 Clear 20 1030 48 8047 3.6 30 19:36 01.08.2019
4362 Clear 20 1030 48 8047 3.6 30 19:18 01.08.2019
4363 Mist 19 1030 59 9656 1 190 18:42 01.08.2019
4364 Mist 19 1030 59 9656 1 190 18:23 01.08.2019
4365 Mist 19 1030 59 9656 1 190 18:23 01.08.2019
4366 Mist 16 1030 67 9656 3.1 80 17:47 01.08.2019
4367 Mist 16 1030 67 9656 3.1 80 17:27 01.08.2019
4368 Mist 15 1029 67 12874 3.6 70 16:45 01.08.2019
4369 Mist 15 1029 67 12874 3.6 70 16:45 01.08.2019
4370 Mist 15 1029 67 12874 3.6 70 16:22 01.08.2019
4371 Mist 11 1029 76 12874 3.1 80 15:46 01.08.2019
4372 Mist 11 1029 76 12874 3.1 80 15:21 01.08.2019
4373 Clouds 11 1028 82 11265 2.1 110 14:59 01.08.2019
4374 Clouds 11 1028 82 11265 2.1 110 14:41 01.08.2019
4375 Clouds 12 1028 82 11265 2.1 110 14:18 01.08.2019
4376 Clouds 11 1028 82 11265 2.1 110 14:18 01.08.2019
4377 Clouds 12 1028 71 12874 2.6 80 13:42 01.08.2019
4378 Clouds 12 1028 71 12874 2.6 80 13:22 01.08.2019
4379 Clouds 12 1028 67 12874 2.1 300 12:59 01.08.2019
4380 Clouds 13 1028 67 12874 2.1 300 12:41 01.08.2019
4381 Clouds 13 1028 67 12874 2.1 300 12:22 01.08.2019
4382 Clouds 13 1028 67 12874 2.6 280 11:42 01.08.2019
4383 Clouds 13 1028 67 12874 2.6 280 11:23 01.08.2019
4384 Clouds 13 1028 67 12874 2.6 280 11:23 01.08.2019
4385 Clouds 14 1028 63 12874 3.6 300 10:46 01.08.2019
4386 Clouds 14 1028 63 12874 3.6 300 10:28 01.08.2019
4387 Clouds 15 1029 63 12874 3.6 310 09:59 01.08.2019
4388 Clouds 15 1029 63 12874 3.6 310 09:40 01.08.2019
4389 Clouds 15 1029 63 12874 3.6 310 09:22 01.08.2019
4390 Clouds 15 1029 63 12874 3.6 310 09:22 01.08.2019
4391 Clouds 15 1029 59 12874 2.1 10 08:43 01.08.2019
4392 Clouds 15 1029 59 12874 2.1 10 08:20 01.08.2019
4393 Clouds 16 1030 55 14484 3.1 20 07:47 01.08.2019
4394 Clouds 16 1030 55 14484 3.1 20 07:24 01.08.2019
4395 Clouds 16 1029 55 14484 1.5 230 06:48 01.08.2019
4396 Rain 16 1029 59 16093 3.1 320 05:51 01.08.2019
4397 Rain 16 1028 63 11265 5.1 80 04:23 01.08.2019
4398 Thunderstorm 22 1025 46 11265 5.1 130 02:33 01.08.2019
4399 Clouds 25 1025 31 11265 8.2 30 00:43 01.08.2019
4400 Clouds 24 1025 31 11265 8.2 30 00:24 01.08.2019
4401 Clouds 24 1026 38 9656 6.2 40 23:43 31.07.2019
4402 Clouds 24 1026 38 9656 6.2 40 23:21 31.07.2019
4403 Clouds 24 1026 38 9656 6.2 40 23:21 31.07.2019
4404 Clouds 23 1027 40 8047 4.1 350 22:56 31.07.2019
4405 Clouds 23 1027 40 8047 4.1 350 22:38 31.07.2019
4406 Clouds 23 1027 40 8047 4.1 350 22:19 31.07.2019
4407 Clouds 23 1028 40 9656 5.7 20 21:38 31.07.2019
4408 Clouds 23 1028 40 9656 5.7 20 21:18 31.07.2019
4409 Clouds 22 1029 46 6437 2.1 60 20:43 31.07.2019
4410 Clouds 22 1029 46 6437 2.1 60 20:21 31.07.2019
4411 Clouds 21 1030 52 8047 3.24 57.419 19:42 31.07.2019
4412 Clouds 21 1030 52 8047 3.24 57.419 19:23 31.07.2019
4413 Clouds 21 1030 52 8047 1.5 160 18:53 31.07.2019
4414 Clouds 19 1030 63 8047 3.1 70 18:26 31.07.2019
4415 Clouds 17 1030 72 9656 2.1 80 17:59 31.07.2019
4416 Clouds 17 1030 72 9656 2.1 80 17:40 31.07.2019
4417 Clouds 17 1030 72 9656 2.1 80 17:19 31.07.2019
4418 Clear 16 1031 67 8047 1.5 110 16:43 31.07.2019
4419 Clear 15 1029 67 9656 2.1 110 16:20 31.07.2019
4420 Clouds 14 1029 72 9656 2.6 160 15:45 31.07.2019
4421 Clouds 14 1029 72 9656 2.6 160 15:25 31.07.2019
4422 Clouds 14 1028 76 11265 1.5 50 14:43 31.07.2019
4423 Clouds 12 1028 76 11265 1.5 50 14:22 31.07.2019
4424 Clouds 12 1027 76 11265 2.6 60 13:58 31.07.2019
4425 Clouds 13 1027 76 11265 2.6 60 13:38 31.07.2019
4426 Clouds 13 1027 76 11265 2.6 60 13:20 31.07.2019
4427 Clouds 14 1028 72 12874 2.1 240 12:45 31.07.2019
4428 Clouds 14 1028 72 12874 2.1 240 12:45 31.07.2019
4429 Clouds 14 1028 72 12874 2.1 240 12:27 31.07.2019
4430 Rain 14 1028 67 12874 3.1 340 11:58 31.07.2019
4431 Rain 14 1028 67 12874 3.1 340 11:38 31.07.2019
4432 Rain 14 1028 67 12874 3.1 340 11:19 31.07.2019
4433 Clouds 14 1029 67 12874 1.5 10 10:41 31.07.2019
4434 Clouds 14 1029 67 12874 1.5 10 10:20 31.07.2019
4435 Clouds 14 1029 67 12874 2.6 50 09:43 31.07.2019
4436 Clouds 14 1029 67 12874 2.6 50 09:24 31.07.2019
4437 Clouds 14 1029 67 12874 2.6 50 09:24 31.07.2019
4438 Clouds 15 1029 63 12874 2.6 10 08:45 31.07.2019
4439 Clouds 15 1029 63 12874 2.6 10 08:26 31.07.2019
4440 Clouds 15 1029 63 14484 4.6 340 07:57 31.07.2019
4441 Clouds 15 1029 63 14484 4.6 340 07:34 31.07.2019
4442 Clouds 16 1028 59 14484 5.7 20 06:31 31.07.2019
4443 Thunderstorm 17 1027 55 16093 4.6 40 04:49 31.07.2019
4444 Clouds 23 1025 31 12874 4.1 80 01:21 31.07.2019
4445 Clouds 23 1026 35 11265 5.1 90 23:57 30.07.2019
4446 Clouds 23 1026 35 11265 5.1 90 23:39 30.07.2019
4447 Clouds 23 1026 35 11265 5.1 90 23:18 30.07.2019
4448 Clouds 22 1027 43 11265 3.1 30 22:42 30.07.2019
4449 Clouds 22 1027 43 11265 3.1 30 22:24 30.07.2019
4450 Clouds 22 1028 40 11265 2.1 130 21:38 30.07.2019
4451 Clouds 22 1028 40 11265 2.1 130 21:20 30.07.2019
4452 Clouds 22 1028 40 11265 2.1 130 21:20 30.07.2019
4453 Clouds 21 1029 43 9656 1.5 350 20:58 30.07.2019
4454 Clouds 21 1029 43 9656 1.5 350 20:39 30.07.2019
4455 Clouds 21 1029 43 9656 1.5 350 20:39 30.07.2019
4456 Clouds 21 1029 43 9656 1.5 350 20:20 30.07.2019
4457 Clouds 20 1030 45 9656 2.6 80 19:49 30.07.2019
4458 Clouds 20 1030 45 9656 2.6 80 19:30 30.07.2019
4459 Clouds 19 1030 52 9656 1.11 62.672 18:48 30.07.2019
4460 Clouds 19 1030 52 9656 0.95 157.269 18:27 30.07.2019
4461 Clouds 17 1030 63 9656 2.6 90 17:59 30.07.2019
4462 Clouds 17 1030 63 9656 2.6 90 17:41 30.07.2019
4463 Clouds 17 1030 63 9656 2.6 90 17:19 30.07.2019
4464 Mist 15 1024 82 4828 0.95 157.269 16:46 30.07.2019
4465 Fog 15 1030 72 9656 1.5 40 16:20 30.07.2019
4466 Fog 13 1029 82 9656 2.1 110 15:44 30.07.2019
4467 Fog 13 1029 82 9656 2.1 110 15:23 30.07.2019
4468 Mist 13 1028 82 11265 1.5 50 14:59 30.07.2019
4469 Mist 12 1028 82 11265 1.5 50 14:40 30.07.2019
4470 Mist 12 1028 82 11265 1.5 50 14:18 30.07.2019
4471 Mist 12 1028 87 11265 3.1 70 13:41 30.07.2019
4472 Mist 12 1028 87 11265 3.1 70 13:23 30.07.2019
4473 Mist 12 1028 87 11265 1 90 12:55 30.07.2019
4474 Mist 12 1028 87 11265 1 90 12:37 30.07.2019
4475 Fog 12 1028 87 11265 1 90 12:18 30.07.2019
4476 Fog 13 1028 82 11265 1 50 11:38 30.07.2019
4477 Fog 13 1028 82 11265 1 50 11:18 30.07.2019
4478 Fog 13 1028 77 11265 1.5 330 10:42 30.07.2019
4479 Fog 13 1028 77 11265 1.5 330 10:21 30.07.2019
4480 Fog 13 1030 87 805 0.65 201.801 09:48 30.07.2019
4481 Fog 13 1030 87 805 1.13 210.009 09:29 30.07.2019
4482 Clouds 14 1029 72 14484 2.6 310 08:44 30.07.2019
4483 Clouds 14 1029 72 14484 2.6 310 08:22 30.07.2019
4484 Rain 15 1029 67 14484 4.1 290 07:46 30.07.2019
4485 Rain 15 1029 67 14484 4.1 290 07:23 30.07.2019
4486 Thunderstorm 14 1028 77 12874 3.6 250 06:46 30.07.2019
4487 Thunderstorm 14 1028 77 12874 3.6 250 06:46 30.07.2019
4488 Thunderstorm 15 1028 67 11265 2.6 140 05:47 30.07.2019
4489 Thunderstorm 15 1028 67 11265 2.6 140 05:25 30.07.2019
4490 Clouds 22 1025 52 14484 5.7 350 01:38 30.07.2019
4491 Clouds 21 1026 52 12874 5.7 150 00:36 30.07.2019
4492 Clouds 21 1026 52 12874 5.7 150 00:18 30.07.2019
4493 Clouds 21 1026 55 11265 5.1 140 23:43 29.07.2019
4494 Clouds 21 1026 55 11265 5.1 140 23:24 29.07.2019
4495 Thunderstorm 22 1027 43 11265 6.2 40 22:57 29.07.2019
4496 Thunderstorm 22 1027 43 11265 6.2 40 22:57 29.07.2019
4497 Thunderstorm 23 1027 43 11265 6.2 40 22:38 29.07.2019
4498 Thunderstorm 23 1027 43 11265 6.2 40 22:18 29.07.2019
4499 Clouds 22 1027 46 12874 5.1 60 21:43 29.07.2019
4500 Clouds 22 1027 46 12874 5.1 60 21:24 29.07.2019
4501 Clouds 21 1028 46 12874 3.1 60 20:58 29.07.2019
4502 Clouds 21 1028 46 12874 3.1 60 20:39 29.07.2019
4503 Clouds 21 1028 46 12874 3.1 60 20:20 29.07.2019
4504 Clouds 21 1029 52 12874 2.1 40 19:50 29.07.2019
4505 Clouds 21 1029 52 12874 2.1 40 19:24 29.07.2019
4506 Clouds 19 1029 59 12874 1.5 280 18:58 29.07.2019
4507 Clouds 19 1029 59 12874 1.5 280 18:40 29.07.2019
4508 Clouds 19 1029 59 12874 1.5 280 18:20 29.07.2019
4509 Haze 18 1029 67 12874 1.13 173.159 17:48 29.07.2019
4510 Haze 18 1029 67 12874 1.13 173.159 17:29 29.07.2019
4511 Clouds 16 1029 67 12874 1.13 173.159 16:57 29.07.2019
4512 Clouds 15 1029 76 14484 1.5 60 16:37 29.07.2019
4513 Clouds 15 1029 76 14484 1.5 60 16:18 29.07.2019
4514 Clouds 13 1029 82 14484 3.6 80 15:45 29.07.2019
4515 Clouds 13 1029 82 14484 3.6 80 15:27 29.07.2019
4516 Clouds 13 1028 82 16093 0.84 188.111 14:43 29.07.2019
4517 Clouds 12 1028 82 16093 0.84 188.111 14:21 29.07.2019
4518 Clouds 12 1028 82 16093 0.84 188.111 13:48 29.07.2019
4519 Clouds 12 1028 82 16093 1.17 193.134 13:24 29.07.2019
4520 Clouds 12 1028 82 16093 1.17 193.134 12:59 29.07.2019
4521 Clouds 12 1028 82 16093 1.17 193.134 12:40 29.07.2019
4522 Clouds 12 1028 82 16093 1.28 197.007 12:21 29.07.2019
4523 -273 0 0 0 0 0 11:42 29.07.2019
4524 Clouds 13 1028 77 19312 2.6 360 11:19 29.07.2019
4525 Clouds 13 1028 67 19312 1.5 120 10:44 29.07.2019
4526 Clouds 13 1028 67 19312 1.5 120 10:22 29.07.2019
4527 Clouds 14 1029 72 19312 1.28 197.007 09:44 29.07.2019
4528 Clouds 14 1029 72 19312 1.4 202.32 09:21 29.07.2019
4529 Clouds 14 1029 72 19312 1.5 220 08:49 29.07.2019
4530 Clouds 14 1029 72 19312 1.5 220 08:27 29.07.2019
4531 Clouds 14 1030 77 19312 2.1 240 07:50 29.07.2019
4532 Clouds 14 1030 77 19312 2.1 240 07:30 29.07.2019
4533 Clouds 14 1030 77 19312 2.1 240 07:30 29.07.2019
4534 Clouds 14 1030 77 19312 2.6 240 06:40 29.07.2019
4535 Clouds 14 1030 72 19312 2.6 250 05:37 29.07.2019
4536 Clouds 17 1028 68 9656 5.1 10 03:57 29.07.2019
4537 Thunderstorm 19 1027 59 6437 5.1 330 01:52 29.07.2019
4538 Thunderstorm 21 1026 49 12874 7.2 120 01:33 29.07.2019
4539 Thunderstorm 23 1026 33 12874 3.6 90 00:58 29.07.2019
4540 Clouds 23 1027 36 12874 3.1 70 00:29 29.07.2019
4541 Thunderstorm 22 1028 36 12874 5.1 90 23:44 28.07.2019
4542 Thunderstorm 22 1028 36 12874 5.1 90 23:26 28.07.2019
4543 Thunderstorm 22 1028 37 12874 5.1 120 22:46 28.07.2019
4544 Thunderstorm 22 1028 37 12874 5.1 120 22:28 28.07.2019
4545 Thunderstorm 22 1031 48 9656 7.2 180 21:54 28.07.2019
4546 Clouds 22 1030 43 12874 6.2 80 21:36 28.07.2019
4547 Clouds 22 1030 43 12874 6.2 80 21:18 28.07.2019
4548 Clouds 21 1030 52 12874 3.6 50 20:42 28.07.2019
4549 Clouds 21 1030 52 12874 3.6 50 20:23 28.07.2019
4550 Clear 20 1030 52 14484 4.1 60 19:40 28.07.2019
4551 Clear 20 1030 52 14484 4.1 60 19:21 28.07.2019
4552 Clear 19 1031 59 14484 3.1 70 18:46 28.07.2019
4553 Clear 19 1031 59 14484 3.1 70 18:27 28.07.2019
4554 Clear 17 1031 67 16093 2.6 50 17:56 28.07.2019
4555 Clear 17 1031 67 16093 2.6 50 17:38 28.07.2019
4556 Clear 17 1031 67 16093 2.6 50 17:19 28.07.2019
4557 Clear 16 1031 72 16093 2.1 60 16:42 28.07.2019
4558 Clear 16 1031 72 16093 2.1 60 16:23 28.07.2019
4559 Clouds 14 1031 71 14484 1 300 15:46 28.07.2019
4560 Clouds 14 1031 71 14484 1 300 15:26 28.07.2019
4561 Clouds 13 1031 76 12874 2.1 300 14:40 28.07.2019
4562 Clouds 13 1031 76 12874 2.1 300 14:21 28.07.2019
4563 Clouds 12 1030 71 12874 1.5 70 13:56 28.07.2019
4564 Clouds 12 1030 71 12874 1.5 70 13:38 28.07.2019
4565 Clouds 12 1030 71 12874 1.5 70 13:19 28.07.2019
4566 Clouds 13 1030 71 12874 0.63 114.775 12:42 28.07.2019
4567 Clouds 13 1030 71 12874 0.54 131.774 12:24 28.07.2019
4568 Clouds 14 1030 72 12874 1 10 11:50 28.07.2019
4569 Clouds 14 1030 72 12874 1 10 11:29 28.07.2019
4570 Clouds 14 1031 77 12874 2.6 350 10:56 28.07.2019
4571 Clouds 14 1031 77 12874 2.6 350 10:37 28.07.2019
4572 Clouds 14 1031 77 12874 2.6 350 10:18 28.07.2019
4573 Clouds 15 1031 72 12874 2.6 300 09:40 28.07.2019
4574 Clouds 15 1031 72 12874 2.6 300 09:20 28.07.2019
4575 Clouds 15 1031 67 12874 1.5 30 08:41 28.07.2019
4576 Clouds 15 1031 67 12874 1.5 30 08:21 28.07.2019
4577 Clouds 15 1031 63 12874 2.6 30 07:40 28.07.2019
4578 Clouds 16 1031 63 12874 2.6 30 07:22 28.07.2019
4579 Clouds 16 1031 67 14484 4.1 340 06:33 28.07.2019
4580 Clouds 17 1030 63 14484 4.1 360 05:19 28.07.2019
4581 Rain 20 1028 63 12874 7.7 50 02:37 28.07.2019
4582 Rain 21 1028 55 12874 6.2 70 01:40 28.07.2019
4583 Clouds 22 1027 43 11265 10.3 50 00:54 28.07.2019
4584 Clouds 23 1027 33 11265 3.1 360 00:30 28.07.2019
4585 Clouds 25 1028 33 11265 3.6 40 23:53 27.07.2019
4586 Clouds 25 1028 33 11265 3.6 40 23:28 27.07.2019
4587 Clouds 24 1029 40 11265 3.1 20 22:46 27.07.2019
4588 Clouds 24 1029 40 11265 3.1 20 22:28 27.07.2019
4589 Clouds 22 1030 43 11265 4.1 40 21:47 27.07.2019
4590 Clouds 22 1030 43 11265 4.1 40 21:24 27.07.2019
4591 Clouds 22 1031 43 12874 3.6 360 20:57 27.07.2019
4592 Clouds 22 1031 43 12874 3.6 360 20:39 27.07.2019
4593 Clouds 22 1031 43 12874 3.6 360 20:19 27.07.2019
4594 Clouds 21 1031 45 12874 2.1 30 19:40 27.07.2019
4595 Clouds 21 1031 45 12874 2.1 30 19:22 27.07.2019
4596 Clouds 19 1031 63 12874 2.6 60 18:47 27.07.2019
4597 Clouds 19 1031 63 12874 2.6 60 18:29 27.07.2019
4598 Clouds 19 1031 63 11265 0.48 129.96 17:51 27.07.2019
4599 Clouds 18 1031 72 9656 2.1 290 17:32 27.07.2019
4600 Fog 16 1031 77 9656 2.6 40 16:56 27.07.2019
4601 Fog 16 1031 77 9656 2.6 40 16:37 27.07.2019
4602 Fog 15 1031 77 9656 1 80 15:56 27.07.2019
4603 Fog 15 1031 77 9656 1 80 15:38 27.07.2019
4604 Fog 14 1031 87 9656 1.5 50 15:18 27.07.2019
4605 Fog 15 1030 87 9656 3.1 50 14:45 27.07.2019
4606 Fog 14 1030 87 9656 3.1 50 14:25 27.07.2019
4607 Rain 13 1029 93 8047 1 230 13:48 27.07.2019
4608 Rain 13 1029 93 8047 1 230 13:23 27.07.2019
4609 Mist 13 1030 93 8047 1.04 193.689 12:50 27.07.2019
4610 Mist 13 1030 93 8047 0.46 146.276 12:27 27.07.2019
4611 Mist 13 1030 93 9656 2.6 310 11:56 27.07.2019
4612 Mist 13 1030 93 9656 2.6 310 11:38 27.07.2019
4613 Mist 13 1030 93 9656 2.6 310 11:38 27.07.2019
4614 Mist 13 1030 93 9656 2.6 310 11:19 27.07.2019
4615 Rain 13 1030 93 9656 2.1 310 10:40 27.07.2019
4616 Rain 13 1030 87 6437 2.6 80 10:21 27.07.2019
4617 Rain 14 1031 82 8047 0.46 146.276 09:41 27.07.2019
4618 Rain 14 1031 82 8047 1.09 257.927 09:22 27.07.2019
4619 Rain 14 1031 87 12874 1.5 30 08:49 27.07.2019
4620 Rain 15 1031 82 12874 2.1 10 08:29 27.07.2019
4621 Clouds 14 1031 87 11265 2.6 360 07:54 27.07.2019
4622 Rain 14 1031 87 9656 1.5 360 07:27 27.07.2019
4623 Rain 15 1031 87 8047 3.6 330 06:56 27.07.2019
4624 Rain 14 1031 93 4828 1.5 310 06:31 27.07.2019
4625 Rain 15 1030 87 11265 2.1 280 05:51 27.07.2019
4626 Thunderstorm 15 1029 87 12874 3.1 290 05:18 27.07.2019
4627 Clouds 15 1029 87 8047 4.1 260 04:31 27.07.2019
4628 Thunderstorm 18 1028 93 6437 5.1 250 02:58 27.07.2019
4629 Thunderstorm 18 1028 93 6437 5.1 250 02:58 27.07.2019
4630 Thunderstorm 18 1028 82 3219 3.1 270 02:31 27.07.2019
4631 Rain 20 1027 77 9656 3.6 270 01:47 27.07.2019
4632 Clouds 20 1027 63 8047 4.6 340 00:59 27.07.2019
4633 Clouds 20 1027 63 8047 4.6 340 00:32 27.07.2019
4634 Haze 20 1028 68 8047 4.6 10 23:53 26.07.2019
4635 Haze 21 1028 56 8047 5.1 50 23:33 26.07.2019
4636 Clouds 20 1029 56 8047 1.71 64.662 22:56 26.07.2019
4637 Clouds 20 1029 56 8047 1.71 64.662 22:38 26.07.2019
4638 Clouds 20 1029 56 8047 1.71 64.662 22:20 26.07.2019
4639 Rain 20 1031 67 4828 5.7 140 21:48 26.07.2019
4640 Clouds 20 1029 55 9656 1.5 140 21:19 26.07.2019
4641 Clouds 20 1030 63 8047 1.5 150 20:42 26.07.2019
4642 Clouds 20 1030 63 8047 1.5 150 20:42 26.07.2019
4643 Clouds 20 1030 63 8047 1.5 150 20:23 26.07.2019
4644 Clouds 19 1031 67 8047 1.5 350 19:43 26.07.2019
4645 Clouds 19 1031 67 8047 1.5 350 19:25 26.07.2019
4646 Mist 17 1030 77 9656 2.1 310 18:57 26.07.2019
4647 Mist 17 1030 77 9656 2.1 310 18:37 26.07.2019
4648 Mist 16 1030 77 9656 2.6 360 18:19 26.07.2019
4649 Mist 16 1030 77 9656 2.6 360 17:44 26.07.2019
4650 Mist 16 1030 77 9656 2.6 360 17:19 26.07.2019
4651 Mist 15 1030 82 9656 2.6 360 16:56 26.07.2019
4652 Mist 15 1030 82 9656 2.6 360 16:56 26.07.2019
4653 Mist 15 1030 82 9656 2.6 360 16:37 26.07.2019
4654 Mist 15 1030 82 9656 2.6 360 16:19 26.07.2019
4655 Mist 14 1029 82 9656 2.1 50 15:45 26.07.2019
4656 Mist 14 1029 82 9656 2.1 50 15:26 26.07.2019
4657 Mist 14 1029 77 9656 2.1 20 14:58 26.07.2019
4658 Mist 15 1029 77 9656 2.1 20 14:40 26.07.2019
4659 Mist 15 1029 77 9656 2.1 20 14:21 26.07.2019
4660 Mist 13 1028 87 9656 1 60 13:40 26.07.2019
4661 Mist 13 1028 87 9656 1 60 13:21 26.07.2019
4662 Mist 13 1028 87 9656 2.6 280 12:45 26.07.2019
4663 Mist 13 1028 87 9656 2.6 280 12:20 26.07.2019
4664 Rain 13 1028 87 8047 1.5 310 11:40 26.07.2019
4665 Rain 13 1028 87 8047 1.5 310 11:20 26.07.2019
4666 Rain 13 1028 87 8047 1.5 310 10:55 26.07.2019
4667 Rain 13 1029 87 8047 2.6 280 10:36 26.07.2019
4668 Rain 13 1030 87 8047 2.1 260 09:55 26.07.2019
4669 Rain 13 1030 87 8047 2.1 260 09:36 26.07.2019
4670 Rain 13 1030 87 8047 2.1 310 08:44 26.07.2019
4671 Rain 13 1030 87 8047 2.1 310 08:23 26.07.2019
4672 Rain 13 1030 87 6437 2.6 360 07:59 26.07.2019
4673 Rain 13 1030 87 6437 2.6 360 07:29 26.07.2019
4674 Rain 13 1030 87 6437 3.1 330 06:53 26.07.2019
4675 Rain 13 1030 87 6437 3.1 300 05:23 26.07.2019
4676 Rain 13 1029 87 6437 2.6 250 04:28 26.07.2019
4677 Rain 17 1028 87 6437 2.6 250 03:18 26.07.2019
4678 Thunderstorm 18 1027 82 6437 5.1 300 01:43 26.07.2019
4679 Thunderstorm 18 1028 93 6437 4.6 260 00:45 26.07.2019
4680 Thunderstorm 18 1027 93 6437 3.1 220 23:57 25.07.2019
4681 Thunderstorm 18 1028 87 1609 5.1 110 23:25 25.07.2019
4682 Thunderstorm 18 1027 82 4828 5.1 120 22:58 25.07.2019
4683 Thunderstorm 19 1027 55 6437 3.6 240 22:39 25.07.2019
4684 Thunderstorm 20 1027 55 6437 3.6 240 22:20 25.07.2019
4685 Haze 21 1027 56 9656 3.6 60 21:44 25.07.2019
4686 Haze 21 1027 56 9656 3.6 60 21:21 25.07.2019
4687 Haze 21 1027 56 9656 3.6 60 21:21 25.07.2019
4688 Clouds 20 1028 55 9656 2.1 50 20:48 25.07.2019
4689 Clouds 20 1028 55 9656 2.1 50 20:23 25.07.2019
4690 Clouds 19 1029 67 9656 2.1 30 19:44 25.07.2019
4691 Clouds 19 1029 67 9656 2.1 30 19:44 25.07.2019
4692 Clouds 19 1029 67 9656 2.1 30 19:26 25.07.2019
4693 Fog 18 1029 67 9656 3.1 320 18:57 25.07.2019
4694 Fog 18 1029 67 9656 3.1 320 18:38 25.07.2019
4695 Fog 18 1029 67 9656 3.1 320 18:20 25.07.2019
4696 Mist 16 1029 77 9656 2.1 80 17:43 25.07.2019
4697 Mist 16 1029 77 9656 2.1 80 17:24 25.07.2019
4698 Mist 16 1029 72 9656 1.5 70 16:44 25.07.2019
4699 Mist 15 1029 72 9656 1.5 70 16:26 25.07.2019
4700 Mist 15 1029 77 11265 2.6 40 15:54 25.07.2019
4701 Mist 15 1029 77 11265 2.6 40 15:21 25.07.2019
4702 Mist 14 1028 77 9656 1.5 80 14:58 25.07.2019
4703 Mist 14 1028 77 9656 1.5 80 14:40 25.07.2019
4704 Mist 14 1028 77 9656 1.5 80 14:20 25.07.2019
4705 Mist 14 1028 77 9656 2.1 90 13:41 25.07.2019
4706 Mist 14 1028 77 9656 2.1 90 13:23 25.07.2019
4707 Clouds 14 1028 77 9656 2.1 60 12:39 25.07.2019
4708 Clouds 14 1028 77 9656 2.1 60 12:20 25.07.2019
4709 Clouds 14 1028 77 11265 2.1 50 11:41 25.07.2019
4710 Clouds 14 1028 77 11265 2.1 50 11:23 25.07.2019
4711 Clouds 14 1028 77 11265 2.1 50 11:23 25.07.2019
4712 Clouds 14 1028 77 11265 0.47 242.292 10:45 25.07.2019
4713 Clouds 14 1028 77 11265 0.47 242.292 10:25 25.07.2019
4714 Clouds 14 1029 77 11265 1.5 50 09:47 25.07.2019
4715 Clouds 14 1029 77 11265 1.5 50 09:28 25.07.2019
4716 Clouds 14 1029 72 11265 4.1 60 08:53 25.07.2019
4717 Clouds 14 1029 72 11265 4.1 60 08:33 25.07.2019
4718 Clouds 15 1030 63 11265 4.1 30 07:41 25.07.2019
4719 Clouds 15 1029 63 11265 2.1 360 06:50 25.07.2019
4720 Clouds 15 1029 63 11265 2.1 360 06:31 25.07.2019
4721 Clouds 15 1029 59 11265 3.6 70 05:36 25.07.2019
4722 Clouds 15 1028 59 11265 2.6 30 04:50 25.07.2019
4723 Clouds 16 1027 63 9656 2.6 310 03:24 25.07.2019
4724 Thunderstorm 18 1027 55 11265 2.1 180 01:21 25.07.2019
4725 Rain 18 1027 67 11265 4.1 80 00:34 25.07.2019
4726 Thunderstorm 19 1027 63 9656 7.7 110 23:56 24.07.2019
4727 Thunderstorm 19 1027 63 9656 7.7 110 23:38 24.07.2019
4728 Thunderstorm 19 1027 63 9656 7.7 110 23:20 24.07.2019
4729 Thunderstorm 19 1027 55 9656 8.2 110 22:44 24.07.2019
4730 Thunderstorm 19 1027 55 9656 8.2 110 22:22 24.07.2019
4731 Thunderstorm 20 1028 49 8047 3.1 80 21:55 24.07.2019
4732 Thunderstorm 20 1028 49 8047 3.1 80 21:37 24.07.2019
4733 Thunderstorm 20 1028 49 8047 3.1 80 21:18 24.07.2019
4734 Rain 20 1029 56 8047 2.1 10 20:45 24.07.2019
4735 Rain 20 1029 56 8047 2.1 10 20:26 24.07.2019
4736 Clouds 20 1030 59 8047 2.1 320 19:58 24.07.2019
4737 Clouds 20 1030 59 8047 2.1 320 19:39 24.07.2019
4738 Clouds 19 1030 59 8047 2.1 320 19:19 24.07.2019
4739 Clouds 18 1030 63 8047 3.1 110 18:43 24.07.2019
4740 Clouds 17 1030 72 8047 2.1 80 18:24 24.07.2019
4741 Fog 17 1030 68 8047 1.5 130 17:47 24.07.2019
4742 Fog 16 1030 77 9656 3.1 30 17:21 24.07.2019
4743 Mist 15 1029 82 9656 3.1 330 16:44 24.07.2019
4744 Mist 15 1029 82 9656 3.1 330 16:23 24.07.2019
4745 Fog 15 1029 82 8047 2.1 30 15:59 24.07.2019
4746 Fog 15 1029 82 8047 2.1 30 15:36 24.07.2019
4747 Fog 15 1029 82 8047 2.1 30 15:18 24.07.2019
4748 Fog 14 1029 77 9656 1.5 270 14:43 24.07.2019
4749 Clouds 14 1029 77 9656 1.5 270 14:19 24.07.2019
4750 Rain 13 1029 87 11265 2.1 220 13:39 24.07.2019
4751 Rain 13 1029 87 11265 2.1 220 13:19 24.07.2019
4752 Rain 13 1029 82 11265 3.1 210 12:51 24.07.2019
4753 Rain 13 1029 82 11265 3.1 210 12:51 24.07.2019
4754 Rain 14 1029 82 11265 3.1 210 12:33 24.07.2019
4755 Rain 14 1029 77 12874 2.6 220 11:41 24.07.2019
4756 Rain 14 1029 77 12874 2.6 220 11:21 24.07.2019
4757 Clouds 14 1029 77 16093 1 180 10:47 24.07.2019
4758 Clouds 14 1029 77 16093 1 180 10:26 24.07.2019
4759 Rain 14 1030 82 12874 5.1 240 09:52 24.07.2019
4760 Rain 14 1030 82 12874 5.1 240 09:26 24.07.2019
4761 Rain 15 1030 82 9656 5.1 230 08:59 24.07.2019
4762 Rain 15 1030 77 8047 2.6 220 08:35 24.07.2019
4763 Rain 14 1030 77 12874 2.1 230 07:52 24.07.2019
4764 Rain 14 1030 77 14484 3.1 240 07:31 24.07.2019
4765 Rain 14 1030 77 14484 3.1 240 07:31 24.07.2019
4766 Clouds 15 1030 77 12874 4.1 280 06:51 24.07.2019
4767 Clouds 15 1030 77 12874 4.1 280 06:27 24.07.2019
4768 Rain 15 1028 77 8047 5.1 270 04:45 24.07.2019
4769 Rain 21 1025 49 8047 5.7 290 01:47 24.07.2019
4770 Clouds 21 1025 43 11265 6.7 150 00:57 24.07.2019
4771 Clouds 21 1025 43 11265 6.7 150 00:30 24.07.2019
4772 Clouds 21 1026 43 9656 3.1 180 23:47 23.07.2019
4773 Clouds 21 1026 49 9656 4.1 110 23:26 23.07.2019
4774 Clouds 22 1027 37 9656 3.6 40 22:56 23.07.2019
4775 Clouds 22 1027 37 9656 3.6 40 22:36 23.07.2019
4776 Clouds 21 1027 37 9656 3.6 40 22:18 23.07.2019
4777 Clouds 20 1028 43 11265 4.1 80 21:44 23.07.2019
4778 Clouds 20 1028 43 11265 4.1 80 21:25 23.07.2019
4779 Clouds 22 1029 46 9656 4.6 20 20:49 23.07.2019
4780 Clouds 22 1029 46 9656 4.6 20 20:29 23.07.2019
4781 Clouds 21 1029 52 9656 2.1 60 19:43 23.07.2019
4782 Clouds 21 1029 52 9656 2.1 60 19:24 23.07.2019
4783 Clouds 20 1031 63 8047 1.5 200 18:56 23.07.2019
4784 Clouds 20 1031 63 8047 1.5 200 18:38 23.07.2019
4785 Clouds 20 1031 63 8047 1.5 200 18:19 23.07.2019
4786 Clouds 18 1030 63 9656 1 60 17:42 23.07.2019
4787 Clouds 18 1030 63 9656 1 60 17:20 23.07.2019
4788 Clouds 16 1030 77 9656 2.1 80 16:42 23.07.2019
4789 Clouds 16 1030 77 9656 2.1 80 16:24 23.07.2019
4790 Mist 14 1029 82 12874 3.1 70 15:48 23.07.2019
4791 Mist 14 1029 82 12874 3.1 70 15:48 23.07.2019
4792 Mist 14 1029 82 12874 3.1 70 15:29 23.07.2019
4793 Mist 14 1028 82 12874 2.6 60 14:54 23.07.2019
4794 Mist 12 1028 82 12874 2.6 60 14:36 23.07.2019
4795 Clouds 12 1028 82 12874 2.6 60 14:18 23.07.2019
4796 Clouds 13 1028 76 16093 2.6 80 13:42 23.07.2019
4797 Clouds 13 1028 76 16093 2.6 80 13:23 23.07.2019
4798 Clouds 13 1028 72 16093 2.1 320 12:54 23.07.2019
4799 Clouds 13 1028 72 16093 2.1 320 12:36 23.07.2019
4800 Clouds 13 1028 72 16093 2.1 320 12:18 23.07.2019
4801 Clouds 14 1028 67 16093 4.6 300 11:41 23.07.2019
4802 Clouds 14 1028 67 16093 4.6 300 11:20 23.07.2019
4803 Clouds 14 1029 63 16093 2.1 280 10:43 23.07.2019
4804 Clouds 14 1029 63 16093 2.1 280 10:22 23.07.2019
4805 Clouds 15 1029 63 16093 2.1 20 09:42 23.07.2019
4806 Clouds 15 1029 63 16093 2.1 20 09:20 23.07.2019
4807 Clouds 15 1029 63 19312 3.1 30 08:44 23.07.2019
4808 Clouds 15 1029 63 19312 3.1 30 08:20 23.07.2019
4809 Clouds 16 1029 55 19312 4.1 360 07:57 23.07.2019
4810 Clouds 16 1029 55 19312 4.1 360 07:37 23.07.2019
4811 Clouds 16 1028 55 19312 4.1 110 06:50 23.07.2019
4812 Clouds 16 1028 55 19312 4.1 110 06:50 23.07.2019
4813 Clouds 17 1028 55 19312 4.1 110 06:31 23.07.2019
4814 Clouds 17 1027 48 16093 1.5 210 04:26 23.07.2019
4815 Rain 22 1025 33 14484 8.2 360 01:37 23.07.2019
4816 Clouds 24 1025 38 12874 8.2 20 00:37 23.07.2019
4817 Clouds 23 1025 35 9656 3.1 340 00:18 23.07.2019
4818 Clouds 23 1025 35 9656 3.1 340 23:39 22.07.2019
4819 Clouds 23 1025 35 9656 3.1 340 23:19 22.07.2019
4820 Clouds 23 1026 38 9656 2.6 60 22:45 22.07.2019
4821 Clouds 23 1026 38 9656 2.6 60 22:22 22.07.2019
4822 Clouds 22 1027 40 9656 5.1 10 21:44 22.07.2019
4823 Clouds 22 1027 40 9656 5.1 10 21:23 22.07.2019
4824 Clouds 21 1028 43 9656 3.6 30 20:53 22.07.2019
4825 Clouds 21 1028 43 9656 3.6 30 20:33 22.07.2019
4826 Clouds 21 1028 43 11265 2.6 90 19:58 22.07.2019
4827 Clouds 20 1028 49 11265 4.1 70 19:40 22.07.2019
4828 Clouds 20 1028 49 11265 4.1 70 19:21 22.07.2019
4829 Haze 19 1029 52 11265 3.1 40 18:48 22.07.2019
4830 Haze 19 1029 52 11265 3.1 40 18:28 22.07.2019
4831 Haze 18 1029 55 9656 3.1 70 17:58 22.07.2019
4832 Mist 17 1028 63 9656 3.1 80 17:38 22.07.2019
4833 Mist 17 1028 63 9656 3.1 80 17:20 22.07.2019
4834 Mist 15 1028 67 9656 1.4 270.286 16:40 22.07.2019
4835 Mist 15 1028 67 9656 1.4 270.286 16:21 22.07.2019
4836 Mist 15 1028 67 9656 1.4 270.286 16:21 22.07.2019
4837 Mist 13 1028 71 11265 1.5 110 15:44 22.07.2019
4838 Mist 13 1028 71 11265 1.5 110 15:21 22.07.2019
4839 Mist 13 1028 71 11265 1.5 110 14:44 22.07.2019
4840 Mist 12 1028 71 11265 1.5 110 14:26 22.07.2019
4841 Mist 13 1027 71 12874 2.6 120 13:52 22.07.2019
4842 Mist 13 1027 71 12874 2.6 120 13:33 22.07.2019
4843 Mist 13 1027 71 12874 2.1 100 12:56 22.07.2019
4844 Mist 13 1027 71 12874 2.1 100 12:36 22.07.2019
4845 Mist 14 1027 72 12874 2.1 100 11:57 22.07.2019
4846 Mist 14 1027 72 12874 2.1 100 11:39 22.07.2019
4847 Mist 14 1027 72 12874 2.1 100 11:20 22.07.2019
4848 Clouds 14 1028 72 12874 2.6 60 10:38 22.07.2019
4849 Clouds 14 1028 72 12874 2.6 60 10:20 22.07.2019
4850 Rain 14 1028 72 14484 3.1 60 09:40 22.07.2019
4851 Rain 14 1028 72 14484 3.1 60 09:21 22.07.2019
4852 Rain 14 1029 67 12874 2.1 80 08:40 22.07.2019
4853 Rain 14 1029 67 12874 2.1 80 08:22 22.07.2019
4854 Clouds 15 1029 59 14484 1.5 90 07:53 22.07.2019
4855 Clouds 15 1029 59 14484 1.5 90 07:31 22.07.2019
4856 Rain 15 1028 59 14484 2.6 180 05:51 22.07.2019
4857 Rain 16 1027 52 12874 1.5 30 03:46 22.07.2019
4858 Clouds 19 1026 59 12874 5.1 10 01:49 22.07.2019
4859 Clouds 20 1025 52 12874 5.7 260 00:50 22.07.2019
4860 Clouds 21 1025 43 16093 6.2 210 00:22 22.07.2019
4861 Clouds 22 1025 46 16093 7.2 170 23:51 21.07.2019
4862 Clouds 23 1025 33 16093 5.1 130 23:23 21.07.2019
4863 Clouds 23 1026 41 16093 5.1 60 22:41 21.07.2019
4864 Clouds 23 1026 41 16093 5.1 60 22:21 21.07.2019
4865 Clouds 24 1027 35 19312 4.6 90 21:56 21.07.2019
4866 Clouds 23 1027 35 19312 4.6 90 21:36 21.07.2019
4867 Clouds 23 1027 35 19312 4.6 90 21:18 21.07.2019
4868 Clouds 22 1028 43 19312 2.6 110 20:41 21.07.2019
4869 Clouds 22 1028 43 19312 2.6 110 20:23 21.07.2019
4870 Clouds 21 1028 43 19312 2.55 193.53 19:53 21.07.2019
4871 Clouds 20 1028 49 19312 1.5 140 19:29 21.07.2019
4872 Clouds 19 1028 49 19312 2.55 193.53 18:56 21.07.2019
4873 Clouds 19 1028 59 19312 3.6 100 18:37 21.07.2019
4874 Clouds 19 1028 59 19312 3.6 100 18:37 21.07.2019
4875 Clouds 18 1028 59 19312 3.6 100 18:19 21.07.2019
4876 Haze 17 1031 72 4828 3.6 100 17:40 21.07.2019
4877 Haze 17 1029 63 11265 1.5 140 17:19 21.07.2019
4878 Mist 15 1029 72 11265 4.6 130 16:42 21.07.2019
4879 Mist 15 1029 72 11265 4.6 130 16:24 21.07.2019
4880 Mist 14 1028 72 11265 2.6 100 15:45 21.07.2019
4881 Mist 14 1028 72 11265 2.6 100 15:24 21.07.2019
4882 Mist 14 1028 77 12874 1.5 100 14:54 21.07.2019
4883 Mist 14 1028 77 12874 1.5 100 14:26 21.07.2019
4884 Clouds 12 1027 87 12874 3.6 70 13:59 21.07.2019
4885 Clouds 13 1027 87 12874 3.6 70 13:40 21.07.2019
4886 Clouds 13 1027 87 12874 3.6 70 13:20 21.07.2019
4887 Clouds 14 1028 77 16093 1.23 184.096 12:41 21.07.2019
4888 Clouds 14 1028 77 16093 0.68 173.137 12:22 21.07.2019
4889 Clouds 14 1028 77 19312 1.5 260 11:46 21.07.2019
4890 Clouds 14 1028 77 19312 1.5 260 11:27 21.07.2019
4891 Mist 14 1028 67 19312 3.6 230 10:47 21.07.2019
4892 Mist 14 1028 67 19312 3.6 230 10:25 21.07.2019
4893 Mist 14 1028 67 19312 2.6 320 09:55 21.07.2019
4894 Mist 14 1028 67 19312 2.6 320 09:36 21.07.2019
4895 Clouds 15 1028 72 16093 4.1 330 08:49 21.07.2019
4896 Clouds 15 1028 72 16093 4.1 330 08:30 21.07.2019
4897 Clouds 15 1028 67 16093 4.6 290 07:56 21.07.2019
4898 Clouds 15 1028 67 16093 4.6 290 07:19 21.07.2019
4899 Thunderstorm 15 1027 59 12874 4.1 260 06:34 21.07.2019
4900 Thunderstorm 17 1025 68 11265 0.5 20.061 03:51 21.07.2019
4901 Clouds 22 1024 35 9656 2.6 100 01:53 21.07.2019
4902 Clouds 21 1024 38 8047 4.6 60 00:47 21.07.2019
4903 Clouds 22 1024 38 8047 4.6 60 00:21 21.07.2019
4904 Clouds 22 1025 38 8047 3.6 70 23:45 20.07.2019
4905 Clouds 22 1025 38 8047 3.6 70 23:25 20.07.2019
4906 Clouds 23 1025 40 8047 2.6 70 22:55 20.07.2019
4907 Clouds 23 1025 40 8047 2.6 70 22:37 20.07.2019
4908 Clouds 23 1025 40 8047 2.6 70 22:18 20.07.2019
4909 Clouds 22 1026 43 9656 2.6 100 21:40 20.07.2019
4910 Clouds 22 1026 43 9656 2.6 100 21:22 20.07.2019
4911 Haze 22 1027 46 9656 3.6 80 20:43 20.07.2019
4912 Haze 22 1027 46 9656 3.6 80 20:22 20.07.2019
4913 Haze 22 1027 49 9656 2.1 320 19:49 20.07.2019
4914 Haze 20 1027 55 8047 2.1 80 19:26 20.07.2019
4915 Haze 19 1028 63 8047 1.5 240 18:46 20.07.2019
4916 Haze 19 1028 63 8047 1.5 240 18:24 20.07.2019
4917 Haze 18 1028 63 8047 1.5 320 17:56 20.07.2019
4918 Haze 18 1028 63 8047 1.5 320 17:26 20.07.2019
4919 Mist 17 1028 77 8047 1.5 50 16:46 20.07.2019
4920 Mist 16 1028 82 8047 2.6 80 16:28 20.07.2019
4921 Mist 15 1027 87 6437 2.1 80 15:59 20.07.2019
4922 Mist 15 1027 87 6437 2.1 80 15:41 20.07.2019
4923 Mist 15 1027 87 6437 2.1 80 15:21 20.07.2019
4924 Fog 14 1027 82 8047 0.75 173.677 14:49 20.07.2019
4925 Fog 14 1027 82 8047 0.75 173.677 14:29 20.07.2019
4926 Mist 13 1027 82 9656 2.6 280 13:57 20.07.2019
4927 Mist 13 1027 82 9656 2.6 280 13:37 20.07.2019
4928 Mist 13 1027 82 9656 2.6 280 13:19 20.07.2019
4929 Mist 13 1027 82 9656 2.6 290 12:48 20.07.2019
4930 Mist 13 1027 82 9656 2.6 290 12:19 20.07.2019
4931 Fog 14 1027 82 11265 1.06 208.473 11:43 20.07.2019
4932 Fog 14 1027 82 11265 1.06 208.473 11:20 20.07.2019
4933 Mist 12 1027 82 12874 1.06 208.473 10:41 20.07.2019
4934 Mist 14 1027 82 12874 1.06 208.473 10:22 20.07.2019
4935 Clouds 14 1027 77 12874 2.1 360 09:47 20.07.2019
4936 Clouds 14 1027 77 12874 2.1 360 09:25 20.07.2019
4937 Clouds 14 1028 77 12874 2.6 320 08:49 20.07.2019
4938 Clouds 14 1028 77 12874 2.6 320 08:23 20.07.2019
4939 Clouds 13 1028 77 12874 3.1 280 07:35 20.07.2019
4940 Clouds 15 1027 77 11265 4.1 300 06:46 20.07.2019
4941 Clouds 14 1027 77 11265 5.1 300 05:24 20.07.2019
4942 Thunderstorm 14 1026 82 11265 6.7 290 04:31 20.07.2019
4943 Thunderstorm 21 1024 52 11265 3.6 190 01:30 20.07.2019
4944 Thunderstorm 21 1024 52 11265 3.6 190 01:30 20.07.2019
4945 Thunderstorm 21 1024 46 11265 6.7 130 00:52 20.07.2019
4946 Clouds 20 1024 49 11265 7.7 120 00:33 20.07.2019
4947 Clouds 23 1025 40 11265 3.6 360 23:57 19.07.2019
4948 Clouds 23 1025 40 11265 3.6 360 23:39 19.07.2019
4949 Clouds 23 1025 40 11265 3.6 360 23:20 19.07.2019
4950 Rain 22 1026 46 11265 5.1 60 22:41 19.07.2019
4951 Rain 22 1026 46 11265 5.1 60 22:20 19.07.2019
4952 Rain 22 1026 46 11265 5.1 60 22:20 19.07.2019
4953 Rain 21 1027 43 11265 4.6 60 21:43 19.07.2019
4954 Rain 21 1027 43 11265 4.6 60 21:25 19.07.2019
4955 Rain 21 1029 63 4828 5.7 120 20:44 19.07.2019
4956 Clouds 22 1028 56 8047 1.5 70 20:25 19.07.2019
4957 Clouds 21 1028 60 9656 3.6 80 19:40 19.07.2019
4958 Clouds 21 1028 60 9656 3.6 80 19:19 19.07.2019
4959 Clouds 20 1028 59 9656 3.1 90 18:41 19.07.2019
4960 Clouds 20 1028 59 9656 3.1 90 18:20 19.07.2019
4961 Clouds 18 1028 72 9656 2.1 100 17:47 19.07.2019
4962 Clouds 18 1028 72 9656 2.6 80 17:26 19.07.2019
4963 Clouds 16 1028 77 9656 2.6 10 16:48 19.07.2019
4964 Clouds 16 1028 77 9656 2.6 10 16:26 19.07.2019
4965 Clouds 15 1029 81 8047 0.98 78.517 15:50 19.07.2019
4966 Clouds 15 1027 82 12874 1.5 190 15:30 19.07.2019
4967 Clouds 14 1027 87 9656 2.6 200 14:56 19.07.2019
4968 Clouds 14 1027 87 9656 2.6 200 14:38 19.07.2019
4969 Clouds 14 1027 87 9656 2.6 200 14:20 19.07.2019
4970 Clouds 13 1027 87 11265 1.43 256.691 13:43 19.07.2019
4971 Clouds 13 1027 87 11265 1.43 256.691 13:43 19.07.2019
4972 Clouds 13 1027 87 11265 0.6 158.735 13:24 19.07.2019
4973 Clouds 13 1027 87 12874 1.5 100 12:54 19.07.2019
4974 Clouds 13 1027 87 12874 1.5 100 12:30 19.07.2019
4975 Rain 13 1027 87 16093 1.21 233.395 11:58 19.07.2019
4976 Rain 13 1027 87 16093 1.21 233.395 11:39 19.07.2019
4977 Rain 13 1027 87 16093 1.21 233.395 11:18 19.07.2019
4978 Rain 13 1028 87 19312 2.6 70 10:40 19.07.2019
4979 Rain 13 1028 87 19312 2.6 70 10:21 19.07.2019
4980 Rain 13 1028 87 19312 2.6 70 10:21 19.07.2019
4981 Rain 13 1028 87 16093 1.21 233.395 09:44 19.07.2019
4982 Rain 13 1028 87 16093 1.76 169.292 09:22 19.07.2019
4983 Rain 13 1029 87 11265 2.1 260 08:57 19.07.2019
4984 Rain 13 1029 93 8047 4.6 260 08:39 19.07.2019
4985 Rain 13 1030 93 6437 3.1 240 07:43 19.07.2019
4986 Rain 13 1030 93 6437 3.1 240 07:25 19.07.2019
4987 Thunderstorm 14 1028 87 4828 3.6 270 05:55 19.07.2019
4988 Thunderstorm 20 1024 63 8047 6.7 350 02:23 19.07.2019
4989 Clouds 23 1025 40 8047 2.6 80 00:59 19.07.2019
4990 Clouds 23 1025 40 8047 2.6 80 00:26 19.07.2019
4991 Clouds 23 1027 38 8047 5.1 100 23:43 18.07.2019
4992 Clouds 23 1027 38 8047 5.1 100 23:23 18.07.2019
4993 Clouds 23 1027 38 8047 5.1 50 22:59 18.07.2019
4994 Clouds 23 1027 38 8047 5.1 50 22:39 18.07.2019
4995 Clouds 23 1027 38 8047 5.1 50 22:18 18.07.2019
4996 Clouds 23 1028 46 8047 4.6 80 21:41 18.07.2019
4997 Clouds 23 1028 46 8047 4.6 80 21:22 18.07.2019
4998 Clouds 22 1028 49 6437 4.6 80 20:49 18.07.2019
4999 Clouds 22 1028 49 6437 4.6 80 20:28 18.07.2019
5000 Clouds 21 1028 49 6437 1.5 110 19:53 18.07.2019
5001 Clouds 21 1029 59 6437 2.6 100 19:31 18.07.2019
5002 Haze 19 1029 63 4828 2.6 90 18:57 18.07.2019
5003 Haze 19 1029 63 4828 2.6 90 18:37 18.07.2019
5004 Haze 19 1029 63 4828 2.6 90 18:19 18.07.2019
5005 Clouds 18 1029 68 6437 2.1 100 17:42 18.07.2019
5006 Haze 16 1029 72 8047 1.16 48.926 17:23 18.07.2019
5007 Haze 16 1029 72 8047 3.1 290 16:53 18.07.2019
5008 Haze 16 1029 72 8047 3.1 290 16:29 18.07.2019
5009 Clouds 15 1029 77 9656 3.1 280 15:58 18.07.2019
5010 Clouds 15 1029 77 9656 3.1 280 15:37 18.07.2019
5011 Clouds 14 1028 77 11265 3.1 270 15:19 18.07.2019
5012 Clouds 14 1028 77 11265 3.1 270 14:42 18.07.2019
5013 Clouds 14 1028 77 11265 3.1 270 14:23 18.07.2019
5014 Clouds 12 1028 82 11265 1.5 90 13:43 18.07.2019
5015 Clouds 12 1028 82 11265 1.5 90 13:22 18.07.2019
5016 Clouds 13 1028 62 12874 2.1 80 12:48 18.07.2019
5017 Clouds 13 1028 62 12874 2.1 80 12:21 18.07.2019
5018 Clouds 13 1028 67 12874 2.6 40 11:52 18.07.2019
5019 Clouds 13 1028 67 12874 2.6 40 11:34 18.07.2019
5020 Clouds 13 1028 55 12874 1 230 10:58 18.07.2019
5021 Clouds 13 1028 55 12874 1 230 10:38 18.07.2019
5022 Clouds 13 1029 72 12874 2.1 250 09:48 18.07.2019
5023 Clouds 13 1029 72 12874 2.1 250 09:25 18.07.2019
5024 Clouds 14 1029 67 12874 3.1 280 08:50 18.07.2019
5025 Clouds 14 1029 67 12874 3.1 280 08:21 18.07.2019
5026 Clouds 14 1029 67 12874 4.1 280 07:48 18.07.2019
5027 Clouds 17 1029 67 12874 4.1 280 07:27 18.07.2019
5028 Clouds 15 1028 63 12874 3.6 270 06:40 18.07.2019
5029 Clouds 17 1028 59 12874 4.1 250 05:36 18.07.2019
5030 Clouds 20 1026 49 14484 4.1 250 03:23 18.07.2019
5031 Clouds 21 1026 43 12874 3.6 130 01:52 18.07.2019
5032 Clouds 21 1029 77 8047 4.6 150 01:18 18.07.2019
5033 Clouds 21 1029 82 8047 3.6 180 23:54 17.07.2019
5034 Rain 20 1027 49 11265 5.1 140 23:20 17.07.2019
5035 Mist 20 1030 82 4828 5.1 40 22:58 17.07.2019
5036 Rain 20 1028 49 11265 4.6 120 22:39 17.07.2019
5037 Rain 20 1028 49 11265 4.6 120 22:20 17.07.2019
5038 Rain 20 1029 49 12874 4.1 100 21:45 17.07.2019
5039 Rain 20 1029 49 12874 4.1 100 21:26 17.07.2019
5040 Rain 20 1028 82 3219 3.1 90 20:58 17.07.2019
5041 Thunderstorm 21 1029 43 12874 3.1 60 20:39 17.07.2019
5042 Thunderstorm 21 1029 43 12874 3.1 60 20:21 17.07.2019
5043 Clouds 21 1029 52 11265 3.6 50 19:44 17.07.2019
5044 Clouds 20 1029 52 11265 3.6 50 19:23 17.07.2019
5045 Clouds 19 1029 67 11265 2.6 80 18:59 17.07.2019
5046 Clouds 20 1029 67 11265 2.6 80 18:40 17.07.2019
5047 Clouds 19 1029 67 11265 2.6 80 18:20 17.07.2019
5048 Clouds 17 1029 72 11265 2.1 80 17:50 17.07.2019
5049 Clouds 17 1029 72 11265 2.1 80 17:26 17.07.2019
5050 Haze 16 1029 72 12874 2.6 50 16:55 17.07.2019
5051 Haze 16 1029 72 12874 2.6 50 16:37 17.07.2019
5052 Haze 14 1029 72 12874 2.1 200 16:18 17.07.2019
5053 Haze 14 1029 72 12874 2.1 200 15:44 17.07.2019
5054 Haze 14 1029 72 12874 2.1 200 15:25 17.07.2019
5055 Clouds 14 1029 76 12874 1.5 140 14:54 17.07.2019
5056 Clouds 14 1029 76 12874 1.5 140 14:36 17.07.2019
5057 Clouds 12 1029 76 16093 3.6 80 14:18 17.07.2019
5058 Clouds 12 1029 76 16093 3.6 80 13:40 17.07.2019
5059 Clouds 12 1028 72 16093 2.1 330 13:20 17.07.2019
5060 Clouds 13 1028 72 16093 2.1 330 12:40 17.07.2019
5061 Clouds 13 1028 72 16093 4.6 280 12:20 17.07.2019
5062 Clouds 13 1028 72 16093 4.6 280 11:45 17.07.2019
5063 Clouds 13 1028 72 16093 4.6 280 11:45 17.07.2019
5064 Clouds 13 1028 72 16093 4.6 280 11:21 17.07.2019
5065 Clouds 13 1028 72 19312 2.6 310 10:50 17.07.2019
5066 Clouds 13 1028 72 19312 2.6 310 10:29 17.07.2019
5067 Clouds 14 1029 67 19312 4.6 270 09:58 17.07.2019
5068 Clouds 14 1029 67 19312 4.6 270 09:39 17.07.2019
5069 Clouds 13 1031 81 9656 0.47 334.411 09:20 17.07.2019
5070 Clouds 14 1029 63 19312 1.5 350 08:41 17.07.2019
5071 Clouds 15 1029 63 19312 1.5 350 08:22 17.07.2019
5072 Clouds 15 1028 63 19312 4.6 350 07:48 17.07.2019
5073 Clouds 16 1028 63 19312 4.6 350 07:23 17.07.2019
5074 Clouds 16 1028 52 19312 4.1 340 06:49 17.07.2019
5075 Clouds 16 1028 52 19312 4.1 340 06:29 17.07.2019
5076 Clouds 16 1028 59 19312 3.6 280 05:47 17.07.2019
5077 Clouds 17 1028 59 19312 3.6 280 05:25 17.07.2019
5078 Rain 16 1027 67 12874 5.1 220 04:37 17.07.2019
5079 Clouds 21 1028 71 11265 6.2 50 02:56 17.07.2019
5080 Rain 24 1025 40 16093 7.2 40 01:59 17.07.2019
5081 Clouds 24 1025 38 16093 9.3 10 01:25 17.07.2019
5082 Clouds 25 1025 27 16093 5.7 30 00:48 17.07.2019
5083 Clouds 25 1025 27 16093 5.7 30 00:24 17.07.2019
5084 Clouds 25 1026 25 16093 3.6 350 23:58 16.07.2019
5085 Clouds 25 1026 25 16093 3.6 350 23:30 16.07.2019
5086 Clouds 25 1027 31 12874 5.1 50 22:59 16.07.2019
5087 Clouds 25 1027 31 12874 5.1 50 22:40 16.07.2019
5088 Clouds 24 1028 38 12874 2.6 360 22:20 16.07.2019
5089 Clouds 23 1028 38 12874 2.6 360 21:45 16.07.2019
5090 Haze 23 1029 38 12874 3.1 40 21:21 16.07.2019
5091 Haze 23 1029 38 12874 3.1 40 20:58 16.07.2019
5092 Haze 23 1029 38 12874 3.1 40 20:39 16.07.2019
5093 Haze 22 1029 46 11265 3.1 50 20:20 16.07.2019
5094 Haze 21 1029 46 11265 3.1 50 19:50 16.07.2019
5095 Haze 21 1029 46 11265 3.1 50 19:27 16.07.2019
5096 Mist 20 1029 52 9656 3.1 220 18:56 16.07.2019
5097 Mist 20 1029 52 9656 3.1 220 18:37 16.07.2019
5098 Mist 18 1029 68 9656 1.5 160 18:19 16.07.2019
5099 Mist 18 1029 68 9656 1.5 160 17:40 16.07.2019
5100 Fog 17 1029 77 9656 1.5 90 17:20 16.07.2019
5101 Fog 17 1029 77 9656 1.5 90 16:43 16.07.2019
5102 Mist 15 1029 77 9656 2.1 30 16:21 16.07.2019
5103 Mist 14 1028 87 9656 3.1 90 15:42 16.07.2019
5104 Mist 14 1028 87 9656 3.1 90 15:21 16.07.2019
5105 Mist 14 1028 77 8047 2.6 320 14:58 16.07.2019
5106 Mist 14 1028 77 8047 2.6 320 14:40 16.07.2019
5107 Mist 13 1027 77 8047 2.6 300 14:22 16.07.2019
5108 Mist 13 1027 77 8047 2.6 300 13:45 16.07.2019
5109 Mist 13 1027 77 8047 2.6 300 13:24 16.07.2019
5110 Mist 13 1027 77 9656 3.6 280 12:54 16.07.2019
5111 Mist 13 1027 77 9656 3.6 280 12:36 16.07.2019
5112 Clouds 14 1028 77 11265 3.1 300 12:18 16.07.2019
5113 Clouds 14 1028 77 11265 3.1 300 11:42 16.07.2019
5114 Clouds 14 1028 77 11265 4.1 300 11:22 16.07.2019
5115 Clouds 14 1028 77 11265 4.1 300 10:47 16.07.2019
5116 Clouds 14 1028 72 11265 2.1 250 10:22 16.07.2019
5117 Clouds 14 1028 72 11265 2.1 250 09:59 16.07.2019
5118 Clouds 14 1028 72 11265 2.1 250 09:40 16.07.2019
5119 Clouds 14 1028 67 12874 2.6 310 09:19 16.07.2019
5120 Clouds 14 1028 67 12874 2.6 310 08:42 16.07.2019
5121 Clouds 14 1028 67 12874 2.6 310 08:20 16.07.2019
5122 Clouds 15 1029 67 12874 4.1 280 07:42 16.07.2019
5123 Clouds 15 1029 67 12874 4.1 280 07:24 16.07.2019
5124 Clouds 16 1028 68 12874 5.7 300 06:48 16.07.2019
5125 Clouds 16 1027 68 12874 4.6 280 06:27 16.07.2019
5126 Thunderstorm 15 1027 82 9656 5.1 280 05:37 16.07.2019
5127 Thunderstorm 14 1026 82 6437 6.2 310 05:18 16.07.2019
5128 Thunderstorm 18 1025 49 11265 5.1 300 03:57 16.07.2019
5129 Thunderstorm 21 1024 46 12874 5.1 80 03:21 16.07.2019
5130 Thunderstorm 20 1024 46 12874 5.1 80 02:31 16.07.2019
5131 Thunderstorm 22 1024 38 11265 7.2 90 01:49 16.07.2019
5132 Clouds 25 1023 27 11265 6.2 10 00:47 16.07.2019
5133 Clouds 25 1024 38 11265 4.1 10 00:22 16.07.2019
5134 Clouds 24 1024 38 11265 4.1 10 23:53 15.07.2019
5135 Clouds 25 1024 38 11265 4.1 10 23:34 15.07.2019
5136 Clouds 25 1025 47 9656 3.1 40 22:49 15.07.2019
5137 Clouds 24 1025 47 9656 3.1 40 22:23 15.07.2019
5138 Clouds 24 1026 46 9656 2.6 310 21:59 15.07.2019
5139 Clouds 23 1026 46 9656 2.6 310 21:41 15.07.2019
5140 Clouds 23 1027 53 9656 3.1 30 21:20 15.07.2019
5141 Clouds 23 1027 53 9656 3.1 30 20:57 15.07.2019
5142 Clouds 22 1027 53 9656 3.1 30 20:38 15.07.2019
5143 Clouds 21 1028 56 8047 2.1 120 20:19 15.07.2019
5144 Clouds 21 1028 56 8047 2.1 120 19:40 15.07.2019
5145 Haze 20 1028 64 8047 2.1 60 19:21 15.07.2019
5146 Haze 20 1028 64 8047 2.1 60 18:55 15.07.2019
5147 Haze 20 1028 64 8047 2.1 60 18:36 15.07.2019
5148 Haze 19 1028 72 9656 2.1 60 18:18 15.07.2019
5149 Haze 19 1028 72 9656 2.1 60 17:42 15.07.2019
5150 Mist 17 1030 76 3219 1 50 17:23 15.07.2019
5151 Mist 16 1030 76 3219 1 50 16:59 15.07.2019
5152 Mist 16 1030 76 3219 1 50 16:38 15.07.2019
5153 Mist 15 1028 87 9656 1.5 50 16:20 15.07.2019
5154 Mist 14 1028 87 9656 1.5 50 15:45 15.07.2019
5155 Mist 14 1028 87 9656 1.5 50 15:27 15.07.2019
5156 Mist 15 1027 82 9656 2.1 270 14:59 15.07.2019
5157 Mist 15 1027 82 9656 2.1 270 14:40 15.07.2019
5158 Mist 12 1029 93 3219 2.1 60 14:21 15.07.2019
5159 Mist 14 1027 87 12874 1.5 360 13:48 15.07.2019
5160 Mist 13 1029 93 3219 0.73 152.554 13:21 15.07.2019
5161 Mist 14 1027 87 16093 0.73 152.554 12:57 15.07.2019
5162 Mist 14 1027 87 16093 0.73 152.554 12:37 15.07.2019
5163 Mist 13 1029 93 4828 0.17 164.191 12:18 15.07.2019
5164 Mist 14 1027 77 16093 1.5 260 11:41 15.07.2019
5165 Mist 14 1027 77 16093 1.5 260 11:41 15.07.2019
5166 Clouds 14 1027 77 16093 1.5 250 11:20 15.07.2019
5167 Clouds 14 1027 77 16093 1.5 250 10:43 15.07.2019
5168 Clouds 14 1027 77 16093 1.5 250 10:24 15.07.2019
5169 Clouds 14 1027 77 16093 1.5 250 10:24 15.07.2019
5170 Clouds 14 1027 77 16093 2.1 300 09:43 15.07.2019
5171 Clouds 14 1027 77 16093 2.1 300 09:23 15.07.2019
5172 Clouds 14 1028 82 16093 2.1 100 08:47 15.07.2019
5173 Clouds 14 1028 82 16093 2.1 100 08:27 15.07.2019
5174 Clouds 15 1027 77 12874 1.5 40 07:55 15.07.2019
5175 Clouds 15 1027 77 12874 1.5 40 07:33 15.07.2019
5176 Clouds 15 1027 82 12874 1.5 240 06:48 15.07.2019
5177 Clouds 15 1027 82 12874 1.5 240 06:30 15.07.2019
5178 Thunderstorm 15 1027 77 11265 1.5 250 05:43 15.07.2019
5179 Mist 16 1027 68 11265 4.1 270 04:52 15.07.2019
5180 Mist 16 1027 68 11265 4.1 270 04:34 15.07.2019
5181 Thunderstorm 18 1026 77 8047 5.1 30 03:29 15.07.2019
5182 Thunderstorm 19 1025 72 11265 5.1 60 02:25 15.07.2019
5183 Clouds 22 1025 60 9656 7.2 10 01:37 15.07.2019
5184 Clouds 23 1024 49 9656 6.2 360 00:54 15.07.2019
5185 Clouds 23 1024 49 9656 6.2 360 00:28 15.07.2019
5186 Thunderstorm 23 1024 53 9656 7.2 190 23:59 14.07.2019
5187 Thunderstorm 23 1025 46 9656 5.7 100 23:40 14.07.2019
5188 Thunderstorm 24 1025 46 9656 5.7 100 23:20 14.07.2019
5189 Clouds 24 1026 38 9656 3.1 360 23:20 14.07.2019
5190 Clouds 24 1026 38 9656 3.1 360 22:57 14.07.2019
5191 Clouds 24 1026 38 9656 3.1 360 22:38 14.07.2019
5192 Thunderstorm 24 1027 43 9656 1.5 320 22:20 14.07.2019
5193 Thunderstorm 23 1027 43 9656 1.5 320 21:43 14.07.2019
5194 Clouds 22 1028 53 8047 2.6 80 21:19 14.07.2019
5195 Clouds 22 1028 53 8047 2.6 80 21:19 14.07.2019
5196 Clouds 22 1028 53 8047 2.6 80 20:58 14.07.2019
5197 Clouds 22 1028 53 8047 2.6 80 20:38 14.07.2019
5198 Haze 22 1028 53 8047 2.6 80 20:20 14.07.2019
5199 Haze 21 1028 56 8047 1.65 53.797 19:47 14.07.2019
5200 Haze 21 1028 56 8047 1.65 53.797 19:28 14.07.2019
5201 Haze 20 1029 64 8047 2.6 120 18:58 14.07.2019
5202 Haze 20 1029 64 8047 2.6 120 18:40 14.07.2019
5203 Haze 20 1029 64 8047 2.6 120 18:21 14.07.2019
5204 Mist 18 1028 72 8047 3.1 360 17:57 14.07.2019
5205 Fog 17 1030 93 805 0.26 242.363 17:23 14.07.2019
5206 Fog 16 1030 93 805 0.26 242.363 16:53 14.07.2019
5207 Fog 16 1030 93 402 1.5 210 16:25 14.07.2019
5208 Fog 15 1028 82 8047 2.6 80 15:57 14.07.2019
5209 Fog 15 1028 82 8047 2.6 80 15:35 14.07.2019
5210 Fog 15 1027 87 9656 2.1 50 14:56 14.07.2019
5211 Fog 15 1027 87 9656 2.1 50 14:37 14.07.2019
5212 Fog 13 1027 87 9656 2.1 80 14:18 14.07.2019
5213 Fog 13 1027 87 9656 2.1 80 13:44 14.07.2019
5214 Fog 13 1027 87 9656 2.1 80 13:21 14.07.2019
5215 Fog 14 1026 82 11265 0.53 85.461 12:43 14.07.2019
5216 Fog 13 1026 82 11265 0.17 237.995 12:22 14.07.2019
5217 Fog 14 1026 77 12874 2.6 270 11:57 14.07.2019
5218 Fog 14 1026 77 12874 2.6 270 11:38 14.07.2019
5219 Mist 14 1026 77 12874 3.1 300 11:19 14.07.2019
5220 Mist 14 1026 77 12874 3.1 300 10:42 14.07.2019
5221 Mist 14 1027 77 12874 0.17 237.995 10:19 14.07.2019
5222 Mist 15 1027 77 12874 0.17 237.995 09:44 14.07.2019
5223 Mist 15 1027 77 12874 0.68 70.922 09:24 14.07.2019
5224 Mist 15 1027 72 16093 2.6 350 08:45 14.07.2019
5225 Mist 15 1027 68 16093 3.1 300 08:20 14.07.2019
5226 Mist 16 1027 68 16093 3.1 300 07:39 14.07.2019
5227 Clouds 16 1027 68 16093 2.6 280 06:58 14.07.2019
5228 Clouds 16 1026 68 16093 3.6 290 05:45 14.07.2019
5229 Thunderstorm 15 1025 67 12874 3.6 260 03:48 14.07.2019
5230 Thunderstorm 18 1025 72 12874 5.7 260 03:30 14.07.2019
5231 Thunderstorm 18 1025 72 12874 5.7 260 02:41 14.07.2019
5232 Thunderstorm 18 1025 72 12874 5.7 260 02:22 14.07.2019
5233 Thunderstorm 20 1024 60 9656 6.7 30 01:34 14.07.2019
5234 Thunderstorm 22 1024 60 9656 7.7 50 00:57 14.07.2019
5235 Thunderstorm 22 1024 60 9656 7.7 50 00:39 14.07.2019
5236 Clouds 22 1024 43 12874 8.2 50 00:19 14.07.2019
5237 Clouds 23 1024 46 12874 5.7 80 23:45 13.07.2019
5238 Clouds 23 1024 46 12874 5.7 80 23:25 13.07.2019
5239 Rain 23 1024 44 11265 2.1 120 22:55 13.07.2019
5240 Rain 23 1024 44 11265 2.1 120 22:37 13.07.2019
5241 Clouds 23 1024 44 11265 2.1 110 22:18 13.07.2019
5242 Clouds 22 1025 46 9656 1.5 300 21:42 13.07.2019
5243 Clouds 22 1026 52 11265 2.6 60 21:19 13.07.2019
5244 Clouds 21 1026 52 11265 2.6 60 20:42 13.07.2019
5245 Clouds 21 1026 52 11265 2.6 60 20:24 13.07.2019
5246 Haze 20 1027 60 12874 1.5 70 19:45 13.07.2019
5247 Haze 20 1027 60 12874 1.5 70 19:26 13.07.2019
5248 Haze 19 1027 63 11265 2.1 230 18:44 13.07.2019
5249 Mist 17 1027 77 9656 1.41 204.074 18:21 13.07.2019
5250 Mist 17 1027 77 9656 1.41 204.074 17:39 13.07.2019
5251 Mist 17 1027 77 9656 1.41 204.074 17:20 13.07.2019
5252 Rain 16 1027 87 6437 1.41 204.074 16:56 13.07.2019
5253 Rain 16 1027 87 6437 1.41 204.074 16:37 13.07.2019
5254 Haze 15 1027 87 4828 1.41 204.074 16:19 13.07.2019
5255 Rain 15 1027 93 4023 1.5 160 15:42 13.07.2019
5256 Rain 15 1027 93 4023 1.5 160 15:20 13.07.2019
5257 Rain 14 1026 100 4023 0.36 147.142 14:42 13.07.2019
5258 Rain 14 1026 100 4023 0.36 147.142 14:22 13.07.2019
5259 Clouds 14 1025 87 11265 2.6 60 13:46 13.07.2019
5260 Clouds 15 1025 87 11265 2.6 60 13:24 13.07.2019
5261 Clouds 15 1025 87 12874 2.1 80 12:56 13.07.2019
5262 Clouds 15 1025 87 12874 2.1 80 12:36 13.07.2019
5263 Clouds 15 1025 82 12874 2.1 50 12:18 13.07.2019
5264 Clouds 15 1025 82 12874 2.1 50 11:39 13.07.2019
5265 Clouds 15 1026 82 12874 2.1 80 11:19 13.07.2019
5266 Clouds 15 1026 82 12874 2.1 80 10:42 13.07.2019
5267 Clouds 15 1026 82 12874 2.1 80 10:23 13.07.2019
5268 Clouds 15 1026 82 12874 0.55 206.935 09:52 13.07.2019
5269 Clouds 15 1026 82 12874 0.55 206.935 09:30 13.07.2019
5270 Rain 15 1026 82 12874 2.1 80 08:57 13.07.2019
5271 Rain 15 1026 82 12874 2.1 80 08:28 13.07.2019
5272 Rain 15 1026 77 12874 2.1 310 07:55 13.07.2019
5273 Clouds 16 1026 77 16093 2.6 320 07:29 13.07.2019
5274 Clouds 15 1026 72 16093 4.1 310 06:32 13.07.2019
5275 Clouds 16 1025 72 12874 4.6 290 05:49 13.07.2019
5276 Clouds 16 1025 63 9656 5.1 350 04:42 13.07.2019
5277 Clouds 17 1024 68 9656 5.1 360 04:21 13.07.2019
5278 Clouds 17 1024 68 9656 5.1 360 03:43 13.07.2019
5279 Clouds 17 1024 68 9656 5.1 360 03:25 13.07.2019
5280 Rain 21 1023 56 9656 4.6 220 01:54 13.07.2019
5281 Rain 21 1023 56 9656 4.6 220 01:36 13.07.2019
5282 Rain 21 1023 60 9656 5.1 240 01:18 13.07.2019
5283 Rain 21 1023 60 9656 5.1 240 00:42 13.07.2019
5284 Rain 20 1024 49 9656 2.6 170 00:18 13.07.2019
5285 Rain 20 1024 49 9656 2.6 170 23:37 12.07.2019
5286 Thunderstorm 19 1024 43 9656 6.2 100 22:59 12.07.2019
5287 Thunderstorm 21 1024 43 9656 6.2 100 22:41 12.07.2019
5288 Clouds 22 1024 43 9656 6.2 100 22:22 12.07.2019
5289 Clouds 22 1025 49 9656 2.6 60 21:42 12.07.2019
5290 Clouds 21 1025 56 8047 3.6 80 21:21 12.07.2019
5291 Clouds 21 1025 56 8047 3.6 80 20:52 12.07.2019
5292 Clouds 21 1025 56 8047 3.6 80 20:23 12.07.2019
5293 Haze 20 1026 68 6437 3.6 80 19:45 12.07.2019
5294 Haze 20 1026 68 6437 3.6 80 19:26 12.07.2019
5295 Mist 20 1026 68 6437 2.1 80 18:58 12.07.2019
5296 Mist 19 1026 72 6437 1.5 110 18:37 12.07.2019
5297 Haze 17 1026 77 4828 3.1 100 18:19 12.07.2019
5298 Haze 17 1026 77 4828 3.1 100 17:46 12.07.2019
5299 Haze 17 1026 77 4828 3.1 100 17:27 12.07.2019
5300 Mist 14 1026 87 6437 1.5 80 16:40 12.07.2019
5301 Mist 15 1026 87 6437 1.5 80 16:20 12.07.2019
5302 Rain 15 1028 82 3219 2.6 310 15:41 12.07.2019
5303 Rain 15 1027 82 8047 0.69 21.894 15:21 12.07.2019
5304 Rain 15 1027 82 8047 0.69 21.894 14:55 12.07.2019
5305 Rain 15 1027 82 8047 0.69 21.894 14:37 12.07.2019
5306 Rain 14 1026 87 4828 0.69 21.894 14:19 12.07.2019
5307 Rain 14 1026 87 4828 0.42 42.319 13:38 12.07.2019
5308 Rain 14 1026 87 4828 0.42 42.319 12:57 12.07.2019
5309 Rain 14 1026 87 4828 0.42 42.319 12:57 12.07.2019
5310 Rain 14 1026 93 6437 0.42 42.319 12:38 12.07.2019
5311 Rain 14 1026 93 6437 1.5 60 12:19 12.07.2019
5312 Rain 14 1026 93 6437 1.5 60 11:44 12.07.2019
5313 Rain 14 1026 93 8047 2.6 80 11:20 12.07.2019
5314 Rain 14 1026 93 8047 2.6 80 10:44 12.07.2019
5315 Rain 14 1026 93 8047 2.6 80 10:24 12.07.2019
5316 Clouds 14 1026 93 8047 3.1 70 09:54 12.07.2019
5317 Clouds 15 1027 77 11265 3.6 100 09:30 12.07.2019
5318 Clouds 15 1027 77 11265 3.1 90 08:58 12.07.2019
5319 Clouds 15 1027 77 11265 3.1 90 08:39 12.07.2019
5320 Clouds 15 1027 82 11265 2.6 80 08:18 12.07.2019
5321 Clouds 15 1027 82 11265 2.6 80 07:40 12.07.2019
5322 Clouds 15 1027 77 11265 2.6 90 07:22 12.07.2019
5323 Clouds 15 1027 77 11265 2.6 90 06:29 12.07.2019
5324 Clouds 15 1026 77 9656 2.6 90 05:47 12.07.2019
5325 Clouds 15 1026 77 9656 0.77 96.736 03:22 12.07.2019
5326 Rain 19 1025 77 8047 2.1 340 01:41 12.07.2019
5327 Clouds 20 1025 77 8047 2.1 340 00:58 12.07.2019
5328 Thunderstorm 19 1025 72 8047 3.1 300 00:20 12.07.2019
5329 Thunderstorm 19 1025 72 8047 3.1 300 00:20 12.07.2019
5330 Thunderstorm 19 1025 72 8047 3.1 300 23:49 11.07.2019
5331 Thunderstorm 19 1025 72 8047 3.1 300 23:26 11.07.2019
5332 Thunderstorm 19 1025 77 1207 5.1 170 22:58 11.07.2019
5333 Rain 21 1025 52 8047 6.2 220 22:39 11.07.2019
5334 Rain 22 1025 52 8047 6.2 220 22:20 11.07.2019
5335 Clouds 23 1026 53 9656 1.5 70 21:41 11.07.2019
5336 Haze 22 1027 52 8047 4.1 70 21:18 11.07.2019
5337 Haze 22 1027 52 8047 4.1 70 20:54 11.07.2019
5338 Haze 22 1027 52 8047 4.1 70 20:36 11.07.2019
5339 Haze 21 1028 60 8047 2.47 187.786 20:18 11.07.2019
5340 Haze 21 1028 60 8047 2.47 187.786 19:43 11.07.2019
5341 Haze 19 1028 60 8047 2.47 187.786 19:22 11.07.2019
5342 Haze 17 1028 68 6437 2.1 70 18:43 11.07.2019
5343 Haze 18 1028 77 6437 2.36 188.377 18:25 11.07.2019
5344 Haze 17 1028 77 6437 2.36 188.377 17:53 11.07.2019
5345 Haze 17 1028 77 6437 2.36 188.377 17:31 11.07.2019
5346 Mist 15 1028 87 8047 3.1 90 16:58 11.07.2019
5347 Mist 15 1028 87 8047 3.1 90 16:40 11.07.2019
5348 Mist 15 1027 87 9656 3.1 80 16:19 11.07.2019
5349 Mist 15 1028 87 8047 3.1 90 16:19 11.07.2019
5350 Mist 15 1027 87 9656 3.1 80 15:43 11.07.2019
5351 Mist 15 1027 87 9656 3.1 80 15:24 11.07.2019
5352 Fog 15 1027 87 9656 1.5 260 14:46 11.07.2019
5353 Fog 15 1027 87 9656 1.5 260 14:26 11.07.2019
5354 Clouds 13 1028 87 16093 2.1 360 13:59 11.07.2019
5355 Clouds 13 1028 87 16093 2.1 360 13:41 11.07.2019
5356 Clouds 13 1028 87 16093 2.1 360 13:23 11.07.2019
5357 Clouds 14 1028 87 19312 2.1 70 12:38 11.07.2019
5358 Clouds 13 1028 82 19312 1.47 165.822 12:19 11.07.2019
5359 Clouds 14 1028 82 19312 1.47 165.822 11:45 11.07.2019
5360 Clouds 14 1028 82 19312 1.47 165.822 11:27 11.07.2019
5361 Clouds 14 1028 77 19312 1.5 190 10:52 11.07.2019
5362 Clouds 13 1030 81 9656 1.47 165.822 10:20 11.07.2019
5363 Clouds 13 1030 81 9656 1.47 165.822 10:20 11.07.2019
5364 Clouds 13 1030 81 9656 1.47 165.822 10:20 11.07.2019
5365 Clouds 14 1029 72 19312 1.5 190 09:56 11.07.2019
5366 Clouds 14 1029 72 19312 1.5 190 09:36 11.07.2019
5367 Clouds 14 1029 72 19312 1.5 190 09:36 11.07.2019
5368 Clouds 14 1029 72 19312 1.5 180 09:18 11.07.2019
5369 Clouds 14 1029 72 19312 1.5 180 08:42 11.07.2019
5370 Clouds 14 1029 72 19312 1.5 180 08:20 11.07.2019
5371 Rain 14 1030 77 19312 1.5 150 07:45 11.07.2019
5372 Rain 14 1030 77 19312 1.5 150 07:25 11.07.2019
5373 Clouds 13 1031 87 9656 2.1 220 06:21 11.07.2019
5374 Clouds 14 1029 82 19312 3.6 250 05:33 11.07.2019
5375 Rain 15 1028 82 11265 4.6 270 04:57 11.07.2019
5376 Rain 15 1027 77 8047 7.7 360 03:58 11.07.2019
5377 Rain 20 1027 63 9656 7.7 350 02:31 11.07.2019
5378 Rain 21 1025 56 9656 3.6 220 00:42 11.07.2019
5379 Thunderstorm 20 1027 72 8047 6.2 200 23:51 10.07.2019
5380 Thunderstorm 20 1027 72 8047 6.2 200 23:28 10.07.2019
5381 Thunderstorm 20 1027 82 9656 5.1 180 22:58 10.07.2019
5382 Rain 22 1027 49 9656 8.2 160 22:26 10.07.2019
5383 Haze 23 1028 46 8047 6.2 70 21:57 10.07.2019
5384 Haze 23 1028 46 8047 6.2 70 21:57 10.07.2019
5385 Haze 23 1028 46 8047 6.2 70 21:39 10.07.2019
5386 Haze 23 1028 49 6437 2.6 70 21:21 10.07.2019
5387 Haze 23 1028 49 6437 2.6 70 20:47 10.07.2019
5388 Haze 23 1028 49 6437 2.6 70 20:26 10.07.2019
5389 Haze 21 1029 52 8047 3.1 70 19:58 10.07.2019
5390 Haze 21 1029 52 8047 3.1 70 19:40 10.07.2019
5391 Haze 20 1029 60 9656 2.1 110 19:20 10.07.2019
5392 Haze 20 1029 60 9656 2.1 110 18:46 10.07.2019
5393 Haze 20 1029 60 9656 2.1 110 18:24 10.07.2019
5394 Mist 19 1029 60 9656 1 190 17:49 10.07.2019
5395 Mist 19 1029 60 9656 1 190 17:30 10.07.2019
5396 Mist 16 1029 77 9656 2.6 70 16:48 10.07.2019
5397 Mist 16 1029 77 9656 2.6 70 16:21 10.07.2019
5398 Mist 16 1029 82 11265 2.6 80 16:21 10.07.2019
5399 Mist 16 1029 82 11265 2.6 80 15:47 10.07.2019
5400 Mist 16 1029 82 11265 2.6 80 15:47 10.07.2019
5401 Mist 16 1029 82 11265 2.6 80 15:26 10.07.2019
5402 Clouds 15 1028 72 11265 3.1 90 14:55 10.07.2019
5403 Clouds 15 1028 72 11265 3.1 90 14:37 10.07.2019
5404 Clouds 14 1028 77 12874 2.6 90 14:18 10.07.2019
5405 Clouds 14 1028 77 12874 2.6 90 13:36 10.07.2019
5406 Clouds 14 1028 72 14484 1 30 13:18 10.07.2019
5407 Clouds 14 1028 72 14484 1 30 12:41 10.07.2019
5408 Clouds 14 1028 72 14484 2.1 270 12:21 10.07.2019
5409 Clouds 14 1028 72 14484 2.1 270 11:49 10.07.2019
5410 Clouds 14 1028 72 14484 2.1 270 11:22 10.07.2019
5411 Clouds 15 1028 67 14484 3.1 270 10:58 10.07.2019
5412 Clouds 15 1028 67 14484 3.1 270 10:58 10.07.2019
5413 Clouds 15 1028 67 14484 3.1 270 10:24 10.07.2019
5414 Clouds 16 1028 67 14484 2.1 10 09:57 10.07.2019
5415 Clouds 16 1028 67 14484 2.1 10 09:38 10.07.2019
5416 Clouds 15 1029 67 14484 2.6 30 09:19 10.07.2019
5417 Clouds 15 1029 67 14484 2.6 30 08:48 10.07.2019
5418 Clouds 16 1029 67 14484 2.6 30 08:24 10.07.2019
5419 Clouds 16 1029 68 14484 3.6 20 07:51 10.07.2019
5420 Clouds 16 1028 68 14484 2.1 180 07:23 10.07.2019
5421 Clouds 17 1028 68 14484 2.1 180 06:39 10.07.2019
5422 Clouds 17 1028 63 14484 1 140 05:40 10.07.2019
5423 Thunderstorm 21 1028 55 12874 3.6 80 04:31 10.07.2019
5424 Thunderstorm 22 1025 49 12874 7.2 30 02:18 10.07.2019
5425 Clouds 24 1025 38 11265 10.3 20 00:44 10.07.2019
5426 Clouds 25 1026 36 11265 4.1 50 23:42 09.07.2019
5427 Clouds 24 1027 33 11265 2.6 310 23:23 09.07.2019
5428 Clouds 24 1027 33 11265 2.6 310 22:57 09.07.2019
5429 Clouds 24 1027 33 11265 2.6 310 22:37 09.07.2019
5430 Clouds 24 1027 33 11265 2.6 310 22:19 09.07.2019
5431 Clouds 23 1027 38 11265 1.5 40 21:45 09.07.2019
5432 Clouds 23 1027 38 11265 1.5 40 21:25 09.07.2019
5433 Clouds 22 1028 40 9656 2.6 30 20:45 09.07.2019
5434 Clouds 22 1028 40 9656 2.6 30 20:26 09.07.2019
5435 Haze 21 1029 49 9656 1.5 280 19:45 09.07.2019
5436 Haze 21 1029 49 9656 1.5 280 19:26 09.07.2019
5437 Haze 20 1029 49 9656 1 270 18:58 09.07.2019
5438 Haze 20 1029 55 8047 0.8 118.039 18:36 09.07.2019
5439 Mist 18 1030 63 8047 2.1 120 18:18 09.07.2019
5440 Mist 17 1030 63 8047 2.1 120 17:42 09.07.2019
5441 Mist 17 1030 63 8047 2.1 120 17:21 09.07.2019
5442 Mist 16 1030 72 9656 2.1 90 16:51 09.07.2019
5443 Mist 14 1030 82 9656 0.8 118.039 16:26 09.07.2019
5444 Mist 14 1030 82 9656 0.8 118.039 15:57 09.07.2019
5445 Mist 14 1030 82 9656 0.17 75.155 15:36 09.07.2019
5446 Mist 14 1029 82 9656 2.1 340 14:59 09.07.2019
5447 Mist 14 1029 82 9656 2.1 340 14:40 09.07.2019
5448 Mist 14 1029 82 9656 2.1 340 14:21 09.07.2019
5449 Clouds 11 1029 82 11265 1.5 100 13:46 09.07.2019
5450 Clouds 12 1029 82 11265 1.5 100 13:28 09.07.2019
5451 Clouds 11 1028 82 11265 1 50 12:57 09.07.2019
5452 Clouds 12 1028 82 11265 1 50 12:37 09.07.2019
5453 Clouds 12 1029 82 12874 1.5 60 12:18 09.07.2019
5454 Clouds 12 1029 82 12874 1.5 60 11:41 09.07.2019
5455 Clouds 12 1029 82 12874 1.5 60 11:22 09.07.2019
5456 Clouds 12 1029 82 12874 1.5 60 11:22 09.07.2019
5457 Clouds 13 1029 77 9656 2.6 70 10:58 09.07.2019
5458 Clouds 13 1029 77 9656 2.6 70 10:34 09.07.2019
5459 Clouds 13 1029 82 11265 1.5 10 09:56 09.07.2019
5460 Clouds 13 1029 82 11265 1.5 10 09:37 09.07.2019
5461 Clouds 13 1029 82 11265 0.62 321.095 09:19 09.07.2019
5462 Clouds 13 1029 82 11265 0.62 321.095 08:41 09.07.2019
5463 Clouds 17 1028 71 9656 2.6 250 04:19 05.07.2019
5464 Thunderstorm 17 1026 68 12874 4.1 210 03:39 05.07.2019
5465 Thunderstorm 20 1026 68 9656 5.1 250 03:20 05.07.2019
5466 Clouds 20 1026 68 9656 5.1 250 02:51 05.07.2019
5467 Thunderstorm 21 1025 59 9656 10.3 130 01:55 05.07.2019
5468 Clouds 25 1025 34 11265 5.1 350 01:28 05.07.2019
5469 Clouds 25 1025 34 11265 5.1 350 00:51 05.07.2019
5470 Clouds 25 1025 34 11265 5.1 350 00:29 05.07.2019
5471 Clouds 24 1025 38 11265 5.7 60 23:39 04.07.2019
5472 Clouds 25 1026 41 11265 3.6 30 23:18 04.07.2019
5473 Clouds 24 1026 41 11265 3.6 30 22:41 04.07.2019
5474 Clouds 24 1026 41 11265 3.6 30 22:41 04.07.2019
5475 Haze 24 1027 41 11265 5.1 30 22:20 04.07.2019
5476 Haze 24 1027 41 11265 5.1 30 21:44 04.07.2019
5477 Haze 24 1027 41 11265 5.1 30 21:25 04.07.2019
5478 Haze 23 1027 41 11265 5.1 30 20:58 04.07.2019
5479 Haze 22 1028 49 8047 3.6 30 20:37 04.07.2019
5480 Haze 22 1030 52 4828 2.6 310 20:19 04.07.2019
5481 Haze 21 1028 52 9656 2.6 70 19:41 04.07.2019
5482 Haze 21 1028 52 9656 1.5 90 19:21 04.07.2019
5483 Haze 20 1029 63 9656 1.5 60 18:47 04.07.2019
5484 Haze 20 1029 63 9656 1.5 60 18:28 04.07.2019
5485 Haze 19 1029 63 9656 2.1 80 17:58 04.07.2019
5486 Haze 18 1029 63 9656 2.1 80 17:40 04.07.2019
5487 Mist 16 1028 77 9656 2.1 70 17:18 04.07.2019
5488 Mist 14 1028 77 9656 1.03 317.322 15:45 04.07.2019
5489 Mist 14 1028 77 9656 0.61 187.863 15:25 04.07.2019
5490 Clouds 14 1027 77 8047 2.1 200 14:59 04.07.2019
5491 Clouds 14 1027 77 8047 2.1 200 14:39 04.07.2019
5492 Clouds 14 1027 77 8047 2.1 200 14:19 04.07.2019
5493 Clouds 12 1027 82 9656 2.1 60 13:57 04.07.2019
5494 Clouds 12 1027 82 9656 2.1 60 13:56 04.07.2019
5495 Clouds 12 1027 82 9656 2.1 60 13:38 04.07.2019
5496 Clouds 12 1027 82 9656 2.1 60 13:19 04.07.2019
5497 Clouds 13 1026 82 11265 3.1 70 12:38 04.07.2019
5498 Clouds 13 1027 82 11265 1 60 12:19 04.07.2019
5499 Clouds 13 1027 82 11265 1 60 11:45 04.07.2019
5500 Clouds 14 1027 72 12874 2.6 80 11:20 04.07.2019
5501 Clouds 14 1027 72 12874 2.6 80 11:20 04.07.2019
5502 Clouds 14 1027 72 12874 2.6 80 10:47 04.07.2019
5503 Clouds 14 1027 72 12874 2.6 80 10:28 04.07.2019
5504 Clouds 15 1028 67 12874 2.1 290 09:57 04.07.2019
5505 Clouds 15 1028 67 12874 2.1 290 09:38 04.07.2019
5506 Clouds 15 1028 68 12874 3.1 280 09:19 04.07.2019
5507 Clouds 15 1028 68 12874 3.1 280 08:44 04.07.2019
5508 Clouds 16 1028 68 12874 2.6 20 08:18 04.07.2019
5509 Clouds 16 1028 68 12874 2.6 20 07:39 04.07.2019
5510 Clouds 16 1027 63 12874 2.1 20 07:18 04.07.2019
5511 Clouds 17 1027 63 12874 2.1 20 06:30 04.07.2019
5512 Clouds 17 1026 63 12874 3.6 60 05:41 04.07.2019
5513 Clouds 17 1026 59 12874 3.1 40 04:28 04.07.2019
5514 Clouds 22 1025 46 12874 4.1 30 02:23 04.07.2019
5515 Clouds 23 1025 37 12874 2.1 320 01:26 04.07.2019
5516 Clouds 23 1025 40 12874 3.1 290 00:41 04.07.2019
5517 Clouds 23 1026 40 12874 3.1 70 23:52 03.07.2019
5518 Clouds 22 1027 40 12874 5.1 70 23:21 03.07.2019
5519 Clouds 22 1027 40 12874 5.1 70 22:56 03.07.2019
5520 Clouds 22 1027 40 12874 5.1 70 22:38 03.07.2019
5521 Clouds 22 1027 40 12874 5.1 70 22:20 03.07.2019
5522 Clouds 22 1027 40 12874 5.1 70 22:20 03.07.2019
5523 Clouds 22 1027 43 12874 3.1 50 21:54 03.07.2019
5524 Clouds 22 1027 43 12874 3.1 50 21:36 03.07.2019
5525 Clouds 21 1028 40 16093 2.1 240 20:48 03.07.2019
5526 Clouds 21 1028 40 16093 2.1 240 20:29 03.07.2019
5527 Clouds 20 1028 40 16093 1.5 30 19:59 03.07.2019
5528 Clouds 20 1028 40 16093 1.5 30 19:40 03.07.2019
5529 Clouds 18 1028 46 16093 1 320 18:58 03.07.2019
5530 Clouds 18 1029 48 19312 2.6 140 18:39 03.07.2019
5531 Clouds 17 1029 48 19312 2.6 140 18:21 03.07.2019
5532 Clouds 16 1029 63 19312 2.1 250 17:49 03.07.2019
5533 Clouds 16 1029 63 19312 2.1 250 17:19 03.07.2019
5534 Clouds 15 1029 63 19312 1.74 229.827 16:47 03.07.2019
5535 Clouds 15 1029 63 19312 1.74 229.827 16:25 03.07.2019
5536 Clouds 14 1028 76 19312 2.1 210 15:55 03.07.2019
5537 Clouds 14 1028 76 19312 2.1 210 15:37 03.07.2019
5538 Clouds 13 1027 82 16093 1.16 184.05 15:18 03.07.2019
5539 Clouds 13 1027 82 16093 1.16 184.05 14:43 03.07.2019
5540 Clouds 12 1027 87 16093 1.16 184.05 14:20 03.07.2019
5541 Clouds 13 1027 87 16093 1.16 184.05 13:45 03.07.2019
5542 Clouds 13 1027 87 16093 1.64 193.833 13:27 03.07.2019
5543 Clouds 12 1028 87 16093 1.64 193.833 12:51 03.07.2019
5544 Rain 12 1028 87 11265 1.5 110 12:19 03.07.2019
5545 Rain 12 1028 87 11265 1.5 110 11:43 03.07.2019
5546 Rain 12 1028 87 11265 1.5 110 11:24 03.07.2019
5547 Rain 12 1029 87 9656 1.5 170 10:58 03.07.2019
5548 Rain 12 1029 87 9656 1.5 170 10:37 03.07.2019
5549 Rain 12 1029 87 9656 1.5 180 10:19 03.07.2019
5550 Rain 12 1030 93 8047 3.1 160 09:40 03.07.2019
5551 Rain 12 1030 93 8047 3.1 160 09:40 03.07.2019
5552 Rain 13 1030 87 8047 1.5 140 09:20 03.07.2019
5553 Rain 13 1030 87 9656 1.5 210 08:50 03.07.2019
5554 Rain 13 1030 87 9656 1.5 210 08:28 03.07.2019
5555 Rain 13 1030 87 11265 2.1 200 07:42 03.07.2019
5556 Rain 13 1030 87 11265 2.1 200 07:21 03.07.2019
5557 Thunderstorm 13 1029 87 9656 3.1 50 06:25 03.07.2019
5558 Thunderstorm 14 1028 93 9656 3.6 20 05:34 03.07.2019
5559 Thunderstorm 14 1028 93 6437 6.7 180 04:38 03.07.2019
5560 Clouds 21 1026 49 11265 3.6 340 03:24 03.07.2019
5561 Clouds 21 1025 43 11265 2.1 250 01:59 03.07.2019
5562 Clouds 21 1025 43 11265 2.1 250 01:21 03.07.2019
5563 Clouds 21 1025 43 11265 2.6 210 00:45 03.07.2019
5564 Clouds 21 1025 43 11265 2.6 210 00:45 03.07.2019
5565 Rain 20 1027 55 9656 2.1 280 23:59 02.07.2019
5566 Rain 20 1027 55 9656 2.1 280 23:37 02.07.2019
5567 Rain 20 1027 55 9656 2.1 280 23:19 02.07.2019
5568 Rain 20 1028 59 8047 4.1 320 22:56 02.07.2019
5569 Rain 20 1028 59 8047 4.1 320 22:37 02.07.2019
5570 Rain 20 1028 59 8047 4.1 320 22:18 02.07.2019
5571 Rain 20 1028 68 8047 5.7 300 21:42 02.07.2019
5572 Rain 20 1028 68 9656 7.7 240 21:22 02.07.2019
5573 Rain 20 1028 68 9656 7.7 240 20:58 02.07.2019
5574 Rain 20 1028 68 9656 7.7 240 20:39 02.07.2019
5575 Clouds 21 1028 46 11265 2.1 30 20:20 02.07.2019
5576 Clouds 21 1028 49 12874 2.1 140 19:42 02.07.2019
5577 Clouds 21 1028 49 12874 2.1 140 19:23 02.07.2019
5578 Clouds 21 1028 49 12874 2.1 140 19:23 02.07.2019
5579 Clouds 20 1029 49 12874 2.6 360 18:49 02.07.2019
5580 Clouds 20 1029 49 12874 2.6 360 18:19 02.07.2019
5581 Clouds 20 1029 49 12874 2.6 360 18:19 02.07.2019
5582 Clouds 19 1029 55 12874 2.6 70 17:44 02.07.2019
5583 Clouds 17 1029 63 16093 2.1 80 17:23 02.07.2019
5584 Clouds 16 1029 63 16093 2.1 80 16:53 02.07.2019
5585 Clouds 16 1029 63 16093 2.1 80 16:34 02.07.2019
5586 Clouds 15 1028 63 19312 2.6 230 15:47 02.07.2019
5587 Clouds 15 1028 63 19312 2.6 230 15:27 02.07.2019
5588 Clouds 14 1027 67 16093 1 260 14:57 02.07.2019
5589 Clouds 14 1027 67 16093 1 260 14:39 02.07.2019
5590 Clouds 13 1027 67 14484 1 160 14:20 02.07.2019
5591 Clouds 13 1027 67 14484 1 160 13:40 02.07.2019
5592 Clouds 13 1027 67 14484 1 160 13:18 02.07.2019
5593 Clouds 13 1027 67 14484 4.1 110 12:44 02.07.2019
5594 Clouds 13 1027 67 14484 4.1 110 12:22 02.07.2019
5595 Clouds 14 1028 63 14484 0.59 175.749 11:44 02.07.2019
5596 Clouds 14 1028 72 11265 2.6 120 11:23 02.07.2019
5597 Clouds 13 1028 72 11265 2.6 120 10:54 02.07.2019
5598 Clouds 14 1028 72 11265 2.6 120 10:27 02.07.2019
5599 Clouds 14 1029 72 12874 2.6 50 09:51 02.07.2019
5600 Clouds 14 1029 63 12874 1.5 290 09:22 02.07.2019
5601 Clouds 14 1029 63 12874 1.5 290 08:56 02.07.2019
5602 Clouds 14 1029 63 12874 1.5 290 08:36 02.07.2019
5603 Clouds 15 1029 63 12874 3.1 300 07:58 02.07.2019
5604 Clouds 16 1029 63 12874 3.1 300 07:21 02.07.2019
5605 Clouds 16 1029 63 12874 3.1 300 07:21 02.07.2019
5606 Rain 16 1031 87 4828 2.6 140 06:55 02.07.2019
5607 Clouds 16 1029 63 12874 3.6 300 06:36 02.07.2019
5608 Rain 17 1027 48 11265 2.6 60 05:19 02.07.2019
5609 Clouds 20 1026 48 9656 5.1 300 02:30 02.07.2019
5610 Clouds 19 1026 59 12874 8.7 300 00:24 02.07.2019
5611 Clouds 21 1026 46 11265 4.6 100 23:26 01.07.2019
5612 Clouds 21 1027 43 12874 2.6 90 22:52 01.07.2019
5613 Clouds 21 1027 43 12874 2.6 90 22:28 01.07.2019
5614 Clouds 21 1027 37 12874 3.1 170 21:55 01.07.2019
5615 Clouds 21 1027 37 12874 3.1 170 21:36 01.07.2019
5616 Clouds 20 1028 43 12874 6.2 100 21:18 01.07.2019
5617 Clouds 20 1028 43 12874 6.2 100 20:42 01.07.2019
5618 Haze 19 1029 48 11265 0.31 262.898 20:20 01.07.2019
5619 Haze 19 1029 48 11265 0.31 262.898 19:43 01.07.2019
5620 Haze 18 1029 55 11265 3.1 130 19:24 01.07.2019
5621 Haze 18 1029 55 11265 3.1 130 18:56 01.07.2019
5622 Haze 18 1029 55 11265 3.1 130 18:37 01.07.2019
5623 Haze 18 1029 55 11265 3.1 130 18:37 01.07.2019
5624 Mist 16 1029 63 11265 3.6 200 18:19 01.07.2019
5625 Mist 16 1029 63 11265 3.6 200 17:42 01.07.2019
5626 Mist 16 1029 63 11265 3.6 200 17:23 01.07.2019
5627 Mist 15 1029 72 12874 2.1 70 16:48 01.07.2019
5628 Mist 15 1029 72 12874 2.1 70 16:27 01.07.2019
5629 Mist 14 1029 72 12874 3.6 80 15:57 01.07.2019
5630 Mist 14 1029 72 12874 3.6 80 15:38 01.07.2019
5631 Mist 15 1029 72 12874 3.6 80 15:20 01.07.2019
5632 Haze 13 1028 76 12874 3.1 80 14:43 01.07.2019
5633 Haze 13 1028 76 12874 3.1 80 14:20 01.07.2019
5634 Clouds 13 1029 82 16093 1.5 100 13:44 01.07.2019
5635 Clouds 13 1029 82 16093 1.5 100 13:23 01.07.2019
5636 Clouds 13 1028 62 16093 1 180 12:55 01.07.2019
5637 Clouds 13 1028 62 16093 1 180 12:36 01.07.2019
5638 Haze 13 1028 62 16093 1 180 12:18 01.07.2019
5639 Haze 13 1028 62 16093 1 180 11:43 01.07.2019
5640 Haze 13 1028 62 16093 1 180 11:20 01.07.2019
5641 Clouds 14 1028 62 19312 6.2 320 10:47 01.07.2019
5642 Clouds 14 1028 62 19312 6.2 320 10:24 01.07.2019
5643 Clouds 14 1029 72 11265 4.6 320 09:58 01.07.2019
5644 Clouds 14 1029 72 11265 4.6 320 09:39 01.07.2019
5645 Clouds 14 1029 72 11265 4.6 320 09:20 01.07.2019
5646 Clouds 15 1029 63 11265 2.6 320 08:37 01.07.2019
5647 Clouds 15 1029 63 12874 3.1 320 07:40 01.07.2019
5648 Clouds 16 1029 63 12874 3.1 320 07:20 01.07.2019
5649 Clouds 14 1028 59 16093 4.1 70 05:43 01.07.2019
5650 Thunderstorm 20 1024 42 11265 6.2 150 01:29 01.07.2019
5651 Thunderstorm 22 1025 40 11265 7.2 140 00:47 01.07.2019
5652 Thunderstorm 21 1025 40 11265 7.2 140 00:24 01.07.2019
5653 Clouds 24 1025 38 11265 5.1 90 23:40 30.06.2019
5654 Clouds 23 1025 38 11265 5.1 90 23:20 30.06.2019
5655 Clouds 22 1026 37 11265 5.1 70 22:43 30.06.2019
5656 Clouds 22 1026 37 11265 5.1 70 22:20 30.06.2019
5657 Clouds 22 1027 43 11265 3.1 60 21:42 30.06.2019
5658 Clouds 21 1028 46 11265 2.1 50 21:20 30.06.2019
5659 Clouds 21 1028 46 11265 2.1 50 20:55 30.06.2019
5660 Clouds 21 1028 46 11265 2.1 50 20:37 30.06.2019
5661 Clouds 21 1028 46 11265 2.1 50 20:18 30.06.2019
5662 Clouds 20 1029 49 11265 2.1 20 19:44 30.06.2019
5663 Clouds 20 1029 49 11265 2.1 20 19:24 30.06.2019
5664 Clouds 19 1029 55 12874 2.1 70 18:26 30.06.2019
5665 Mist 16 1029 63 14484 0.91 121.083 17:59 30.06.2019
5666 Mist 16 1029 63 14484 0.91 121.083 17:39 30.06.2019
5667 Mist 16 1029 63 14484 0.91 121.083 17:18 30.06.2019
5668 Mist 16 1029 62 14484 0.91 121.083 16:48 30.06.2019
5669 Mist 16 1029 62 14484 0.91 121.083 16:26 30.06.2019
5670 Clouds 13 1029 71 16093 2.1 300 15:38 30.06.2019
5671 Clouds 13 1029 71 16093 2.1 300 15:19 30.06.2019
5672 Clouds 12 1028 71 12874 3.6 260 14:53 30.06.2019
5673 Clouds 12 1028 71 12874 3.6 260 14:35 30.06.2019
5674 Clouds 12 1028 71 14484 4.1 300 13:49 30.06.2019
5675 Clouds 12 1028 71 14484 4.1 300 13:29 30.06.2019
5676 Clouds 12 1028 71 16093 4.1 290 12:55 30.06.2019
5677 Clouds 12 1028 71 16093 4.1 290 12:31 30.06.2019
5678 Clouds 12 1028 71 16093 4.1 290 11:59 30.06.2019
5679 Clouds 12 1028 71 16093 4.1 290 11:59 30.06.2019
5680 Clouds 12 1028 71 16093 4.1 290 11:41 30.06.2019
5681 Clouds 12 1028 71 16093 4.1 290 11:21 30.06.2019
5682 Clouds 13 1029 62 19312 4.6 310 10:54 30.06.2019
5683 Clouds 13 1029 62 19312 4.6 310 10:36 30.06.2019
5684 Clouds 15 1029 62 19312 4.6 310 10:18 30.06.2019
5685 Clouds 15 1029 62 19312 3.6 300 09:42 30.06.2019
5686 Clouds 14 1029 62 19312 3.6 300 09:20 30.06.2019
5687 Clouds 14 1030 62 19312 5.1 280 08:40 30.06.2019
5688 Clouds 14 1030 62 19312 5.1 280 08:21 30.06.2019
5689 Clouds 15 1029 55 19312 3.1 20 07:47 30.06.2019
5690 Clouds 15 1029 55 19312 3.1 20 07:24 30.06.2019
5691 Clouds 15 1029 51 19312 5.1 330 06:37 30.06.2019
5692 Clouds 18 1027 59 16093 5.7 70 03:32 30.06.2019
5693 Clouds 21 1026 42 16093 7.7 90 01:53 30.06.2019
5694 Clouds 22 1026 40 16093 6.2 80 00:47 30.06.2019
5695 Clouds 23 1026 35 16093 5.1 30 00:24 30.06.2019
5696 Clouds 23 1027 35 16093 5.1 320 23:48 29.06.2019
5697 Clouds 23 1027 35 16093 5.1 320 23:23 29.06.2019
5698 Clouds 22 1028 35 16093 5.1 10 22:48 29.06.2019
5699 Clouds 22 1028 35 16093 5.1 10 22:24 29.06.2019
5700 Clouds 22 1028 35 16093 5.1 340 21:55 29.06.2019
5701 Clouds 21 1029 40 12874 2.6 60 21:25 29.06.2019
5702 Clouds 21 1029 42 12874 3.1 50 20:56 29.06.2019
5703 Clouds 20 1030 48 14484 2.1 30 20:36 29.06.2019
5704 Clouds 20 1030 48 14484 2.1 30 20:18 29.06.2019
5705 Ash 19 1030 52 12874 2.1 50 19:41 29.06.2019
5706 Ash 19 1030 52 12874 2.1 50 19:21 29.06.2019
5707 Clouds 18 1030 52 12874 2.1 100 18:47 29.06.2019
5708 Clouds 17 1031 63 12874 4.6 60 18:24 29.06.2019
5709 Haze 17 1030 59 19312 2.1 30 17:38 29.06.2019
5710 Haze 17 1030 59 19312 2.1 30 17:19 29.06.2019
5711 Mist 15 1030 58 19312 2.1 50 16:43 29.06.2019
5712 Mist 15 1030 58 19312 2.1 50 16:19 29.06.2019
5713 Mist 14 1030 71 19312 1.5 60 15:33 29.06.2019
5714 Clouds 13 1029 67 19312 2.6 340 14:55 29.06.2019
5715 Clouds 13 1029 67 19312 2.6 340 14:37 29.06.2019
5716 Clouds 13 1029 67 19312 2.6 340 14:18 29.06.2019
5717 Clouds 12 1029 71 19312 3.6 280 13:41 29.06.2019
5718 Clouds 12 1029 71 19312 3.6 280 13:41 29.06.2019
5719 Clouds 12 1029 71 19312 3.6 280 13:23 29.06.2019
5720 Clouds 12 1028 71 19312 3.6 300 12:41 29.06.2019
5721 Clouds 12 1028 71 19312 3.6 300 12:22 29.06.2019
5722 Clouds 12 1029 62 19312 4.1 360 11:46 29.06.2019
5723 Clouds 12 1029 62 19312 4.1 360 11:28 29.06.2019
5724 Clouds 12 1029 67 19312 4.1 310 10:52 29.06.2019
5725 Clouds 12 1029 67 19312 4.1 310 10:24 29.06.2019
5726 Smoke 13 1030 58 19312 3.1 300 09:58 29.06.2019
5727 Smoke 13 1030 58 19312 3.1 300 09:19 29.06.2019
5728 Clouds 14 1030 59 19312 4.1 290 08:36 29.06.2019
5729 Clouds 14 1030 59 19312 5.1 350 07:46 29.06.2019
5730 Clouds 14 1030 59 19312 5.1 30 06:57 29.06.2019
5731 Clouds 14 1030 59 19312 5.1 30 06:39 29.06.2019
5732 Clouds 15 1030 59 19312 5.1 30 06:19 29.06.2019
5733 Rain 22 1025 46 12874 7.7 60 01:54 29.06.2019
5734 Clouds 23 1025 38 16093 7.7 10 00:51 29.06.2019
5735 Clouds 24 1026 35 16093 5.7 360 23:53 28.06.2019
5736 Clouds 24 1026 35 16093 5.7 360 23:21 28.06.2019
5737 Clouds 24 1027 28 16093 3.1 320 22:47 28.06.2019
5738 Clouds 24 1027 28 16093 3.1 320 22:21 28.06.2019
5739 Clouds 23 1027 35 16093 3.1 360 21:45 28.06.2019
5740 Clouds 23 1027 35 16093 3.1 360 21:19 28.06.2019
5741 Clouds 23 1028 31 16093 3.1 360 20:42 28.06.2019
5742 Clouds 22 1028 37 16093 3.1 360 20:20 28.06.2019
5743 Clouds 21 1029 42 14484 3.1 320 19:42 28.06.2019
5744 Clouds 21 1029 42 14484 3.1 320 19:23 28.06.2019
5745 Clouds 19 1030 52 14484 2.6 320 18:42 28.06.2019
5746 Clouds 19 1030 52 14484 2.6 320 18:22 28.06.2019
5747 Clear 18 1031 55 9656 1.5 80 17:46 28.06.2019
5748 Clear 18 1031 55 9656 1.5 80 17:25 28.06.2019
5749 Clouds 16 1030 62 12874 2.6 30 16:46 28.06.2019
5750 Clouds 15 1030 62 12874 2.6 30 16:20 28.06.2019
5751 Haze 14 1030 71 12874 2.41 62.636 15:45 28.06.2019
5752 Haze 14 1030 71 12874 2.11 45.786 15:18 28.06.2019
5753 Haze 14 1029 71 12874 3.6 280 14:42 28.06.2019
5754 Haze 14 1029 71 12874 3.6 280 14:21 28.06.2019
5755 Clouds 13 1029 67 14484 2.1 330 13:49 28.06.2019
5756 Clouds 13 1029 67 14484 2.1 330 13:29 28.06.2019
5757 Clouds 13 1029 67 16093 2.6 10 12:53 28.06.2019
5758 Clouds 13 1029 67 16093 2.6 10 12:33 28.06.2019
5759 Clouds 13 1029 71 16093 4.1 300 11:44 28.06.2019
5760 Clouds 13 1029 62 16093 3.6 300 11:19 28.06.2019
5761 Clouds 13 1029 71 16093 4.1 300 11:19 28.06.2019
5762 Clouds 14 1029 62 16093 3.6 300 10:42 28.06.2019
5763 Clouds 14 1029 62 16093 3.6 300 10:19 28.06.2019
5764 Clouds 14 1030 62 16093 5.1 300 09:46 28.06.2019
5765 Clouds 14 1030 62 16093 5.1 300 09:28 28.06.2019
5766 Clouds 14 1030 58 19312 3.1 300 08:43 28.06.2019
5767 Clouds 14 1030 58 19312 3.1 300 08:24 28.06.2019
5768 Clouds 15 1030 55 16093 4.1 350 07:43 28.06.2019
5769 Clouds 16 1029 51 16093 6.2 10 06:54 28.06.2019
5770 Clouds 17 1027 55 14484 4.1 60 04:35 28.06.2019
5771 Rain 22 1026 52 14484 4.6 130 00:48 28.06.2019
5772 Rain 23 1026 52 14484 4.6 130 00:22 28.06.2019
5773 Rain 24 1026 43 14484 4.1 140 23:46 27.06.2019
5774 Rain 25 1026 33 24140 6.7 60 23:46 27.06.2019
5775 Rain 25 1026 33 24140 6.7 60 23:24 27.06.2019
5776 Clouds 25 1027 33 16093 4.6 50 22:44 27.06.2019
5777 Clouds 25 1027 33 16093 4.6 50 22:25 27.06.2019
5778 Clouds 24 1028 35 19312 7.2 60 21:58 27.06.2019
5779 Clouds 24 1028 35 19312 7.2 60 21:39 27.06.2019
5780 Clouds 23 1028 35 19312 7.2 60 21:20 27.06.2019
5781 Clouds 22 1029 37 16093 2.82 55.181 20:48 27.06.2019
5782 Clouds 22 1029 37 16093 2.82 55.181 20:30 27.06.2019
5783 Clouds 21 1029 40 16093 5.1 60 19:50 27.06.2019
5784 Clouds 21 1029 40 16093 5.1 60 19:29 27.06.2019
5785 Mist 19 1030 45 16093 2.6 320 18:53 27.06.2019
5786 Mist 19 1030 45 16093 2.6 320 18:32 27.06.2019
5787 Mist 18 1030 48 16093 2.23 56.737 17:58 27.06.2019
5788 Mist 18 1030 48 16093 2.23 56.737 17:37 27.06.2019
5789 Mist 17 1030 48 16093 2.23 56.737 17:19 27.06.2019
5790 Mist 17 1030 48 16093 2.6 60 16:39 27.06.2019
5791 Mist 17 1030 48 16093 2.6 60 16:19 27.06.2019
5792 Fog 15 1029 51 14484 2.1 350 15:45 27.06.2019
5793 Mist 15 1029 51 14484 2.1 350 15:24 27.06.2019
5794 Mist 15 1028 59 12874 2.6 320 14:48 27.06.2019
5795 Mist 15 1028 59 12874 2.6 320 14:29 27.06.2019
5796 Mist 13 1028 67 12874 2.6 260 13:50 27.06.2019
5797 Mist 13 1028 67 12874 2.6 260 13:31 27.06.2019
5798 Mist 14 1028 72 12874 2.6 290 12:57 27.06.2019
5799 Mist 14 1028 72 12874 2.6 290 12:38 27.06.2019
5800 Mist 14 1028 72 12874 2.6 290 12:18 27.06.2019
5801 Mist 14 1029 67 12874 3.1 340 11:42 27.06.2019
5802 Mist 14 1029 67 12874 3.1 340 11:21 27.06.2019
5803 Mist 15 1029 63 11265 4.1 10 10:46 27.06.2019
5804 Mist 15 1029 63 11265 4.1 10 10:22 27.06.2019
5805 Mist 15 1029 67 11265 2.6 20 09:56 27.06.2019
5806 Mist 15 1029 67 11265 2.6 20 09:22 27.06.2019
5807 Clouds 16 1030 63 12874 3.6 310 08:55 27.06.2019
5808 Clouds 16 1030 63 12874 3.6 310 08:37 27.06.2019
5809 Clouds 16 1030 63 12874 3.6 310 08:19 27.06.2019
5810 Clouds 16 1029 63 12874 2.6 320 07:31 27.06.2019
5811 Clouds 16 1028 72 12874 2.6 60 06:54 27.06.2019
5812 Clouds 16 1028 72 12874 2.6 60 06:24 27.06.2019
5813 Rain 19 1027 63 12874 3.6 220 03:21 27.06.2019
5814 Rain 19 1026 63 12874 5.1 210 02:30 27.06.2019
5815 Rain 20 1026 77 9656 7.7 80 00:59 27.06.2019
5816 Rain 22 1026 49 12874 10.8 30 00:41 27.06.2019
5817 Rain 23 1026 46 12874 5.1 30 00:19 27.06.2019
5818 Clouds 24 1025 36 12874 4.1 50 23:40 26.06.2019
5819 Clouds 25 1025 36 12874 4.1 50 23:21 26.06.2019
5820 Clouds 23 1029 68 8047 4.1 170 22:45 26.06.2019
5821 Clouds 23 1029 68 8047 4.1 170 22:26 26.06.2019
5822 Rain 23 1029 63 9656 5.7 150 21:59 26.06.2019
5823 Clouds 24 1027 46 9656 2.6 70 21:38 26.06.2019
5824 Clouds 23 1027 46 9656 2.6 70 21:19 26.06.2019
5825 Clouds 23 1028 53 9656 1.81 64.682 20:44 26.06.2019
5826 Clouds 23 1028 53 9656 1.81 64.682 20:26 26.06.2019
5827 Clouds 22 1029 52 11265 2.1 20 19:50 26.06.2019
5828 Clouds 22 1029 52 11265 2.1 20 19:31 26.06.2019
5829 Clouds 21 1029 52 11265 2.1 300 18:57 26.06.2019
5830 Clouds 21 1029 52 11265 2.1 300 18:57 26.06.2019
5831 Clouds 20 1029 59 11265 2.6 20 18:39 26.06.2019
5832 Clouds 20 1029 59 11265 2.6 20 18:19 26.06.2019
5833 Clouds 18 1029 67 11265 1.07 42.586 17:43 26.06.2019
5834 Clouds 18 1029 67 11265 1.07 42.586 17:23 26.06.2019
5835 Clouds 17 1028 67 12874 2.1 140 16:51 26.06.2019
5836 Clouds 17 1028 67 12874 2.1 140 16:28 26.06.2019
5837 Clouds 16 1028 63 12874 1.07 42.586 15:52 26.06.2019
5838 Clouds 16 1028 63 12874 1.07 42.586 15:28 26.06.2019
5839 Clouds 14 1027 67 14484 2.1 270 14:42 26.06.2019
5840 Clouds 14 1027 67 14484 2.1 270 14:21 26.06.2019
5841 Clouds 15 1026 59 14484 1 240 13:46 26.06.2019
5842 Clouds 15 1026 59 14484 1 240 13:21 26.06.2019
5843 Clouds 15 1028 81 11265 0.56 332.703 12:54 26.06.2019
5844 Clouds 15 1028 81 11265 0.56 332.703 12:36 26.06.2019
5845 Clouds 15 1028 81 11265 0.48 182.613 12:18 26.06.2019
5846 Clouds 15 1027 67 12874 1 60 11:25 26.06.2019
5847 Clouds 15 1027 59 14484 2.1 330 10:51 26.06.2019
5848 Clouds 15 1027 59 14484 2.1 330 10:51 26.06.2019
5849 Clouds 15 1027 59 14484 2.1 330 10:31 26.06.2019
5850 Clouds 15 1028 59 16093 2.6 300 09:51 26.06.2019
5851 Clouds 15 1028 59 16093 2.6 300 09:29 26.06.2019
5852 Clouds 14 1028 63 16093 1 300 08:52 26.06.2019
5853 Clouds 14 1028 63 16093 1 300 08:22 26.06.2019
5854 Clouds 15 1028 63 19312 4.1 70 07:57 26.06.2019
5855 Clouds 15 1028 63 19312 4.1 70 07:37 26.06.2019
5856 Clouds 16 1028 55 19312 3.1 360 06:33 26.06.2019
5857 Clouds 22 1024 52 11265 4.1 40 01:36 26.06.2019
5858 Clouds 23 1024 49 11265 5.7 300 00:32 26.06.2019
5859 Clouds 23 1025 43 11265 3.6 290 23:49 25.06.2019
5860 Clouds 23 1025 43 11265 3.6 290 23:31 25.06.2019
5861 Clouds 23 1025 46 12874 2.6 150 22:59 25.06.2019
5862 Clouds 23 1025 46 12874 2.6 150 22:41 25.06.2019
5863 Clouds 23 1025 46 12874 2.6 150 22:22 25.06.2019
5864 Clouds 22 1026 46 14484 4.1 120 21:46 25.06.2019
5865 Clouds 22 1026 46 14484 4.1 120 21:24 25.06.2019
5866 Clouds 22 1027 43 16093 2.1 200 20:48 25.06.2019
5867 Clouds 21 1027 52 16093 2.1 130 20:24 25.06.2019
5868 Clouds 20 1027 60 16093 2.1 40 19:56 25.06.2019
5869 Clouds 20 1027 60 16093 2.1 40 19:56 25.06.2019
5870 Clouds 19 1028 63 16093 2.1 70 19:37 25.06.2019
5871 Clouds 19 1028 63 16093 2.1 70 19:19 25.06.2019
5872 Clouds 18 1028 67 16093 2.1 90 18:41 25.06.2019
5873 Clouds 18 1028 67 16093 2.1 90 18:23 25.06.2019
5874 -273 0 0 0 0 0 17:43 25.06.2019
5875 Fog 17 1027 63 17702 2.1 60 17:22 25.06.2019
5876 Fog 17 1027 63 17702 2.1 60 17:22 25.06.2019
5877 Fog 17 1027 63 17702 2.1 60 17:22 25.06.2019
5878 Fog 16 1027 72 19312 2.1 100 16:43 25.06.2019
5879 Fog 16 1027 72 19312 2.1 100 16:25 25.06.2019
5880 Fog 15 1026 77 19312 2.1 320 15:43 25.06.2019
5881 Fog 15 1026 77 19312 2.1 320 15:25 25.06.2019
5882 Fog 14 1025 82 19312 1.54 274.37 14:57 25.06.2019
5883 Clouds 13 1025 82 19312 1.54 274.37 14:38 25.06.2019
5884 Clouds 13 1025 82 19312 1.54 274.37 14:20 25.06.2019
5885 Rain 13 1025 87 16093 2.1 60 13:41 25.06.2019
5886 Rain 13 1025 87 16093 2.1 60 13:19 25.06.2019
5887 Rain 14 1025 87 16093 2.6 130 12:41 25.06.2019
5888 Rain 14 1026 87 19312 2.1 110 12:23 25.06.2019
5889 Clouds 15 1026 87 16093 2.6 180 11:44 25.06.2019
5890 Clouds 15 1026 87 16093 2.6 180 11:22 25.06.2019
5891 Clouds 15 1026 82 19312 3.1 120 10:48 25.06.2019
5892 Clouds 15 1026 82 19312 3.1 120 10:24 25.06.2019
5893 Clouds 16 1026 77 19312 3.6 110 09:59 25.06.2019
5894 Clouds 16 1026 77 19312 3.6 110 09:38 25.06.2019
5895 Clouds 16 1026 77 19312 3.6 110 09:20 25.06.2019
5896 Clouds 16 1026 77 16093 3.1 80 08:50 25.06.2019
5897 Clouds 16 1026 77 16093 3.1 80 08:29 25.06.2019
5898 Clouds 16 1027 67 16093 3.1 140 07:43 25.06.2019
5899 Clouds 16 1027 67 16093 3.1 140 07:23 25.06.2019
5900 Clouds 16 1026 82 16093 2.1 240 06:42 25.06.2019
5901 Thunderstorm 17 1025 77 11265 3.1 320 04:30 25.06.2019
5902 Rain 21 1023 63 14484 6.2 140 02:25 25.06.2019
5903 Clouds 23 1023 49 14484 5.1 90 00:38 25.06.2019
5904 Clouds 23 1023 49 14484 5.1 90 00:18 25.06.2019
5905 Clouds 23 1023 49 14484 5.1 90 00:18 25.06.2019
5906 Clouds 23 1024 46 12874 3.6 90 23:43 24.06.2019
5907 Clouds 23 1024 46 12874 3.6 90 23:25 24.06.2019
5908 Clouds 22 1025 46 12874 2.1 30 22:45 24.06.2019
5909 Clouds 22 1025 46 12874 2.1 30 22:45 24.06.2019
5910 Clouds 22 1025 46 12874 2.1 30 22:19 24.06.2019
5911 Clouds 22 1026 53 12874 5.7 50 21:42 24.06.2019
5912 Clouds 22 1026 53 12874 5.7 50 21:20 24.06.2019
5913 Clouds 22 1026 49 12874 4.6 160 20:59 24.06.2019
5914 Clouds 22 1026 49 12874 4.6 160 20:40 24.06.2019
5915 Clouds 22 1026 49 12874 4.6 160 20:22 24.06.2019
5916 Clouds 20 1026 60 11265 2.1 80 19:47 24.06.2019
5917 Clouds 20 1026 60 11265 2.1 80 19:25 24.06.2019
5918 Clouds 19 1027 68 11265 3.1 120 18:54 24.06.2019
5919 Clouds 18 1027 68 11265 3.1 120 18:30 24.06.2019
5920 Haze 17 1027 77 11265 2.6 110 17:58 24.06.2019
5921 Haze 17 1027 77 11265 2.6 110 17:36 24.06.2019
5922 Mist 16 1027 77 11265 3.6 130 16:56 24.06.2019
5923 Mist 16 1027 77 11265 3.6 130 16:37 24.06.2019
5924 Mist 16 1027 77 11265 3.6 130 16:18 24.06.2019
5925 Mist 16 1027 77 11265 3.1 100 15:39 24.06.2019
5926 Mist 16 1027 77 11265 3.1 100 15:20 24.06.2019
5927 Rain 15 1026 77 9656 3.1 160 14:34 24.06.2019
5928 Rain 14 1026 82 9656 2.1 160 13:54 24.06.2019
5929 Clouds 14 1025 82 9656 2.6 80 13:31 24.06.2019
5930 Clouds 15 1025 82 9656 2.1 120 12:45 24.06.2019
5931 Clouds 15 1025 82 9656 2.1 120 12:26 24.06.2019
5932 Clouds 15 1025 87 9656 2.6 100 11:58 24.06.2019
5933 Clouds 15 1025 87 9656 2.6 100 11:40 24.06.2019
5934 Clouds 15 1025 87 9656 2.6 100 11:20 24.06.2019
5935 Rain 15 1026 87 9656 2.6 140 10:47 24.06.2019
5936 Rain 15 1026 87 9656 2.6 140 10:27 24.06.2019
5937 Rain 14 1027 87 8047 1.51 213.848 09:49 24.06.2019
5938 Rain 14 1027 87 8047 1.55 228.674 09:22 24.06.2019
5939 Rain 14 1028 87 8047 1.5 300 08:52 24.06.2019
5940 Rain 14 1028 87 8047 1.5 300 08:25 24.06.2019
5941 Rain 14 1029 93 8047 2.6 300 07:45 24.06.2019
5942 Rain 14 1029 93 8047 2.6 300 07:26 24.06.2019
5943 Rain 15 1028 93 8047 2.1 30 06:39 24.06.2019
5944 Rain 15 1028 93 8047 2.1 30 06:19 24.06.2019
5945 Rain 15 1028 93 8047 6.2 40 05:24 24.06.2019
5946 Thunderstorm 16 1026 82 9656 5.7 10 04:24 24.06.2019
5947 Clouds 21 1025 52 16093 7.7 50 02:56 24.06.2019
5948 Clouds 22 1024 46 16093 4.1 120 02:20 24.06.2019
5949 Clouds 23 1024 43 16093 2.6 180 01:49 24.06.2019
5950 Clouds 23 1024 43 16093 2.6 180 01:21 24.06.2019
5951 Rain 23 1024 43 12874 5.1 180 00:39 24.06.2019
5952 Rain 23 1024 43 12874 5.1 180 00:19 24.06.2019
5953 Rain 22 1025 49 9656 7.7 160 23:44 23.06.2019
5954 Rain 22 1025 49 9656 7.7 160 23:22 23.06.2019
5955 Rain 22 1025 49 9656 6.7 130 22:43 23.06.2019
5956 Rain 22 1025 49 9656 6.7 130 22:20 23.06.2019
5957 Clouds 22 1026 38 11265 2.1 70 21:45 23.06.2019
5958 Clouds 22 1026 38 11265 2.1 70 21:25 23.06.2019
5959 Clouds 23 1027 46 9656 3.1 130 20:58 23.06.2019
5960 Clouds 23 1027 46 9656 3.1 130 20:40 23.06.2019
5961 Clouds 23 1027 46 9656 3.1 130 20:21 23.06.2019
5962 Haze 22 1027 46 8047 1.5 340 19:43 23.06.2019
5963 Haze 22 1027 46 8047 1.5 340 19:21 23.06.2019
5964 Haze 20 1028 60 6437 2.1 70 18:52 23.06.2019
5965 Haze 20 1028 60 6437 2.1 70 18:22 23.06.2019
5966 Mist 18 1028 68 8047 1.5 50 17:50 23.06.2019
5967 Mist 18 1028 68 8047 1.5 50 17:25 23.06.2019
5968 Mist 17 1028 68 9656 2.6 70 16:55 23.06.2019
5969 Mist 17 1028 68 9656 2.6 70 16:36 23.06.2019
5970 Mist 17 1028 68 9656 2.6 70 16:18 23.06.2019
5971 Fog 16 1027 72 8047 1.5 100 15:40 23.06.2019
5972 Fog 16 1027 72 8047 1.5 100 15:19 23.06.2019
5973 Mist 16 1027 72 8047 2.1 190 14:40 23.06.2019
5974 Mist 16 1027 72 8047 2.1 190 14:22 23.06.2019
5975 Mist 15 1027 77 8047 2.1 160 13:56 23.06.2019
5976 Mist 15 1027 77 8047 2.1 160 13:36 23.06.2019
5977 Mist 15 1027 77 8047 2.1 160 13:18 23.06.2019
5978 Mist 15 1027 77 8047 2.1 80 12:42 23.06.2019
5979 Mist 15 1027 77 8047 2.1 80 12:21 23.06.2019
5980 Mist 15 1027 82 8047 3.1 50 11:50 23.06.2019
5981 Mist 15 1027 82 8047 3.1 50 11:29 23.06.2019
5982 Mist 15 1027 82 9656 3.1 70 10:53 23.06.2019
5983 Mist 14 1027 82 9656 3.1 70 10:22 23.06.2019
5984 Mist 15 1027 82 9656 3.1 70 10:22 23.06.2019
5985 Mist 15 1027 72 9656 1.5 50 09:59 23.06.2019
5986 Mist 15 1027 72 9656 1.5 50 09:28 23.06.2019
5987 Mist 16 1028 63 11265 2.1 310 08:56 23.06.2019
5988 Mist 16 1028 63 11265 2.1 310 08:37 23.06.2019
5989 Mist 16 1028 63 11265 2.1 310 08:19 23.06.2019
5990 Clouds 16 1028 63 11265 2.6 20 07:51 23.06.2019
5991 Clouds 17 1028 63 11265 2.6 20 07:20 23.06.2019
5992 Clouds 17 1028 68 12874 2.1 50 06:53 23.06.2019
5993 Clouds 17 1028 68 12874 2.1 60 05:53 23.06.2019
5994 Thunderstorm 20 1029 82 1609 3.1 80 02:52 23.06.2019
5995 Thunderstorm 20 1025 56 9656 8.2 70 01:43 23.06.2019
5996 Thunderstorm 20 1025 56 9656 8.2 70 01:24 23.06.2019
5997 Thunderstorm 22 1029 82 3219 4.6 320 00:34 23.06.2019
5998 Thunderstorm 23 1029 67 805 14.4 130 23:52 22.06.2019
5999 Rain 23 1026 38 11265 4.1 60 23:26 22.06.2019
6000 Rain 23 1026 38 11265 4.1 60 23:26 22.06.2019
6001 Clouds 24 1026 44 6437 4.1 70 22:47 22.06.2019
6002 Clouds 24 1026 44 6437 4.1 70 22:29 22.06.2019
6003 Clouds 24 1027 41 6437 4.6 20 21:59 22.06.2019
6004 Clouds 24 1027 41 6437 4.6 20 21:36 22.06.2019
6005 Haze 23 1028 49 8047 3.1 350 21:18 22.06.2019
6006 Haze 23 1028 49 8047 3.1 350 20:46 22.06.2019
6007 Haze 23 1028 49 8047 3.1 350 20:24 22.06.2019
6008 Haze 22 1028 53 8047 1.27 95.256 19:42 22.06.2019
6009 Haze 22 1028 53 8047 1.27 95.256 19:22 22.06.2019
6010 Haze 20 1029 56 8047 1.27 95.256 18:44 22.06.2019
6011 Haze 20 1029 56 8047 0.26 180 18:25 22.06.2019
6012 Mist 18 1029 64 9656 0.26 180 17:52 22.06.2019
6013 Mist 18 1029 64 9656 0.26 180 17:31 22.06.2019
6014 Mist 17 1029 72 12874 0.26 180 16:47 22.06.2019
6015 Mist 17 1029 72 12874 0.26 180 16:24 22.06.2019
6016 Mist 16 1028 77 11265 3.1 220 15:50 22.06.2019
6017 Mist 16 1028 77 11265 3.1 220 15:29 22.06.2019
6018 Mist 16 1030 87 3219 2.1 90 14:53 22.06.2019
6019 Mist 15 1027 77 9656 2.1 200 14:34 22.06.2019
6020 Clouds 15 1027 77 9656 2.1 50 13:58 22.06.2019
6021 Clouds 15 1027 77 9656 2.1 50 13:40 22.06.2019
6022 Clouds 15 1027 77 9656 2.1 50 13:19 22.06.2019
6023 Clouds 16 1027 72 9656 2.1 60 12:47 22.06.2019
6024 Clouds 16 1027 72 9656 2.1 60 12:29 22.06.2019
6025 Clouds 16 1027 68 11265 1.5 340 11:46 22.06.2019
6026 Clouds 16 1027 68 11265 1.5 340 11:27 22.06.2019
6027 Clouds 16 1027 59 12874 3.1 310 10:47 22.06.2019
6028 Clouds 17 1027 59 12874 3.1 310 10:19 22.06.2019
6029 Clouds 16 1028 63 12874 2.6 300 09:42 22.06.2019
6030 Clouds 16 1028 63 12874 2.1 270 08:58 22.06.2019
6031 Clouds 17 1028 63 12874 2.1 270 08:40 22.06.2019
6032 Clouds 16 1028 63 12874 2.1 280 07:56 22.06.2019
6033 Clouds 17 1028 63 12874 2.1 280 07:30 22.06.2019
6034 Rain 17 1028 60 12874 1.2 279.628 06:46 22.06.2019
6035 Thunderstorm 18 1027 56 11265 4.1 310 04:38 22.06.2019
6036 Thunderstorm 24 1024 41 11265 6.2 130 02:27 22.06.2019
6037 Clouds 26 1024 32 14484 7.2 90 00:57 22.06.2019
6038 Clouds 26 1024 32 14484 7.2 90 00:35 22.06.2019
6039 Clouds 27 1025 28 16093 4.6 60 23:51 21.06.2019
6040 Clouds 27 1025 28 16093 4.6 60 23:24 21.06.2019
6041 Clouds 26 1026 28 12874 4.1 70 22:58 21.06.2019
6042 Clouds 26 1026 28 12874 4.1 70 22:40 21.06.2019
6043 Clouds 26 1026 28 12874 4.1 70 22:20 21.06.2019
6044 Clouds 26 1027 31 12874 3.1 30 21:40 21.06.2019
6045 Clouds 26 1027 31 12874 3.1 30 21:21 21.06.2019
6046 Clouds 25 1027 38 11265 4.1 80 20:48 21.06.2019
6047 Clouds 25 1027 38 11265 4.1 80 20:26 21.06.2019
6048 Clouds 24 1028 33 11265 2.6 110 19:54 21.06.2019
6049 Clouds 24 1028 33 11265 2.6 110 19:23 21.06.2019
6050 Clouds 22 1028 53 9656 2.6 70 18:43 21.06.2019
6051 Clouds 22 1028 53 9656 2.6 70 18:24 21.06.2019
6052 Clouds 20 1028 64 6437 2.6 40 17:36 21.06.2019
6053 Mist 18 1028 64 4828 1.73 217.295 16:59 21.06.2019
6054 -273 0 0 0 0 0 16:37 21.06.2019
6055 Mist 17 1028 77 4023 2.6 90 16:19 21.06.2019
6056 Mist 16 1028 82 3219 2.1 100 15:38 21.06.2019
6057 Mist 16 1027 87 4023 3.1 80 15:18 21.06.2019
6058 Mist 15 1027 87 4023 3.1 80 14:40 21.06.2019
6059 Mist 15 1027 87 4023 3.1 80 14:21 21.06.2019
6060 Clouds 14 1026 87 11265 1.5 360 13:40 21.06.2019
6061 Clouds 15 1026 87 11265 1.5 360 13:22 21.06.2019
6062 Clouds 15 1026 93 11265 1 80 12:51 21.06.2019
6063 Clouds 14 1026 93 11265 1 80 12:23 21.06.2019
6064 Clouds 16 1026 82 9656 1.13 236.296 11:56 21.06.2019
6065 Clouds 16 1026 82 9656 1.13 236.296 11:37 21.06.2019
6066 Clouds 16 1026 82 9656 1.13 236.296 11:19 21.06.2019
6067 Clouds 16 1026 82 9656 1.13 236.296 11:19 21.06.2019
6068 Rain 16 1028 82 8047 1.5 120 10:44 21.06.2019
6069 Rain 16 1028 82 8047 1.5 120 10:21 21.06.2019
6070 Rain 16 1028 82 8047 3.1 100 09:43 21.06.2019
6071 Rain 16 1028 82 8047 3.1 100 09:23 21.06.2019
6072 Clouds 16 1029 77 8047 1.5 60 08:56 21.06.2019
6073 Clouds 16 1029 77 8047 1.5 60 08:56 21.06.2019
6074 Clouds 16 1029 77 8047 1.5 60 08:37 21.06.2019
6075 Clouds 16 1029 77 8047 1.5 60 08:19 21.06.2019
6076 Clouds 16 1028 82 8047 2.1 110 07:44 21.06.2019
6077 Clouds 16 1028 82 8047 2.6 20 07:19 21.06.2019
6078 Rain 16 1028 88 8047 2.6 30 06:29 21.06.2019
6079 Thunderstorm 17 1027 77 8047 4.1 280 05:48 21.06.2019
6080 Thunderstorm 17 1026 72 8047 3.6 270 04:48 21.06.2019
6081 Thunderstorm 18 1026 68 8047 4.1 280 03:48 21.06.2019
6082 Thunderstorm 17 1025 88 6437 5.1 310 03:28 21.06.2019
6083 Thunderstorm 23 1024 46 9656 12.3 360 02:34 21.06.2019
6084 Thunderstorm 25 1023 50 9656 4.1 160 01:32 21.06.2019
6085 Haze 26 1024 32 9656 5.1 50 00:36 21.06.2019
6086 Clouds 25 1024 32 9656 4.1 70 23:57 20.06.2019
6087 Clouds 25 1024 32 9656 4.1 70 23:39 20.06.2019
6088 Clouds 25 1024 32 9656 4.1 70 23:19 20.06.2019
6089 Thunderstorm 26 1025 32 9656 2.6 10 22:41 20.06.2019
6090 Thunderstorm 26 1025 32 9656 2.6 10 22:23 20.06.2019
6091 Thunderstorm 26 1025 32 9656 2.6 10 22:23 20.06.2019
6092 Clouds 26 1026 36 9656 3.1 20 21:56 20.06.2019
6093 Clouds 26 1026 36 9656 3.1 20 21:37 20.06.2019
6094 Clouds 26 1026 36 9656 3.1 20 21:19 20.06.2019
6095 Haze 25 1027 41 8047 2.6 80 20:41 20.06.2019
6096 Haze 24 1027 41 8047 2.6 80 20:23 20.06.2019
6097 Haze 24 1027 44 8047 4.1 50 19:45 20.06.2019
6098 Haze 23 1030 52 4828 1.5 240 19:19 20.06.2019
6099 Haze 22 1030 60 3219 1.5 240 18:58 20.06.2019
6100 Mist 21 1028 60 8047 2.6 110 18:40 20.06.2019
6101 Mist 21 1028 60 8047 2.6 110 18:21 20.06.2019
6102 Mist 20 1028 63 9656 3.6 80 17:47 20.06.2019
6103 Mist 20 1028 63 9656 3.6 80 17:29 20.06.2019
6104 Mist 18 1028 72 9656 2.1 340 16:44 20.06.2019
6105 Mist 17 1030 81 3219 1.34 244.79 16:19 20.06.2019
6106 Mist 17 1030 81 3219 1.34 244.79 15:56 20.06.2019
6107 Mist 16 1028 77 9656 3.6 70 15:38 20.06.2019
6108 Mist 16 1028 77 9656 3.6 70 15:18 20.06.2019
6109 Mist 15 1028 82 11265 2.1 40 14:43 20.06.2019
6110 Mist 15 1028 82 11265 2.1 40 14:21 20.06.2019
6111 Clouds 13 1027 77 12874 2.1 220 13:40 20.06.2019
6112 Clouds 13 1027 77 12874 2.1 220 13:19 20.06.2019
6113 Clouds 13 1027 82 12874 0.81 244.728 12:44 20.06.2019
6114 Clouds 13 1027 82 12874 0.6 192.727 12:23 20.06.2019
6115 Clouds 13 1027 87 12874 2.1 40 11:45 20.06.2019
6116 Clouds 13 1027 87 12874 2.1 40 11:24 20.06.2019
6117 Clouds 14 1027 82 12874 3.1 60 10:47 20.06.2019
6118 Clouds 14 1027 82 12874 3.1 60 10:47 20.06.2019
6119 Clouds 14 1027 82 12874 3.1 60 10:25 20.06.2019
6120 Clouds 15 1027 77 12874 3.6 80 09:59 20.06.2019
6121 Clouds 15 1027 77 12874 3.6 80 09:40 20.06.2019
6122 Clouds 15 1027 77 12874 3.6 80 09:21 20.06.2019
6123 Clouds 15 1028 63 12874 3.1 350 08:45 20.06.2019
6124 Clouds 16 1028 63 12874 3.1 350 08:27 20.06.2019
6125 Clouds 16 1028 63 12874 3.1 310 07:53 20.06.2019
6126 Clouds 16 1028 63 12874 3.1 310 07:27 20.06.2019
6127 Clouds 16 1028 67 12874 2.56 6.528 06:27 20.06.2019
6128 Clouds 17 1027 63 11265 4.1 70 04:53 20.06.2019
6129 Rain 22 1025 56 11265 8.7 60 02:29 20.06.2019
6130 Rain 23 1025 38 11265 2.6 200 00:34 20.06.2019
6131 Thunderstorm 22 1024 49 11265 2.6 270 23:49 19.06.2019
6132 Thunderstorm 22 1025 46 11265 5.1 150 23:30 19.06.2019
6133 -273 0 0 0 0 0 22:57 19.06.2019
6134 Thunderstorm 24 1026 31 11265 2.6 50 22:39 19.06.2019
6135 Thunderstorm 24 1026 31 11265 2.6 50 22:18 19.06.2019
6136 Haze 25 1027 39 9656 1.5 190 21:42 19.06.2019
6137 Haze 25 1027 39 9656 1.5 190 21:23 19.06.2019
6138 Haze 24 1027 36 9656 2.6 230 20:42 19.06.2019
6139 Haze 23 1027 46 9656 1.5 80 20:21 19.06.2019
6140 Mist 22 1027 46 9656 3.6 70 19:51 19.06.2019
6141 Mist 22 1028 52 9656 4.6 90 19:29 19.06.2019
6142 Mist 21 1028 60 9656 0.47 281.623 18:57 19.06.2019
6143 Mist 21 1028 60 9656 0.59 248.594 18:28 19.06.2019
6144 Mist 19 1029 68 8047 2.6 70 17:53 19.06.2019
6145 Mist 19 1029 68 8047 2.6 70 17:53 19.06.2019
6146 Mist 19 1029 68 8047 2.6 70 17:33 19.06.2019
6147 Mist 17 1028 77 9656 4.6 70 16:57 19.06.2019
6148 Mist 17 1028 77 9656 4.6 70 16:38 19.06.2019
6149 Mist 17 1028 77 9656 4.6 70 16:20 19.06.2019
6150 Mist 16 1027 82 12874 3.6 80 15:47 19.06.2019
6151 Mist 16 1027 82 12874 3.6 80 15:25 19.06.2019
6152 Mist 16 1026 82 9656 3.1 20 14:50 19.06.2019
6153 Mist 15 1026 82 9656 3.1 20 14:29 19.06.2019
6154 Clouds 14 1027 82 9656 0.45 18.355 13:59 19.06.2019
6155 Clouds 14 1027 82 9656 0.46 194.49 13:38 19.06.2019
6156 Clouds 14 1027 82 9656 0.46 194.49 13:20 19.06.2019
6157 Clouds 14 1027 87 11265 0.46 194.49 12:42 19.06.2019
6158 Clouds 14 1027 87 11265 0.82 200.671 12:20 19.06.2019
6159 Clouds 14 1027 82 11265 2.6 120 11:43 19.06.2019
6160 Clouds 14 1027 82 11265 2.6 120 11:24 19.06.2019
6161 Clouds 14 1028 87 11265 3.1 80 10:51 19.06.2019
6162 Clouds 14 1028 87 11265 3.1 80 10:32 19.06.2019
6163 Clouds 15 1029 87 11265 2.6 60 09:59 19.06.2019
6164 Clouds 15 1029 87 11265 2.6 60 09:39 19.06.2019
6165 Clouds 15 1029 87 11265 2.6 60 09:19 19.06.2019
6166 Clouds 15 1030 82 11265 1.5 30 08:48 19.06.2019
6167 Clouds 15 1030 82 11265 1.5 30 08:27 19.06.2019
6168 Clouds 16 1030 82 11265 1.5 280 07:46 19.06.2019
6169 Clouds 16 1030 82 11265 1.5 280 07:23 19.06.2019
6170 Rain 16 1029 82 8047 2.6 300 06:49 19.06.2019
6171 Thunderstorm 16 1029 77 8047 3.6 160 06:24 19.06.2019
6172 Thunderstorm 16 1029 77 8047 4.1 160 05:47 19.06.2019
6173 Rain 18 1026 68 11265 3.6 280 04:19 19.06.2019
6174 Thunderstorm 21 1026 56 9656 5.1 60 03:18 19.06.2019
6175 Thunderstorm 24 1024 44 11265 6.7 170 01:49 19.06.2019
6176 Clouds 24 1024 44 11265 6.7 170 01:18 19.06.2019
6177 Rain 25 1024 41 11265 5.1 120 00:43 19.06.2019
6178 Clouds 25 1025 29 11265 3.6 50 00:20 19.06.2019
6179 Clouds 25 1025 29 11265 3.6 50 23:46 18.06.2019
6180 Clouds 25 1025 29 11265 3.6 50 23:26 18.06.2019
6181 Clouds 27 1025 30 11265 4.6 10 22:44 18.06.2019
6182 Clouds 27 1025 30 11265 4.6 10 22:24 18.06.2019
6183 Clouds 26 1026 36 11265 2.1 60 21:56 18.06.2019
6184 Clouds 25 1026 36 11265 2.1 60 21:38 18.06.2019
6185 Clouds 25 1026 36 11265 2.1 60 21:19 18.06.2019
6186 Clouds 24 1027 38 11265 2.6 10 20:42 18.06.2019
6187 Clouds 24 1027 38 11265 2.6 10 20:24 18.06.2019
6188 Clouds 23 1027 43 11265 4.1 40 19:41 18.06.2019
6189 Clouds 23 1027 43 11265 4.1 40 19:23 18.06.2019
6190 Haze 21 1027 43 11265 4.1 90 18:56 18.06.2019
6191 Haze 21 1027 43 11265 4.1 90 18:28 18.06.2019
6192 Mist 19 1028 49 11265 1.5 170 17:59 18.06.2019
6193 Mist 19 1028 49 11265 1.5 170 17:38 18.06.2019
6194 Mist 19 1028 49 11265 1.5 170 17:19 18.06.2019
6195 Mist 19 1028 52 11265 2.1 80 16:42 18.06.2019
6196 Mist 19 1028 52 11265 2.1 80 16:22 18.06.2019
6197 Fog 16 1027 59 11265 1.5 80 15:43 18.06.2019
6198 Fog 16 1027 59 11265 1.5 80 15:24 18.06.2019
6199 Fog 16 1027 59 11265 2.1 70 14:58 18.06.2019
6200 Clouds 16 1027 59 11265 2.1 70 14:40 18.06.2019
6201 Clouds 16 1027 59 11265 2.1 70 14:19 18.06.2019
6202 Clouds 16 1027 63 12874 3.1 310 13:52 18.06.2019
6203 Clouds 16 1027 63 12874 3.1 310 13:31 18.06.2019
6204 Clouds 16 1027 63 12874 3.6 270 12:47 18.06.2019
6205 Clouds 16 1027 63 12874 3.6 270 12:29 18.06.2019
6206 Clouds 16 1027 59 12874 3.1 280 11:56 18.06.2019
6207 Clouds 16 1027 59 12874 3.1 280 11:38 18.06.2019
6208 Clouds 16 1027 59 12874 3.1 280 11:20 18.06.2019
6209 Clouds 16 1027 59 14484 3.1 30 10:43 18.06.2019
6210 Clouds 16 1027 59 14484 3.1 30 10:22 18.06.2019
6211 Clouds 17 1027 52 12874 4.1 340 09:52 18.06.2019
6212 Clouds 17 1027 52 12874 4.1 340 09:25 18.06.2019
6213 Clouds 18 1027 52 14484 4.1 10 08:58 18.06.2019
6214 Clouds 18 1027 52 14484 4.1 10 08:58 18.06.2019
6215 Clouds 18 1027 52 14484 4.1 10 08:39 18.06.2019
6216 Clouds 18 1027 52 14484 4.1 10 08:20 18.06.2019
6217 Clouds 19 1028 49 16093 5.1 20 07:27 18.06.2019
6218 Clouds 19 1026 49 16093 4.1 20 06:57 18.06.2019
6219 Clouds 20 1026 46 16093 6.2 50 05:27 18.06.2019
6220 Clouds 20 1026 46 16093 6.2 50 05:27 18.06.2019
6221 Clouds 20 1025 43 14484 7.7 130 04:22 18.06.2019
6222 Ash 25 1023 31 14484 9.3 70 02:50 18.06.2019
6223 Ash 26 1022 20 12874 4.1 310 01:28 18.06.2019
6224 Ash 27 1022 23 12874 6.2 30 00:58 18.06.2019
6225 Ash 27 1022 23 12874 6.2 30 00:39 18.06.2019
6226 Ash 27 1022 23 12874 6.2 30 00:21 18.06.2019
6227 Clouds 27 1023 20 12874 6.2 350 23:38 17.06.2019
6228 Clouds 27 1023 20 12874 6.2 350 23:19 17.06.2019
6229 Clouds 26 1024 21 12874 3.1 90 22:41 17.06.2019
6230 Clouds 26 1024 21 12874 3.1 90 22:21 17.06.2019
6231 Clouds 26 1025 21 11265 6.2 60 21:46 17.06.2019
6232 Clouds 26 1025 21 11265 6.2 60 21:24 17.06.2019
6233 Haze 24 1026 31 11265 4.1 50 20:44 17.06.2019
6234 Haze 24 1026 31 11265 4.1 50 20:26 17.06.2019
6235 Haze 24 1026 38 11265 2.93 53.951 19:58 17.06.2019
6236 Haze 23 1026 38 11265 2.93 53.951 19:40 17.06.2019
6237 Mist 23 1026 38 11265 2.93 53.951 19:21 17.06.2019
6238 Mist 22 1026 53 9656 2.1 40 18:40 17.06.2019
6239 Mist 21 1026 60 9656 1.22 41.142 18:18 17.06.2019
6240 Mist 20 1026 60 9656 1.22 41.142 17:59 17.06.2019
6241 Mist 20 1026 60 9656 1.22 41.142 17:39 17.06.2019
6242 Mist 19 1026 72 8047 2.1 70 17:21 17.06.2019
6243 Mist 18 1026 72 8047 2.1 70 16:43 17.06.2019
6244 Mist 17 1026 72 8047 2.6 360 16:24 17.06.2019
6245 Mist 17 1026 72 8047 2.6 360 15:55 17.06.2019
6246 Mist 17 1026 72 8047 2.6 360 15:36 17.06.2019
6247 Mist 17 1026 77 8047 2.1 10 15:18 17.06.2019
6248 Mist 17 1026 77 8047 2.1 10 15:18 17.06.2019
6249 Mist 16 1026 77 8047 2.1 10 14:42 17.06.2019
6250 Mist 14 1025 82 11265 2.1 60 14:22 17.06.2019
6251 Mist 14 1025 82 11265 2.1 60 13:47 17.06.2019
6252 Clouds 12 1027 87 6437 0.24 326.638 13:22 17.06.2019
6253 Clouds 15 1025 77 11265 1 40 12:48 17.06.2019
6254 Clouds 15 1025 77 11265 1 40 12:30 17.06.2019
6255 Clouds 15 1025 77 11265 2.6 300 11:45 17.06.2019
6256 Clouds 15 1025 77 11265 2.6 300 11:26 17.06.2019
6257 Clouds 16 1025 72 11265 1.5 110 10:57 17.06.2019
6258 Clouds 16 1025 72 11265 1.5 110 10:39 17.06.2019
6259 Clouds 14 1028 81 8047 1.31 280.079 10:21 17.06.2019
6260 Clouds 16 1025 68 11265 4.1 140 09:39 17.06.2019
6261 Clouds 16 1025 68 11265 4.1 140 09:20 17.06.2019
6262 Clouds 16 1026 68 11265 2.1 110 08:41 17.06.2019
6263 Clouds 17 1026 68 11265 2.1 110 08:23 17.06.2019
6264 Clouds 17 1025 68 12874 3.1 100 07:40 17.06.2019
6265 Clouds 17 1025 68 12874 3.1 100 07:21 17.06.2019
6266 Clouds 18 1025 64 12874 4.6 100 06:34 17.06.2019
6267 Clouds 19 1025 60 12874 6.2 70 05:44 17.06.2019
6268 Clouds 20 1023 49 12874 7.2 140 04:34 17.06.2019
6269 Clouds 22 1023 49 12874 7.7 140 03:35 17.06.2019
6270 Clouds 23 1022 33 16093 7.2 130 02:58 17.06.2019
6271 Clouds 23 1022 33 16093 7.2 130 02:39 17.06.2019
6272 Clouds 25 1022 24 14484 4.1 150 01:41 17.06.2019
6273 Clouds 26 1022 30 12874 4.1 130 00:59 17.06.2019
6274 Clouds 26 1022 30 12874 4.1 130 00:41 17.06.2019
6275 Clouds 26 1022 30 12874 4.1 130 00:21 17.06.2019
6276 Clouds 26 1023 21 11265 3.1 30 23:40 16.06.2019
6277 Clouds 25 1023 21 11265 3.1 30 23:21 16.06.2019
6278 Clouds 25 1024 25 11265 3.6 90 22:47 16.06.2019
6279 Clouds 24 1025 41 9656 2.1 140 22:21 16.06.2019
6280 Clouds 24 1025 41 9656 2.1 140 21:59 16.06.2019
6281 Clouds 24 1025 41 9656 2.1 140 21:40 16.06.2019
6282 Clouds 24 1025 41 9656 2.1 140 21:40 16.06.2019
6283 Clouds 24 1026 40 9656 2.6 110 21:22 16.06.2019
6284 Clouds 24 1026 40 9656 2.6 110 20:56 16.06.2019
6285 Clouds 24 1026 40 9656 2.6 110 20:37 16.06.2019
6286 Clouds 24 1026 40 9656 2.6 110 20:37 16.06.2019
6287 Haze 22 1026 49 9656 3.1 160 20:18 16.06.2019
6288 Haze 22 1026 49 9656 3.1 160 19:41 16.06.2019
6289 Haze 20 1026 56 9656 3.1 90 19:22 16.06.2019
6290 Haze 21 1026 56 9656 3.1 90 18:58 16.06.2019
6291 Haze 21 1026 64 9656 3.1 70 18:39 16.06.2019
6292 Mist 19 1027 63 9656 2.6 30 18:20 16.06.2019
6293 Mist 19 1027 63 9656 2.6 30 17:46 16.06.2019
6294 Mist 16 1026 67 11265 1.5 80 17:22 16.06.2019
6295 Mist 17 1026 67 11265 1.5 80 16:57 16.06.2019
6296 Mist 17 1026 67 11265 1.5 80 16:57 16.06.2019
6297 Mist 17 1026 67 11265 1.5 80 16:38 16.06.2019
6298 Mist 16 1026 67 11265 2.6 110 16:20 16.06.2019
6299 Mist 16 1026 67 11265 2.6 110 15:42 16.06.2019
6300 Mist 16 1026 67 11265 2.6 110 15:24 16.06.2019
6301 Mist 14 1028 87 3219 0.29 213.69 14:44 16.06.2019
6302 Clouds 14 1025 77 9656 2.1 50 14:23 16.06.2019
6303 Clouds 14 1025 77 9656 2.1 50 13:52 16.06.2019
6304 Clouds 14 1025 77 9656 2.1 50 13:28 16.06.2019
6305 Clouds 14 1025 77 9656 2.6 90 12:58 16.06.2019
6306 Clouds 14 1025 77 9656 2.6 90 12:39 16.06.2019
6307 Clouds 14 1025 72 9656 2.1 90 12:19 16.06.2019
6308 Clouds 15 1025 72 9656 2.1 90 11:46 16.06.2019
6309 Clouds 15 1025 72 9656 2.1 110 11:20 16.06.2019
6310 Clouds 15 1025 72 9656 2.1 110 10:46 16.06.2019
6311 Clouds 15 1026 77 9656 1 50 10:22 16.06.2019
6312 Clouds 15 1026 77 9656 1 50 09:56 16.06.2019
6313 Clouds 15 1026 77 9656 1 50 09:36 16.06.2019
6314 Clouds 16 1027 77 9656 2.1 50 09:18 16.06.2019
6315 Clouds 16 1027 77 9656 2.1 50 08:38 16.06.2019
6316 Clouds 17 1027 68 9656 1 40 08:18 16.06.2019
6317 Clouds 18 1027 68 9656 1 40 07:44 16.06.2019
6318 Clouds 16 1026 72 9656 2.6 130 06:59 16.06.2019
6319 Clouds 17 1026 72 9656 2.6 130 06:37 16.06.2019
6320 Clouds 17 1026 72 9656 5.1 110 05:47 16.06.2019
6321 Thunderstorm 18 1025 72 9656 6.7 50 04:49 16.06.2019
6322 Thunderstorm 20 1024 60 11265 9.8 90 03:57 16.06.2019
6323 Clouds 21 1024 53 11265 7.7 100 03:32 16.06.2019
6324 Clouds 25 1023 26 11265 3.1 40 02:31 16.06.2019
6325 Clouds 26 1022 26 11265 3.6 20 01:44 16.06.2019
6326 Clouds 26 1022 26 11265 3.6 20 01:26 16.06.2019
6327 Clouds 25 1023 22 11265 3.1 20 00:40 16.06.2019
6328 Clouds 25 1024 26 9656 4.6 290 00:21 16.06.2019
6329 Clouds 25 1024 26 9656 4.6 290 23:44 15.06.2019
6330 Clouds 25 1024 26 9656 4.6 290 23:25 15.06.2019
6331 Clouds 24 1025 33 9656 2.6 10 22:50 15.06.2019
6332 Clouds 24 1025 33 9656 2.6 10 22:27 15.06.2019
6333 Clouds 23 1026 40 9656 4.08 24.057 21:50 15.06.2019
6334 Clouds 23 1026 40 9656 2.49 26.019 21:29 15.06.2019
6335 Haze 22 1027 49 9656 2.1 80 20:59 15.06.2019
6336 Haze 22 1027 49 9656 2.1 80 20:41 15.06.2019
6337 Haze 21 1028 52 9656 3.1 110 20:22 15.06.2019
6338 Haze 21 1028 52 9656 3.1 110 19:42 15.06.2019
6339 Haze 20 1028 60 11265 3.6 20 19:23 15.06.2019
6340 Haze 20 1028 60 11265 3.6 20 18:41 15.06.2019
6341 Mist 18 1030 77 3219 0.31 327.936 18:21 15.06.2019
6342 Mist 18 1030 77 3219 0.31 327.936 17:43 15.06.2019
6343 Mist 16 1028 77 11265 3.1 90 17:23 15.06.2019
6344 Mist 16 1028 77 11265 3.1 90 16:48 15.06.2019
6345 Mist 15 1027 77 16093 2.1 80 16:20 15.06.2019
6346 Mist 15 1027 77 16093 2.1 80 15:44 15.06.2019
6347 Mist 14 1027 77 16093 1.5 60 15:24 15.06.2019
6348 Mist 14 1027 77 16093 1.5 60 14:44 15.06.2019
6349 Mist 13 1027 72 16093 3.1 80 14:19 15.06.2019
6350 Mist 14 1027 72 16093 3.1 80 13:58 15.06.2019
6351 Mist 14 1027 72 16093 3.1 80 13:40 15.06.2019
6352 Mist 12 1028 93 4828 2.1 50 13:19 15.06.2019
6353 Mist 14 1026 67 16093 2.1 350 12:49 15.06.2019
6354 Mist 14 1026 67 16093 2.1 350 12:26 15.06.2019
6355 Clouds 15 1027 72 16093 2.1 340 11:52 15.06.2019
6356 Clouds 15 1027 72 16093 2.1 340 11:32 15.06.2019
6357 Clouds 15 1027 72 16093 2.1 30 10:49 15.06.2019
6358 Clouds 15 1027 72 16093 2.1 30 10:27 15.06.2019
6359 Clouds 16 1028 63 19312 2.1 350 09:59 15.06.2019
6360 Clouds 16 1028 63 19312 2.1 350 09:39 15.06.2019
6361 Clouds 16 1028 59 19312 4.6 30 09:20 15.06.2019
6362 Clouds 16 1028 59 19312 4.6 30 08:44 15.06.2019
6363 Clouds 17 1028 59 19312 4.6 30 08:25 15.06.2019
6364 Clouds 17 1028 55 19312 6.2 30 07:41 15.06.2019
6365 Clouds 16 1030 82 8047 2.6 110 07:21 15.06.2019
6366 Clouds 17 1027 52 19312 4.1 360 06:38 15.06.2019
6367 Thunderstorm 18 1026 49 19312 6.2 40 05:48 15.06.2019
6368 Clouds 18 1026 49 14484 6.2 40 05:20 15.06.2019
6369 Clouds 18 1026 49 14484 6.2 40 04:34 15.06.2019
6370 Clouds 19 1025 49 12874 6.7 40 03:38 15.06.2019
6371 Thunderstorm 21 1025 46 12874 7.7 60 02:48 15.06.2019
6372 Rain 22 1025 38 11265 4.6 30 01:59 15.06.2019
6373 Rain 22 1025 38 11265 4.6 30 01:40 15.06.2019
6374 Rain 24 1025 40 11265 6.2 20 00:44 15.06.2019
6375 Rain 24 1025 40 11265 6.2 20 00:44 15.06.2019
6376 Rain 24 1025 40 11265 6.2 20 00:26 15.06.2019
6377 Rain 25 1025 38 11265 2.6 30 23:52 14.06.2019
6378 Rain 24 1025 38 11265 2.6 30 23:25 14.06.2019
6379 Rain 24 1027 40 11265 2.6 320 22:43 14.06.2019
6380 Rain 23 1028 43 12874 2.1 50 22:23 14.06.2019
6381 Rain 23 1028 43 12874 2.1 50 22:23 14.06.2019
6382 Rain 23 1028 43 12874 2.1 50 22:23 14.06.2019
6383 Rain 23 1028 43 12874 2.1 50 21:57 14.06.2019
6384 Rain 23 1028 43 12874 2.1 50 21:38 14.06.2019
6385 Rain 22 1021 54 16093 2.6 230 21:20 14.06.2019
6386 Clouds 22 1029 46 12874 3.1 10 20:41 14.06.2019
6387 Clouds 21 1029 46 12874 3.6 300 20:18 14.06.2019
6388 Clouds 21 1029 46 12874 3.6 300 19:44 14.06.2019
6389 Clouds 23 1029 46 12874 3.6 300 19:23 14.06.2019
6390 Clouds 20 1030 55 12874 2.1 320 18:58 14.06.2019
6391 Clouds 20 1030 55 12874 2.1 320 18:40 14.06.2019
6392 Mist 18 1030 67 12874 2.1 80 18:21 14.06.2019
6393 Mist 18 1030 67 12874 2.1 80 17:46 14.06.2019
6394 Mist 18 1030 67 12874 2.1 80 17:25 14.06.2019
6395 Mist 17 1030 67 12874 1.45 48.183 16:55 14.06.2019
6396 Mist 17 1030 67 12874 1.45 48.183 16:37 14.06.2019
6397 Mist 17 1029 67 12874 2.6 40 16:18 14.06.2019
6398 Mist 16 1029 67 12874 2.6 40 15:39 14.06.2019
6399 Clouds 16 1029 67 12874 2.6 350 15:20 14.06.2019
6400 Clouds 16 1029 67 12874 2.6 350 14:52 14.06.2019
6401 Clouds 16 1029 67 12874 2.6 350 14:32 14.06.2019
6402 Clouds 16 1029 67 12874 2.6 350 14:32 14.06.2019
6403 Clouds 14 1028 72 12874 3.1 10 13:54 14.06.2019
6404 Clouds 14 1028 72 12874 3.1 10 13:36 14.06.2019
6405 Clouds 14 1028 77 14484 4.6 360 13:18 14.06.2019
6406 Clouds 14 1028 77 14484 4.6 360 12:40 14.06.2019
6407 Clouds 14 1028 77 14484 4.6 360 12:22 14.06.2019
6408 Clouds 14 1028 82 14484 2.6 50 11:44 14.06.2019
6409 Clouds 13 1030 81 11265 1 29.532 11:24 14.06.2019
6410 Clouds 14 1029 82 14484 1.5 80 10:50 14.06.2019
6411 Clouds 14 1029 82 14484 2.6 110 10:23 14.06.2019
6412 Clouds 14 1029 82 14484 2.6 110 09:56 14.06.2019
6413 Clouds 14 1029 82 14484 2.6 110 09:38 14.06.2019
6414 Clouds 15 1030 82 16093 2.1 290 09:19 14.06.2019
6415 Clouds 15 1030 82 16093 2.1 290 08:41 14.06.2019
6416 Clouds 15 1030 82 14484 2.1 260 08:18 14.06.2019
6417 Clouds 15 1030 82 14484 2.1 260 07:45 14.06.2019
6418 Clouds 15 1031 82 14484 2.6 280 07:19 14.06.2019
6419 Rain 15 1030 82 12874 3.1 230 06:27 14.06.2019
6420 Rain 15 1030 87 8047 3.1 240 05:54 14.06.2019
6421 Rain 15 1029 87 8047 3.1 230 04:56 14.06.2019
6422 Rain 15 1029 87 8047 3.1 230 04:32 14.06.2019
6423 Thunderstorm 16 1029 72 9656 2.6 30 03:46 14.06.2019
6424 Thunderstorm 16 1029 72 9656 2.6 30 03:23 14.06.2019
6425 Thunderstorm 20 1027 72 11265 4.6 100 02:45 14.06.2019
6426 Thunderstorm 22 1026 68 12874 6.7 80 01:56 14.06.2019
6427 Clouds 23 1026 43 12874 6.2 30 00:46 14.06.2019
6428 Clouds 23 1026 38 14484 5.1 30 00:22 14.06.2019
6429 Clouds 23 1026 38 14484 5.1 30 23:52 13.06.2019
6430 Clouds 23 1026 38 14484 5.1 30 23:27 13.06.2019
6431 Clouds 23 1027 40 14484 4.1 70 22:58 13.06.2019
6432 Clouds 22 1027 40 14484 4.1 70 22:38 13.06.2019
6433 Clouds 22 1028 43 14484 4.6 20 22:19 13.06.2019
6434 Clouds 22 1028 43 14484 4.6 20 21:38 13.06.2019
6435 Clouds 22 1028 43 14484 4.6 20 21:38 13.06.2019
6436 Haze 22 1029 46 12874 3.1 80 21:19 13.06.2019
6437 Haze 21 1029 46 12874 3.1 80 20:45 13.06.2019
6438 Mist 21 1030 49 12874 2.6 40 20:21 13.06.2019
6439 Mist 21 1030 49 12874 2.6 40 19:56 13.06.2019
6440 Mist 21 1030 49 12874 2.6 40 19:37 13.06.2019
6441 Mist 19 1030 52 12874 2.1 40 19:18 13.06.2019
6442 Mist 19 1030 52 12874 2.1 40 18:45 13.06.2019
6443 Mist 19 1030 52 12874 2.1 40 18:45 13.06.2019
6444 Mist 19 1030 52 12874 2.1 40 18:27 13.06.2019
6445 Mist 17 1030 59 12874 2.6 20 17:57 13.06.2019
6446 Mist 17 1030 59 12874 2.6 20 17:39 13.06.2019
6447 Mist 16 1029 63 12874 2.1 10 17:19 13.06.2019
6448 Mist 16 1029 63 12874 2.1 10 16:45 13.06.2019
6449 Mist 16 1029 63 12874 2.1 10 16:21 13.06.2019
6450 Mist 16 1029 63 12874 2.6 20 15:43 13.06.2019
6451 Mist 16 1029 63 12874 2.6 20 15:25 13.06.2019
6452 Mist 16 1028 63 12874 3.1 340 14:57 13.06.2019
6453 -273 0 0 0 0 0 14:38 13.06.2019
6454 Clouds 15 1027 59 24140 3.1 360 14:20 13.06.2019
6455 Clouds 15 1027 59 24140 3.1 360 13:40 13.06.2019
6456 Clouds 15 1026 59 24140 3.6 10 13:21 13.06.2019
6457 Clouds 15 1026 59 24140 3.6 10 13:21 13.06.2019
6458 Clouds 15 1026 59 24140 3.6 10 12:42 13.06.2019
6459 Clouds 15 1026 59 24140 3.6 10 12:22 13.06.2019
6460 Clouds 16 1027 55 24140 2.6 40 11:57 13.06.2019
6461 Clouds 16 1027 55 24140 2.6 40 11:38 13.06.2019
6462 Clouds 15 1027 59 19312 3.1 340 11:19 13.06.2019
6463 Clouds 15 1027 59 19312 3.1 340 10:43 13.06.2019
6464 Clouds 16 1027 59 19312 3.1 340 10:24 13.06.2019
6465 Clouds 15 1028 63 19312 3.6 330 09:44 13.06.2019
6466 Clouds 16 1028 63 16093 3.6 30 09:23 13.06.2019
6467 Clouds 16 1028 63 16093 3.6 30 09:23 13.06.2019
6468 Clouds 16 1028 63 16093 3.6 30 09:23 13.06.2019
6469 Clouds 16 1028 63 16093 3.6 30 08:48 13.06.2019
6470 Clouds 16 1028 63 16093 3.6 30 08:28 13.06.2019
6471 Clouds 16 1028 59 16093 6.7 40 07:53 13.06.2019
6472 Thunderstorm 15 1030 62 9656 6.2 30 07:25 13.06.2019
6473 Thunderstorm 17 1028 55 16093 4.1 20 06:51 13.06.2019
6474 Clouds 18 1027 52 16093 6.7 40 06:24 13.06.2019
6475 Clouds 19 1027 52 16093 6.7 40 05:55 13.06.2019
6476 Clouds 19 1027 52 16093 6.7 40 05:37 13.06.2019
6477 Clouds 20 1028 59 9656 5.1 100 04:58 13.06.2019
6478 Rain 24 1023 38 16093 9.8 50 02:42 13.06.2019
6479 Clouds 26 1024 26 16093 6.7 20 01:25 13.06.2019
6480 Clouds 26 1024 26 16093 6.7 20 00:27 13.06.2019
6481 Clouds 26 1025 29 16093 4.1 340 23:24 12.06.2019
6482 Clouds 26 1025 29 16093 4.1 340 22:45 12.06.2019
6483 Clouds 26 1025 29 16093 4.1 340 22:27 12.06.2019
6484 Clouds 25 1026 36 11265 3.6 40 21:57 12.06.2019
6485 Clouds 25 1026 36 11265 3.6 40 21:38 12.06.2019
6486 Clouds 24 1026 36 9656 4.6 60 21:19 12.06.2019
6487 Clouds 24 1026 36 9656 4.6 60 20:40 12.06.2019
6488 Clouds 22 1028 46 8047 1 130 20:21 12.06.2019
6489 Clouds 22 1028 46 8047 1 130 19:42 12.06.2019
6490 Clouds 21 1028 46 8047 1 130 19:23 12.06.2019
6491 Clouds 21 1028 52 8047 2.6 40 18:58 12.06.2019
6492 Clouds 21 1028 52 8047 2.6 40 18:39 12.06.2019
6493 Haze 20 1022 47 16093 2.6 170 18:20 12.06.2019
6494 Haze 20 1028 59 8047 2.1 110 17:44 12.06.2019
6495 Haze 18 1030 67 4828 2.1 70 17:21 12.06.2019
6496 Haze 18 1030 67 4828 2.1 70 16:42 12.06.2019
6497 Haze 17 1030 67 4828 2.1 70 16:24 12.06.2019
6498 Mist 15 1027 76 8047 3.1 90 15:56 12.06.2019
6499 Mist 15 1027 76 8047 3.1 90 15:32 12.06.2019
6500 Clouds 14 1027 76 8047 2.6 80 14:50 12.06.2019
6501 Clouds 14 1027 76 8047 2.6 80 14:30 12.06.2019
6502 Clear 13 1027 72 9656 3.6 90 13:55 12.06.2019
6503 Clear 13 1027 72 9656 3.6 90 13:37 12.06.2019
6504 Clouds 13 1027 72 11265 2.1 300 13:18 12.06.2019
6505 Clouds 14 1027 72 11265 2.1 300 12:40 12.06.2019
6506 Clouds 14 1027 67 12874 1.5 360 12:20 12.06.2019
6507 Clouds 14 1027 67 12874 1.5 360 11:47 12.06.2019
6508 Clouds 14 1027 67 12874 1.5 360 11:29 12.06.2019
6509 Clouds 15 1028 63 12874 3.1 20 10:55 12.06.2019
6510 -273 0 0 0 0 0 10:36 12.06.2019
6511 Clouds 16 1028 59 14484 3.6 300 09:59 12.06.2019
6512 Clouds 16 1028 59 14484 3.6 300 09:40 12.06.2019
6513 Clouds 16 1028 55 16093 3.6 310 09:18 12.06.2019
6514 Clouds 16 1029 52 16093 5.1 310 08:27 12.06.2019
6515 Clouds 17 1029 52 16093 5.1 310 07:52 12.06.2019
6516 Clouds 17 1028 52 16093 3.6 360 06:57 12.06.2019
6517 Clouds 18 1028 52 16093 3.6 360 06:33 12.06.2019
6518 Clouds 19 1027 45 16093 6.2 30 05:25 12.06.2019
6519 Clouds 24 1025 27 16093 4.6 20 02:21 12.06.2019
6520 Clouds 26 1026 29 16093 6.2 30 00:46 12.06.2019
6521 Clouds 25 1027 31 19312 3.6 60 23:54 11.06.2019
6522 Clouds 25 1027 31 19312 3.6 60 23:35 11.06.2019
6523 Clouds 25 1028 31 19312 7.2 40 22:57 11.06.2019
6524 Clouds 25 1028 31 19312 7.2 40 22:38 11.06.2019
6525 Clouds 24 1029 33 19312 7.7 20 22:18 11.06.2019
6526 Clouds 24 1029 33 19312 7.7 20 22:18 11.06.2019
6527 Clouds 24 1029 33 19312 7.7 20 21:41 11.06.2019
6528 Clouds 23 1021 34 16093 2.6 200 21:23 11.06.2019
6529 Clouds 23 1030 37 14484 6.7 40 20:57 11.06.2019
6530 Clouds 23 1030 37 14484 6.7 40 20:39 11.06.2019
6531 Clouds 22 1030 37 14484 6.2 50 20:21 11.06.2019
6532 Clouds 21 1031 42 12874 6.7 50 19:50 11.06.2019
6533 Clouds 21 1031 42 12874 6.7 50 19:28 11.06.2019
6534 Clouds 20 1031 48 12874 5.7 30 18:49 11.06.2019
6535 Clouds 17 1031 52 12874 4.6 360 18:20 11.06.2019
6536 Clouds 16 1031 52 12874 4.6 360 18:20 11.06.2019
6537 Clouds 16 1031 52 12874 4.6 360 17:41 11.06.2019
6538 Clouds 17 1032 59 12874 2.6 30 17:20 11.06.2019
6539 Clouds 17 1032 59 12874 2.6 30 16:43 11.06.2019
6540 Clouds 17 1032 59 12874 2.6 30 16:24 11.06.2019
6541 Clouds 15 1031 62 12874 3.1 350 15:43 11.06.2019
6542 Clouds 15 1031 62 12874 3.1 350 15:25 11.06.2019
6543 Clouds 15 1031 62 16093 2.4 58.413 14:56 11.06.2019
6544 Clouds 15 1031 62 16093 2.4 58.413 14:38 11.06.2019
6545 Clouds 13 1031 71 19312 2.1 20 14:19 11.06.2019
6546 Clouds 13 1031 71 19312 2.1 20 13:42 11.06.2019
6547 Clouds 13 1031 71 19312 2.1 20 13:21 11.06.2019
6548 Clouds 13 1031 67 19312 3.6 20 12:42 11.06.2019
6549 Clouds 13 1031 67 19312 3.6 20 12:21 11.06.2019
6550 Clouds 14 1031 62 19312 3.1 20 11:54 11.06.2019
6551 Clouds 14 1031 62 19312 3.1 20 11:32 11.06.2019
6552 Clouds 14 1031 62 19312 5.1 30 10:51 11.06.2019
6553 Clouds 14 1031 62 19312 5.1 30 10:27 11.06.2019
6554 Clouds 14 1031 62 19312 5.1 30 10:27 11.06.2019
6555 Clouds 15 1032 63 16093 6.2 50 09:51 11.06.2019
6556 Clouds 15 1032 63 16093 6.2 50 09:26 11.06.2019
6557 Clouds 16 1033 59 12874 6.2 30 08:58 11.06.2019
6558 Clouds 16 1033 59 12874 6.2 30 08:40 11.06.2019
6559 Clouds 16 1032 55 11265 6.2 40 08:19 11.06.2019
6560 Clouds 17 1032 55 11265 6.2 40 07:33 11.06.2019
6561 Clouds 17 1031 55 11265 4.1 20 06:52 11.06.2019
6562 Clouds 17 1030 48 12874 7.7 40 05:21 11.06.2019
6563 Clouds 18 1030 48 12874 7.7 40 04:36 11.06.2019
6564 Clouds 26 1027 23 16093 9.3 40 01:58 11.06.2019
6565 Clouds 26 1028 46 16093 11.3 60 00:50 11.06.2019
6566 Clouds 26 1028 29 16093 11.3 60 00:24 11.06.2019
6567 Clouds 26 1028 14 16093 7.2 50 23:44 10.06.2019
6568 Clouds 26 1029 16 12874 8.2 50 23:21 10.06.2019
6569 Clouds 26 1029 16 12874 8.2 50 22:43 10.06.2019
6570 Clouds 26 1029 16 12874 8.2 50 22:25 10.06.2019
6571 Dust 26 1029 15 12874 13.9 70 21:56 10.06.2019
6572 Dust 26 1029 15 12874 13.9 70 21:38 10.06.2019
6573 Dust 26 1029 14 12874 14.4 70 21:19 10.06.2019
6574 Dust 26 1029 14 12874 14.4 70 20:41 10.06.2019
6575 Clouds 24 1030 15 16093 8.7 40 20:21 10.06.2019
6576 Clouds 24 1030 15 16093 8.7 40 19:44 10.06.2019
6577 Clouds 23 1031 21 16093 3.6 360 19:22 10.06.2019
6578 Clouds 22 1031 21 16093 3.6 360 18:56 10.06.2019
6579 Clouds 22 1031 21 16093 3.6 360 18:38 10.06.2019
6580 Clouds 19 1031 38 16093 4.6 20 18:19 10.06.2019
6581 Clouds 19 1031 38 16093 4.6 20 18:19 10.06.2019
6582 Clouds 18 1031 38 16093 4.6 20 17:43 10.06.2019
6583 Clouds 19 1032 39 14484 2.1 360 17:24 10.06.2019
6584 Clouds 18 1032 39 14484 2.1 360 16:49 10.06.2019
6585 Clouds 18 1032 39 14484 2.1 360 16:30 10.06.2019
6586 Clouds 16 1031 54 14484 3.6 110 15:57 10.06.2019
6587 Clouds 16 1031 54 14484 3.6 110 15:38 10.06.2019
6588 Clouds 12 1030 58 12874 2.1 90 15:20 10.06.2019
6589 Clouds 12 1030 58 12874 2.1 90 14:41 10.06.2019
6590 Clouds 13 1029 59 11265 4.1 300 14:23 10.06.2019
6591 Clouds 13 1029 59 11265 4.1 300 13:46 10.06.2019
6592 Clouds 13 1029 59 11265 4.1 300 13:26 10.06.2019
6593 Clouds 14 1029 59 11265 4.1 280 12:53 10.06.2019
6594 Clouds 14 1029 59 11265 4.1 280 12:30 10.06.2019
6595 Clouds 14 1029 55 12874 2.1 20 11:54 10.06.2019
6596 Clouds 14 1029 55 12874 2.1 20 11:30 10.06.2019
6597 Clear 15 1030 45 12874 2.6 20 10:59 10.06.2019
6598 Clear 15 1030 45 12874 2.6 20 10:40 10.06.2019
6599 Clear 15 1030 59 12874 4.1 30 10:18 10.06.2019
6600 Clear 16 1030 59 12874 4.1 30 09:50 10.06.2019
6601 Clear 16 1030 59 12874 4.1 30 09:29 10.06.2019
6602 Clear 16 1030 59 12874 4.1 30 09:29 10.06.2019
6603 Clear 17 1030 55 12874 3.1 320 08:48 10.06.2019
6604 Clear 17 1030 55 12874 3.1 320 08:26 10.06.2019
6605 Clear 18 1029 55 12874 4.1 350 07:40 10.06.2019
6606 Clouds 20 1027 35 17702 5.1 30 04:42 10.06.2019
6607 Clouds 26 1025 26 16093 6.2 40 02:29 10.06.2019
6608 Clouds 27 1025 24 16093 6.2 40 01:49 10.06.2019
6609 Clouds 28 1025 21 16093 5.1 40 00:59 10.06.2019
6610 Clouds 28 1025 21 16093 5.1 40 00:36 10.06.2019
6611 Clouds 28 1025 20 16093 3.1 40 23:46 09.06.2019
6612 Clouds 28 1025 20 16093 3.1 40 23:21 09.06.2019
6613 Clouds 27 1026 21 16093 3.6 330 22:46 09.06.2019
6614 Clouds 27 1026 21 16093 3.6 330 22:26 09.06.2019
6615 Clouds 28 1027 19 16093 6.2 60 21:47 09.06.2019
6616 Clouds 24 1028 27 16093 4.1 80 21:28 09.06.2019
6617 Clouds 26 1028 27 16093 4.1 80 20:58 09.06.2019
6618 Clouds 26 1028 27 16093 4.1 80 20:40 09.06.2019
6619 Clouds 25 1028 29 14484 3.6 360 20:21 09.06.2019
6620 Clouds 24 1028 29 14484 3.6 360 19:42 09.06.2019
6621 Haze 23 1028 31 14484 2.6 50 19:18 09.06.2019
6622 Haze 22 1029 46 12874 2.6 50 18:43 09.06.2019
6623 Haze 22 1029 46 12874 2.6 50 18:25 09.06.2019
6624 Haze 20 1029 63 11265 2.1 140 17:53 09.06.2019
6625 Haze 20 1029 63 11265 2.1 140 17:30 09.06.2019
6626 Haze 18 1029 72 11265 2.1 100 16:58 09.06.2019
6627 Haze 18 1029 72 11265 2.1 100 16:39 09.06.2019
6628 Clouds 16 1028 77 12874 2.6 80 16:20 09.06.2019
6629 Clouds 16 1028 77 12874 2.6 80 15:50 09.06.2019
6630 Clouds 16 1028 77 12874 2.6 80 15:29 09.06.2019
6631 Clouds 14 1028 87 11265 2.1 90 14:54 09.06.2019
6632 Clouds 14 1028 87 11265 2.1 90 14:34 09.06.2019
6633 Clear 12 1027 82 12874 2.1 60 13:57 09.06.2019
6634 Clear 13 1027 82 12874 2.1 60 13:39 09.06.2019
6635 Clear 13 1027 77 12874 0.89 62.916 12:55 09.06.2019
6636 Clear 13 1027 77 12874 0.89 62.916 12:34 09.06.2019
6637 Clear 14 1027 72 16093 1.34 53.48 11:51 09.06.2019
6638 Clear 14 1027 72 16093 1.34 53.48 11:30 09.06.2019
6639 Clouds 15 1027 68 16093 2.6 90 10:58 09.06.2019
6640 Clouds 15 1027 68 16093 2.6 90 10:58 09.06.2019
6641 Clouds 15 1027 68 16093 2.6 90 10:38 09.06.2019
6642 Clouds 15 1029 71 9656 1.5 80 10:19 09.06.2019
6643 Clouds 15 1029 71 9656 1.5 80 10:19 09.06.2019
6644 Clouds 17 1027 55 16093 3.6 30 09:38 09.06.2019
6645 Clouds 17 1030 59 9656 1.5 90 09:19 09.06.2019
6646 Clouds 17 1030 59 9656 1.5 90 09:19 09.06.2019
6647 Clouds 19 1028 56 16093 5.1 320 08:44 09.06.2019
6648 Clouds 19 1028 52 16093 4.1 10 07:52 09.06.2019
6649 Clouds 19 1027 52 16093 6.2 30 06:44 09.06.2019
6650 Thunderstorm 20 1026 46 16093 7.2 40 05:55 09.06.2019
6651 Clouds 25 1023 26 16093 6.7 30 02:55 09.06.2019
6652 Clouds 27 1023 24 16093 7.2 70 01:37 09.06.2019
6653 Thunderstorm 28 1026 27 11265 6.7 40 01:19 09.06.2019
6654 Thunderstorm 28 1026 27 11265 6.7 40 00:29 09.06.2019
6655 Clouds 27 1024 30 16093 5.1 50 23:41 08.06.2019
6656 Clouds 27 1025 30 16093 5.1 50 23:22 08.06.2019
6657 Clouds 27 1025 30 16093 5.1 50 22:45 08.06.2019
6658 Clouds 27 1025 30 16093 5.1 50 22:26 08.06.2019
6659 Clouds 26 1026 36 8047 5.1 50 21:58 08.06.2019
6660 Clouds 26 1026 36 8047 5.1 50 21:39 08.06.2019
6661 Clouds 26 1026 38 8047 4.1 60 21:20 08.06.2019
6662 Clouds 26 1026 38 8047 4.1 60 20:43 08.06.2019
6663 Clouds 26 1026 38 8047 4.1 60 20:25 08.06.2019
6664 Clouds 23 1027 49 9656 2.6 340 19:55 08.06.2019
6665 Clouds 23 1027 49 9656 2.6 340 19:36 08.06.2019
6666 Clouds 21 1027 49 9656 1 260 19:18 08.06.2019
6667 Clouds 21 1027 64 8047 3.1 260 18:40 08.06.2019
6668 Mist 19 1027 68 8047 1 120 18:20 08.06.2019
6669 Mist 19 1027 68 8047 1 120 17:43 08.06.2019
6670 Mist 17 1020 77 32186 1.5 200 17:19 08.06.2019
6671 Mist 15 1027 77 9656 2.1 190 16:47 08.06.2019
6672 Mist 16 1027 77 9656 2.1 190 16:28 08.06.2019
6673 Mist 14 1026 87 12874 1.5 80 15:49 08.06.2019
6674 Mist 14 1026 87 12874 1.5 80 15:30 08.06.2019
6675 Clouds 14 1026 87 9656 2.1 70 14:47 08.06.2019
6676 Clouds 14 1026 87 9656 2.1 70 14:28 08.06.2019
6677 Clouds 12